<?xml version="1.0" encoding="UTF-8" standalone="no" ?>
<gpx xmlns="http://www.topografix.com/GPX/1/1" xmlns:xsi="http://www.w3.org/2001/XMLSchema-instance" xsi:schemaLocation="http://www.topografix.com/GPX/1/1 http://www.topografix.com/GPX/1/1/gpx.xsd" version="1.1" creator="VisuGPX - https://www.visugpx.com">
  <metadata>
    <name>Soum de LASCOURS</name>
    <desc><![CDATA[Collective CAF de Pau]]></desc>
  </metadata>
  <trk>
    <name><![CDATA[COL LASCOURS]]></name>
    <trkseg>
      <trkpt lat="42.97196" lon="-0.00306">
        <ele>1483.45</ele>
        <time>2013-01-06T07:26:05Z</time>
      </trkpt>
      <trkpt lat="42.97196" lon="-0.00306">
        <ele>1487.78</ele>
        <time>2013-01-06T07:26:06Z</time>
      </trkpt>
      <trkpt lat="42.97196" lon="-0.00306">
        <ele>1493.06</ele>
        <time>2013-01-06T07:26:07Z</time>
      </trkpt>
      <trkpt lat="42.97197" lon="-0.00307">
        <ele>1496.43</ele>
        <time>2013-01-06T07:26:08Z</time>
      </trkpt>
      <trkpt lat="42.97197" lon="-0.00307">
        <ele>1500.27</ele>
        <time>2013-01-06T07:26:09Z</time>
      </trkpt>
      <trkpt lat="42.97197" lon="-0.00307">
        <ele>1503.64</ele>
        <time>2013-01-06T07:26:10Z</time>
      </trkpt>
      <trkpt lat="42.97197" lon="-0.00307">
        <ele>1507</ele>
        <time>2013-01-06T07:26:11Z</time>
      </trkpt>
      <trkpt lat="42.97197" lon="-0.00307">
        <ele>1510.85</ele>
        <time>2013-01-06T07:26:12Z</time>
      </trkpt>
      <trkpt lat="42.97197" lon="-0.00307">
        <ele>1514.69</ele>
        <time>2013-01-06T07:26:13Z</time>
      </trkpt>
      <trkpt lat="42.97197" lon="-0.00307">
        <ele>1518.06</ele>
        <time>2013-01-06T07:26:14Z</time>
      </trkpt>
      <trkpt lat="42.97197" lon="-0.00308">
        <ele>1520.94</ele>
        <time>2013-01-06T07:26:15Z</time>
      </trkpt>
      <trkpt lat="42.97197" lon="-0.00307">
        <ele>1526.71</ele>
        <time>2013-01-06T07:26:17Z</time>
      </trkpt>
      <trkpt lat="42.97197" lon="-0.00307">
        <ele>1530.08</ele>
        <time>2013-01-06T07:26:18Z</time>
      </trkpt>
      <trkpt lat="42.97197" lon="-0.00307">
        <ele>1535.84</ele>
        <time>2013-01-06T07:26:20Z</time>
      </trkpt>
      <trkpt lat="42.97197" lon="-0.00307">
        <ele>1540.65</ele>
        <time>2013-01-06T07:26:22Z</time>
      </trkpt>
      <trkpt lat="42.97197" lon="-0.00307">
        <ele>1545.46</ele>
        <time>2013-01-06T07:26:24Z</time>
      </trkpt>
      <trkpt lat="42.97196" lon="-0.00306">
        <ele>1550.26</ele>
        <time>2013-01-06T07:26:26Z</time>
      </trkpt>
      <trkpt lat="42.97196" lon="-0.00307">
        <ele>1554.59</ele>
        <time>2013-01-06T07:26:28Z</time>
      </trkpt>
      <trkpt lat="42.97197" lon="-0.00307">
        <ele>1557.95</ele>
        <time>2013-01-06T07:26:30Z</time>
      </trkpt>
      <trkpt lat="42.97197" lon="-0.00306">
        <ele>1562.28</ele>
        <time>2013-01-06T07:26:32Z</time>
      </trkpt>
      <trkpt lat="42.97197" lon="-0.00306">
        <ele>1565.64</ele>
        <time>2013-01-06T07:26:34Z</time>
      </trkpt>
      <trkpt lat="42.97197" lon="-0.00306">
        <ele>1568.53</ele>
        <time>2013-01-06T07:26:36Z</time>
      </trkpt>
      <trkpt lat="42.97197" lon="-0.00306">
        <ele>1571.89</ele>
        <time>2013-01-06T07:26:38Z</time>
      </trkpt>
      <trkpt lat="42.97196" lon="-0.00305">
        <ele>1575.74</ele>
        <time>2013-01-06T07:26:41Z</time>
      </trkpt>
      <trkpt lat="42.97196" lon="-0.00306">
        <ele>1579.1</ele>
        <time>2013-01-06T07:26:44Z</time>
      </trkpt>
      <trkpt lat="42.97195" lon="-0.00305">
        <ele>1583.43</ele>
        <time>2013-01-06T07:26:47Z</time>
      </trkpt>
      <trkpt lat="42.97196" lon="-0.00306">
        <ele>1586.31</ele>
        <time>2013-01-06T07:26:50Z</time>
      </trkpt>
      <trkpt lat="42.97196" lon="-0.00305">
        <ele>1588.24</ele>
        <time>2013-01-06T07:26:53Z</time>
      </trkpt>
      <trkpt lat="42.97196" lon="-0.00305">
        <ele>1591.12</ele>
        <time>2013-01-06T07:26:56Z</time>
      </trkpt>
      <trkpt lat="42.97195" lon="-0.00304">
        <ele>1594.48</ele>
        <time>2013-01-06T07:27:00Z</time>
      </trkpt>
      <trkpt lat="42.97194" lon="-0.00304">
        <ele>1596.41</ele>
        <time>2013-01-06T07:27:03Z</time>
      </trkpt>
      <trkpt lat="42.97194" lon="-0.00304">
        <ele>1599.29</ele>
        <time>2013-01-06T07:27:09Z</time>
      </trkpt>
      <trkpt lat="42.97195" lon="-0.00305">
        <ele>1602.66</ele>
        <time>2013-01-06T07:27:15Z</time>
      </trkpt>
      <trkpt lat="42.97199" lon="-0.00306">
        <ele>1605.06</ele>
        <time>2013-01-06T07:27:25Z</time>
      </trkpt>
      <trkpt lat="42.97199" lon="-0.00306">
        <ele>1606.02</ele>
        <time>2013-01-06T07:27:26Z</time>
      </trkpt>
      <trkpt lat="42.97196" lon="-0.00306">
        <ele>1606.98</ele>
        <time>2013-01-06T07:27:38Z</time>
      </trkpt>
      <trkpt lat="42.97196" lon="-0.00306">
        <ele>1607.46</ele>
        <time>2013-01-06T07:27:39Z</time>
      </trkpt>
      <trkpt lat="42.97195" lon="-0.00307">
        <ele>1607.94</ele>
        <time>2013-01-06T07:27:44Z</time>
      </trkpt>
      <trkpt lat="42.97194" lon="-0.00305">
        <ele>1608.42</ele>
        <time>2013-01-06T07:27:47Z</time>
      </trkpt>
      <trkpt lat="42.97192" lon="-0.00304">
        <ele>1608.42</ele>
        <time>2013-01-06T07:27:49Z</time>
      </trkpt>
      <trkpt lat="42.97191" lon="-0.00302">
        <ele>1608.9</ele>
        <time>2013-01-06T07:27:51Z</time>
      </trkpt>
      <trkpt lat="42.97189" lon="-0.00302">
        <ele>1608.9</ele>
        <time>2013-01-06T07:27:53Z</time>
      </trkpt>
      <trkpt lat="42.97187" lon="-0.00298">
        <ele>1608.9</ele>
        <time>2013-01-06T07:27:57Z</time>
      </trkpt>
      <trkpt lat="42.97185" lon="-0.00297">
        <ele>1608.9</ele>
        <time>2013-01-06T07:27:59Z</time>
      </trkpt>
      <trkpt lat="42.97179" lon="-0.00292">
        <ele>1608.42</ele>
        <time>2013-01-06T07:28:11Z</time>
      </trkpt>
      <trkpt lat="42.9718" lon="-0.00292">
        <ele>1607.46</ele>
        <time>2013-01-06T07:28:22Z</time>
      </trkpt>
      <trkpt lat="42.9718" lon="-0.00292">
        <ele>1607.46</ele>
        <time>2013-01-06T07:28:55Z</time>
      </trkpt>
      <trkpt lat="42.97179" lon="-0.00291">
        <ele>1607.46</ele>
        <time>2013-01-06T07:29:30Z</time>
      </trkpt>
      <trkpt lat="42.97179" lon="-0.00291">
        <ele>1606.98</ele>
        <time>2013-01-06T07:30:02Z</time>
      </trkpt>
      <trkpt lat="42.97179" lon="-0.00291">
        <ele>1607.46</ele>
        <time>2013-01-06T07:30:37Z</time>
      </trkpt>
      <trkpt lat="42.97179" lon="-0.00291">
        <ele>1607.46</ele>
        <time>2013-01-06T07:31:06Z</time>
      </trkpt>
      <trkpt lat="42.97178" lon="-0.00291">
        <ele>1608.42</ele>
        <time>2013-01-06T07:31:38Z</time>
      </trkpt>
      <trkpt lat="42.97176" lon="-0.00297">
        <ele>1608.42</ele>
        <time>2013-01-06T07:31:49Z</time>
      </trkpt>
      <trkpt lat="42.97176" lon="-0.00297">
        <ele>1608.42</ele>
        <time>2013-01-06T07:32:04Z</time>
      </trkpt>
      <trkpt lat="42.97176" lon="-0.00297">
        <ele>1608.42</ele>
        <time>2013-01-06T07:32:26Z</time>
      </trkpt>
      <trkpt lat="42.97175" lon="-0.00298">
        <ele>1608.9</ele>
        <time>2013-01-06T07:32:58Z</time>
      </trkpt>
      <trkpt lat="42.97176" lon="-0.00296">
        <ele>1608.9</ele>
        <time>2013-01-06T07:33:15Z</time>
      </trkpt>
      <trkpt lat="42.97177" lon="-0.00293">
        <ele>1608.9</ele>
        <time>2013-01-06T07:33:30Z</time>
      </trkpt>
      <trkpt lat="42.97181" lon="-0.00293">
        <ele>1607.94</ele>
        <time>2013-01-06T07:33:39Z</time>
      </trkpt>
      <trkpt lat="42.97187" lon="-0.00292">
        <ele>1607.94</ele>
        <time>2013-01-06T07:33:48Z</time>
      </trkpt>
      <trkpt lat="42.97187" lon="-0.00292">
        <ele>1607.94</ele>
        <time>2013-01-06T07:33:58Z</time>
      </trkpt>
      <trkpt lat="42.97186" lon="-0.00292">
        <ele>1607.94</ele>
        <time>2013-01-06T07:34:03Z</time>
      </trkpt>
      <trkpt lat="42.97181" lon="-0.00293">
        <ele>1607.94</ele>
        <time>2013-01-06T07:34:13Z</time>
      </trkpt>
      <trkpt lat="42.9718" lon="-0.00293">
        <ele>1607.94</ele>
        <time>2013-01-06T07:34:26Z</time>
      </trkpt>
      <trkpt lat="42.97181" lon="-0.00293">
        <ele>1607.94</ele>
        <time>2013-01-06T07:34:36Z</time>
      </trkpt>
      <trkpt lat="42.9718" lon="-0.00294">
        <ele>1607.94</ele>
        <time>2013-01-06T07:34:53Z</time>
      </trkpt>
      <trkpt lat="42.9718" lon="-0.00294">
        <ele>1607.94</ele>
        <time>2013-01-06T07:35:11Z</time>
      </trkpt>
      <trkpt lat="42.9718" lon="-0.00294">
        <ele>1607.94</ele>
        <time>2013-01-06T07:35:15Z</time>
      </trkpt>
      <trkpt lat="42.9718" lon="-0.00293">
        <ele>1607.46</ele>
        <time>2013-01-06T07:35:24Z</time>
      </trkpt>
      <trkpt lat="42.97179" lon="-0.00293">
        <ele>1607.94</ele>
        <time>2013-01-06T07:35:33Z</time>
      </trkpt>
      <trkpt lat="42.97179" lon="-0.00292">
        <ele>1608.9</ele>
        <time>2013-01-06T07:35:50Z</time>
      </trkpt>
      <trkpt lat="42.9718" lon="-0.00293">
        <ele>1608.9</ele>
        <time>2013-01-06T07:36:03Z</time>
      </trkpt>
      <trkpt lat="42.9718" lon="-0.00294">
        <ele>1608.42</ele>
        <time>2013-01-06T07:36:16Z</time>
      </trkpt>
      <trkpt lat="42.9718" lon="-0.0029">
        <ele>1608.42</ele>
        <time>2013-01-06T07:36:27Z</time>
      </trkpt>
      <trkpt lat="42.9718" lon="-0.00289">
        <ele>1607.94</ele>
        <time>2013-01-06T07:36:38Z</time>
      </trkpt>
      <trkpt lat="42.9718" lon="-0.00289">
        <ele>1607.94</ele>
        <time>2013-01-06T07:36:41Z</time>
      </trkpt>
      <trkpt lat="42.97176" lon="-0.00287">
        <ele>1607.46</ele>
        <time>2013-01-06T07:36:50Z</time>
      </trkpt>
      <trkpt lat="42.97169" lon="-0.00287">
        <ele>1607.46</ele>
        <time>2013-01-06T07:37:00Z</time>
      </trkpt>
      <trkpt lat="42.97161" lon="-0.00287">
        <ele>1607.94</ele>
        <time>2013-01-06T07:37:09Z</time>
      </trkpt>
      <trkpt lat="42.97153" lon="-0.00288">
        <ele>1607.46</ele>
        <time>2013-01-06T07:37:19Z</time>
      </trkpt>
      <trkpt lat="42.9715" lon="-0.00287">
        <ele>1606.98</ele>
        <time>2013-01-06T07:37:22Z</time>
      </trkpt>
      <trkpt lat="42.97148" lon="-0.00287">
        <ele>1606.5</ele>
        <time>2013-01-06T07:37:25Z</time>
      </trkpt>
      <trkpt lat="42.97138" lon="-0.00291">
        <ele>1606.98</ele>
        <time>2013-01-06T07:37:36Z</time>
      </trkpt>
      <trkpt lat="42.97136" lon="-0.00291">
        <ele>1606.98</ele>
        <time>2013-01-06T07:37:38Z</time>
      </trkpt>
      <trkpt lat="42.9713" lon="-0.00292">
        <ele>1606.5</ele>
        <time>2013-01-06T07:37:44Z</time>
      </trkpt>
      <trkpt lat="42.97128" lon="-0.00291">
        <ele>1606.5</ele>
        <time>2013-01-06T07:37:46Z</time>
      </trkpt>
      <trkpt lat="42.97125" lon="-0.00292">
        <ele>1606.5</ele>
        <time>2013-01-06T07:38:01Z</time>
      </trkpt>
      <trkpt lat="42.97125" lon="-0.00292">
        <ele>1606.02</ele>
        <time>2013-01-06T07:38:22Z</time>
      </trkpt>
      <trkpt lat="42.97125" lon="-0.00292">
        <ele>1605.54</ele>
        <time>2013-01-06T07:38:40Z</time>
      </trkpt>
      <trkpt lat="42.97125" lon="-0.00292">
        <ele>1606.02</ele>
        <time>2013-01-06T07:38:58Z</time>
      </trkpt>
      <trkpt lat="42.97125" lon="-0.00292">
        <ele>1606.02</ele>
        <time>2013-01-06T07:39:14Z</time>
      </trkpt>
      <trkpt lat="42.97126" lon="-0.00293">
        <ele>1606.02</ele>
        <time>2013-01-06T07:39:27Z</time>
      </trkpt>
      <trkpt lat="42.97126" lon="-0.00293">
        <ele>1606.02</ele>
        <time>2013-01-06T07:39:53Z</time>
      </trkpt>
      <trkpt lat="42.97126" lon="-0.00293">
        <ele>1605.54</ele>
        <time>2013-01-06T07:40:10Z</time>
      </trkpt>
      <trkpt lat="42.97126" lon="-0.00293">
        <ele>1606.02</ele>
        <time>2013-01-06T07:40:24Z</time>
      </trkpt>
      <trkpt lat="42.97126" lon="-0.00293">
        <ele>1606.02</ele>
        <time>2013-01-06T07:40:43Z</time>
      </trkpt>
      <trkpt lat="42.97126" lon="-0.00293">
        <ele>1606.02</ele>
        <time>2013-01-06T07:40:46Z</time>
      </trkpt>
      <trkpt lat="42.97112" lon="-0.00288">
        <ele>1605.54</ele>
        <time>2013-01-06T07:40:59Z</time>
      </trkpt>
      <trkpt lat="42.97098" lon="-0.00282">
        <ele>1606.5</ele>
        <time>2013-01-06T07:41:13Z</time>
      </trkpt>
      <trkpt lat="42.97089" lon="-0.00277">
        <ele>1607.46</ele>
        <time>2013-01-06T07:41:26Z</time>
      </trkpt>
      <trkpt lat="42.97087" lon="-0.00277">
        <ele>1607.94</ele>
        <time>2013-01-06T07:41:29Z</time>
      </trkpt>
      <trkpt lat="42.97077" lon="-0.00273">
        <ele>1609.38</ele>
        <time>2013-01-06T07:41:42Z</time>
      </trkpt>
      <trkpt lat="42.97069" lon="-0.0027">
        <ele>1611.79</ele>
        <time>2013-01-06T07:41:55Z</time>
      </trkpt>
      <trkpt lat="42.97061" lon="-0.00266">
        <ele>1613.23</ele>
        <time>2013-01-06T07:42:06Z</time>
      </trkpt>
      <trkpt lat="42.97052" lon="-0.00262">
        <ele>1615.63</ele>
        <time>2013-01-06T07:42:21Z</time>
      </trkpt>
      <trkpt lat="42.97045" lon="-0.00258">
        <ele>1618.52</ele>
        <time>2013-01-06T07:42:35Z</time>
      </trkpt>
      <trkpt lat="42.9704" lon="-0.00256">
        <ele>1619.96</ele>
        <time>2013-01-06T07:42:48Z</time>
      </trkpt>
      <trkpt lat="42.97032" lon="-0.0025">
        <ele>1621.88</ele>
        <time>2013-01-06T07:43:03Z</time>
      </trkpt>
      <trkpt lat="42.97026" lon="-0.00248">
        <ele>1623.8</ele>
        <time>2013-01-06T07:43:14Z</time>
      </trkpt>
      <trkpt lat="42.97018" lon="-0.00241">
        <ele>1625.25</ele>
        <time>2013-01-06T07:43:27Z</time>
      </trkpt>
      <trkpt lat="42.97013" lon="-0.00238">
        <ele>1627.65</ele>
        <time>2013-01-06T07:43:40Z</time>
      </trkpt>
      <trkpt lat="42.97007" lon="-0.00232">
        <ele>1630.05</ele>
        <time>2013-01-06T07:43:56Z</time>
      </trkpt>
      <trkpt lat="42.96999" lon="-0.00225">
        <ele>1632.46</ele>
        <time>2013-01-06T07:44:11Z</time>
      </trkpt>
      <trkpt lat="42.96994" lon="-0.00221">
        <ele>1634.86</ele>
        <time>2013-01-06T07:44:27Z</time>
      </trkpt>
      <trkpt lat="42.96988" lon="-0.00216">
        <ele>1637.26</ele>
        <time>2013-01-06T07:44:42Z</time>
      </trkpt>
      <trkpt lat="42.96979" lon="-0.00207">
        <ele>1640.15</ele>
        <time>2013-01-06T07:44:58Z</time>
      </trkpt>
      <trkpt lat="42.96976" lon="-0.00203">
        <ele>1641.59</ele>
        <time>2013-01-06T07:45:05Z</time>
      </trkpt>
      <trkpt lat="42.96969" lon="-0.00197">
        <ele>1643.51</ele>
        <time>2013-01-06T07:45:20Z</time>
      </trkpt>
      <trkpt lat="42.96968" lon="-0.00197">
        <ele>1647.84</ele>
        <time>2013-01-06T07:45:34Z</time>
      </trkpt>
      <trkpt lat="42.96961" lon="-0.00192">
        <ele>1647.36</ele>
        <time>2013-01-06T07:45:47Z</time>
      </trkpt>
      <trkpt lat="42.96958" lon="-0.00187">
        <ele>1649.76</ele>
        <time>2013-01-06T07:46:02Z</time>
      </trkpt>
      <trkpt lat="42.96949" lon="-0.00179">
        <ele>1652.16</ele>
        <time>2013-01-06T07:46:16Z</time>
      </trkpt>
      <trkpt lat="42.96944" lon="-0.00178">
        <ele>1655.05</ele>
        <time>2013-01-06T07:46:31Z</time>
      </trkpt>
      <trkpt lat="42.96939" lon="-0.00175">
        <ele>1658.41</ele>
        <time>2013-01-06T07:46:48Z</time>
      </trkpt>
      <trkpt lat="42.96933" lon="-0.00169">
        <ele>1660.81</ele>
        <time>2013-01-06T07:47:02Z</time>
      </trkpt>
      <trkpt lat="42.96922" lon="-0.00158">
        <ele>1663.22</ele>
        <time>2013-01-06T07:47:15Z</time>
      </trkpt>
      <trkpt lat="42.96916" lon="-0.00148">
        <ele>1666.1</ele>
        <time>2013-01-06T07:47:28Z</time>
      </trkpt>
      <trkpt lat="42.96907" lon="-0.0014">
        <ele>1668.02</ele>
        <time>2013-01-06T07:47:42Z</time>
      </trkpt>
      <trkpt lat="42.96899" lon="-0.00131">
        <ele>1668.51</ele>
        <time>2013-01-06T07:47:56Z</time>
      </trkpt>
      <trkpt lat="42.96899" lon="-0.00129">
        <ele>1668.99</ele>
        <time>2013-01-06T07:48:09Z</time>
      </trkpt>
      <trkpt lat="42.96896" lon="-0.00121">
        <ele>1670.43</ele>
        <time>2013-01-06T07:48:24Z</time>
      </trkpt>
      <trkpt lat="42.96895" lon="-0.00114">
        <ele>1670.43</ele>
        <time>2013-01-06T07:48:47Z</time>
      </trkpt>
      <trkpt lat="42.96895" lon="-0.00113">
        <ele>1670.43</ele>
        <time>2013-01-06T07:49:12Z</time>
      </trkpt>
      <trkpt lat="42.96894" lon="-0.00112">
        <ele>1670.43</ele>
        <time>2013-01-06T07:49:35Z</time>
      </trkpt>
      <trkpt lat="42.96894" lon="-0.00111">
        <ele>1670.91</ele>
        <time>2013-01-06T07:50:00Z</time>
      </trkpt>
      <trkpt lat="42.96894" lon="-0.0011">
        <ele>1670.91</ele>
        <time>2013-01-06T07:50:14Z</time>
      </trkpt>
      <trkpt lat="42.96893" lon="-0.00109">
        <ele>1670.91</ele>
        <time>2013-01-06T07:50:42Z</time>
      </trkpt>
      <trkpt lat="42.96893" lon="-0.00109">
        <ele>1670.91</ele>
        <time>2013-01-06T07:50:54Z</time>
      </trkpt>
      <trkpt lat="42.96891" lon="-0.00107">
        <ele>1671.39</ele>
        <time>2013-01-06T07:50:58Z</time>
      </trkpt>
      <trkpt lat="42.96884" lon="-0.001">
        <ele>1670.91</ele>
        <time>2013-01-06T07:51:06Z</time>
      </trkpt>
      <trkpt lat="42.96881" lon="-0.00099">
        <ele>1670.43</ele>
        <time>2013-01-06T07:51:09Z</time>
      </trkpt>
      <trkpt lat="42.96876" lon="-0.00087">
        <ele>1669.95</ele>
        <time>2013-01-06T07:51:22Z</time>
      </trkpt>
      <trkpt lat="42.96876" lon="-0.00085">
        <ele>1670.43</ele>
        <time>2013-01-06T07:51:23Z</time>
      </trkpt>
      <trkpt lat="42.96877" lon="-0.00069">
        <ele>1670.43</ele>
        <time>2013-01-06T07:51:36Z</time>
      </trkpt>
      <trkpt lat="42.96877" lon="-0.00058">
        <ele>1670.43</ele>
        <time>2013-01-06T07:51:44Z</time>
      </trkpt>
      <trkpt lat="42.96877" lon="-0.00055">
        <ele>1669.95</ele>
        <time>2013-01-06T07:51:46Z</time>
      </trkpt>
      <trkpt lat="42.96877" lon="-0.00052">
        <ele>1669.95</ele>
        <time>2013-01-06T07:51:48Z</time>
      </trkpt>
      <trkpt lat="42.96875" lon="-0.00032">
        <ele>1669.47</ele>
        <time>2013-01-06T07:52:02Z</time>
      </trkpt>
      <trkpt lat="42.96875" lon="-0.00021">
        <ele>1669.47</ele>
        <time>2013-01-06T07:52:15Z</time>
      </trkpt>
      <trkpt lat="42.96874" lon="-0.00016">
        <ele>1668.99</ele>
        <time>2013-01-06T07:52:27Z</time>
      </trkpt>
      <trkpt lat="42.96874" lon="-0.00016">
        <ele>1668.99</ele>
        <time>2013-01-06T07:52:45Z</time>
      </trkpt>
      <trkpt lat="42.96874" lon="-0.00016">
        <ele>1668.51</ele>
        <time>2013-01-06T07:53:11Z</time>
      </trkpt>
      <trkpt lat="42.96874" lon="-0.00016">
        <ele>1668.99</ele>
        <time>2013-01-06T07:53:39Z</time>
      </trkpt>
      <trkpt lat="42.96873" lon="-9.0E-5">
        <ele>1668.99</ele>
        <time>2013-01-06T07:53:55Z</time>
      </trkpt>
      <trkpt lat="42.96872" lon="3.0E-5">
        <ele>1668.51</ele>
        <time>2013-01-06T07:54:08Z</time>
      </trkpt>
      <trkpt lat="42.96872" lon="8.0E-5">
        <ele>1668.51</ele>
        <time>2013-01-06T07:54:12Z</time>
      </trkpt>
      <trkpt lat="42.96871" lon="0.00014">
        <ele>1668.02</ele>
        <time>2013-01-06T07:54:16Z</time>
      </trkpt>
      <trkpt lat="42.96871" lon="0.00031">
        <ele>1667.54</ele>
        <time>2013-01-06T07:54:28Z</time>
      </trkpt>
      <trkpt lat="42.96871" lon="0.00033">
        <ele>1668.02</ele>
        <time>2013-01-06T07:54:30Z</time>
      </trkpt>
      <trkpt lat="42.96874" lon="0.00053">
        <ele>1667.54</ele>
        <time>2013-01-06T07:54:43Z</time>
      </trkpt>
      <trkpt lat="42.96875" lon="0.00059">
        <ele>1668.02</ele>
        <time>2013-01-06T07:54:47Z</time>
      </trkpt>
      <trkpt lat="42.96877" lon="0.00065">
        <ele>1668.02</ele>
        <time>2013-01-06T07:54:51Z</time>
      </trkpt>
      <trkpt lat="42.96877" lon="0.00078">
        <ele>1667.06</ele>
        <time>2013-01-06T07:55:00Z</time>
      </trkpt>
      <trkpt lat="42.96876" lon="0.00082">
        <ele>1667.54</ele>
        <time>2013-01-06T07:55:03Z</time>
      </trkpt>
      <trkpt lat="42.96875" lon="0.00088">
        <ele>1668.02</ele>
        <time>2013-01-06T07:55:07Z</time>
      </trkpt>
      <trkpt lat="42.96874" lon="0.00093">
        <ele>1668.02</ele>
        <time>2013-01-06T07:55:11Z</time>
      </trkpt>
      <trkpt lat="42.96872" lon="0.00095">
        <ele>1668.51</ele>
        <time>2013-01-06T07:55:13Z</time>
      </trkpt>
      <trkpt lat="42.96867" lon="0.00106">
        <ele>1668.51</ele>
        <time>2013-01-06T07:55:23Z</time>
      </trkpt>
      <trkpt lat="42.96859" lon="0.00121">
        <ele>1668.51</ele>
        <time>2013-01-06T07:55:36Z</time>
      </trkpt>
      <trkpt lat="42.96854" lon="0.00133">
        <ele>1668.99</ele>
        <time>2013-01-06T07:55:47Z</time>
      </trkpt>
      <trkpt lat="42.96851" lon="0.0014">
        <ele>1668.99</ele>
        <time>2013-01-06T07:55:54Z</time>
      </trkpt>
      <trkpt lat="42.9685" lon="0.00143">
        <ele>1669.47</ele>
        <time>2013-01-06T07:55:56Z</time>
      </trkpt>
      <trkpt lat="42.96848" lon="0.00146">
        <ele>1669.47</ele>
        <time>2013-01-06T07:55:58Z</time>
      </trkpt>
      <trkpt lat="42.96846" lon="0.00155">
        <ele>1669.95</ele>
        <time>2013-01-06T07:56:05Z</time>
      </trkpt>
      <trkpt lat="42.96846" lon="0.00164">
        <ele>1669.95</ele>
        <time>2013-01-06T07:56:11Z</time>
      </trkpt>
      <trkpt lat="42.9685" lon="0.00182">
        <ele>1670.91</ele>
        <time>2013-01-06T07:56:24Z</time>
      </trkpt>
      <trkpt lat="42.96851" lon="0.00186">
        <ele>1671.39</ele>
        <time>2013-01-06T07:56:27Z</time>
      </trkpt>
      <trkpt lat="42.96852" lon="0.0019">
        <ele>1670.91</ele>
        <time>2013-01-06T07:56:30Z</time>
      </trkpt>
      <trkpt lat="42.96855" lon="0.00195">
        <ele>1671.39</ele>
        <time>2013-01-06T07:56:34Z</time>
      </trkpt>
      <trkpt lat="42.96854" lon="0.00199">
        <ele>1671.39</ele>
        <time>2013-01-06T07:56:37Z</time>
      </trkpt>
      <trkpt lat="42.96858" lon="0.00209">
        <ele>1670.91</ele>
        <time>2013-01-06T07:56:45Z</time>
      </trkpt>
      <trkpt lat="42.96861" lon="0.00215">
        <ele>1670.91</ele>
        <time>2013-01-06T07:56:50Z</time>
      </trkpt>
      <trkpt lat="42.96864" lon="0.00231">
        <ele>1670.91</ele>
        <time>2013-01-06T07:57:02Z</time>
      </trkpt>
      <trkpt lat="42.96867" lon="0.00245">
        <ele>1670.91</ele>
        <time>2013-01-06T07:57:11Z</time>
      </trkpt>
      <trkpt lat="42.96872" lon="0.00261">
        <ele>1671.87</ele>
        <time>2013-01-06T07:57:23Z</time>
      </trkpt>
      <trkpt lat="42.96881" lon="0.00274">
        <ele>1671.87</ele>
        <time>2013-01-06T07:57:35Z</time>
      </trkpt>
      <trkpt lat="42.96891" lon="0.00284">
        <ele>1671.87</ele>
        <time>2013-01-06T07:57:47Z</time>
      </trkpt>
      <trkpt lat="42.96903" lon="0.00296">
        <ele>1670.91</ele>
        <time>2013-01-06T07:57:59Z</time>
      </trkpt>
      <trkpt lat="42.96904" lon="0.00299">
        <ele>1670.91</ele>
        <time>2013-01-06T07:58:01Z</time>
      </trkpt>
      <trkpt lat="42.96907" lon="0.00309">
        <ele>1670.91</ele>
        <time>2013-01-06T07:58:07Z</time>
      </trkpt>
      <trkpt lat="42.96906" lon="0.00327">
        <ele>1671.87</ele>
        <time>2013-01-06T07:58:19Z</time>
      </trkpt>
      <trkpt lat="42.96901" lon="0.00347">
        <ele>1671.87</ele>
        <time>2013-01-06T07:58:32Z</time>
      </trkpt>
      <trkpt lat="42.96897" lon="0.00363">
        <ele>1672.83</ele>
        <time>2013-01-06T07:58:43Z</time>
      </trkpt>
      <trkpt lat="42.96895" lon="0.00373">
        <ele>1672.83</ele>
        <time>2013-01-06T07:58:50Z</time>
      </trkpt>
      <trkpt lat="42.96893" lon="0.00388">
        <ele>1673.79</ele>
        <time>2013-01-06T07:59:00Z</time>
      </trkpt>
      <trkpt lat="42.96893" lon="0.00391">
        <ele>1673.31</ele>
        <time>2013-01-06T07:59:02Z</time>
      </trkpt>
      <trkpt lat="42.96892" lon="0.00393">
        <ele>1673.79</ele>
        <time>2013-01-06T07:59:04Z</time>
      </trkpt>
      <trkpt lat="42.96892" lon="0.00408">
        <ele>1674.27</ele>
        <time>2013-01-06T07:59:16Z</time>
      </trkpt>
      <trkpt lat="42.96894" lon="0.00424">
        <ele>1673.79</ele>
        <time>2013-01-06T07:59:26Z</time>
      </trkpt>
      <trkpt lat="42.96893" lon="0.00447">
        <ele>1673.79</ele>
        <time>2013-01-06T07:59:40Z</time>
      </trkpt>
      <trkpt lat="42.96893" lon="0.00452">
        <ele>1673.79</ele>
        <time>2013-01-06T07:59:43Z</time>
      </trkpt>
      <trkpt lat="42.96891" lon="0.00463">
        <ele>1673.31</ele>
        <time>2013-01-06T07:59:50Z</time>
      </trkpt>
      <trkpt lat="42.9689" lon="0.00468">
        <ele>1674.27</ele>
        <time>2013-01-06T07:59:53Z</time>
      </trkpt>
      <trkpt lat="42.96889" lon="0.00472">
        <ele>1674.27</ele>
        <time>2013-01-06T07:59:56Z</time>
      </trkpt>
      <trkpt lat="42.96889" lon="0.00475">
        <ele>1674.27</ele>
        <time>2013-01-06T07:59:58Z</time>
      </trkpt>
      <trkpt lat="42.96884" lon="0.00496">
        <ele>1673.79</ele>
        <time>2013-01-06T08:00:12Z</time>
      </trkpt>
      <trkpt lat="42.96876" lon="0.00522">
        <ele>1673.79</ele>
        <time>2013-01-06T08:00:30Z</time>
      </trkpt>
      <trkpt lat="42.96872" lon="0.00527">
        <ele>1673.31</ele>
        <time>2013-01-06T08:00:36Z</time>
      </trkpt>
      <trkpt lat="42.96866" lon="0.00545">
        <ele>1673.31</ele>
        <time>2013-01-06T08:00:49Z</time>
      </trkpt>
      <trkpt lat="42.96861" lon="0.00565">
        <ele>1672.83</ele>
        <time>2013-01-06T08:01:02Z</time>
      </trkpt>
      <trkpt lat="42.96855" lon="0.00587">
        <ele>1673.31</ele>
        <time>2013-01-06T08:01:17Z</time>
      </trkpt>
      <trkpt lat="42.96853" lon="0.00604">
        <ele>1672.83</ele>
        <time>2013-01-06T08:01:28Z</time>
      </trkpt>
      <trkpt lat="42.96853" lon="0.00614">
        <ele>1671.87</ele>
        <time>2013-01-06T08:01:34Z</time>
      </trkpt>
      <trkpt lat="42.96852" lon="0.00619">
        <ele>1671.87</ele>
        <time>2013-01-06T08:01:37Z</time>
      </trkpt>
      <trkpt lat="42.96853" lon="0.00629">
        <ele>1671.39</ele>
        <time>2013-01-06T08:01:43Z</time>
      </trkpt>
      <trkpt lat="42.96852" lon="0.00632">
        <ele>1672.35</ele>
        <time>2013-01-06T08:01:45Z</time>
      </trkpt>
      <trkpt lat="42.96851" lon="0.00646">
        <ele>1671.87</ele>
        <time>2013-01-06T08:01:53Z</time>
      </trkpt>
      <trkpt lat="42.9685" lon="0.00652">
        <ele>1670.43</ele>
        <time>2013-01-06T08:01:57Z</time>
      </trkpt>
      <trkpt lat="42.96847" lon="0.00683">
        <ele>1667.54</ele>
        <time>2013-01-06T08:02:15Z</time>
      </trkpt>
      <trkpt lat="42.96847" lon="0.00694">
        <ele>1665.62</ele>
        <time>2013-01-06T08:02:22Z</time>
      </trkpt>
      <trkpt lat="42.96845" lon="0.00714">
        <ele>1662.74</ele>
        <time>2013-01-06T08:02:36Z</time>
      </trkpt>
      <trkpt lat="42.96843" lon="0.00717">
        <ele>1664.66</ele>
        <time>2013-01-06T08:02:39Z</time>
      </trkpt>
      <trkpt lat="42.96836" lon="0.00725">
        <ele>1664.18</ele>
        <time>2013-01-06T08:02:48Z</time>
      </trkpt>
      <trkpt lat="42.96826" lon="0.00737">
        <ele>1664.18</ele>
        <time>2013-01-06T08:03:01Z</time>
      </trkpt>
      <trkpt lat="42.96821" lon="0.00747">
        <ele>1665.62</ele>
        <time>2013-01-06T08:03:11Z</time>
      </trkpt>
      <trkpt lat="42.9682" lon="0.00751">
        <ele>1666.1</ele>
        <time>2013-01-06T08:03:20Z</time>
      </trkpt>
      <trkpt lat="42.96818" lon="0.00756">
        <ele>1667.54</ele>
        <time>2013-01-06T08:03:41Z</time>
      </trkpt>
      <trkpt lat="42.96814" lon="0.0076">
        <ele>1665.14</ele>
        <time>2013-01-06T08:03:58Z</time>
      </trkpt>
      <trkpt lat="42.96814" lon="0.0076">
        <ele>1665.62</ele>
        <time>2013-01-06T08:04:25Z</time>
      </trkpt>
      <trkpt lat="42.96814" lon="0.0076">
        <ele>1665.62</ele>
        <time>2013-01-06T08:04:51Z</time>
      </trkpt>
      <trkpt lat="42.96813" lon="0.00759">
        <ele>1665.62</ele>
        <time>2013-01-06T08:05:06Z</time>
      </trkpt>
      <trkpt lat="42.96816" lon="0.00762">
        <ele>1663.22</ele>
        <time>2013-01-06T08:05:25Z</time>
      </trkpt>
      <trkpt lat="42.96816" lon="0.00763">
        <ele>1668.99</ele>
        <time>2013-01-06T08:05:39Z</time>
      </trkpt>
      <trkpt lat="42.96816" lon="0.00763">
        <ele>1660.81</ele>
        <time>2013-01-06T08:05:40Z</time>
      </trkpt>
      <trkpt lat="42.96816" lon="0.00763">
        <ele>1665.14</ele>
        <time>2013-01-06T08:05:41Z</time>
      </trkpt>
      <trkpt lat="42.96816" lon="0.00763">
        <ele>1666.58</ele>
        <time>2013-01-06T08:05:43Z</time>
      </trkpt>
      <trkpt lat="42.96815" lon="0.00764">
        <ele>1661.3</ele>
        <time>2013-01-06T08:05:46Z</time>
      </trkpt>
      <trkpt lat="42.96815" lon="0.00764">
        <ele>1668.51</ele>
        <time>2013-01-06T08:05:47Z</time>
      </trkpt>
      <trkpt lat="42.96815" lon="0.00764">
        <ele>1664.18</ele>
        <time>2013-01-06T08:05:48Z</time>
      </trkpt>
      <trkpt lat="42.96815" lon="0.00764">
        <ele>1669.95</ele>
        <time>2013-01-06T08:05:57Z</time>
      </trkpt>
      <trkpt lat="42.96815" lon="0.00764">
        <ele>1665.62</ele>
        <time>2013-01-06T08:05:58Z</time>
      </trkpt>
      <trkpt lat="42.96809" lon="0.00776">
        <ele>1667.54</ele>
        <time>2013-01-06T08:06:11Z</time>
      </trkpt>
      <trkpt lat="42.96803" lon="0.00791">
        <ele>1668.51</ele>
        <time>2013-01-06T08:06:23Z</time>
      </trkpt>
      <trkpt lat="42.96798" lon="0.00802">
        <ele>1668.51</ele>
        <time>2013-01-06T08:06:33Z</time>
      </trkpt>
      <trkpt lat="42.96791" lon="0.0082">
        <ele>1669.47</ele>
        <time>2013-01-06T08:06:48Z</time>
      </trkpt>
      <trkpt lat="42.96784" lon="0.00839">
        <ele>1668.99</ele>
        <time>2013-01-06T08:07:04Z</time>
      </trkpt>
      <trkpt lat="42.96775" lon="0.0086">
        <ele>1669.95</ele>
        <time>2013-01-06T08:07:22Z</time>
      </trkpt>
      <trkpt lat="42.96769" lon="0.00876">
        <ele>1670.43</ele>
        <time>2013-01-06T08:07:37Z</time>
      </trkpt>
      <trkpt lat="42.96763" lon="0.00894">
        <ele>1671.39</ele>
        <time>2013-01-06T08:07:52Z</time>
      </trkpt>
      <trkpt lat="42.96763" lon="0.00895">
        <ele>1671.39</ele>
        <time>2013-01-06T08:07:53Z</time>
      </trkpt>
      <trkpt lat="42.96754" lon="0.00905">
        <ele>1670.43</ele>
        <time>2013-01-06T08:08:04Z</time>
      </trkpt>
      <trkpt lat="42.96745" lon="0.00919">
        <ele>1669.95</ele>
        <time>2013-01-06T08:08:18Z</time>
      </trkpt>
      <trkpt lat="42.96735" lon="0.00928">
        <ele>1669.95</ele>
        <time>2013-01-06T08:08:31Z</time>
      </trkpt>
      <trkpt lat="42.96732" lon="0.00933">
        <ele>1670.43</ele>
        <time>2013-01-06T08:08:35Z</time>
      </trkpt>
      <trkpt lat="42.96727" lon="0.00951">
        <ele>1671.87</ele>
        <time>2013-01-06T08:08:50Z</time>
      </trkpt>
      <trkpt lat="42.96725" lon="0.00959">
        <ele>1672.35</ele>
        <time>2013-01-06T08:08:57Z</time>
      </trkpt>
      <trkpt lat="42.96722" lon="0.00967">
        <ele>1672.83</ele>
        <time>2013-01-06T08:09:04Z</time>
      </trkpt>
      <trkpt lat="42.96714" lon="0.00988">
        <ele>1672.35</ele>
        <time>2013-01-06T08:09:20Z</time>
      </trkpt>
      <trkpt lat="42.96706" lon="0.01006">
        <ele>1673.31</ele>
        <time>2013-01-06T08:09:34Z</time>
      </trkpt>
      <trkpt lat="42.96695" lon="0.01025">
        <ele>1671.87</ele>
        <time>2013-01-06T08:09:52Z</time>
      </trkpt>
      <trkpt lat="42.96693" lon="0.01028">
        <ele>1671.39</ele>
        <time>2013-01-06T08:09:55Z</time>
      </trkpt>
      <trkpt lat="42.96691" lon="0.01033">
        <ele>1669.47</ele>
        <time>2013-01-06T08:09:59Z</time>
      </trkpt>
      <trkpt lat="42.9669" lon="0.01036">
        <ele>1671.39</ele>
        <time>2013-01-06T08:10:01Z</time>
      </trkpt>
      <trkpt lat="42.96687" lon="0.01042">
        <ele>1668.02</ele>
        <time>2013-01-06T08:10:06Z</time>
      </trkpt>
      <trkpt lat="42.96676" lon="0.01061">
        <ele>1667.06</ele>
        <time>2013-01-06T08:10:21Z</time>
      </trkpt>
      <trkpt lat="42.9667" lon="0.0107">
        <ele>1667.06</ele>
        <time>2013-01-06T08:10:33Z</time>
      </trkpt>
      <trkpt lat="42.96664" lon="0.01093">
        <ele>1666.1</ele>
        <time>2013-01-06T08:10:49Z</time>
      </trkpt>
      <trkpt lat="42.96662" lon="0.01098">
        <ele>1665.62</ele>
        <time>2013-01-06T08:10:53Z</time>
      </trkpt>
      <trkpt lat="42.96656" lon="0.01118">
        <ele>1662.74</ele>
        <time>2013-01-06T08:11:07Z</time>
      </trkpt>
      <trkpt lat="42.96652" lon="0.01125">
        <ele>1659.85</ele>
        <time>2013-01-06T08:11:12Z</time>
      </trkpt>
      <trkpt lat="42.96649" lon="0.01135">
        <ele>1661.3</ele>
        <time>2013-01-06T08:11:18Z</time>
      </trkpt>
      <trkpt lat="42.96646" lon="0.01141">
        <ele>1658.41</ele>
        <time>2013-01-06T08:11:22Z</time>
      </trkpt>
      <trkpt lat="42.96642" lon="0.01151">
        <ele>1656.01</ele>
        <time>2013-01-06T08:11:29Z</time>
      </trkpt>
      <trkpt lat="42.96636" lon="0.01172">
        <ele>1653.6</ele>
        <time>2013-01-06T08:11:42Z</time>
      </trkpt>
      <trkpt lat="42.96633" lon="0.01181">
        <ele>1652.64</ele>
        <time>2013-01-06T08:11:49Z</time>
      </trkpt>
      <trkpt lat="42.96628" lon="0.01194">
        <ele>1649.28</ele>
        <time>2013-01-06T08:11:58Z</time>
      </trkpt>
      <trkpt lat="42.96626" lon="0.01201">
        <ele>1650.72</ele>
        <time>2013-01-06T08:12:03Z</time>
      </trkpt>
      <trkpt lat="42.96625" lon="0.01204">
        <ele>1646.4</ele>
        <time>2013-01-06T08:12:05Z</time>
      </trkpt>
      <trkpt lat="42.96617" lon="0.01222">
        <ele>1645.43</ele>
        <time>2013-01-06T08:12:18Z</time>
      </trkpt>
      <trkpt lat="42.96608" lon="0.01236">
        <ele>1643.03</ele>
        <time>2013-01-06T08:12:30Z</time>
      </trkpt>
      <trkpt lat="42.96604" lon="0.01241">
        <ele>1639.67</ele>
        <time>2013-01-06T08:12:35Z</time>
      </trkpt>
      <trkpt lat="42.96603" lon="0.01243">
        <ele>1644.47</ele>
        <time>2013-01-06T08:12:36Z</time>
      </trkpt>
      <trkpt lat="42.96601" lon="0.01245">
        <ele>1641.11</ele>
        <time>2013-01-06T08:12:38Z</time>
      </trkpt>
      <trkpt lat="42.966" lon="0.01246">
        <ele>1642.07</ele>
        <time>2013-01-06T08:12:39Z</time>
      </trkpt>
      <trkpt lat="42.96583" lon="0.01266">
        <ele>1641.11</ele>
        <time>2013-01-06T08:12:57Z</time>
      </trkpt>
      <trkpt lat="42.96569" lon="0.01281">
        <ele>1638.7</ele>
        <time>2013-01-06T08:13:14Z</time>
      </trkpt>
      <trkpt lat="42.96564" lon="0.01286">
        <ele>1638.22</ele>
        <time>2013-01-06T08:13:19Z</time>
      </trkpt>
      <trkpt lat="42.96559" lon="0.01295">
        <ele>1637.26</ele>
        <time>2013-01-06T08:13:26Z</time>
      </trkpt>
      <trkpt lat="42.96546" lon="0.0131">
        <ele>1635.82</ele>
        <time>2013-01-06T08:13:40Z</time>
      </trkpt>
      <trkpt lat="42.96535" lon="0.0132">
        <ele>1637.26</ele>
        <time>2013-01-06T08:13:53Z</time>
      </trkpt>
      <trkpt lat="42.96519" lon="0.01335">
        <ele>1636.3</ele>
        <time>2013-01-06T08:14:09Z</time>
      </trkpt>
      <trkpt lat="42.96505" lon="0.01352">
        <ele>1636.78</ele>
        <time>2013-01-06T08:14:24Z</time>
      </trkpt>
      <trkpt lat="42.96493" lon="0.0136">
        <ele>1636.78</ele>
        <time>2013-01-06T08:14:35Z</time>
      </trkpt>
      <trkpt lat="42.96485" lon="0.01364">
        <ele>1636.78</ele>
        <time>2013-01-06T08:14:43Z</time>
      </trkpt>
      <trkpt lat="42.96473" lon="0.01378">
        <ele>1636.78</ele>
        <time>2013-01-06T08:14:57Z</time>
      </trkpt>
      <trkpt lat="42.96462" lon="0.01393">
        <ele>1636.3</ele>
        <time>2013-01-06T08:15:11Z</time>
      </trkpt>
      <trkpt lat="42.96451" lon="0.01408">
        <ele>1637.26</ele>
        <time>2013-01-06T08:15:26Z</time>
      </trkpt>
      <trkpt lat="42.96449" lon="0.01411">
        <ele>1637.74</ele>
        <time>2013-01-06T08:15:29Z</time>
      </trkpt>
      <trkpt lat="42.96439" lon="0.01431">
        <ele>1637.26</ele>
        <time>2013-01-06T08:15:45Z</time>
      </trkpt>
      <trkpt lat="42.96426" lon="0.0145">
        <ele>1635.34</ele>
        <time>2013-01-06T08:16:02Z</time>
      </trkpt>
      <trkpt lat="42.96417" lon="0.0147">
        <ele>1633.42</ele>
        <time>2013-01-06T08:16:17Z</time>
      </trkpt>
      <trkpt lat="42.9641" lon="0.01488">
        <ele>1633.42</ele>
        <time>2013-01-06T08:16:31Z</time>
      </trkpt>
      <trkpt lat="42.96401" lon="0.01506">
        <ele>1632.46</ele>
        <time>2013-01-06T08:16:47Z</time>
      </trkpt>
      <trkpt lat="42.96398" lon="0.01511">
        <ele>1627.65</ele>
        <time>2013-01-06T08:17:01Z</time>
      </trkpt>
      <trkpt lat="42.96398" lon="0.01511">
        <ele>1631.98</ele>
        <time>2013-01-06T08:17:02Z</time>
      </trkpt>
      <trkpt lat="42.96398" lon="0.01511">
        <ele>1628.61</ele>
        <time>2013-01-06T08:17:14Z</time>
      </trkpt>
      <trkpt lat="42.96398" lon="0.01511">
        <ele>1632.94</ele>
        <time>2013-01-06T08:17:15Z</time>
      </trkpt>
      <trkpt lat="42.96398" lon="0.01511">
        <ele>1632.94</ele>
        <time>2013-01-06T08:17:16Z</time>
      </trkpt>
      <trkpt lat="42.96398" lon="0.01511">
        <ele>1637.74</ele>
        <time>2013-01-06T08:17:17Z</time>
      </trkpt>
      <trkpt lat="42.96398" lon="0.01511">
        <ele>1633.42</ele>
        <time>2013-01-06T08:17:18Z</time>
      </trkpt>
      <trkpt lat="42.96398" lon="0.01513">
        <ele>1632.94</ele>
        <time>2013-01-06T08:17:21Z</time>
      </trkpt>
      <trkpt lat="42.96391" lon="0.01531">
        <ele>1633.42</ele>
        <time>2013-01-06T08:17:37Z</time>
      </trkpt>
      <trkpt lat="42.96386" lon="0.01549">
        <ele>1633.42</ele>
        <time>2013-01-06T08:17:50Z</time>
      </trkpt>
      <trkpt lat="42.96379" lon="0.01572">
        <ele>1631.49</ele>
        <time>2013-01-06T08:18:06Z</time>
      </trkpt>
      <trkpt lat="42.9637" lon="0.0159">
        <ele>1630.05</ele>
        <time>2013-01-06T08:18:21Z</time>
      </trkpt>
      <trkpt lat="42.96368" lon="0.01595">
        <ele>1630.05</ele>
        <time>2013-01-06T08:18:25Z</time>
      </trkpt>
      <trkpt lat="42.96363" lon="0.01601">
        <ele>1628.61</ele>
        <time>2013-01-06T08:18:34Z</time>
      </trkpt>
      <trkpt lat="42.96351" lon="0.01625">
        <ele>1625.73</ele>
        <time>2013-01-06T08:18:53Z</time>
      </trkpt>
      <trkpt lat="42.96337" lon="0.01648">
        <ele>1624.77</ele>
        <time>2013-01-06T08:19:13Z</time>
      </trkpt>
      <trkpt lat="42.96323" lon="0.01667">
        <ele>1623.32</ele>
        <time>2013-01-06T08:19:32Z</time>
      </trkpt>
      <trkpt lat="42.96309" lon="0.01686">
        <ele>1622.36</ele>
        <time>2013-01-06T08:19:50Z</time>
      </trkpt>
      <trkpt lat="42.96294" lon="0.01707">
        <ele>1621.88</ele>
        <time>2013-01-06T08:20:10Z</time>
      </trkpt>
      <trkpt lat="42.96285" lon="0.0172">
        <ele>1621.88</ele>
        <time>2013-01-06T08:20:25Z</time>
      </trkpt>
      <trkpt lat="42.96274" lon="0.01734">
        <ele>1623.32</ele>
        <time>2013-01-06T08:20:40Z</time>
      </trkpt>
      <trkpt lat="42.96265" lon="0.01745">
        <ele>1624.77</ele>
        <time>2013-01-06T08:20:53Z</time>
      </trkpt>
      <trkpt lat="42.9626" lon="0.01757">
        <ele>1626.21</ele>
        <time>2013-01-06T08:21:08Z</time>
      </trkpt>
      <trkpt lat="42.96253" lon="0.01769">
        <ele>1626.69</ele>
        <time>2013-01-06T08:21:24Z</time>
      </trkpt>
      <trkpt lat="42.96249" lon="0.01779">
        <ele>1627.17</ele>
        <time>2013-01-06T08:21:35Z</time>
      </trkpt>
      <trkpt lat="42.96243" lon="0.01805">
        <ele>1626.69</ele>
        <time>2013-01-06T08:21:55Z</time>
      </trkpt>
      <trkpt lat="42.96241" lon="0.01808">
        <ele>1622.84</ele>
        <time>2013-01-06T08:22:03Z</time>
      </trkpt>
      <trkpt lat="42.96241" lon="0.01808">
        <ele>1626.21</ele>
        <time>2013-01-06T08:22:04Z</time>
      </trkpt>
      <trkpt lat="42.96241" lon="0.01809">
        <ele>1630.05</ele>
        <time>2013-01-06T08:22:07Z</time>
      </trkpt>
      <trkpt lat="42.96241" lon="0.0181">
        <ele>1625.73</ele>
        <time>2013-01-06T08:22:09Z</time>
      </trkpt>
      <trkpt lat="42.9624" lon="0.01811">
        <ele>1626.21</ele>
        <time>2013-01-06T08:22:10Z</time>
      </trkpt>
      <trkpt lat="42.96232" lon="0.01825">
        <ele>1625.73</ele>
        <time>2013-01-06T08:22:26Z</time>
      </trkpt>
      <trkpt lat="42.96229" lon="0.0183">
        <ele>1626.21</ele>
        <time>2013-01-06T08:22:31Z</time>
      </trkpt>
      <trkpt lat="42.96219" lon="0.01847">
        <ele>1625.25</ele>
        <time>2013-01-06T08:22:48Z</time>
      </trkpt>
      <trkpt lat="42.96212" lon="0.01859">
        <ele>1625.25</ele>
        <time>2013-01-06T08:23:01Z</time>
      </trkpt>
      <trkpt lat="42.96205" lon="0.01872">
        <ele>1623.8</ele>
        <time>2013-01-06T08:23:14Z</time>
      </trkpt>
      <trkpt lat="42.96196" lon="0.01888">
        <ele>1623.8</ele>
        <time>2013-01-06T08:23:30Z</time>
      </trkpt>
      <trkpt lat="42.96189" lon="0.01903">
        <ele>1625.25</ele>
        <time>2013-01-06T08:23:49Z</time>
      </trkpt>
      <trkpt lat="42.96183" lon="0.01917">
        <ele>1626.69</ele>
        <time>2013-01-06T08:24:04Z</time>
      </trkpt>
      <trkpt lat="42.96179" lon="0.0193">
        <ele>1628.13</ele>
        <time>2013-01-06T08:24:18Z</time>
      </trkpt>
      <trkpt lat="42.96177" lon="0.01941">
        <ele>1629.09</ele>
        <time>2013-01-06T08:24:30Z</time>
      </trkpt>
      <trkpt lat="42.96175" lon="0.01951">
        <ele>1628.13</ele>
        <time>2013-01-06T08:24:45Z</time>
      </trkpt>
      <trkpt lat="42.96167" lon="0.01974">
        <ele>1624.77</ele>
        <time>2013-01-06T08:25:02Z</time>
      </trkpt>
      <trkpt lat="42.96164" lon="0.01994">
        <ele>1625.73</ele>
        <time>2013-01-06T08:25:16Z</time>
      </trkpt>
      <trkpt lat="42.96158" lon="0.02013">
        <ele>1624.28</ele>
        <time>2013-01-06T08:25:32Z</time>
      </trkpt>
      <trkpt lat="42.96155" lon="0.02033">
        <ele>1623.32</ele>
        <time>2013-01-06T08:25:46Z</time>
      </trkpt>
      <trkpt lat="42.96142" lon="0.02054">
        <ele>1622.36</ele>
        <time>2013-01-06T08:26:04Z</time>
      </trkpt>
      <trkpt lat="42.96129" lon="0.02065">
        <ele>1622.36</ele>
        <time>2013-01-06T08:26:18Z</time>
      </trkpt>
      <trkpt lat="42.96117" lon="0.02076">
        <ele>1621.88</ele>
        <time>2013-01-06T08:26:32Z</time>
      </trkpt>
      <trkpt lat="42.96106" lon="0.02092">
        <ele>1620.44</ele>
        <time>2013-01-06T08:26:48Z</time>
      </trkpt>
      <trkpt lat="42.96094" lon="0.02104">
        <ele>1619</ele>
        <time>2013-01-06T08:27:03Z</time>
      </trkpt>
      <trkpt lat="42.96079" lon="0.02118">
        <ele>1619</ele>
        <time>2013-01-06T08:27:20Z</time>
      </trkpt>
      <trkpt lat="42.96064" lon="0.02131">
        <ele>1616.59</ele>
        <time>2013-01-06T08:27:37Z</time>
      </trkpt>
      <trkpt lat="42.96051" lon="0.02144">
        <ele>1616.59</ele>
        <time>2013-01-06T08:27:53Z</time>
      </trkpt>
      <trkpt lat="42.96037" lon="0.02157">
        <ele>1615.63</ele>
        <time>2013-01-06T08:28:09Z</time>
      </trkpt>
      <trkpt lat="42.96029" lon="0.02165">
        <ele>1615.15</ele>
        <time>2013-01-06T08:28:19Z</time>
      </trkpt>
      <trkpt lat="42.96019" lon="0.0218">
        <ele>1613.71</ele>
        <time>2013-01-06T08:28:34Z</time>
      </trkpt>
      <trkpt lat="42.96005" lon="0.02193">
        <ele>1612.75</ele>
        <time>2013-01-06T08:28:49Z</time>
      </trkpt>
      <trkpt lat="42.96002" lon="0.02197">
        <ele>1612.27</ele>
        <time>2013-01-06T08:28:53Z</time>
      </trkpt>
      <trkpt lat="42.95989" lon="0.02209">
        <ele>1612.27</ele>
        <time>2013-01-06T08:29:08Z</time>
      </trkpt>
      <trkpt lat="42.95975" lon="0.02218">
        <ele>1611.79</ele>
        <time>2013-01-06T08:29:22Z</time>
      </trkpt>
      <trkpt lat="42.9596" lon="0.02232">
        <ele>1610.83</ele>
        <time>2013-01-06T08:29:37Z</time>
      </trkpt>
      <trkpt lat="42.95952" lon="0.02238">
        <ele>1606.98</ele>
        <time>2013-01-06T08:29:48Z</time>
      </trkpt>
      <trkpt lat="42.95952" lon="0.02238">
        <ele>1611.31</ele>
        <time>2013-01-06T08:29:49Z</time>
      </trkpt>
      <trkpt lat="42.95952" lon="0.02238">
        <ele>1607.46</ele>
        <time>2013-01-06T08:29:50Z</time>
      </trkpt>
      <trkpt lat="42.95952" lon="0.02238">
        <ele>1613.71</ele>
        <time>2013-01-06T08:29:51Z</time>
      </trkpt>
      <trkpt lat="42.95952" lon="0.02239">
        <ele>1610.35</ele>
        <time>2013-01-06T08:29:58Z</time>
      </trkpt>
      <trkpt lat="42.95952" lon="0.02239">
        <ele>1607.46</ele>
        <time>2013-01-06T08:29:59Z</time>
      </trkpt>
      <trkpt lat="42.95952" lon="0.02239">
        <ele>1606.98</ele>
        <time>2013-01-06T08:30:00Z</time>
      </trkpt>
      <trkpt lat="42.95952" lon="0.02239">
        <ele>1613.71</ele>
        <time>2013-01-06T08:30:01Z</time>
      </trkpt>
      <trkpt lat="42.95952" lon="0.02239">
        <ele>1612.75</ele>
        <time>2013-01-06T08:30:02Z</time>
      </trkpt>
      <trkpt lat="42.95941" lon="0.02244">
        <ele>1609.38</ele>
        <time>2013-01-06T08:30:17Z</time>
      </trkpt>
      <trkpt lat="42.95922" lon="0.02251">
        <ele>1608.9</ele>
        <time>2013-01-06T08:30:34Z</time>
      </trkpt>
      <trkpt lat="42.95905" lon="0.02256">
        <ele>1608.9</ele>
        <time>2013-01-06T08:30:50Z</time>
      </trkpt>
      <trkpt lat="42.95893" lon="0.02266">
        <ele>1608.9</ele>
        <time>2013-01-06T08:31:04Z</time>
      </trkpt>
      <trkpt lat="42.95879" lon="0.02277">
        <ele>1607.94</ele>
        <time>2013-01-06T08:31:19Z</time>
      </trkpt>
      <trkpt lat="42.95863" lon="0.02288">
        <ele>1606.98</ele>
        <time>2013-01-06T08:31:36Z</time>
      </trkpt>
      <trkpt lat="42.95852" lon="0.02298">
        <ele>1606.98</ele>
        <time>2013-01-06T08:31:51Z</time>
      </trkpt>
      <trkpt lat="42.9584" lon="0.02307">
        <ele>1606.5</ele>
        <time>2013-01-06T08:32:04Z</time>
      </trkpt>
      <trkpt lat="42.95827" lon="0.02317">
        <ele>1606.5</ele>
        <time>2013-01-06T08:32:18Z</time>
      </trkpt>
      <trkpt lat="42.95813" lon="0.02326">
        <ele>1606.98</ele>
        <time>2013-01-06T08:32:32Z</time>
      </trkpt>
      <trkpt lat="42.95801" lon="0.02337">
        <ele>1606.98</ele>
        <time>2013-01-06T08:32:46Z</time>
      </trkpt>
      <trkpt lat="42.9579" lon="0.02349">
        <ele>1606.5</ele>
        <time>2013-01-06T08:33:00Z</time>
      </trkpt>
      <trkpt lat="42.9578" lon="0.02359">
        <ele>1606.5</ele>
        <time>2013-01-06T08:33:13Z</time>
      </trkpt>
      <trkpt lat="42.95772" lon="0.02365">
        <ele>1604.58</ele>
        <time>2013-01-06T08:33:27Z</time>
      </trkpt>
      <trkpt lat="42.9576" lon="0.02369">
        <ele>1605.54</ele>
        <time>2013-01-06T08:33:40Z</time>
      </trkpt>
      <trkpt lat="42.95743" lon="0.02374">
        <ele>1605.54</ele>
        <time>2013-01-06T08:33:55Z</time>
      </trkpt>
      <trkpt lat="42.95733" lon="0.02372">
        <ele>1606.02</ele>
        <time>2013-01-06T08:34:08Z</time>
      </trkpt>
      <trkpt lat="42.95723" lon="0.0237">
        <ele>1606.5</ele>
        <time>2013-01-06T08:34:22Z</time>
      </trkpt>
      <trkpt lat="42.9571" lon="0.02372">
        <ele>1606.5</ele>
        <time>2013-01-06T08:34:36Z</time>
      </trkpt>
      <trkpt lat="42.95695" lon="0.02375">
        <ele>1606.02</ele>
        <time>2013-01-06T08:34:51Z</time>
      </trkpt>
      <trkpt lat="42.95682" lon="0.02383">
        <ele>1605.54</ele>
        <time>2013-01-06T08:35:07Z</time>
      </trkpt>
      <trkpt lat="42.95681" lon="0.02383">
        <ele>1605.54</ele>
        <time>2013-01-06T08:35:08Z</time>
      </trkpt>
      <trkpt lat="42.95664" lon="0.0239">
        <ele>1606.02</ele>
        <time>2013-01-06T08:35:22Z</time>
      </trkpt>
      <trkpt lat="42.95653" lon="0.02398">
        <ele>1606.5</ele>
        <time>2013-01-06T08:35:36Z</time>
      </trkpt>
      <trkpt lat="42.95642" lon="0.02408">
        <ele>1607.46</ele>
        <time>2013-01-06T08:35:49Z</time>
      </trkpt>
      <trkpt lat="42.9564" lon="0.02411">
        <ele>1607.46</ele>
        <time>2013-01-06T08:35:52Z</time>
      </trkpt>
      <trkpt lat="42.95631" lon="0.02422">
        <ele>1609.38</ele>
        <time>2013-01-06T08:36:05Z</time>
      </trkpt>
      <trkpt lat="42.95627" lon="0.02427">
        <ele>1609.38</ele>
        <time>2013-01-06T08:36:11Z</time>
      </trkpt>
      <trkpt lat="42.95616" lon="0.02437">
        <ele>1610.35</ele>
        <time>2013-01-06T08:36:25Z</time>
      </trkpt>
      <trkpt lat="42.9561" lon="0.02441">
        <ele>1610.83</ele>
        <time>2013-01-06T08:36:34Z</time>
      </trkpt>
      <trkpt lat="42.95607" lon="0.02444">
        <ele>1611.79</ele>
        <time>2013-01-06T08:36:41Z</time>
      </trkpt>
      <trkpt lat="42.95597" lon="0.02443">
        <ele>1612.27</ele>
        <time>2013-01-06T08:36:51Z</time>
      </trkpt>
      <trkpt lat="42.95589" lon="0.02445">
        <ele>1611.79</ele>
        <time>2013-01-06T08:37:01Z</time>
      </trkpt>
      <trkpt lat="42.95587" lon="0.02446">
        <ele>1611.31</ele>
        <time>2013-01-06T08:37:03Z</time>
      </trkpt>
      <trkpt lat="42.95584" lon="0.02446">
        <ele>1610.83</ele>
        <time>2013-01-06T08:37:06Z</time>
      </trkpt>
      <trkpt lat="42.95578" lon="0.02455">
        <ele>1610.35</ele>
        <time>2013-01-06T08:37:19Z</time>
      </trkpt>
      <trkpt lat="42.95571" lon="0.02459">
        <ele>1610.83</ele>
        <time>2013-01-06T08:37:32Z</time>
      </trkpt>
      <trkpt lat="42.95567" lon="0.02459">
        <ele>1612.27</ele>
        <time>2013-01-06T08:37:43Z</time>
      </trkpt>
      <trkpt lat="42.95562" lon="0.02463">
        <ele>1613.71</ele>
        <time>2013-01-06T08:37:53Z</time>
      </trkpt>
      <trkpt lat="42.95558" lon="0.02464">
        <ele>1613.23</ele>
        <time>2013-01-06T08:37:59Z</time>
      </trkpt>
      <trkpt lat="42.95552" lon="0.02468">
        <ele>1615.15</ele>
        <time>2013-01-06T08:38:11Z</time>
      </trkpt>
      <trkpt lat="42.95544" lon="0.02473">
        <ele>1616.11</ele>
        <time>2013-01-06T08:38:25Z</time>
      </trkpt>
      <trkpt lat="42.95537" lon="0.02474">
        <ele>1616.59</ele>
        <time>2013-01-06T08:38:35Z</time>
      </trkpt>
      <trkpt lat="42.95532" lon="0.02479">
        <ele>1617.56</ele>
        <time>2013-01-06T08:38:46Z</time>
      </trkpt>
      <trkpt lat="42.95527" lon="0.02483">
        <ele>1617.56</ele>
        <time>2013-01-06T08:38:56Z</time>
      </trkpt>
      <trkpt lat="42.95518" lon="0.02489">
        <ele>1617.56</ele>
        <time>2013-01-06T08:39:09Z</time>
      </trkpt>
      <trkpt lat="42.95514" lon="0.02492">
        <ele>1617.07</ele>
        <time>2013-01-06T08:39:14Z</time>
      </trkpt>
      <trkpt lat="42.95512" lon="0.02497">
        <ele>1617.07</ele>
        <time>2013-01-06T08:39:18Z</time>
      </trkpt>
      <trkpt lat="42.95503" lon="0.02508">
        <ele>1616.59</ele>
        <time>2013-01-06T08:39:31Z</time>
      </trkpt>
      <trkpt lat="42.955" lon="0.0251">
        <ele>1616.59</ele>
        <time>2013-01-06T08:39:35Z</time>
      </trkpt>
      <trkpt lat="42.95496" lon="0.02515">
        <ele>1616.59</ele>
        <time>2013-01-06T08:39:44Z</time>
      </trkpt>
      <trkpt lat="42.95495" lon="0.02517">
        <ele>1616.59</ele>
        <time>2013-01-06T08:39:46Z</time>
      </trkpt>
      <trkpt lat="42.95491" lon="0.02521">
        <ele>1616.59</ele>
        <time>2013-01-06T08:39:51Z</time>
      </trkpt>
      <trkpt lat="42.95482" lon="0.0253">
        <ele>1616.11</ele>
        <time>2013-01-06T08:40:03Z</time>
      </trkpt>
      <trkpt lat="42.95474" lon="0.0254">
        <ele>1615.15</ele>
        <time>2013-01-06T08:40:15Z</time>
      </trkpt>
      <trkpt lat="42.95465" lon="0.02546">
        <ele>1614.67</ele>
        <time>2013-01-06T08:40:25Z</time>
      </trkpt>
      <trkpt lat="42.9546" lon="0.02547">
        <ele>1614.19</ele>
        <time>2013-01-06T08:40:29Z</time>
      </trkpt>
      <trkpt lat="42.95453" lon="0.02552">
        <ele>1615.63</ele>
        <time>2013-01-06T08:40:39Z</time>
      </trkpt>
      <trkpt lat="42.95444" lon="0.02553">
        <ele>1616.11</ele>
        <time>2013-01-06T08:40:50Z</time>
      </trkpt>
      <trkpt lat="42.95436" lon="0.02562">
        <ele>1616.11</ele>
        <time>2013-01-06T08:41:02Z</time>
      </trkpt>
      <trkpt lat="42.9543" lon="0.02568">
        <ele>1614.67</ele>
        <time>2013-01-06T08:41:10Z</time>
      </trkpt>
      <trkpt lat="42.95426" lon="0.02576">
        <ele>1614.67</ele>
        <time>2013-01-06T08:41:18Z</time>
      </trkpt>
      <trkpt lat="42.95424" lon="0.0258">
        <ele>1614.67</ele>
        <time>2013-01-06T08:41:21Z</time>
      </trkpt>
      <trkpt lat="42.95417" lon="0.0259">
        <ele>1615.15</ele>
        <time>2013-01-06T08:41:34Z</time>
      </trkpt>
      <trkpt lat="42.95408" lon="0.02599">
        <ele>1616.11</ele>
        <time>2013-01-06T08:41:48Z</time>
      </trkpt>
      <trkpt lat="42.95398" lon="0.02603">
        <ele>1615.15</ele>
        <time>2013-01-06T08:41:59Z</time>
      </trkpt>
      <trkpt lat="42.95394" lon="0.02604">
        <ele>1614.19</ele>
        <time>2013-01-06T08:42:05Z</time>
      </trkpt>
      <trkpt lat="42.95394" lon="0.02605">
        <ele>1613.71</ele>
        <time>2013-01-06T08:42:06Z</time>
      </trkpt>
      <trkpt lat="42.95388" lon="0.02615">
        <ele>1614.19</ele>
        <time>2013-01-06T08:42:18Z</time>
      </trkpt>
      <trkpt lat="42.95388" lon="0.02615">
        <ele>1614.67</ele>
        <time>2013-01-06T08:42:20Z</time>
      </trkpt>
      <trkpt lat="42.95387" lon="0.02617">
        <ele>1614.19</ele>
        <time>2013-01-06T08:42:24Z</time>
      </trkpt>
      <trkpt lat="42.95379" lon="0.02617">
        <ele>1615.63</ele>
        <time>2013-01-06T08:42:32Z</time>
      </trkpt>
      <trkpt lat="42.95372" lon="0.02609">
        <ele>1616.11</ele>
        <time>2013-01-06T08:42:44Z</time>
      </trkpt>
      <trkpt lat="42.95365" lon="0.02608">
        <ele>1615.63</ele>
        <time>2013-01-06T08:42:53Z</time>
      </trkpt>
      <trkpt lat="42.95361" lon="0.02609">
        <ele>1616.11</ele>
        <time>2013-01-06T08:42:59Z</time>
      </trkpt>
      <trkpt lat="42.95357" lon="0.02607">
        <ele>1615.63</ele>
        <time>2013-01-06T08:43:03Z</time>
      </trkpt>
      <trkpt lat="42.95357" lon="0.02601">
        <ele>1615.63</ele>
        <time>2013-01-06T08:43:15Z</time>
      </trkpt>
      <trkpt lat="42.95359" lon="0.026">
        <ele>1614.67</ele>
        <time>2013-01-06T08:43:25Z</time>
      </trkpt>
      <trkpt lat="42.9536" lon="0.02602">
        <ele>1615.15</ele>
        <time>2013-01-06T08:43:39Z</time>
      </trkpt>
      <trkpt lat="42.95358" lon="0.02601">
        <ele>1614.67</ele>
        <time>2013-01-06T08:43:55Z</time>
      </trkpt>
      <trkpt lat="42.95358" lon="0.02602">
        <ele>1614.67</ele>
        <time>2013-01-06T08:44:13Z</time>
      </trkpt>
      <trkpt lat="42.9536" lon="0.02601">
        <ele>1615.15</ele>
        <time>2013-01-06T08:44:25Z</time>
      </trkpt>
      <trkpt lat="42.9536" lon="0.02601">
        <ele>1614.67</ele>
        <time>2013-01-06T08:44:47Z</time>
      </trkpt>
      <trkpt lat="42.95359" lon="0.026">
        <ele>1614.67</ele>
        <time>2013-01-06T08:45:12Z</time>
      </trkpt>
      <trkpt lat="42.95359" lon="0.026">
        <ele>1614.67</ele>
        <time>2013-01-06T08:45:34Z</time>
      </trkpt>
      <trkpt lat="42.95359" lon="0.026">
        <ele>1615.15</ele>
        <time>2013-01-06T08:45:53Z</time>
      </trkpt>
      <trkpt lat="42.95359" lon="0.02601">
        <ele>1615.63</ele>
        <time>2013-01-06T08:46:13Z</time>
      </trkpt>
      <trkpt lat="42.95359" lon="0.02602">
        <ele>1614.67</ele>
        <time>2013-01-06T08:46:36Z</time>
      </trkpt>
      <trkpt lat="42.95359" lon="0.02602">
        <ele>1614.67</ele>
        <time>2013-01-06T08:46:57Z</time>
      </trkpt>
      <trkpt lat="42.95359" lon="0.02602">
        <ele>1614.67</ele>
        <time>2013-01-06T08:47:24Z</time>
      </trkpt>
      <trkpt lat="42.95358" lon="0.02601">
        <ele>1614.67</ele>
        <time>2013-01-06T08:47:44Z</time>
      </trkpt>
      <trkpt lat="42.95359" lon="0.02602">
        <ele>1614.67</ele>
        <time>2013-01-06T08:48:09Z</time>
      </trkpt>
      <trkpt lat="42.95358" lon="0.02601">
        <ele>1614.67</ele>
        <time>2013-01-06T08:48:32Z</time>
      </trkpt>
      <trkpt lat="42.95358" lon="0.02602">
        <ele>1614.67</ele>
        <time>2013-01-06T08:48:49Z</time>
      </trkpt>
      <trkpt lat="42.95359" lon="0.02601">
        <ele>1614.67</ele>
        <time>2013-01-06T08:49:08Z</time>
      </trkpt>
      <trkpt lat="42.95359" lon="0.02602">
        <ele>1614.67</ele>
        <time>2013-01-06T08:49:29Z</time>
      </trkpt>
      <trkpt lat="42.95358" lon="0.026">
        <ele>1614.19</ele>
        <time>2013-01-06T08:49:44Z</time>
      </trkpt>
      <trkpt lat="42.95359" lon="0.026">
        <ele>1614.19</ele>
        <time>2013-01-06T08:50:03Z</time>
      </trkpt>
      <trkpt lat="42.95359" lon="0.026">
        <ele>1614.19</ele>
        <time>2013-01-06T08:50:19Z</time>
      </trkpt>
      <trkpt lat="42.9536" lon="0.02601">
        <ele>1614.19</ele>
        <time>2013-01-06T08:50:42Z</time>
      </trkpt>
      <trkpt lat="42.9536" lon="0.02601">
        <ele>1614.67</ele>
        <time>2013-01-06T08:51:04Z</time>
      </trkpt>
      <trkpt lat="42.9536" lon="0.02601">
        <ele>1614.19</ele>
        <time>2013-01-06T08:51:22Z</time>
      </trkpt>
      <trkpt lat="42.95359" lon="0.02601">
        <ele>1615.63</ele>
        <time>2013-01-06T08:51:38Z</time>
      </trkpt>
      <trkpt lat="42.9536" lon="0.026">
        <ele>1614.67</ele>
        <time>2013-01-06T08:51:50Z</time>
      </trkpt>
      <trkpt lat="42.95361" lon="0.02598">
        <ele>1614.67</ele>
        <time>2013-01-06T08:51:59Z</time>
      </trkpt>
      <trkpt lat="42.95367" lon="0.02599">
        <ele>1614.67</ele>
        <time>2013-01-06T08:52:12Z</time>
      </trkpt>
      <trkpt lat="42.9537" lon="0.02602">
        <ele>1614.67</ele>
        <time>2013-01-06T08:52:41Z</time>
      </trkpt>
      <trkpt lat="42.95368" lon="0.02598">
        <ele>1615.15</ele>
        <time>2013-01-06T08:53:13Z</time>
      </trkpt>
      <trkpt lat="42.95364" lon="0.02598">
        <ele>1614.67</ele>
        <time>2013-01-06T08:53:26Z</time>
      </trkpt>
      <trkpt lat="42.95364" lon="0.02598">
        <ele>1614.67</ele>
        <time>2013-01-06T08:53:50Z</time>
      </trkpt>
      <trkpt lat="42.95363" lon="0.02597">
        <ele>1615.15</ele>
        <time>2013-01-06T08:54:19Z</time>
      </trkpt>
      <trkpt lat="42.95363" lon="0.02597">
        <ele>1615.15</ele>
        <time>2013-01-06T08:54:38Z</time>
      </trkpt>
      <trkpt lat="42.95359" lon="0.02598">
        <ele>1615.63</ele>
        <time>2013-01-06T08:54:50Z</time>
      </trkpt>
      <trkpt lat="42.95359" lon="0.02598">
        <ele>1615.63</ele>
        <time>2013-01-06T08:55:12Z</time>
      </trkpt>
      <trkpt lat="42.9536" lon="0.02599">
        <ele>1615.63</ele>
        <time>2013-01-06T08:55:25Z</time>
      </trkpt>
      <trkpt lat="42.9536" lon="0.02599">
        <ele>1615.63</ele>
        <time>2013-01-06T08:55:40Z</time>
      </trkpt>
      <trkpt lat="42.9536" lon="0.02599">
        <ele>1614.19</ele>
        <time>2013-01-06T08:55:54Z</time>
      </trkpt>
      <trkpt lat="42.95359" lon="0.02599">
        <ele>1615.63</ele>
        <time>2013-01-06T08:56:09Z</time>
      </trkpt>
      <trkpt lat="42.95357" lon="0.02601">
        <ele>1615.63</ele>
        <time>2013-01-06T08:56:22Z</time>
      </trkpt>
      <trkpt lat="42.95352" lon="0.02604">
        <ele>1616.11</ele>
        <time>2013-01-06T08:56:39Z</time>
      </trkpt>
      <trkpt lat="42.95348" lon="0.02608">
        <ele>1616.11</ele>
        <time>2013-01-06T08:56:48Z</time>
      </trkpt>
      <trkpt lat="42.95341" lon="0.02612">
        <ele>1617.07</ele>
        <time>2013-01-06T08:57:01Z</time>
      </trkpt>
      <trkpt lat="42.95332" lon="0.02617">
        <ele>1618.52</ele>
        <time>2013-01-06T08:57:15Z</time>
      </trkpt>
      <trkpt lat="42.95325" lon="0.02621">
        <ele>1619</ele>
        <time>2013-01-06T08:57:27Z</time>
      </trkpt>
      <trkpt lat="42.95316" lon="0.02626">
        <ele>1619</ele>
        <time>2013-01-06T08:57:39Z</time>
      </trkpt>
      <trkpt lat="42.95309" lon="0.02628">
        <ele>1619.48</ele>
        <time>2013-01-06T08:57:51Z</time>
      </trkpt>
      <trkpt lat="42.953" lon="0.02632">
        <ele>1620.44</ele>
        <time>2013-01-06T08:58:04Z</time>
      </trkpt>
      <trkpt lat="42.95286" lon="0.02642">
        <ele>1619.96</ele>
        <time>2013-01-06T08:58:22Z</time>
      </trkpt>
      <trkpt lat="42.95276" lon="0.02652">
        <ele>1618.52</ele>
        <time>2013-01-06T08:58:36Z</time>
      </trkpt>
      <trkpt lat="42.95265" lon="0.02656">
        <ele>1619.96</ele>
        <time>2013-01-06T08:58:48Z</time>
      </trkpt>
      <trkpt lat="42.95262" lon="0.02659">
        <ele>1620.44</ele>
        <time>2013-01-06T08:58:54Z</time>
      </trkpt>
      <trkpt lat="42.95253" lon="0.0267">
        <ele>1620.44</ele>
        <time>2013-01-06T08:59:08Z</time>
      </trkpt>
      <trkpt lat="42.95244" lon="0.02678">
        <ele>1619.96</ele>
        <time>2013-01-06T08:59:22Z</time>
      </trkpt>
      <trkpt lat="42.9524" lon="0.02682">
        <ele>1619.96</ele>
        <time>2013-01-06T08:59:35Z</time>
      </trkpt>
      <trkpt lat="42.95239" lon="0.02687">
        <ele>1620.44</ele>
        <time>2013-01-06T08:59:50Z</time>
      </trkpt>
      <trkpt lat="42.95236" lon="0.02693">
        <ele>1619.96</ele>
        <time>2013-01-06T09:00:04Z</time>
      </trkpt>
      <trkpt lat="42.95235" lon="0.02699">
        <ele>1619.48</ele>
        <time>2013-01-06T09:00:17Z</time>
      </trkpt>
      <trkpt lat="42.95229" lon="0.02704">
        <ele>1616.59</ele>
        <time>2013-01-06T09:00:29Z</time>
      </trkpt>
      <trkpt lat="42.95226" lon="0.02711">
        <ele>1615.63</ele>
        <time>2013-01-06T09:00:42Z</time>
      </trkpt>
      <trkpt lat="42.95223" lon="0.0272">
        <ele>1614.67</ele>
        <time>2013-01-06T09:00:54Z</time>
      </trkpt>
      <trkpt lat="42.95221" lon="0.02722">
        <ele>1614.19</ele>
        <time>2013-01-06T09:00:57Z</time>
      </trkpt>
      <trkpt lat="42.95217" lon="0.02727">
        <ele>1614.19</ele>
        <time>2013-01-06T09:01:10Z</time>
      </trkpt>
      <trkpt lat="42.9521" lon="0.02736">
        <ele>1613.71</ele>
        <time>2013-01-06T09:01:24Z</time>
      </trkpt>
      <trkpt lat="42.95205" lon="0.02747">
        <ele>1613.71</ele>
        <time>2013-01-06T09:01:37Z</time>
      </trkpt>
      <trkpt lat="42.95197" lon="0.02756">
        <ele>1614.19</ele>
        <time>2013-01-06T09:01:51Z</time>
      </trkpt>
      <trkpt lat="42.95192" lon="0.02759">
        <ele>1614.19</ele>
        <time>2013-01-06T09:02:13Z</time>
      </trkpt>
      <trkpt lat="42.95182" lon="0.02766">
        <ele>1615.15</ele>
        <time>2013-01-06T09:02:25Z</time>
      </trkpt>
      <trkpt lat="42.95177" lon="0.02771">
        <ele>1614.67</ele>
        <time>2013-01-06T09:02:33Z</time>
      </trkpt>
      <trkpt lat="42.95175" lon="0.02774">
        <ele>1614.19</ele>
        <time>2013-01-06T09:02:37Z</time>
      </trkpt>
      <trkpt lat="42.95171" lon="0.02783">
        <ele>1615.15</ele>
        <time>2013-01-06T09:02:46Z</time>
      </trkpt>
      <trkpt lat="42.95161" lon="0.02793">
        <ele>1615.63</ele>
        <time>2013-01-06T09:03:00Z</time>
      </trkpt>
      <trkpt lat="42.95148" lon="0.02799">
        <ele>1615.63</ele>
        <time>2013-01-06T09:03:14Z</time>
      </trkpt>
      <trkpt lat="42.95142" lon="0.02801">
        <ele>1615.15</ele>
        <time>2013-01-06T09:03:25Z</time>
      </trkpt>
      <trkpt lat="42.95128" lon="0.02807">
        <ele>1615.15</ele>
        <time>2013-01-06T09:03:39Z</time>
      </trkpt>
      <trkpt lat="42.95117" lon="0.02812">
        <ele>1615.63</ele>
        <time>2013-01-06T09:03:52Z</time>
      </trkpt>
      <trkpt lat="42.95108" lon="0.02816">
        <ele>1616.11</ele>
        <time>2013-01-06T09:04:03Z</time>
      </trkpt>
      <trkpt lat="42.95107" lon="0.02816">
        <ele>1616.11</ele>
        <time>2013-01-06T09:04:04Z</time>
      </trkpt>
      <trkpt lat="42.95105" lon="0.02817">
        <ele>1616.11</ele>
        <time>2013-01-06T09:04:06Z</time>
      </trkpt>
      <trkpt lat="42.95101" lon="0.02821">
        <ele>1616.59</ele>
        <time>2013-01-06T09:04:13Z</time>
      </trkpt>
      <trkpt lat="42.95094" lon="0.02825">
        <ele>1616.59</ele>
        <time>2013-01-06T09:04:30Z</time>
      </trkpt>
      <trkpt lat="42.95094" lon="0.02825">
        <ele>1617.07</ele>
        <time>2013-01-06T09:04:53Z</time>
      </trkpt>
      <trkpt lat="42.95091" lon="0.02829">
        <ele>1616.11</ele>
        <time>2013-01-06T09:05:13Z</time>
      </trkpt>
      <trkpt lat="42.95081" lon="0.0284">
        <ele>1615.63</ele>
        <time>2013-01-06T09:05:26Z</time>
      </trkpt>
      <trkpt lat="42.9508" lon="0.0284">
        <ele>1616.59</ele>
        <time>2013-01-06T09:05:39Z</time>
      </trkpt>
      <trkpt lat="42.95076" lon="0.02846">
        <ele>1617.07</ele>
        <time>2013-01-06T09:05:47Z</time>
      </trkpt>
      <trkpt lat="42.95066" lon="0.02858">
        <ele>1616.59</ele>
        <time>2013-01-06T09:06:01Z</time>
      </trkpt>
      <trkpt lat="42.95066" lon="0.0286">
        <ele>1616.59</ele>
        <time>2013-01-06T09:06:03Z</time>
      </trkpt>
      <trkpt lat="42.95056" lon="0.02873">
        <ele>1616.59</ele>
        <time>2013-01-06T09:06:17Z</time>
      </trkpt>
      <trkpt lat="42.95048" lon="0.02884">
        <ele>1617.07</ele>
        <time>2013-01-06T09:06:28Z</time>
      </trkpt>
      <trkpt lat="42.9504" lon="0.02894">
        <ele>1618.04</ele>
        <time>2013-01-06T09:06:41Z</time>
      </trkpt>
      <trkpt lat="42.95034" lon="0.02898">
        <ele>1619.96</ele>
        <time>2013-01-06T09:06:54Z</time>
      </trkpt>
      <trkpt lat="42.95029" lon="0.02902">
        <ele>1621.88</ele>
        <time>2013-01-06T09:07:05Z</time>
      </trkpt>
      <trkpt lat="42.9502" lon="0.02913">
        <ele>1622.84</ele>
        <time>2013-01-06T09:07:19Z</time>
      </trkpt>
      <trkpt lat="42.95011" lon="0.02922">
        <ele>1622.84</ele>
        <time>2013-01-06T09:07:32Z</time>
      </trkpt>
      <trkpt lat="42.95002" lon="0.02931">
        <ele>1623.8</ele>
        <time>2013-01-06T09:07:47Z</time>
      </trkpt>
      <trkpt lat="42.94993" lon="0.02942">
        <ele>1624.28</ele>
        <time>2013-01-06T09:08:01Z</time>
      </trkpt>
      <trkpt lat="42.94986" lon="0.02949">
        <ele>1625.25</ele>
        <time>2013-01-06T09:08:13Z</time>
      </trkpt>
      <trkpt lat="42.94977" lon="0.02958">
        <ele>1626.21</ele>
        <time>2013-01-06T09:08:27Z</time>
      </trkpt>
      <trkpt lat="42.94972" lon="0.02968">
        <ele>1627.17</ele>
        <time>2013-01-06T09:08:41Z</time>
      </trkpt>
      <trkpt lat="42.94961" lon="0.02977">
        <ele>1628.61</ele>
        <time>2013-01-06T09:08:55Z</time>
      </trkpt>
      <trkpt lat="42.94958" lon="0.02979">
        <ele>1629.09</ele>
        <time>2013-01-06T09:09:11Z</time>
      </trkpt>
      <trkpt lat="42.94957" lon="0.02978">
        <ele>1629.57</ele>
        <time>2013-01-06T09:09:32Z</time>
      </trkpt>
      <trkpt lat="42.94957" lon="0.02978">
        <ele>1629.57</ele>
        <time>2013-01-06T09:09:46Z</time>
      </trkpt>
      <trkpt lat="42.94949" lon="0.02989">
        <ele>1630.05</ele>
        <time>2013-01-06T09:09:58Z</time>
      </trkpt>
      <trkpt lat="42.94944" lon="0.03002">
        <ele>1631.49</ele>
        <time>2013-01-06T09:10:12Z</time>
      </trkpt>
      <trkpt lat="42.94936" lon="0.03014">
        <ele>1632.46</ele>
        <time>2013-01-06T09:10:26Z</time>
      </trkpt>
      <trkpt lat="42.94926" lon="0.03027">
        <ele>1632.94</ele>
        <time>2013-01-06T09:10:39Z</time>
      </trkpt>
      <trkpt lat="42.94925" lon="0.0303">
        <ele>1633.42</ele>
        <time>2013-01-06T09:10:42Z</time>
      </trkpt>
      <trkpt lat="42.94916" lon="0.03039">
        <ele>1633.9</ele>
        <time>2013-01-06T09:10:55Z</time>
      </trkpt>
      <trkpt lat="42.94915" lon="0.0304">
        <ele>1633.9</ele>
        <time>2013-01-06T09:10:56Z</time>
      </trkpt>
      <trkpt lat="42.94908" lon="0.03049">
        <ele>1634.38</ele>
        <time>2013-01-06T09:11:09Z</time>
      </trkpt>
      <trkpt lat="42.94899" lon="0.03061">
        <ele>1635.34</ele>
        <time>2013-01-06T09:11:23Z</time>
      </trkpt>
      <trkpt lat="42.94886" lon="0.03074">
        <ele>1635.82</ele>
        <time>2013-01-06T09:11:40Z</time>
      </trkpt>
      <trkpt lat="42.94876" lon="0.03085">
        <ele>1635.82</ele>
        <time>2013-01-06T09:11:54Z</time>
      </trkpt>
      <trkpt lat="42.94868" lon="0.03094">
        <ele>1636.78</ele>
        <time>2013-01-06T09:12:07Z</time>
      </trkpt>
      <trkpt lat="42.94863" lon="0.03104">
        <ele>1637.74</ele>
        <time>2013-01-06T09:12:21Z</time>
      </trkpt>
      <trkpt lat="42.9486" lon="0.03108">
        <ele>1637.26</ele>
        <time>2013-01-06T09:12:26Z</time>
      </trkpt>
      <trkpt lat="42.94852" lon="0.03118">
        <ele>1638.22</ele>
        <time>2013-01-06T09:12:39Z</time>
      </trkpt>
      <trkpt lat="42.94845" lon="0.03128">
        <ele>1638.7</ele>
        <time>2013-01-06T09:12:53Z</time>
      </trkpt>
      <trkpt lat="42.94837" lon="0.03137">
        <ele>1637.74</ele>
        <time>2013-01-06T09:13:08Z</time>
      </trkpt>
      <trkpt lat="42.94827" lon="0.03143">
        <ele>1636.3</ele>
        <time>2013-01-06T09:13:23Z</time>
      </trkpt>
      <trkpt lat="42.94826" lon="0.03144">
        <ele>1636.78</ele>
        <time>2013-01-06T09:13:24Z</time>
      </trkpt>
      <trkpt lat="42.94814" lon="0.03143">
        <ele>1634.86</ele>
        <time>2013-01-06T09:13:39Z</time>
      </trkpt>
      <trkpt lat="42.94802" lon="0.03143">
        <ele>1634.86</ele>
        <time>2013-01-06T09:13:53Z</time>
      </trkpt>
      <trkpt lat="42.94794" lon="0.03142">
        <ele>1633.9</ele>
        <time>2013-01-06T09:14:01Z</time>
      </trkpt>
      <trkpt lat="42.94786" lon="0.03141">
        <ele>1634.38</ele>
        <time>2013-01-06T09:14:13Z</time>
      </trkpt>
      <trkpt lat="42.94781" lon="0.03139">
        <ele>1633.9</ele>
        <time>2013-01-06T09:14:28Z</time>
      </trkpt>
      <trkpt lat="42.94774" lon="0.03137">
        <ele>1636.3</ele>
        <time>2013-01-06T09:14:40Z</time>
      </trkpt>
      <trkpt lat="42.94768" lon="0.03136">
        <ele>1637.26</ele>
        <time>2013-01-06T09:14:53Z</time>
      </trkpt>
      <trkpt lat="42.94759" lon="0.03132">
        <ele>1639.67</ele>
        <time>2013-01-06T09:15:07Z</time>
      </trkpt>
      <trkpt lat="42.9475" lon="0.03129">
        <ele>1641.11</ele>
        <time>2013-01-06T09:15:20Z</time>
      </trkpt>
      <trkpt lat="42.94743" lon="0.0313">
        <ele>1642.55</ele>
        <time>2013-01-06T09:15:34Z</time>
      </trkpt>
      <trkpt lat="42.94738" lon="0.03134">
        <ele>1644.47</ele>
        <time>2013-01-06T09:15:47Z</time>
      </trkpt>
      <trkpt lat="42.94732" lon="0.03134">
        <ele>1645.91</ele>
        <time>2013-01-06T09:16:00Z</time>
      </trkpt>
      <trkpt lat="42.94725" lon="0.03137">
        <ele>1647.36</ele>
        <time>2013-01-06T09:16:14Z</time>
      </trkpt>
      <trkpt lat="42.94716" lon="0.0314">
        <ele>1648.32</ele>
        <time>2013-01-06T09:16:27Z</time>
      </trkpt>
      <trkpt lat="42.94709" lon="0.03143">
        <ele>1650.24</ele>
        <time>2013-01-06T09:16:42Z</time>
      </trkpt>
      <trkpt lat="42.94701" lon="0.03145">
        <ele>1652.16</ele>
        <time>2013-01-06T09:16:55Z</time>
      </trkpt>
      <trkpt lat="42.94695" lon="0.03147">
        <ele>1654.09</ele>
        <time>2013-01-06T09:17:06Z</time>
      </trkpt>
      <trkpt lat="42.94689" lon="0.03149">
        <ele>1655.05</ele>
        <time>2013-01-06T09:17:21Z</time>
      </trkpt>
      <trkpt lat="42.94687" lon="0.03149">
        <ele>1655.53</ele>
        <time>2013-01-06T09:17:23Z</time>
      </trkpt>
      <trkpt lat="42.94682" lon="0.03151">
        <ele>1655.53</ele>
        <time>2013-01-06T09:17:32Z</time>
      </trkpt>
      <trkpt lat="42.94675" lon="0.03151">
        <ele>1656.97</ele>
        <time>2013-01-06T09:17:44Z</time>
      </trkpt>
      <trkpt lat="42.9467" lon="0.0315">
        <ele>1658.41</ele>
        <time>2013-01-06T09:17:55Z</time>
      </trkpt>
      <trkpt lat="42.9467" lon="0.03148">
        <ele>1657.93</ele>
        <time>2013-01-06T09:18:20Z</time>
      </trkpt>
      <trkpt lat="42.94664" lon="0.03148">
        <ele>1659.37</ele>
        <time>2013-01-06T09:18:38Z</time>
      </trkpt>
      <trkpt lat="42.94659" lon="0.03149">
        <ele>1660.33</ele>
        <time>2013-01-06T09:18:44Z</time>
      </trkpt>
      <trkpt lat="42.94652" lon="0.03155">
        <ele>1661.78</ele>
        <time>2013-01-06T09:18:58Z</time>
      </trkpt>
      <trkpt lat="42.94645" lon="0.03157">
        <ele>1663.22</ele>
        <time>2013-01-06T09:19:12Z</time>
      </trkpt>
      <trkpt lat="42.94639" lon="0.03159">
        <ele>1665.62</ele>
        <time>2013-01-06T09:19:24Z</time>
      </trkpt>
      <trkpt lat="42.94629" lon="0.03165">
        <ele>1666.1</ele>
        <time>2013-01-06T09:19:37Z</time>
      </trkpt>
      <trkpt lat="42.94621" lon="0.03165">
        <ele>1667.06</ele>
        <time>2013-01-06T09:19:50Z</time>
      </trkpt>
      <trkpt lat="42.94613" lon="0.03164">
        <ele>1668.51</ele>
        <time>2013-01-06T09:20:04Z</time>
      </trkpt>
      <trkpt lat="42.94608" lon="0.03164">
        <ele>1670.43</ele>
        <time>2013-01-06T09:20:14Z</time>
      </trkpt>
      <trkpt lat="42.94601" lon="0.03164">
        <ele>1671.87</ele>
        <time>2013-01-06T09:20:27Z</time>
      </trkpt>
      <trkpt lat="42.94592" lon="0.03164">
        <ele>1673.31</ele>
        <time>2013-01-06T09:20:42Z</time>
      </trkpt>
      <trkpt lat="42.94595" lon="0.03163">
        <ele>1675.23</ele>
        <time>2013-01-06T09:20:56Z</time>
      </trkpt>
      <trkpt lat="42.94601" lon="0.0317">
        <ele>1676.68</ele>
        <time>2013-01-06T09:21:10Z</time>
      </trkpt>
      <trkpt lat="42.94606" lon="0.0318">
        <ele>1678.6</ele>
        <time>2013-01-06T09:21:24Z</time>
      </trkpt>
      <trkpt lat="42.94609" lon="0.03187">
        <ele>1679.56</ele>
        <time>2013-01-06T09:21:38Z</time>
      </trkpt>
      <trkpt lat="42.94603" lon="0.03185">
        <ele>1682.44</ele>
        <time>2013-01-06T09:21:53Z</time>
      </trkpt>
      <trkpt lat="42.946" lon="0.03183">
        <ele>1683.41</ele>
        <time>2013-01-06T09:22:06Z</time>
      </trkpt>
      <trkpt lat="42.94598" lon="0.03183">
        <ele>1685.33</ele>
        <time>2013-01-06T09:22:19Z</time>
      </trkpt>
      <trkpt lat="42.9459" lon="0.0318">
        <ele>1687.25</ele>
        <time>2013-01-06T09:22:35Z</time>
      </trkpt>
      <trkpt lat="42.94582" lon="0.03177">
        <ele>1688.69</ele>
        <time>2013-01-06T09:22:47Z</time>
      </trkpt>
      <trkpt lat="42.9458" lon="0.03177">
        <ele>1690.62</ele>
        <time>2013-01-06T09:22:58Z</time>
      </trkpt>
      <trkpt lat="42.9458" lon="0.03183">
        <ele>1692.54</ele>
        <time>2013-01-06T09:23:15Z</time>
      </trkpt>
      <trkpt lat="42.94584" lon="0.032">
        <ele>1693.5</ele>
        <time>2013-01-06T09:23:33Z</time>
      </trkpt>
      <trkpt lat="42.94584" lon="0.03203">
        <ele>1694.94</ele>
        <time>2013-01-06T09:23:44Z</time>
      </trkpt>
      <trkpt lat="42.94578" lon="0.032">
        <ele>1696.38</ele>
        <time>2013-01-06T09:23:56Z</time>
      </trkpt>
      <trkpt lat="42.94568" lon="0.03196">
        <ele>1698.31</ele>
        <time>2013-01-06T09:24:11Z</time>
      </trkpt>
      <trkpt lat="42.94562" lon="0.03193">
        <ele>1699.75</ele>
        <time>2013-01-06T09:24:23Z</time>
      </trkpt>
      <trkpt lat="42.94561" lon="0.03191">
        <ele>1700.23</ele>
        <time>2013-01-06T09:24:35Z</time>
      </trkpt>
      <trkpt lat="42.94562" lon="0.03199">
        <ele>1701.67</ele>
        <time>2013-01-06T09:24:50Z</time>
      </trkpt>
      <trkpt lat="42.94561" lon="0.03206">
        <ele>1703.11</ele>
        <time>2013-01-06T09:25:04Z</time>
      </trkpt>
      <trkpt lat="42.94561" lon="0.03202">
        <ele>1704.07</ele>
        <time>2013-01-06T09:25:15Z</time>
      </trkpt>
      <trkpt lat="42.94553" lon="0.03198">
        <ele>1705.52</ele>
        <time>2013-01-06T09:25:30Z</time>
      </trkpt>
      <trkpt lat="42.94551" lon="0.03196">
        <ele>1706.96</ele>
        <time>2013-01-06T09:25:43Z</time>
      </trkpt>
      <trkpt lat="42.94549" lon="0.03192">
        <ele>1708.88</ele>
        <time>2013-01-06T09:25:57Z</time>
      </trkpt>
      <trkpt lat="42.94547" lon="0.03193">
        <ele>1711.28</ele>
        <time>2013-01-06T09:26:10Z</time>
      </trkpt>
      <trkpt lat="42.9454" lon="0.03189">
        <ele>1712.25</ele>
        <time>2013-01-06T09:26:22Z</time>
      </trkpt>
      <trkpt lat="42.94539" lon="0.03188">
        <ele>1712.73</ele>
        <time>2013-01-06T09:26:37Z</time>
      </trkpt>
      <trkpt lat="42.94537" lon="0.03187">
        <ele>1713.21</ele>
        <time>2013-01-06T09:26:59Z</time>
      </trkpt>
      <trkpt lat="42.94537" lon="0.03187">
        <ele>1713.21</ele>
        <time>2013-01-06T09:27:22Z</time>
      </trkpt>
      <trkpt lat="42.94537" lon="0.03187">
        <ele>1712.73</ele>
        <time>2013-01-06T09:27:42Z</time>
      </trkpt>
      <trkpt lat="42.94537" lon="0.03186">
        <ele>1713.21</ele>
        <time>2013-01-06T09:28:09Z</time>
      </trkpt>
      <trkpt lat="42.94537" lon="0.03186">
        <ele>1713.21</ele>
        <time>2013-01-06T09:28:34Z</time>
      </trkpt>
      <trkpt lat="42.94537" lon="0.03186">
        <ele>1713.21</ele>
        <time>2013-01-06T09:28:59Z</time>
      </trkpt>
      <trkpt lat="42.94537" lon="0.03186">
        <ele>1713.21</ele>
        <time>2013-01-06T09:29:21Z</time>
      </trkpt>
      <trkpt lat="42.94537" lon="0.03186">
        <ele>1712.73</ele>
        <time>2013-01-06T09:29:47Z</time>
      </trkpt>
      <trkpt lat="42.94537" lon="0.03185">
        <ele>1713.21</ele>
        <time>2013-01-06T09:30:05Z</time>
      </trkpt>
      <trkpt lat="42.94537" lon="0.03185">
        <ele>1713.21</ele>
        <time>2013-01-06T09:30:31Z</time>
      </trkpt>
      <trkpt lat="42.94537" lon="0.03185">
        <ele>1713.21</ele>
        <time>2013-01-06T09:30:52Z</time>
      </trkpt>
      <trkpt lat="42.94536" lon="0.03185">
        <ele>1713.21</ele>
        <time>2013-01-06T09:31:06Z</time>
      </trkpt>
      <trkpt lat="42.94529" lon="0.0318">
        <ele>1712.25</ele>
        <time>2013-01-06T09:31:18Z</time>
      </trkpt>
      <trkpt lat="42.94518" lon="0.03172">
        <ele>1712.73</ele>
        <time>2013-01-06T09:31:31Z</time>
      </trkpt>
      <trkpt lat="42.94512" lon="0.03168">
        <ele>1712.73</ele>
        <time>2013-01-06T09:31:36Z</time>
      </trkpt>
      <trkpt lat="42.945" lon="0.03163">
        <ele>1712.73</ele>
        <time>2013-01-06T09:31:49Z</time>
      </trkpt>
      <trkpt lat="42.9449" lon="0.03165">
        <ele>1713.21</ele>
        <time>2013-01-06T09:32:02Z</time>
      </trkpt>
      <trkpt lat="42.94481" lon="0.03167">
        <ele>1714.65</ele>
        <time>2013-01-06T09:32:14Z</time>
      </trkpt>
      <trkpt lat="42.94471" lon="0.03169">
        <ele>1715.61</ele>
        <time>2013-01-06T09:32:29Z</time>
      </trkpt>
      <trkpt lat="42.94466" lon="0.0317">
        <ele>1717.05</ele>
        <time>2013-01-06T09:32:42Z</time>
      </trkpt>
      <trkpt lat="42.94463" lon="0.03172">
        <ele>1716.57</ele>
        <time>2013-01-06T09:32:47Z</time>
      </trkpt>
      <trkpt lat="42.94453" lon="0.03183">
        <ele>1717.53</ele>
        <time>2013-01-06T09:33:01Z</time>
      </trkpt>
      <trkpt lat="42.94442" lon="0.03189">
        <ele>1717.05</ele>
        <time>2013-01-06T09:33:16Z</time>
      </trkpt>
      <trkpt lat="42.94437" lon="0.03188">
        <ele>1718.97</ele>
        <time>2013-01-06T09:33:26Z</time>
      </trkpt>
      <trkpt lat="42.94428" lon="0.03192">
        <ele>1721.38</ele>
        <time>2013-01-06T09:33:40Z</time>
      </trkpt>
      <trkpt lat="42.9442" lon="0.03193">
        <ele>1723.3</ele>
        <time>2013-01-06T09:33:53Z</time>
      </trkpt>
      <trkpt lat="42.94413" lon="0.03187">
        <ele>1724.74</ele>
        <time>2013-01-06T09:34:05Z</time>
      </trkpt>
      <trkpt lat="42.94412" lon="0.03177">
        <ele>1725.7</ele>
        <time>2013-01-06T09:34:17Z</time>
      </trkpt>
      <trkpt lat="42.94406" lon="0.0317">
        <ele>1728.11</ele>
        <time>2013-01-06T09:34:32Z</time>
      </trkpt>
      <trkpt lat="42.94396" lon="0.03176">
        <ele>1726.18</ele>
        <time>2013-01-06T09:34:44Z</time>
      </trkpt>
      <trkpt lat="42.94385" lon="0.03169">
        <ele>1725.22</ele>
        <time>2013-01-06T09:34:55Z</time>
      </trkpt>
      <trkpt lat="42.94377" lon="0.03164">
        <ele>1725.22</ele>
        <time>2013-01-06T09:35:05Z</time>
      </trkpt>
      <trkpt lat="42.94374" lon="0.0316">
        <ele>1725.7</ele>
        <time>2013-01-06T09:35:09Z</time>
      </trkpt>
      <trkpt lat="42.94364" lon="0.03152">
        <ele>1726.18</ele>
        <time>2013-01-06T09:35:25Z</time>
      </trkpt>
      <trkpt lat="42.94355" lon="0.0314">
        <ele>1726.18</ele>
        <time>2013-01-06T09:35:39Z</time>
      </trkpt>
      <trkpt lat="42.9435" lon="0.03133">
        <ele>1726.18</ele>
        <time>2013-01-06T09:35:51Z</time>
      </trkpt>
      <trkpt lat="42.94343" lon="0.03128">
        <ele>1727.63</ele>
        <time>2013-01-06T09:36:04Z</time>
      </trkpt>
      <trkpt lat="42.94341" lon="0.03126">
        <ele>1729.07</ele>
        <time>2013-01-06T09:36:16Z</time>
      </trkpt>
      <trkpt lat="42.94337" lon="0.03124">
        <ele>1730.51</ele>
        <time>2013-01-06T09:36:30Z</time>
      </trkpt>
      <trkpt lat="42.94335" lon="0.03122">
        <ele>1731.95</ele>
        <time>2013-01-06T09:36:43Z</time>
      </trkpt>
      <trkpt lat="42.94332" lon="0.03119">
        <ele>1734.36</ele>
        <time>2013-01-06T09:36:56Z</time>
      </trkpt>
      <trkpt lat="42.94327" lon="0.03114">
        <ele>1735.8</ele>
        <time>2013-01-06T09:37:09Z</time>
      </trkpt>
      <trkpt lat="42.94323" lon="0.03109">
        <ele>1738.2</ele>
        <time>2013-01-06T09:37:22Z</time>
      </trkpt>
      <trkpt lat="42.94319" lon="0.03107">
        <ele>1740.12</ele>
        <time>2013-01-06T09:37:37Z</time>
      </trkpt>
      <trkpt lat="42.94317" lon="0.03104">
        <ele>1742.05</ele>
        <time>2013-01-06T09:37:51Z</time>
      </trkpt>
      <trkpt lat="42.94314" lon="0.03101">
        <ele>1743.49</ele>
        <time>2013-01-06T09:38:05Z</time>
      </trkpt>
      <trkpt lat="42.94307" lon="0.03096">
        <ele>1744.93</ele>
        <time>2013-01-06T09:38:18Z</time>
      </trkpt>
      <trkpt lat="42.94302" lon="0.03093">
        <ele>1746.37</ele>
        <time>2013-01-06T09:38:31Z</time>
      </trkpt>
      <trkpt lat="42.94291" lon="0.03087">
        <ele>1748.78</ele>
        <time>2013-01-06T09:38:45Z</time>
      </trkpt>
      <trkpt lat="42.94287" lon="0.03085">
        <ele>1750.22</ele>
        <time>2013-01-06T09:38:58Z</time>
      </trkpt>
      <trkpt lat="42.94282" lon="0.03082">
        <ele>1751.66</ele>
        <time>2013-01-06T09:39:11Z</time>
      </trkpt>
      <trkpt lat="42.9428" lon="0.0308">
        <ele>1753.58</ele>
        <time>2013-01-06T09:39:24Z</time>
      </trkpt>
      <trkpt lat="42.94275" lon="0.03076">
        <ele>1755.02</ele>
        <time>2013-01-06T09:39:38Z</time>
      </trkpt>
      <trkpt lat="42.94273" lon="0.03075">
        <ele>1757.43</ele>
        <time>2013-01-06T09:39:49Z</time>
      </trkpt>
      <trkpt lat="42.9427" lon="0.03076">
        <ele>1759.35</ele>
        <time>2013-01-06T09:40:03Z</time>
      </trkpt>
      <trkpt lat="42.94263" lon="0.03076">
        <ele>1760.79</ele>
        <time>2013-01-06T09:40:16Z</time>
      </trkpt>
      <trkpt lat="42.94258" lon="0.03075">
        <ele>1762.71</ele>
        <time>2013-01-06T09:40:29Z</time>
      </trkpt>
      <trkpt lat="42.94256" lon="0.03074">
        <ele>1763.68</ele>
        <time>2013-01-06T09:40:42Z</time>
      </trkpt>
      <trkpt lat="42.94248" lon="0.03069">
        <ele>1766.56</ele>
        <time>2013-01-06T09:40:57Z</time>
      </trkpt>
      <trkpt lat="42.94243" lon="0.03064">
        <ele>1768.48</ele>
        <time>2013-01-06T09:41:10Z</time>
      </trkpt>
      <trkpt lat="42.94236" lon="0.03054">
        <ele>1769.44</ele>
        <time>2013-01-06T09:41:24Z</time>
      </trkpt>
      <trkpt lat="42.94229" lon="0.03045">
        <ele>1771.85</ele>
        <time>2013-01-06T09:41:37Z</time>
      </trkpt>
      <trkpt lat="42.94222" lon="0.0305">
        <ele>1773.77</ele>
        <time>2013-01-06T09:41:51Z</time>
      </trkpt>
      <trkpt lat="42.94219" lon="0.03058">
        <ele>1775.21</ele>
        <time>2013-01-06T09:42:04Z</time>
      </trkpt>
      <trkpt lat="42.94216" lon="0.03053">
        <ele>1776.65</ele>
        <time>2013-01-06T09:42:15Z</time>
      </trkpt>
      <trkpt lat="42.94211" lon="0.03048">
        <ele>1778.1</ele>
        <time>2013-01-06T09:42:28Z</time>
      </trkpt>
      <trkpt lat="42.94208" lon="0.03042">
        <ele>1780.5</ele>
        <time>2013-01-06T09:42:39Z</time>
      </trkpt>
      <trkpt lat="42.94205" lon="0.03039">
        <ele>1781.46</ele>
        <time>2013-01-06T09:42:50Z</time>
      </trkpt>
      <trkpt lat="42.94203" lon="0.03042">
        <ele>1783.86</ele>
        <time>2013-01-06T09:43:04Z</time>
      </trkpt>
      <trkpt lat="42.94203" lon="0.03051">
        <ele>1786.27</ele>
        <time>2013-01-06T09:43:19Z</time>
      </trkpt>
      <trkpt lat="42.94205" lon="0.03064">
        <ele>1787.23</ele>
        <time>2013-01-06T09:43:34Z</time>
      </trkpt>
      <trkpt lat="42.94206" lon="0.03079">
        <ele>1788.67</ele>
        <time>2013-01-06T09:43:49Z</time>
      </trkpt>
      <trkpt lat="42.94202" lon="0.03083">
        <ele>1791.07</ele>
        <time>2013-01-06T09:44:02Z</time>
      </trkpt>
      <trkpt lat="42.94197" lon="0.03076">
        <ele>1792.52</ele>
        <time>2013-01-06T09:44:16Z</time>
      </trkpt>
      <trkpt lat="42.94192" lon="0.03073">
        <ele>1794.92</ele>
        <time>2013-01-06T09:44:30Z</time>
      </trkpt>
      <trkpt lat="42.9419" lon="0.03081">
        <ele>1797.32</ele>
        <time>2013-01-06T09:44:45Z</time>
      </trkpt>
      <trkpt lat="42.94186" lon="0.03089">
        <ele>1799.73</ele>
        <time>2013-01-06T09:44:59Z</time>
      </trkpt>
      <trkpt lat="42.94182" lon="0.03096">
        <ele>1801.65</ele>
        <time>2013-01-06T09:45:13Z</time>
      </trkpt>
      <trkpt lat="42.94176" lon="0.03103">
        <ele>1803.57</ele>
        <time>2013-01-06T09:45:26Z</time>
      </trkpt>
      <trkpt lat="42.94172" lon="0.03104">
        <ele>1804.53</ele>
        <time>2013-01-06T09:45:38Z</time>
      </trkpt>
      <trkpt lat="42.94169" lon="0.03096">
        <ele>1806.45</ele>
        <time>2013-01-06T09:45:52Z</time>
      </trkpt>
      <trkpt lat="42.94164" lon="0.03085">
        <ele>1808.38</ele>
        <time>2013-01-06T09:46:08Z</time>
      </trkpt>
      <trkpt lat="42.9416" lon="0.03076">
        <ele>1811.26</ele>
        <time>2013-01-06T09:46:25Z</time>
      </trkpt>
      <trkpt lat="42.94157" lon="0.03067">
        <ele>1813.18</ele>
        <time>2013-01-06T09:46:40Z</time>
      </trkpt>
      <trkpt lat="42.94153" lon="0.03068">
        <ele>1814.63</ele>
        <time>2013-01-06T09:46:52Z</time>
      </trkpt>
      <trkpt lat="42.94146" lon="0.03076">
        <ele>1817.03</ele>
        <time>2013-01-06T09:47:07Z</time>
      </trkpt>
      <trkpt lat="42.94141" lon="0.03079">
        <ele>1819.43</ele>
        <time>2013-01-06T09:47:22Z</time>
      </trkpt>
      <trkpt lat="42.94137" lon="0.03072">
        <ele>1821.35</ele>
        <time>2013-01-06T09:47:37Z</time>
      </trkpt>
      <trkpt lat="42.94135" lon="0.03063">
        <ele>1823.76</ele>
        <time>2013-01-06T09:47:52Z</time>
      </trkpt>
      <trkpt lat="42.94134" lon="0.03055">
        <ele>1825.2</ele>
        <time>2013-01-06T09:48:05Z</time>
      </trkpt>
      <trkpt lat="42.94129" lon="0.03051">
        <ele>1827.6</ele>
        <time>2013-01-06T09:48:20Z</time>
      </trkpt>
      <trkpt lat="42.94123" lon="0.03059">
        <ele>1830.01</ele>
        <time>2013-01-06T09:48:35Z</time>
      </trkpt>
      <trkpt lat="42.94119" lon="0.03068">
        <ele>1831.93</ele>
        <time>2013-01-06T09:48:49Z</time>
      </trkpt>
      <trkpt lat="42.94115" lon="0.03077">
        <ele>1833.37</ele>
        <time>2013-01-06T09:49:03Z</time>
      </trkpt>
      <trkpt lat="42.94115" lon="0.03077">
        <ele>1833.37</ele>
        <time>2013-01-06T09:49:04Z</time>
      </trkpt>
      <trkpt lat="42.94112" lon="0.03077">
        <ele>1835.77</ele>
        <time>2013-01-06T09:49:17Z</time>
      </trkpt>
      <trkpt lat="42.94109" lon="0.03066">
        <ele>1837.7</ele>
        <time>2013-01-06T09:49:33Z</time>
      </trkpt>
      <trkpt lat="42.94105" lon="0.03059">
        <ele>1839.14</ele>
        <time>2013-01-06T09:49:43Z</time>
      </trkpt>
      <trkpt lat="42.94101" lon="0.03054">
        <ele>1841.06</ele>
        <time>2013-01-06T09:49:55Z</time>
      </trkpt>
      <trkpt lat="42.94096" lon="0.03053">
        <ele>1843.95</ele>
        <time>2013-01-06T09:50:10Z</time>
      </trkpt>
      <trkpt lat="42.94091" lon="0.0305">
        <ele>1844.91</ele>
        <time>2013-01-06T09:50:23Z</time>
      </trkpt>
      <trkpt lat="42.94087" lon="0.03047">
        <ele>1846.35</ele>
        <time>2013-01-06T09:50:34Z</time>
      </trkpt>
      <trkpt lat="42.94082" lon="0.03044">
        <ele>1849.23</ele>
        <time>2013-01-06T09:50:48Z</time>
      </trkpt>
      <trkpt lat="42.9408" lon="0.03043">
        <ele>1851.64</ele>
        <time>2013-01-06T09:51:01Z</time>
      </trkpt>
      <trkpt lat="42.94074" lon="0.03043">
        <ele>1853.08</ele>
        <time>2013-01-06T09:51:14Z</time>
      </trkpt>
      <trkpt lat="42.94068" lon="0.03042">
        <ele>1855</ele>
        <time>2013-01-06T09:51:28Z</time>
      </trkpt>
      <trkpt lat="42.94061" lon="0.03039">
        <ele>1855.96</ele>
        <time>2013-01-06T09:51:40Z</time>
      </trkpt>
      <trkpt lat="42.94058" lon="0.0304">
        <ele>1858.85</ele>
        <time>2013-01-06T09:51:58Z</time>
      </trkpt>
      <trkpt lat="42.94052" lon="0.03038">
        <ele>1861.25</ele>
        <time>2013-01-06T09:52:12Z</time>
      </trkpt>
      <trkpt lat="42.94046" lon="0.03038">
        <ele>1863.17</ele>
        <time>2013-01-06T09:52:26Z</time>
      </trkpt>
      <trkpt lat="42.94043" lon="0.03037">
        <ele>1864.61</ele>
        <time>2013-01-06T09:52:37Z</time>
      </trkpt>
      <trkpt lat="42.94038" lon="0.03033">
        <ele>1866.54</ele>
        <time>2013-01-06T09:52:50Z</time>
      </trkpt>
      <trkpt lat="42.94035" lon="0.03038">
        <ele>1868.94</ele>
        <time>2013-01-06T09:53:03Z</time>
      </trkpt>
      <trkpt lat="42.94029" lon="0.03036">
        <ele>1870.86</ele>
        <time>2013-01-06T09:53:16Z</time>
      </trkpt>
      <trkpt lat="42.94023" lon="0.03035">
        <ele>1872.79</ele>
        <time>2013-01-06T09:53:28Z</time>
      </trkpt>
      <trkpt lat="42.94017" lon="0.03035">
        <ele>1875.19</ele>
        <time>2013-01-06T09:53:41Z</time>
      </trkpt>
      <trkpt lat="42.94011" lon="0.03033">
        <ele>1876.63</ele>
        <time>2013-01-06T09:53:55Z</time>
      </trkpt>
      <trkpt lat="42.94005" lon="0.03032">
        <ele>1878.55</ele>
        <time>2013-01-06T09:54:07Z</time>
      </trkpt>
      <trkpt lat="42.93998" lon="0.03031">
        <ele>1880</ele>
        <time>2013-01-06T09:54:18Z</time>
      </trkpt>
      <trkpt lat="42.9399" lon="0.03033">
        <ele>1881.92</ele>
        <time>2013-01-06T09:54:31Z</time>
      </trkpt>
      <trkpt lat="42.93983" lon="0.03034">
        <ele>1883.84</ele>
        <time>2013-01-06T09:54:44Z</time>
      </trkpt>
      <trkpt lat="42.93976" lon="0.03038">
        <ele>1885.76</ele>
        <time>2013-01-06T09:54:57Z</time>
      </trkpt>
      <trkpt lat="42.93968" lon="0.03043">
        <ele>1887.21</ele>
        <time>2013-01-06T09:55:10Z</time>
      </trkpt>
      <trkpt lat="42.93968" lon="0.03044">
        <ele>1887.69</ele>
        <time>2013-01-06T09:55:11Z</time>
      </trkpt>
      <trkpt lat="42.93964" lon="0.0305">
        <ele>1889.13</ele>
        <time>2013-01-06T09:55:25Z</time>
      </trkpt>
      <trkpt lat="42.93963" lon="0.0305">
        <ele>1888.65</ele>
        <time>2013-01-06T09:55:44Z</time>
      </trkpt>
      <trkpt lat="42.93963" lon="0.0305">
        <ele>1888.17</ele>
        <time>2013-01-06T09:56:00Z</time>
      </trkpt>
      <trkpt lat="42.93963" lon="0.0305">
        <ele>1888.17</ele>
        <time>2013-01-06T09:56:32Z</time>
      </trkpt>
      <trkpt lat="42.93963" lon="0.03049">
        <ele>1888.65</ele>
        <time>2013-01-06T09:56:52Z</time>
      </trkpt>
      <trkpt lat="42.93963" lon="0.03049">
        <ele>1889.13</ele>
        <time>2013-01-06T09:57:16Z</time>
      </trkpt>
      <trkpt lat="42.93963" lon="0.03049">
        <ele>1889.13</ele>
        <time>2013-01-06T09:57:36Z</time>
      </trkpt>
      <trkpt lat="42.93963" lon="0.03049">
        <ele>1889.13</ele>
        <time>2013-01-06T09:58:08Z</time>
      </trkpt>
      <trkpt lat="42.93962" lon="0.03049">
        <ele>1889.61</ele>
        <time>2013-01-06T09:58:33Z</time>
      </trkpt>
      <trkpt lat="42.93962" lon="0.03049">
        <ele>1889.13</ele>
        <time>2013-01-06T09:59:01Z</time>
      </trkpt>
      <trkpt lat="42.93962" lon="0.03049">
        <ele>1888.65</ele>
        <time>2013-01-06T09:59:24Z</time>
      </trkpt>
      <trkpt lat="42.93963" lon="0.03054">
        <ele>1889.13</ele>
        <time>2013-01-06T09:59:49Z</time>
      </trkpt>
      <trkpt lat="42.93963" lon="0.03059">
        <ele>1889.13</ele>
        <time>2013-01-06T09:59:52Z</time>
      </trkpt>
      <trkpt lat="42.93952" lon="0.03074">
        <ele>1887.69</ele>
        <time>2013-01-06T10:00:08Z</time>
      </trkpt>
      <trkpt lat="42.93941" lon="0.03084">
        <ele>1886.72</ele>
        <time>2013-01-06T10:00:20Z</time>
      </trkpt>
      <trkpt lat="42.9393" lon="0.03089">
        <ele>1887.21</ele>
        <time>2013-01-06T10:00:35Z</time>
      </trkpt>
      <trkpt lat="42.93923" lon="0.03089">
        <ele>1887.69</ele>
        <time>2013-01-06T10:00:43Z</time>
      </trkpt>
      <trkpt lat="42.93913" lon="0.03088">
        <ele>1889.61</ele>
        <time>2013-01-06T10:00:58Z</time>
      </trkpt>
      <trkpt lat="42.93904" lon="0.03086">
        <ele>1891.05</ele>
        <time>2013-01-06T10:01:11Z</time>
      </trkpt>
      <trkpt lat="42.93897" lon="0.03082">
        <ele>1891.53</ele>
        <time>2013-01-06T10:01:25Z</time>
      </trkpt>
      <trkpt lat="42.9389" lon="0.03081">
        <ele>1892.97</ele>
        <time>2013-01-06T10:01:36Z</time>
      </trkpt>
      <trkpt lat="42.93883" lon="0.03079">
        <ele>1894.42</ele>
        <time>2013-01-06T10:01:49Z</time>
      </trkpt>
      <trkpt lat="42.93875" lon="0.03078">
        <ele>1895.86</ele>
        <time>2013-01-06T10:02:02Z</time>
      </trkpt>
      <trkpt lat="42.93866" lon="0.03076">
        <ele>1896.82</ele>
        <time>2013-01-06T10:02:17Z</time>
      </trkpt>
      <trkpt lat="42.9386" lon="0.03076">
        <ele>1898.26</ele>
        <time>2013-01-06T10:02:33Z</time>
      </trkpt>
      <trkpt lat="42.93851" lon="0.03073">
        <ele>1900.66</ele>
        <time>2013-01-06T10:02:51Z</time>
      </trkpt>
      <trkpt lat="42.93843" lon="0.03075">
        <ele>1902.11</ele>
        <time>2013-01-06T10:03:04Z</time>
      </trkpt>
      <trkpt lat="42.93837" lon="0.0308">
        <ele>1903.07</ele>
        <time>2013-01-06T10:03:18Z</time>
      </trkpt>
      <trkpt lat="42.9383" lon="0.03089">
        <ele>1903.55</ele>
        <time>2013-01-06T10:03:34Z</time>
      </trkpt>
      <trkpt lat="42.93822" lon="0.03098">
        <ele>1904.03</ele>
        <time>2013-01-06T10:03:48Z</time>
      </trkpt>
      <trkpt lat="42.93819" lon="0.031">
        <ele>1903.55</ele>
        <time>2013-01-06T10:03:54Z</time>
      </trkpt>
      <trkpt lat="42.93813" lon="0.03105">
        <ele>1903.55</ele>
        <time>2013-01-06T10:04:06Z</time>
      </trkpt>
      <trkpt lat="42.93806" lon="0.03108">
        <ele>1903.55</ele>
        <time>2013-01-06T10:04:16Z</time>
      </trkpt>
      <trkpt lat="42.93805" lon="0.03108">
        <ele>1904.99</ele>
        <time>2013-01-06T10:04:28Z</time>
      </trkpt>
      <trkpt lat="42.93803" lon="0.03109">
        <ele>1904.99</ele>
        <time>2013-01-06T10:04:42Z</time>
      </trkpt>
      <trkpt lat="42.93802" lon="0.03113">
        <ele>1905.95</ele>
        <time>2013-01-06T10:04:56Z</time>
      </trkpt>
      <trkpt lat="42.93802" lon="0.03121">
        <ele>1908.83</ele>
        <time>2013-01-06T10:05:12Z</time>
      </trkpt>
      <trkpt lat="42.93802" lon="0.03128">
        <ele>1911.24</ele>
        <time>2013-01-06T10:05:26Z</time>
      </trkpt>
      <trkpt lat="42.93802" lon="0.03132">
        <ele>1913.16</ele>
        <time>2013-01-06T10:05:40Z</time>
      </trkpt>
      <trkpt lat="42.93803" lon="0.03136">
        <ele>1914.12</ele>
        <time>2013-01-06T10:05:56Z</time>
      </trkpt>
      <trkpt lat="42.93802" lon="0.03135">
        <ele>1913.64</ele>
        <time>2013-01-06T10:06:10Z</time>
      </trkpt>
      <trkpt lat="42.93801" lon="0.03137">
        <ele>1913.64</ele>
        <time>2013-01-06T10:06:19Z</time>
      </trkpt>
      <trkpt lat="42.93803" lon="0.03142">
        <ele>1915.56</ele>
        <time>2013-01-06T10:06:29Z</time>
      </trkpt>
      <trkpt lat="42.93803" lon="0.03138">
        <ele>1915.56</ele>
        <time>2013-01-06T10:06:39Z</time>
      </trkpt>
      <trkpt lat="42.93802" lon="0.03136">
        <ele>1913.64</ele>
        <time>2013-01-06T10:06:49Z</time>
      </trkpt>
      <trkpt lat="42.93802" lon="0.03137">
        <ele>1913.16</ele>
        <time>2013-01-06T10:07:03Z</time>
      </trkpt>
      <trkpt lat="42.93803" lon="0.03137">
        <ele>1913.64</ele>
        <time>2013-01-06T10:07:19Z</time>
      </trkpt>
      <trkpt lat="42.93804" lon="0.03139">
        <ele>1914.12</ele>
        <time>2013-01-06T10:07:42Z</time>
      </trkpt>
      <trkpt lat="42.93803" lon="0.03138">
        <ele>1914.12</ele>
        <time>2013-01-06T10:08:03Z</time>
      </trkpt>
      <trkpt lat="42.93803" lon="0.03137">
        <ele>1914.12</ele>
        <time>2013-01-06T10:08:18Z</time>
      </trkpt>
      <trkpt lat="42.93803" lon="0.03137">
        <ele>1913.64</ele>
        <time>2013-01-06T10:08:29Z</time>
      </trkpt>
      <trkpt lat="42.93802" lon="0.03138">
        <ele>1914.12</ele>
        <time>2013-01-06T10:08:45Z</time>
      </trkpt>
      <trkpt lat="42.93801" lon="0.03136">
        <ele>1914.12</ele>
        <time>2013-01-06T10:09:00Z</time>
      </trkpt>
      <trkpt lat="42.93801" lon="0.03136">
        <ele>1914.12</ele>
        <time>2013-01-06T10:09:19Z</time>
      </trkpt>
      <trkpt lat="42.93801" lon="0.03136">
        <ele>1914.12</ele>
        <time>2013-01-06T10:09:40Z</time>
      </trkpt>
      <trkpt lat="42.93801" lon="0.03135">
        <ele>1913.64</ele>
        <time>2013-01-06T10:09:58Z</time>
      </trkpt>
      <trkpt lat="42.93798" lon="0.03132">
        <ele>1912.2</ele>
        <time>2013-01-06T10:10:09Z</time>
      </trkpt>
      <trkpt lat="42.93792" lon="0.03138">
        <ele>1911.24</ele>
        <time>2013-01-06T10:10:23Z</time>
      </trkpt>
      <trkpt lat="42.93784" lon="0.03146">
        <ele>1910.28</ele>
        <time>2013-01-06T10:10:36Z</time>
      </trkpt>
      <trkpt lat="42.93777" lon="0.0315">
        <ele>1910.76</ele>
        <time>2013-01-06T10:10:49Z</time>
      </trkpt>
      <trkpt lat="42.9377" lon="0.03155">
        <ele>1910.76</ele>
        <time>2013-01-06T10:11:02Z</time>
      </trkpt>
      <trkpt lat="42.93763" lon="0.03162">
        <ele>1911.72</ele>
        <time>2013-01-06T10:11:16Z</time>
      </trkpt>
      <trkpt lat="42.9376" lon="0.03169">
        <ele>1911.72</ele>
        <time>2013-01-06T10:11:28Z</time>
      </trkpt>
      <trkpt lat="42.93754" lon="0.03174">
        <ele>1912.68</ele>
        <time>2013-01-06T10:11:41Z</time>
      </trkpt>
      <trkpt lat="42.93748" lon="0.03178">
        <ele>1912.68</ele>
        <time>2013-01-06T10:11:54Z</time>
      </trkpt>
      <trkpt lat="42.93741" lon="0.03182">
        <ele>1913.64</ele>
        <time>2013-01-06T10:12:08Z</time>
      </trkpt>
      <trkpt lat="42.93741" lon="0.03195">
        <ele>1915.56</ele>
        <time>2013-01-06T10:12:22Z</time>
      </trkpt>
      <trkpt lat="42.93737" lon="0.0321">
        <ele>1915.56</ele>
        <time>2013-01-06T10:12:37Z</time>
      </trkpt>
      <trkpt lat="42.93734" lon="0.03223">
        <ele>1916.53</ele>
        <time>2013-01-06T10:12:49Z</time>
      </trkpt>
      <trkpt lat="42.93725" lon="0.03236">
        <ele>1917.01</ele>
        <time>2013-01-06T10:13:05Z</time>
      </trkpt>
      <trkpt lat="42.93723" lon="0.03236">
        <ele>1917.01</ele>
        <time>2013-01-06T10:13:07Z</time>
      </trkpt>
      <trkpt lat="42.93721" lon="0.03238">
        <ele>1917.49</ele>
        <time>2013-01-06T10:13:09Z</time>
      </trkpt>
      <trkpt lat="42.93714" lon="0.03247">
        <ele>1917.01</ele>
        <time>2013-01-06T10:13:21Z</time>
      </trkpt>
      <trkpt lat="42.93706" lon="0.03257">
        <ele>1916.53</ele>
        <time>2013-01-06T10:13:34Z</time>
      </trkpt>
      <trkpt lat="42.93701" lon="0.03275">
        <ele>1916.04</ele>
        <time>2013-01-06T10:13:51Z</time>
      </trkpt>
      <trkpt lat="42.93693" lon="0.03288">
        <ele>1917.01</ele>
        <time>2013-01-06T10:14:05Z</time>
      </trkpt>
      <trkpt lat="42.93681" lon="0.033">
        <ele>1916.53</ele>
        <time>2013-01-06T10:14:18Z</time>
      </trkpt>
      <trkpt lat="42.93677" lon="0.03308">
        <ele>1917.49</ele>
        <time>2013-01-06T10:14:30Z</time>
      </trkpt>
      <trkpt lat="42.93677" lon="0.03308">
        <ele>1912.68</ele>
        <time>2013-01-06T10:14:39Z</time>
      </trkpt>
      <trkpt lat="42.93677" lon="0.03308">
        <ele>1912.68</ele>
        <time>2013-01-06T10:14:40Z</time>
      </trkpt>
      <trkpt lat="42.93677" lon="0.03308">
        <ele>1916.04</ele>
        <time>2013-01-06T10:14:41Z</time>
      </trkpt>
      <trkpt lat="42.93677" lon="0.03308">
        <ele>1915.08</ele>
        <time>2013-01-06T10:14:42Z</time>
      </trkpt>
      <trkpt lat="42.93677" lon="0.03308">
        <ele>1924.22</ele>
        <time>2013-01-06T10:14:45Z</time>
      </trkpt>
      <trkpt lat="42.93677" lon="0.03308">
        <ele>1917.97</ele>
        <time>2013-01-06T10:14:46Z</time>
      </trkpt>
      <trkpt lat="42.93674" lon="0.03316">
        <ele>1917.01</ele>
        <time>2013-01-06T10:14:57Z</time>
      </trkpt>
      <trkpt lat="42.93667" lon="0.03329">
        <ele>1917.01</ele>
        <time>2013-01-06T10:15:11Z</time>
      </trkpt>
      <trkpt lat="42.93659" lon="0.03335">
        <ele>1917.97</ele>
        <time>2013-01-06T10:15:23Z</time>
      </trkpt>
      <trkpt lat="42.93656" lon="0.03341">
        <ele>1918.45</ele>
        <time>2013-01-06T10:15:36Z</time>
      </trkpt>
      <trkpt lat="42.93654" lon="0.03354">
        <ele>1919.41</ele>
        <time>2013-01-06T10:15:51Z</time>
      </trkpt>
      <trkpt lat="42.93649" lon="0.03363">
        <ele>1919.89</ele>
        <time>2013-01-06T10:16:04Z</time>
      </trkpt>
      <trkpt lat="42.93646" lon="0.0337">
        <ele>1920.85</ele>
        <time>2013-01-06T10:16:16Z</time>
      </trkpt>
      <trkpt lat="42.93643" lon="0.03379">
        <ele>1921.81</ele>
        <time>2013-01-06T10:16:27Z</time>
      </trkpt>
      <trkpt lat="42.93639" lon="0.03387">
        <ele>1923.25</ele>
        <time>2013-01-06T10:16:39Z</time>
      </trkpt>
      <trkpt lat="42.93637" lon="0.03396">
        <ele>1923.74</ele>
        <time>2013-01-06T10:16:53Z</time>
      </trkpt>
      <trkpt lat="42.93634" lon="0.03404">
        <ele>1924.7</ele>
        <time>2013-01-06T10:17:06Z</time>
      </trkpt>
      <trkpt lat="42.93633" lon="0.03411">
        <ele>1925.66</ele>
        <time>2013-01-06T10:17:23Z</time>
      </trkpt>
      <trkpt lat="42.93629" lon="0.03425">
        <ele>1927.1</ele>
        <time>2013-01-06T10:17:38Z</time>
      </trkpt>
      <trkpt lat="42.93631" lon="0.03437">
        <ele>1928.06</ele>
        <time>2013-01-06T10:17:52Z</time>
      </trkpt>
      <trkpt lat="42.9363" lon="0.03447">
        <ele>1929.02</ele>
        <time>2013-01-06T10:18:08Z</time>
      </trkpt>
      <trkpt lat="42.93626" lon="0.03459">
        <ele>1930.46</ele>
        <time>2013-01-06T10:18:23Z</time>
      </trkpt>
      <trkpt lat="42.93626" lon="0.03466">
        <ele>1931.91</ele>
        <time>2013-01-06T10:18:38Z</time>
      </trkpt>
      <trkpt lat="42.93626" lon="0.0347">
        <ele>1934.31</ele>
        <time>2013-01-06T10:18:52Z</time>
      </trkpt>
      <trkpt lat="42.93626" lon="0.03481">
        <ele>1936.23</ele>
        <time>2013-01-06T10:19:09Z</time>
      </trkpt>
      <trkpt lat="42.93627" lon="0.03486">
        <ele>1938.16</ele>
        <time>2013-01-06T10:19:24Z</time>
      </trkpt>
      <trkpt lat="42.93628" lon="0.03488">
        <ele>1939.6</ele>
        <time>2013-01-06T10:19:36Z</time>
      </trkpt>
      <trkpt lat="42.93629" lon="0.035">
        <ele>1941.52</ele>
        <time>2013-01-06T10:19:49Z</time>
      </trkpt>
      <trkpt lat="42.93629" lon="0.03506">
        <ele>1943.44</ele>
        <time>2013-01-06T10:20:05Z</time>
      </trkpt>
      <trkpt lat="42.93629" lon="0.03514">
        <ele>1945.36</ele>
        <time>2013-01-06T10:20:17Z</time>
      </trkpt>
      <trkpt lat="42.9363" lon="0.03525">
        <ele>1946.81</ele>
        <time>2013-01-06T10:20:29Z</time>
      </trkpt>
      <trkpt lat="42.93629" lon="0.03523">
        <ele>1948.73</ele>
        <time>2013-01-06T10:20:43Z</time>
      </trkpt>
      <trkpt lat="42.93632" lon="0.03527">
        <ele>1950.17</ele>
        <time>2013-01-06T10:20:55Z</time>
      </trkpt>
      <trkpt lat="42.93635" lon="0.03531">
        <ele>1952.09</ele>
        <time>2013-01-06T10:21:08Z</time>
      </trkpt>
      <trkpt lat="42.93639" lon="0.03533">
        <ele>1953.54</ele>
        <time>2013-01-06T10:21:18Z</time>
      </trkpt>
      <trkpt lat="42.93646" lon="0.03534">
        <ele>1954.02</ele>
        <time>2013-01-06T10:21:31Z</time>
      </trkpt>
      <trkpt lat="42.93651" lon="0.03529">
        <ele>1955.46</ele>
        <time>2013-01-06T10:21:44Z</time>
      </trkpt>
      <trkpt lat="42.93658" lon="0.03525">
        <ele>1956.42</ele>
        <time>2013-01-06T10:21:58Z</time>
      </trkpt>
      <trkpt lat="42.93662" lon="0.03519">
        <ele>1957.38</ele>
        <time>2013-01-06T10:22:11Z</time>
      </trkpt>
      <trkpt lat="42.93663" lon="0.03518">
        <ele>1957.86</ele>
        <time>2013-01-06T10:22:14Z</time>
      </trkpt>
      <trkpt lat="42.9367" lon="0.03513">
        <ele>1958.82</ele>
        <time>2013-01-06T10:22:26Z</time>
      </trkpt>
      <trkpt lat="42.93674" lon="0.03511">
        <ele>1960.27</ele>
        <time>2013-01-06T10:22:39Z</time>
      </trkpt>
      <trkpt lat="42.93682" lon="0.03506">
        <ele>1961.23</ele>
        <time>2013-01-06T10:22:51Z</time>
      </trkpt>
      <trkpt lat="42.93686" lon="0.03502">
        <ele>1962.67</ele>
        <time>2013-01-06T10:23:04Z</time>
      </trkpt>
      <trkpt lat="42.93693" lon="0.035">
        <ele>1963.63</ele>
        <time>2013-01-06T10:23:17Z</time>
      </trkpt>
      <trkpt lat="42.93694" lon="0.03497">
        <ele>1964.59</ele>
        <time>2013-01-06T10:23:29Z</time>
      </trkpt>
      <trkpt lat="42.93696" lon="0.03496">
        <ele>1966.03</ele>
        <time>2013-01-06T10:23:41Z</time>
      </trkpt>
      <trkpt lat="42.937" lon="0.03498">
        <ele>1967.48</ele>
        <time>2013-01-06T10:23:53Z</time>
      </trkpt>
      <trkpt lat="42.937" lon="0.035">
        <ele>1967.48</ele>
        <time>2013-01-06T10:24:17Z</time>
      </trkpt>
      <trkpt lat="42.93698" lon="0.03514">
        <ele>1969.88</ele>
        <time>2013-01-06T10:24:33Z</time>
      </trkpt>
      <trkpt lat="42.93696" lon="0.03519">
        <ele>1971.8</ele>
        <time>2013-01-06T10:24:49Z</time>
      </trkpt>
      <trkpt lat="42.93695" lon="0.03521">
        <ele>1973.72</ele>
        <time>2013-01-06T10:25:03Z</time>
      </trkpt>
      <trkpt lat="42.93701" lon="0.03521">
        <ele>1973.72</ele>
        <time>2013-01-06T10:25:12Z</time>
      </trkpt>
      <trkpt lat="42.93705" lon="0.03517">
        <ele>1974.69</ele>
        <time>2013-01-06T10:25:23Z</time>
      </trkpt>
      <trkpt lat="42.93712" lon="0.0352">
        <ele>1976.13</ele>
        <time>2013-01-06T10:25:36Z</time>
      </trkpt>
      <trkpt lat="42.93717" lon="0.03514">
        <ele>1977.09</ele>
        <time>2013-01-06T10:25:50Z</time>
      </trkpt>
      <trkpt lat="42.93719" lon="0.03516">
        <ele>1978.53</ele>
        <time>2013-01-06T10:26:02Z</time>
      </trkpt>
      <trkpt lat="42.93718" lon="0.03526">
        <ele>1979.49</ele>
        <time>2013-01-06T10:26:15Z</time>
      </trkpt>
      <trkpt lat="42.93718" lon="0.03538">
        <ele>1980.93</ele>
        <time>2013-01-06T10:26:33Z</time>
      </trkpt>
      <trkpt lat="42.9371" lon="0.03548">
        <ele>1981.9</ele>
        <time>2013-01-06T10:26:48Z</time>
      </trkpt>
      <trkpt lat="42.93705" lon="0.03554">
        <ele>1983.82</ele>
        <time>2013-01-06T10:27:02Z</time>
      </trkpt>
      <trkpt lat="42.937" lon="0.03555">
        <ele>1984.78</ele>
        <time>2013-01-06T10:27:16Z</time>
      </trkpt>
      <trkpt lat="42.93696" lon="0.03567">
        <ele>1986.22</ele>
        <time>2013-01-06T10:27:31Z</time>
      </trkpt>
      <trkpt lat="42.93695" lon="0.03574">
        <ele>1988.14</ele>
        <time>2013-01-06T10:27:43Z</time>
      </trkpt>
      <trkpt lat="42.93698" lon="0.03571">
        <ele>1988.62</ele>
        <time>2013-01-06T10:27:56Z</time>
      </trkpt>
      <trkpt lat="42.93704" lon="0.0357">
        <ele>1989.59</ele>
        <time>2013-01-06T10:28:08Z</time>
      </trkpt>
      <trkpt lat="42.93708" lon="0.03565">
        <ele>1990.55</ele>
        <time>2013-01-06T10:28:20Z</time>
      </trkpt>
      <trkpt lat="42.93713" lon="0.03559">
        <ele>1991.99</ele>
        <time>2013-01-06T10:28:34Z</time>
      </trkpt>
      <trkpt lat="42.93716" lon="0.03557">
        <ele>1992.47</ele>
        <time>2013-01-06T10:28:44Z</time>
      </trkpt>
      <trkpt lat="42.93722" lon="0.03557">
        <ele>1993.91</ele>
        <time>2013-01-06T10:28:56Z</time>
      </trkpt>
      <trkpt lat="42.93727" lon="0.03551">
        <ele>1995.35</ele>
        <time>2013-01-06T10:29:09Z</time>
      </trkpt>
      <trkpt lat="42.93728" lon="0.03561">
        <ele>1995.83</ele>
        <time>2013-01-06T10:29:22Z</time>
      </trkpt>
      <trkpt lat="42.93726" lon="0.03574">
        <ele>1997.28</ele>
        <time>2013-01-06T10:29:38Z</time>
      </trkpt>
      <trkpt lat="42.93724" lon="0.03583">
        <ele>1999.2</ele>
        <time>2013-01-06T10:29:52Z</time>
      </trkpt>
      <trkpt lat="42.9372" lon="0.03592">
        <ele>2000.16</ele>
        <time>2013-01-06T10:30:08Z</time>
      </trkpt>
      <trkpt lat="42.93717" lon="0.03598">
        <ele>2001.6</ele>
        <time>2013-01-06T10:30:23Z</time>
      </trkpt>
      <trkpt lat="42.93717" lon="0.03602">
        <ele>2002.08</ele>
        <time>2013-01-06T10:30:29Z</time>
      </trkpt>
      <trkpt lat="42.93713" lon="0.03609">
        <ele>2004.01</ele>
        <time>2013-01-06T10:30:43Z</time>
      </trkpt>
      <trkpt lat="42.93707" lon="0.03616">
        <ele>2004.49</ele>
        <time>2013-01-06T10:30:59Z</time>
      </trkpt>
      <trkpt lat="42.93704" lon="0.03618">
        <ele>2005.45</ele>
        <time>2013-01-06T10:31:14Z</time>
      </trkpt>
      <trkpt lat="42.93704" lon="0.03611">
        <ele>2006.89</ele>
        <time>2013-01-06T10:31:27Z</time>
      </trkpt>
      <trkpt lat="42.93705" lon="0.0361">
        <ele>2006.89</ele>
        <time>2013-01-06T10:31:29Z</time>
      </trkpt>
      <trkpt lat="42.93713" lon="0.03613">
        <ele>2008.33</ele>
        <time>2013-01-06T10:31:41Z</time>
      </trkpt>
      <trkpt lat="42.93719" lon="0.0361">
        <ele>2009.77</ele>
        <time>2013-01-06T10:31:54Z</time>
      </trkpt>
      <trkpt lat="42.93723" lon="0.03608">
        <ele>2011.22</ele>
        <time>2013-01-06T10:32:08Z</time>
      </trkpt>
      <trkpt lat="42.93729" lon="0.03604">
        <ele>2011.7</ele>
        <time>2013-01-06T10:32:20Z</time>
      </trkpt>
      <trkpt lat="42.93732" lon="0.03605">
        <ele>2012.66</ele>
        <time>2013-01-06T10:32:31Z</time>
      </trkpt>
      <trkpt lat="42.93734" lon="0.03614">
        <ele>2014.1</ele>
        <time>2013-01-06T10:32:43Z</time>
      </trkpt>
      <trkpt lat="42.93729" lon="0.03618">
        <ele>2015.54</ele>
        <time>2013-01-06T10:32:57Z</time>
      </trkpt>
      <trkpt lat="42.93725" lon="0.03626">
        <ele>2016.5</ele>
        <time>2013-01-06T10:33:12Z</time>
      </trkpt>
      <trkpt lat="42.93725" lon="0.03641">
        <ele>2017.94</ele>
        <time>2013-01-06T10:33:26Z</time>
      </trkpt>
      <trkpt lat="42.9372" lon="0.03651">
        <ele>2019.39</ele>
        <time>2013-01-06T10:33:41Z</time>
      </trkpt>
      <trkpt lat="42.93718" lon="0.0366">
        <ele>2020.35</ele>
        <time>2013-01-06T10:33:57Z</time>
      </trkpt>
      <trkpt lat="42.93714" lon="0.03663">
        <ele>2021.31</ele>
        <time>2013-01-06T10:34:11Z</time>
      </trkpt>
      <trkpt lat="42.93707" lon="0.03663">
        <ele>2023.23</ele>
        <time>2013-01-06T10:34:23Z</time>
      </trkpt>
      <trkpt lat="42.93703" lon="0.03659">
        <ele>2024.19</ele>
        <time>2013-01-06T10:34:37Z</time>
      </trkpt>
      <trkpt lat="42.93705" lon="0.03657">
        <ele>2024.67</ele>
        <time>2013-01-06T10:34:51Z</time>
      </trkpt>
      <trkpt lat="42.93709" lon="0.03656">
        <ele>2024.67</ele>
        <time>2013-01-06T10:34:56Z</time>
      </trkpt>
      <trkpt lat="42.93718" lon="0.03655">
        <ele>2026.6</ele>
        <time>2013-01-06T10:35:10Z</time>
      </trkpt>
      <trkpt lat="42.93721" lon="0.03651">
        <ele>2027.08</ele>
        <time>2013-01-06T10:35:24Z</time>
      </trkpt>
      <trkpt lat="42.93722" lon="0.03655">
        <ele>2028.52</ele>
        <time>2013-01-06T10:35:37Z</time>
      </trkpt>
      <trkpt lat="42.93721" lon="0.03662">
        <ele>2029.48</ele>
        <time>2013-01-06T10:35:53Z</time>
      </trkpt>
      <trkpt lat="42.93719" lon="0.03672">
        <ele>2031.4</ele>
        <time>2013-01-06T10:36:10Z</time>
      </trkpt>
      <trkpt lat="42.93714" lon="0.03679">
        <ele>2032.36</ele>
        <time>2013-01-06T10:36:26Z</time>
      </trkpt>
      <trkpt lat="42.93717" lon="0.03696">
        <ele>2033.81</ele>
        <time>2013-01-06T10:36:39Z</time>
      </trkpt>
      <trkpt lat="42.93711" lon="0.03701">
        <ele>2035.73</ele>
        <time>2013-01-06T10:36:53Z</time>
      </trkpt>
      <trkpt lat="42.93706" lon="0.03697">
        <ele>2038.13</ele>
        <time>2013-01-06T10:37:10Z</time>
      </trkpt>
      <trkpt lat="42.93705" lon="0.03698">
        <ele>2039.09</ele>
        <time>2013-01-06T10:37:23Z</time>
      </trkpt>
      <trkpt lat="42.93706" lon="0.03706">
        <ele>2041.5</ele>
        <time>2013-01-06T10:37:35Z</time>
      </trkpt>
      <trkpt lat="42.93707" lon="0.03711">
        <ele>2043.42</ele>
        <time>2013-01-06T10:37:50Z</time>
      </trkpt>
      <trkpt lat="42.93705" lon="0.03713">
        <ele>2044.86</ele>
        <time>2013-01-06T10:38:04Z</time>
      </trkpt>
      <trkpt lat="42.93704" lon="0.03717">
        <ele>2046.3</ele>
        <time>2013-01-06T10:38:18Z</time>
      </trkpt>
      <trkpt lat="42.93703" lon="0.03724">
        <ele>2048.23</ele>
        <time>2013-01-06T10:38:32Z</time>
      </trkpt>
      <trkpt lat="42.93701" lon="0.03727">
        <ele>2050.63</ele>
        <time>2013-01-06T10:38:47Z</time>
      </trkpt>
      <trkpt lat="42.93701" lon="0.03736">
        <ele>2051.59</ele>
        <time>2013-01-06T10:39:00Z</time>
      </trkpt>
      <trkpt lat="42.937" lon="0.03738">
        <ele>2053.99</ele>
        <time>2013-01-06T10:39:15Z</time>
      </trkpt>
      <trkpt lat="42.93698" lon="0.03745">
        <ele>2054.96</ele>
        <time>2013-01-06T10:39:28Z</time>
      </trkpt>
      <trkpt lat="42.93696" lon="0.03756">
        <ele>2057.36</ele>
        <time>2013-01-06T10:39:43Z</time>
      </trkpt>
      <trkpt lat="42.93696" lon="0.0376">
        <ele>2058.32</ele>
        <time>2013-01-06T10:39:57Z</time>
      </trkpt>
      <trkpt lat="42.93696" lon="0.03767">
        <ele>2060.24</ele>
        <time>2013-01-06T10:40:11Z</time>
      </trkpt>
      <trkpt lat="42.93696" lon="0.0377">
        <ele>2062.17</ele>
        <time>2013-01-06T10:40:25Z</time>
      </trkpt>
      <trkpt lat="42.93691" lon="0.03774">
        <ele>2063.61</ele>
        <time>2013-01-06T10:40:37Z</time>
      </trkpt>
      <trkpt lat="42.9369" lon="0.0378">
        <ele>2065.05</ele>
        <time>2013-01-06T10:40:51Z</time>
      </trkpt>
      <trkpt lat="42.93688" lon="0.03781">
        <ele>2065.53</ele>
        <time>2013-01-06T10:41:04Z</time>
      </trkpt>
      <trkpt lat="42.93687" lon="0.03784">
        <ele>2067.93</ele>
        <time>2013-01-06T10:41:18Z</time>
      </trkpt>
      <trkpt lat="42.93685" lon="0.03788">
        <ele>2069.86</ele>
        <time>2013-01-06T10:41:32Z</time>
      </trkpt>
      <trkpt lat="42.93684" lon="0.038">
        <ele>2070.34</ele>
        <time>2013-01-06T10:41:46Z</time>
      </trkpt>
      <trkpt lat="42.93681" lon="0.03803">
        <ele>2071.78</ele>
        <time>2013-01-06T10:42:01Z</time>
      </trkpt>
      <trkpt lat="42.93678" lon="0.03807">
        <ele>2074.18</ele>
        <time>2013-01-06T10:42:15Z</time>
      </trkpt>
      <trkpt lat="42.93675" lon="0.03811">
        <ele>2075.62</ele>
        <time>2013-01-06T10:42:32Z</time>
      </trkpt>
      <trkpt lat="42.93673" lon="0.03818">
        <ele>2077.07</ele>
        <time>2013-01-06T10:42:47Z</time>
      </trkpt>
      <trkpt lat="42.9367" lon="0.03826">
        <ele>2078.51</ele>
        <time>2013-01-06T10:43:02Z</time>
      </trkpt>
      <trkpt lat="42.93666" lon="0.03833">
        <ele>2079.95</ele>
        <time>2013-01-06T10:43:19Z</time>
      </trkpt>
      <trkpt lat="42.93663" lon="0.03841">
        <ele>2081.39</ele>
        <time>2013-01-06T10:43:34Z</time>
      </trkpt>
      <trkpt lat="42.93661" lon="0.03849">
        <ele>2083.31</ele>
        <time>2013-01-06T10:43:49Z</time>
      </trkpt>
      <trkpt lat="42.93658" lon="0.03856">
        <ele>2084.76</ele>
        <time>2013-01-06T10:44:04Z</time>
      </trkpt>
      <trkpt lat="42.93654" lon="0.03862">
        <ele>2087.16</ele>
        <time>2013-01-06T10:44:20Z</time>
      </trkpt>
      <trkpt lat="42.93652" lon="0.03866">
        <ele>2088.12</ele>
        <time>2013-01-06T10:44:35Z</time>
      </trkpt>
      <trkpt lat="42.93649" lon="0.03871">
        <ele>2089.08</ele>
        <time>2013-01-06T10:44:49Z</time>
      </trkpt>
      <trkpt lat="42.93646" lon="0.03878">
        <ele>2091</ele>
        <time>2013-01-06T10:45:04Z</time>
      </trkpt>
      <trkpt lat="42.93642" lon="0.03884">
        <ele>2092.45</ele>
        <time>2013-01-06T10:45:17Z</time>
      </trkpt>
      <trkpt lat="42.93636" lon="0.03889">
        <ele>2094.37</ele>
        <time>2013-01-06T10:45:33Z</time>
      </trkpt>
      <trkpt lat="42.93633" lon="0.03892">
        <ele>2095.33</ele>
        <time>2013-01-06T10:45:47Z</time>
      </trkpt>
      <trkpt lat="42.93629" lon="0.03902">
        <ele>2097.25</ele>
        <time>2013-01-06T10:46:03Z</time>
      </trkpt>
      <trkpt lat="42.93626" lon="0.03905">
        <ele>2097.73</ele>
        <time>2013-01-06T10:46:16Z</time>
      </trkpt>
      <trkpt lat="42.93623" lon="0.03913">
        <ele>2099.18</ele>
        <time>2013-01-06T10:46:29Z</time>
      </trkpt>
      <trkpt lat="42.9362" lon="0.03925">
        <ele>2100.62</ele>
        <time>2013-01-06T10:46:46Z</time>
      </trkpt>
      <trkpt lat="42.93616" lon="0.03937">
        <ele>2101.58</ele>
        <time>2013-01-06T10:47:02Z</time>
      </trkpt>
      <trkpt lat="42.93613" lon="0.03942">
        <ele>2102.54</ele>
        <time>2013-01-06T10:47:16Z</time>
      </trkpt>
      <trkpt lat="42.93613" lon="0.03945">
        <ele>2103.02</ele>
        <time>2013-01-06T10:47:29Z</time>
      </trkpt>
      <trkpt lat="42.93614" lon="0.03946">
        <ele>2103.02</ele>
        <time>2013-01-06T10:47:52Z</time>
      </trkpt>
      <trkpt lat="42.93615" lon="0.03945">
        <ele>2103.5</ele>
        <time>2013-01-06T10:48:14Z</time>
      </trkpt>
      <trkpt lat="42.93614" lon="0.03945">
        <ele>2103.5</ele>
        <time>2013-01-06T10:48:40Z</time>
      </trkpt>
      <trkpt lat="42.93614" lon="0.03945">
        <ele>2103.98</ele>
        <time>2013-01-06T10:49:02Z</time>
      </trkpt>
      <trkpt lat="42.93615" lon="0.03943">
        <ele>2103.5</ele>
        <time>2013-01-06T10:49:32Z</time>
      </trkpt>
      <trkpt lat="42.93615" lon="0.03943">
        <ele>2103.98</ele>
        <time>2013-01-06T10:49:58Z</time>
      </trkpt>
      <trkpt lat="42.93614" lon="0.03942">
        <ele>2103.5</ele>
        <time>2013-01-06T10:50:18Z</time>
      </trkpt>
      <trkpt lat="42.93614" lon="0.03941">
        <ele>2103.5</ele>
        <time>2013-01-06T10:50:42Z</time>
      </trkpt>
      <trkpt lat="42.93614" lon="0.03942">
        <ele>2104.46</ele>
        <time>2013-01-06T10:51:06Z</time>
      </trkpt>
      <trkpt lat="42.93613" lon="0.03939">
        <ele>2103.98</ele>
        <time>2013-01-06T10:51:31Z</time>
      </trkpt>
      <trkpt lat="42.93611" lon="0.03937">
        <ele>2104.46</ele>
        <time>2013-01-06T10:52:00Z</time>
      </trkpt>
      <trkpt lat="42.93611" lon="0.03937">
        <ele>2104.46</ele>
        <time>2013-01-06T10:52:27Z</time>
      </trkpt>
      <trkpt lat="42.93611" lon="0.03937">
        <ele>2103.98</ele>
        <time>2013-01-06T10:52:55Z</time>
      </trkpt>
      <trkpt lat="42.93612" lon="0.03938">
        <ele>2104.46</ele>
        <time>2013-01-06T10:53:14Z</time>
      </trkpt>
      <trkpt lat="42.93612" lon="0.03938">
        <ele>2104.94</ele>
        <time>2013-01-06T10:53:38Z</time>
      </trkpt>
      <trkpt lat="42.9361" lon="0.03935">
        <ele>2104.46</ele>
        <time>2013-01-06T10:54:06Z</time>
      </trkpt>
      <trkpt lat="42.93611" lon="0.03937">
        <ele>2105.42</ele>
        <time>2013-01-06T10:54:35Z</time>
      </trkpt>
      <trkpt lat="42.93608" lon="0.03938">
        <ele>2103.98</ele>
        <time>2013-01-06T10:55:02Z</time>
      </trkpt>
      <trkpt lat="42.93605" lon="0.0395">
        <ele>2106.39</ele>
        <time>2013-01-06T10:55:17Z</time>
      </trkpt>
      <trkpt lat="42.93602" lon="0.03959">
        <ele>2106.87</ele>
        <time>2013-01-06T10:55:32Z</time>
      </trkpt>
      <trkpt lat="42.93599" lon="0.03971">
        <ele>2108.31</ele>
        <time>2013-01-06T10:55:50Z</time>
      </trkpt>
      <trkpt lat="42.9359" lon="0.03975">
        <ele>2109.75</ele>
        <time>2013-01-06T10:56:06Z</time>
      </trkpt>
      <trkpt lat="42.93585" lon="0.03982">
        <ele>2110.71</ele>
        <time>2013-01-06T10:56:19Z</time>
      </trkpt>
      <trkpt lat="42.9358" lon="0.03985">
        <ele>2111.19</ele>
        <time>2013-01-06T10:56:29Z</time>
      </trkpt>
      <trkpt lat="42.93572" lon="0.03982">
        <ele>2112.63</ele>
        <time>2013-01-06T10:56:44Z</time>
      </trkpt>
      <trkpt lat="42.93566" lon="0.0398">
        <ele>2113.6</ele>
        <time>2013-01-06T10:56:57Z</time>
      </trkpt>
      <trkpt lat="42.93563" lon="0.03979">
        <ele>2115.52</ele>
        <time>2013-01-06T10:57:13Z</time>
      </trkpt>
      <trkpt lat="42.93563" lon="0.03981">
        <ele>2116.96</ele>
        <time>2013-01-06T10:57:25Z</time>
      </trkpt>
      <trkpt lat="42.93566" lon="0.03987">
        <ele>2117.44</ele>
        <time>2013-01-06T10:57:37Z</time>
      </trkpt>
      <trkpt lat="42.93567" lon="0.03994">
        <ele>2119.36</ele>
        <time>2013-01-06T10:57:53Z</time>
      </trkpt>
      <trkpt lat="42.93571" lon="0.04">
        <ele>2120.32</ele>
        <time>2013-01-06T10:58:06Z</time>
      </trkpt>
      <trkpt lat="42.93573" lon="0.04007">
        <ele>2121.77</ele>
        <time>2013-01-06T10:58:18Z</time>
      </trkpt>
      <trkpt lat="42.93574" lon="0.04015">
        <ele>2122.25</ele>
        <time>2013-01-06T10:58:32Z</time>
      </trkpt>
      <trkpt lat="42.93571" lon="0.04013">
        <ele>2124.17</ele>
        <time>2013-01-06T10:58:47Z</time>
      </trkpt>
      <trkpt lat="42.93568" lon="0.04013">
        <ele>2124.17</ele>
        <time>2013-01-06T10:58:53Z</time>
      </trkpt>
      <trkpt lat="42.93563" lon="0.04011">
        <ele>2125.61</ele>
        <time>2013-01-06T10:59:05Z</time>
      </trkpt>
      <trkpt lat="42.93557" lon="0.04012">
        <ele>2127.05</ele>
        <time>2013-01-06T10:59:20Z</time>
      </trkpt>
      <trkpt lat="42.9355" lon="0.04014">
        <ele>2128.5</ele>
        <time>2013-01-06T10:59:36Z</time>
      </trkpt>
      <trkpt lat="42.93544" lon="0.04013">
        <ele>2129.46</ele>
        <time>2013-01-06T10:59:49Z</time>
      </trkpt>
      <trkpt lat="42.93537" lon="0.04011">
        <ele>2130.42</ele>
        <time>2013-01-06T11:00:05Z</time>
      </trkpt>
      <trkpt lat="42.9353" lon="0.04009">
        <ele>2131.86</ele>
        <time>2013-01-06T11:00:21Z</time>
      </trkpt>
      <trkpt lat="42.93522" lon="0.04006">
        <ele>2133.3</ele>
        <time>2013-01-06T11:00:35Z</time>
      </trkpt>
      <trkpt lat="42.93516" lon="0.04008">
        <ele>2134.74</ele>
        <time>2013-01-06T11:00:49Z</time>
      </trkpt>
      <trkpt lat="42.9351" lon="0.04006">
        <ele>2136.19</ele>
        <time>2013-01-06T11:01:02Z</time>
      </trkpt>
      <trkpt lat="42.93505" lon="0.04004">
        <ele>2137.15</ele>
        <time>2013-01-06T11:01:15Z</time>
      </trkpt>
      <trkpt lat="42.935" lon="0.04003">
        <ele>2139.07</ele>
        <time>2013-01-06T11:01:33Z</time>
      </trkpt>
      <trkpt lat="42.93493" lon="0.04">
        <ele>2140.51</ele>
        <time>2013-01-06T11:01:45Z</time>
      </trkpt>
      <trkpt lat="42.93487" lon="0.03996">
        <ele>2141.95</ele>
        <time>2013-01-06T11:02:00Z</time>
      </trkpt>
      <trkpt lat="42.93484" lon="0.03996">
        <ele>2143.4</ele>
        <time>2013-01-06T11:02:14Z</time>
      </trkpt>
      <trkpt lat="42.93487" lon="0.03998">
        <ele>2144.36</ele>
        <time>2013-01-06T11:02:27Z</time>
      </trkpt>
      <trkpt lat="42.93489" lon="0.04003">
        <ele>2145.8</ele>
        <time>2013-01-06T11:02:39Z</time>
      </trkpt>
      <trkpt lat="42.93489" lon="0.04005">
        <ele>2145.8</ele>
        <time>2013-01-06T11:02:51Z</time>
      </trkpt>
      <trkpt lat="42.93491" lon="0.04012">
        <ele>2147.72</ele>
        <time>2013-01-06T11:03:05Z</time>
      </trkpt>
      <trkpt lat="42.93493" lon="0.04016">
        <ele>2148.68</ele>
        <time>2013-01-06T11:03:10Z</time>
      </trkpt>
      <trkpt lat="42.93496" lon="0.04021">
        <ele>2149.16</ele>
        <time>2013-01-06T11:03:22Z</time>
      </trkpt>
      <trkpt lat="42.93496" lon="0.04025">
        <ele>2150.13</ele>
        <time>2013-01-06T11:03:36Z</time>
      </trkpt>
      <trkpt lat="42.93494" lon="0.04027">
        <ele>2151.57</ele>
        <time>2013-01-06T11:03:53Z</time>
      </trkpt>
      <trkpt lat="42.93488" lon="0.04024">
        <ele>2153.01</ele>
        <time>2013-01-06T11:04:08Z</time>
      </trkpt>
      <trkpt lat="42.93484" lon="0.04022">
        <ele>2154.45</ele>
        <time>2013-01-06T11:04:20Z</time>
      </trkpt>
      <trkpt lat="42.93479" lon="0.04021">
        <ele>2155.89</ele>
        <time>2013-01-06T11:04:34Z</time>
      </trkpt>
      <trkpt lat="42.9348" lon="0.0402">
        <ele>2156.86</ele>
        <time>2013-01-06T11:04:48Z</time>
      </trkpt>
      <trkpt lat="42.93476" lon="0.04024">
        <ele>2157.82</ele>
        <time>2013-01-06T11:05:02Z</time>
      </trkpt>
      <trkpt lat="42.93478" lon="0.0403">
        <ele>2159.26</ele>
        <time>2013-01-06T11:05:15Z</time>
      </trkpt>
      <trkpt lat="42.93482" lon="0.04038">
        <ele>2160.22</ele>
        <time>2013-01-06T11:05:31Z</time>
      </trkpt>
      <trkpt lat="42.93485" lon="0.04044">
        <ele>2161.66</ele>
        <time>2013-01-06T11:05:43Z</time>
      </trkpt>
      <trkpt lat="42.9349" lon="0.04049">
        <ele>2163.58</ele>
        <time>2013-01-06T11:05:57Z</time>
      </trkpt>
      <trkpt lat="42.93491" lon="0.04056">
        <ele>2165.51</ele>
        <time>2013-01-06T11:06:10Z</time>
      </trkpt>
      <trkpt lat="42.93489" lon="0.04063">
        <ele>2166.47</ele>
        <time>2013-01-06T11:06:27Z</time>
      </trkpt>
      <trkpt lat="42.93487" lon="0.0407">
        <ele>2167.91</ele>
        <time>2013-01-06T11:06:40Z</time>
      </trkpt>
      <trkpt lat="42.93482" lon="0.04069">
        <ele>2170.31</ele>
        <time>2013-01-06T11:06:54Z</time>
      </trkpt>
      <trkpt lat="42.93479" lon="0.04066">
        <ele>2171.76</ele>
        <time>2013-01-06T11:07:09Z</time>
      </trkpt>
      <trkpt lat="42.93474" lon="0.04061">
        <ele>2173.68</ele>
        <time>2013-01-06T11:07:27Z</time>
      </trkpt>
      <trkpt lat="42.93473" lon="0.04068">
        <ele>2175.6</ele>
        <time>2013-01-06T11:07:41Z</time>
      </trkpt>
      <trkpt lat="42.93471" lon="0.04076">
        <ele>2177.04</ele>
        <time>2013-01-06T11:07:55Z</time>
      </trkpt>
      <trkpt lat="42.93466" lon="0.04072">
        <ele>2178.97</ele>
        <time>2013-01-06T11:08:09Z</time>
      </trkpt>
      <trkpt lat="42.93461" lon="0.04067">
        <ele>2180.89</ele>
        <time>2013-01-06T11:08:25Z</time>
      </trkpt>
      <trkpt lat="42.93457" lon="0.0406">
        <ele>2182.33</ele>
        <time>2013-01-06T11:08:41Z</time>
      </trkpt>
      <trkpt lat="42.93457" lon="0.04066">
        <ele>2184.25</ele>
        <time>2013-01-06T11:08:54Z</time>
      </trkpt>
      <trkpt lat="42.93455" lon="0.04073">
        <ele>2186.66</ele>
        <time>2013-01-06T11:09:09Z</time>
      </trkpt>
      <trkpt lat="42.93453" lon="0.04069">
        <ele>2186.66</ele>
        <time>2013-01-06T11:09:16Z</time>
      </trkpt>
      <trkpt lat="42.93446" lon="0.04062">
        <ele>2189.54</ele>
        <time>2013-01-06T11:09:31Z</time>
      </trkpt>
      <trkpt lat="42.9344" lon="0.04057">
        <ele>2190.98</ele>
        <time>2013-01-06T11:09:45Z</time>
      </trkpt>
      <trkpt lat="42.93434" lon="0.04053">
        <ele>2190.98</ele>
        <time>2013-01-06T11:09:57Z</time>
      </trkpt>
      <trkpt lat="42.93422" lon="0.04046">
        <ele>2189.54</ele>
        <time>2013-01-06T11:10:13Z</time>
      </trkpt>
      <trkpt lat="42.93414" lon="0.04045">
        <ele>2190.5</ele>
        <time>2013-01-06T11:10:26Z</time>
      </trkpt>
      <trkpt lat="42.93408" lon="0.04043">
        <ele>2191.46</ele>
        <time>2013-01-06T11:10:39Z</time>
      </trkpt>
      <trkpt lat="42.93401" lon="0.04037">
        <ele>2193.87</ele>
        <time>2013-01-06T11:10:56Z</time>
      </trkpt>
      <trkpt lat="42.93397" lon="0.04029">
        <ele>2194.35</ele>
        <time>2013-01-06T11:11:09Z</time>
      </trkpt>
      <trkpt lat="42.93394" lon="0.0403">
        <ele>2195.79</ele>
        <time>2013-01-06T11:11:26Z</time>
      </trkpt>
      <trkpt lat="42.93392" lon="0.04036">
        <ele>2197.71</ele>
        <time>2013-01-06T11:11:41Z</time>
      </trkpt>
      <trkpt lat="42.93389" lon="0.04045">
        <ele>2199.63</ele>
        <time>2013-01-06T11:11:55Z</time>
      </trkpt>
      <trkpt lat="42.93386" lon="0.04052">
        <ele>2202.04</ele>
        <time>2013-01-06T11:12:07Z</time>
      </trkpt>
      <trkpt lat="42.93382" lon="0.04061">
        <ele>2203</ele>
        <time>2013-01-06T11:12:22Z</time>
      </trkpt>
      <trkpt lat="42.93378" lon="0.04067">
        <ele>2204.92</ele>
        <time>2013-01-06T11:12:34Z</time>
      </trkpt>
      <trkpt lat="42.93375" lon="0.04073">
        <ele>2206.36</ele>
        <time>2013-01-06T11:12:49Z</time>
      </trkpt>
      <trkpt lat="42.93374" lon="0.04065">
        <ele>2207.81</ele>
        <time>2013-01-06T11:13:02Z</time>
      </trkpt>
      <trkpt lat="42.93373" lon="0.0406">
        <ele>2209.73</ele>
        <time>2013-01-06T11:13:19Z</time>
      </trkpt>
      <trkpt lat="42.93369" lon="0.04053">
        <ele>2211.17</ele>
        <time>2013-01-06T11:13:34Z</time>
      </trkpt>
      <trkpt lat="42.93367" lon="0.04046">
        <ele>2213.09</ele>
        <time>2013-01-06T11:13:48Z</time>
      </trkpt>
      <trkpt lat="42.93361" lon="0.0404">
        <ele>2215.5</ele>
        <time>2013-01-06T11:14:06Z</time>
      </trkpt>
      <trkpt lat="42.93352" lon="0.04035">
        <ele>2216.94</ele>
        <time>2013-01-06T11:14:23Z</time>
      </trkpt>
      <trkpt lat="42.93345" lon="0.04032">
        <ele>2218.86</ele>
        <time>2013-01-06T11:14:40Z</time>
      </trkpt>
      <trkpt lat="42.93339" lon="0.04031">
        <ele>2221.26</ele>
        <time>2013-01-06T11:14:56Z</time>
      </trkpt>
      <trkpt lat="42.93332" lon="0.0403">
        <ele>2222.71</ele>
        <time>2013-01-06T11:15:12Z</time>
      </trkpt>
      <trkpt lat="42.93331" lon="0.0403">
        <ele>2225.11</ele>
        <time>2013-01-06T11:15:26Z</time>
      </trkpt>
      <trkpt lat="42.93332" lon="0.04036">
        <ele>2227.03</ele>
        <time>2013-01-06T11:15:39Z</time>
      </trkpt>
      <trkpt lat="42.93331" lon="0.04042">
        <ele>2228.47</ele>
        <time>2013-01-06T11:15:53Z</time>
      </trkpt>
      <trkpt lat="42.93326" lon="0.04053">
        <ele>2229.92</ele>
        <time>2013-01-06T11:16:06Z</time>
      </trkpt>
      <trkpt lat="42.93325" lon="0.04059">
        <ele>2231.36</ele>
        <time>2013-01-06T11:16:21Z</time>
      </trkpt>
      <trkpt lat="42.93321" lon="0.04065">
        <ele>2233.76</ele>
        <time>2013-01-06T11:16:37Z</time>
      </trkpt>
      <trkpt lat="42.93317" lon="0.0407">
        <ele>2236.16</ele>
        <time>2013-01-06T11:16:54Z</time>
      </trkpt>
      <trkpt lat="42.93315" lon="0.04076">
        <ele>2237.61</ele>
        <time>2013-01-06T11:17:05Z</time>
      </trkpt>
      <trkpt lat="42.9331" lon="0.04083">
        <ele>2240.01</ele>
        <time>2013-01-06T11:17:19Z</time>
      </trkpt>
      <trkpt lat="42.93304" lon="0.04086">
        <ele>2240.97</ele>
        <time>2013-01-06T11:17:29Z</time>
      </trkpt>
      <trkpt lat="42.93296" lon="0.04093">
        <ele>2243.37</ele>
        <time>2013-01-06T11:17:46Z</time>
      </trkpt>
      <trkpt lat="42.93293" lon="0.04099">
        <ele>2245.3</ele>
        <time>2013-01-06T11:18:00Z</time>
      </trkpt>
      <trkpt lat="42.93289" lon="0.04105">
        <ele>2247.22</ele>
        <time>2013-01-06T11:18:16Z</time>
      </trkpt>
      <trkpt lat="42.93287" lon="0.04112">
        <ele>2249.62</ele>
        <time>2013-01-06T11:18:29Z</time>
      </trkpt>
      <trkpt lat="42.93289" lon="0.04119">
        <ele>2250.58</ele>
        <time>2013-01-06T11:18:43Z</time>
      </trkpt>
      <trkpt lat="42.93286" lon="0.04121">
        <ele>2251.54</ele>
        <time>2013-01-06T11:18:56Z</time>
      </trkpt>
      <trkpt lat="42.93286" lon="0.04126">
        <ele>2252.99</ele>
        <time>2013-01-06T11:19:09Z</time>
      </trkpt>
      <trkpt lat="42.93285" lon="0.04131">
        <ele>2253.47</ele>
        <time>2013-01-06T11:19:24Z</time>
      </trkpt>
      <trkpt lat="42.93283" lon="0.04136">
        <ele>2254.91</ele>
        <time>2013-01-06T11:19:40Z</time>
      </trkpt>
      <trkpt lat="42.93281" lon="0.04141">
        <ele>2255.87</ele>
        <time>2013-01-06T11:19:54Z</time>
      </trkpt>
      <trkpt lat="42.9328" lon="0.04144">
        <ele>2257.31</ele>
        <time>2013-01-06T11:20:08Z</time>
      </trkpt>
      <trkpt lat="42.93278" lon="0.04149">
        <ele>2258.27</ele>
        <time>2013-01-06T11:20:22Z</time>
      </trkpt>
      <trkpt lat="42.93276" lon="0.04155">
        <ele>2259.72</ele>
        <time>2013-01-06T11:20:35Z</time>
      </trkpt>
      <trkpt lat="42.93275" lon="0.04161">
        <ele>2261.16</ele>
        <time>2013-01-06T11:20:48Z</time>
      </trkpt>
      <trkpt lat="42.93276" lon="0.04166">
        <ele>2263.08</ele>
        <time>2013-01-06T11:21:04Z</time>
      </trkpt>
      <trkpt lat="42.93277" lon="0.04169">
        <ele>2264.52</ele>
        <time>2013-01-06T11:21:17Z</time>
      </trkpt>
      <trkpt lat="42.93279" lon="0.04179">
        <ele>2266.45</ele>
        <time>2013-01-06T11:21:35Z</time>
      </trkpt>
      <trkpt lat="42.93282" lon="0.04186">
        <ele>2267.89</ele>
        <time>2013-01-06T11:21:50Z</time>
      </trkpt>
      <trkpt lat="42.93284" lon="0.04197">
        <ele>2269.81</ele>
        <time>2013-01-06T11:22:07Z</time>
      </trkpt>
      <trkpt lat="42.93282" lon="0.04205">
        <ele>2270.77</ele>
        <time>2013-01-06T11:22:19Z</time>
      </trkpt>
      <trkpt lat="42.93279" lon="0.04208">
        <ele>2272.21</ele>
        <time>2013-01-06T11:22:31Z</time>
      </trkpt>
      <trkpt lat="42.93276" lon="0.04209">
        <ele>2273.66</ele>
        <time>2013-01-06T11:22:46Z</time>
      </trkpt>
      <trkpt lat="42.93273" lon="0.04212">
        <ele>2275.1</ele>
        <time>2013-01-06T11:23:01Z</time>
      </trkpt>
      <trkpt lat="42.93271" lon="0.04213">
        <ele>2277.5</ele>
        <time>2013-01-06T11:23:16Z</time>
      </trkpt>
      <trkpt lat="42.93267" lon="0.04216">
        <ele>2279.42</ele>
        <time>2013-01-06T11:23:30Z</time>
      </trkpt>
      <trkpt lat="42.93265" lon="0.04217">
        <ele>2280.87</ele>
        <time>2013-01-06T11:23:43Z</time>
      </trkpt>
      <trkpt lat="42.93264" lon="0.04219">
        <ele>2282.31</ele>
        <time>2013-01-06T11:23:55Z</time>
      </trkpt>
      <trkpt lat="42.93258" lon="0.04224">
        <ele>2284.23</ele>
        <time>2013-01-06T11:24:10Z</time>
      </trkpt>
      <trkpt lat="42.93256" lon="0.04226">
        <ele>2285.19</ele>
        <time>2013-01-06T11:24:23Z</time>
      </trkpt>
      <trkpt lat="42.93259" lon="0.04231">
        <ele>2287.11</ele>
        <time>2013-01-06T11:24:38Z</time>
      </trkpt>
      <trkpt lat="42.9326" lon="0.04235">
        <ele>2288.08</ele>
        <time>2013-01-06T11:24:52Z</time>
      </trkpt>
      <trkpt lat="42.93254" lon="0.04239">
        <ele>2289.52</ele>
        <time>2013-01-06T11:25:08Z</time>
      </trkpt>
      <trkpt lat="42.93248" lon="0.04238">
        <ele>2291.92</ele>
        <time>2013-01-06T11:25:25Z</time>
      </trkpt>
      <trkpt lat="42.93249" lon="0.04237">
        <ele>2293.36</ele>
        <time>2013-01-06T11:25:38Z</time>
      </trkpt>
      <trkpt lat="42.93245" lon="0.04247">
        <ele>2295.28</ele>
        <time>2013-01-06T11:25:53Z</time>
      </trkpt>
      <trkpt lat="42.93241" lon="0.04248">
        <ele>2297.21</ele>
        <time>2013-01-06T11:26:06Z</time>
      </trkpt>
      <trkpt lat="42.93235" lon="0.0425">
        <ele>2299.61</ele>
        <time>2013-01-06T11:26:20Z</time>
      </trkpt>
      <trkpt lat="42.93227" lon="0.04249">
        <ele>2300.57</ele>
        <time>2013-01-06T11:26:36Z</time>
      </trkpt>
      <trkpt lat="42.93221" lon="0.04248">
        <ele>2302.98</ele>
        <time>2013-01-06T11:26:52Z</time>
      </trkpt>
      <trkpt lat="42.93215" lon="0.04252">
        <ele>2304.42</ele>
        <time>2013-01-06T11:27:09Z</time>
      </trkpt>
      <trkpt lat="42.93215" lon="0.04258">
        <ele>2306.34</ele>
        <time>2013-01-06T11:27:25Z</time>
      </trkpt>
      <trkpt lat="42.93218" lon="0.04264">
        <ele>2308.26</ele>
        <time>2013-01-06T11:27:38Z</time>
      </trkpt>
      <trkpt lat="42.9322" lon="0.0427">
        <ele>2309.7</ele>
        <time>2013-01-06T11:27:52Z</time>
      </trkpt>
      <trkpt lat="42.93221" lon="0.04277">
        <ele>2311.63</ele>
        <time>2013-01-06T11:28:05Z</time>
      </trkpt>
      <trkpt lat="42.93224" lon="0.04284">
        <ele>2314.03</ele>
        <time>2013-01-06T11:28:19Z</time>
      </trkpt>
      <trkpt lat="42.93224" lon="0.04292">
        <ele>2314.99</ele>
        <time>2013-01-06T11:28:32Z</time>
      </trkpt>
      <trkpt lat="42.93226" lon="0.04297">
        <ele>2316.91</ele>
        <time>2013-01-06T11:28:42Z</time>
      </trkpt>
      <trkpt lat="42.93225" lon="0.04307">
        <ele>2318.36</ele>
        <time>2013-01-06T11:28:54Z</time>
      </trkpt>
      <trkpt lat="42.93224" lon="0.04312">
        <ele>2320.76</ele>
        <time>2013-01-06T11:29:09Z</time>
      </trkpt>
      <trkpt lat="42.9322" lon="0.04322">
        <ele>2322.68</ele>
        <time>2013-01-06T11:29:25Z</time>
      </trkpt>
      <trkpt lat="42.93222" lon="0.04322">
        <ele>2323.16</ele>
        <time>2013-01-06T11:29:38Z</time>
      </trkpt>
      <trkpt lat="42.93223" lon="0.04323">
        <ele>2323.64</ele>
        <time>2013-01-06T11:29:58Z</time>
      </trkpt>
      <trkpt lat="42.93224" lon="0.04324">
        <ele>2323.16</ele>
        <time>2013-01-06T11:30:20Z</time>
      </trkpt>
      <trkpt lat="42.93224" lon="0.04324">
        <ele>2319.8</ele>
        <time>2013-01-06T11:30:27Z</time>
      </trkpt>
      <trkpt lat="42.93224" lon="0.04324">
        <ele>2323.16</ele>
        <time>2013-01-06T11:30:28Z</time>
      </trkpt>
      <trkpt lat="42.93224" lon="0.04324">
        <ele>2323.64</ele>
        <time>2013-01-06T11:30:42Z</time>
      </trkpt>
      <trkpt lat="42.93224" lon="0.04324">
        <ele>2325.09</ele>
        <time>2013-01-06T11:30:55Z</time>
      </trkpt>
      <trkpt lat="42.93224" lon="0.04324">
        <ele>2323.16</ele>
        <time>2013-01-06T11:30:57Z</time>
      </trkpt>
      <trkpt lat="42.93224" lon="0.04324">
        <ele>2323.64</ele>
        <time>2013-01-06T11:31:19Z</time>
      </trkpt>
      <trkpt lat="42.93225" lon="0.04324">
        <ele>2323.64</ele>
        <time>2013-01-06T11:31:47Z</time>
      </trkpt>
      <trkpt lat="42.93224" lon="0.04325">
        <ele>2324.12</ele>
        <time>2013-01-06T11:32:15Z</time>
      </trkpt>
      <trkpt lat="42.93224" lon="0.04324">
        <ele>2323.16</ele>
        <time>2013-01-06T11:32:35Z</time>
      </trkpt>
      <trkpt lat="42.93224" lon="0.04323">
        <ele>2323.64</ele>
        <time>2013-01-06T11:33:00Z</time>
      </trkpt>
      <trkpt lat="42.93224" lon="0.04323">
        <ele>2323.16</ele>
        <time>2013-01-06T11:33:30Z</time>
      </trkpt>
      <trkpt lat="42.93223" lon="0.04324">
        <ele>2324.61</ele>
        <time>2013-01-06T11:33:55Z</time>
      </trkpt>
      <trkpt lat="42.93224" lon="0.04329">
        <ele>2326.05</ele>
        <time>2013-01-06T11:34:09Z</time>
      </trkpt>
      <trkpt lat="42.93224" lon="0.04337">
        <ele>2327.97</ele>
        <time>2013-01-06T11:34:26Z</time>
      </trkpt>
      <trkpt lat="42.93221" lon="0.04344">
        <ele>2329.89</ele>
        <time>2013-01-06T11:34:43Z</time>
      </trkpt>
      <trkpt lat="42.93217" lon="0.04355">
        <ele>2331.33</ele>
        <time>2013-01-06T11:34:59Z</time>
      </trkpt>
      <trkpt lat="42.93214" lon="0.04364">
        <ele>2333.26</ele>
        <time>2013-01-06T11:35:14Z</time>
      </trkpt>
      <trkpt lat="42.93211" lon="0.04372">
        <ele>2334.22</ele>
        <time>2013-01-06T11:35:27Z</time>
      </trkpt>
      <trkpt lat="42.93209" lon="0.04376">
        <ele>2335.18</ele>
        <time>2013-01-06T11:35:42Z</time>
      </trkpt>
      <trkpt lat="42.93208" lon="0.04385">
        <ele>2336.62</ele>
        <time>2013-01-06T11:35:59Z</time>
      </trkpt>
      <trkpt lat="42.93208" lon="0.0439">
        <ele>2338.54</ele>
        <time>2013-01-06T11:36:17Z</time>
      </trkpt>
      <trkpt lat="42.93207" lon="0.04393">
        <ele>2339.02</ele>
        <time>2013-01-06T11:36:36Z</time>
      </trkpt>
      <trkpt lat="42.93206" lon="0.044">
        <ele>2340.95</ele>
        <time>2013-01-06T11:36:53Z</time>
      </trkpt>
      <trkpt lat="42.93206" lon="0.04408">
        <ele>2341.43</ele>
        <time>2013-01-06T11:37:05Z</time>
      </trkpt>
      <trkpt lat="42.93205" lon="0.04418">
        <ele>2343.35</ele>
        <time>2013-01-06T11:37:21Z</time>
      </trkpt>
      <trkpt lat="42.932" lon="0.04423">
        <ele>2344.79</ele>
        <time>2013-01-06T11:37:36Z</time>
      </trkpt>
      <trkpt lat="42.93197" lon="0.0443">
        <ele>2346.72</ele>
        <time>2013-01-06T11:37:48Z</time>
      </trkpt>
      <trkpt lat="42.93191" lon="0.04437">
        <ele>2347.2</ele>
        <time>2013-01-06T11:38:02Z</time>
      </trkpt>
      <trkpt lat="42.93187" lon="0.04446">
        <ele>2348.64</ele>
        <time>2013-01-06T11:38:16Z</time>
      </trkpt>
      <trkpt lat="42.93186" lon="0.04456">
        <ele>2350.56</ele>
        <time>2013-01-06T11:38:30Z</time>
      </trkpt>
      <trkpt lat="42.9318" lon="0.04462">
        <ele>2351.04</ele>
        <time>2013-01-06T11:38:44Z</time>
      </trkpt>
      <trkpt lat="42.93176" lon="0.04469">
        <ele>2352.96</ele>
        <time>2013-01-06T11:38:58Z</time>
      </trkpt>
      <trkpt lat="42.93169" lon="0.04473">
        <ele>2353.93</ele>
        <time>2013-01-06T11:39:12Z</time>
      </trkpt>
      <trkpt lat="42.93169" lon="0.04476">
        <ele>2355.85</ele>
        <time>2013-01-06T11:39:27Z</time>
      </trkpt>
      <trkpt lat="42.93167" lon="0.04478">
        <ele>2357.29</ele>
        <time>2013-01-06T11:39:43Z</time>
      </trkpt>
      <trkpt lat="42.93166" lon="0.04481">
        <ele>2358.73</ele>
        <time>2013-01-06T11:39:58Z</time>
      </trkpt>
      <trkpt lat="42.93166" lon="0.04483">
        <ele>2359.69</ele>
        <time>2013-01-06T11:40:15Z</time>
      </trkpt>
      <trkpt lat="42.93167" lon="0.04485">
        <ele>2360.65</ele>
        <time>2013-01-06T11:40:27Z</time>
      </trkpt>
      <trkpt lat="42.93168" lon="0.04488">
        <ele>2362.1</ele>
        <time>2013-01-06T11:40:40Z</time>
      </trkpt>
      <trkpt lat="42.93168" lon="0.04489">
        <ele>2362.58</ele>
        <time>2013-01-06T11:40:55Z</time>
      </trkpt>
      <trkpt lat="42.9317" lon="0.04491">
        <ele>2363.06</ele>
        <time>2013-01-06T11:41:08Z</time>
      </trkpt>
      <trkpt lat="42.93171" lon="0.04496">
        <ele>2364.98</ele>
        <time>2013-01-06T11:41:21Z</time>
      </trkpt>
      <trkpt lat="42.93172" lon="0.04497">
        <ele>2365.46</ele>
        <time>2013-01-06T11:41:35Z</time>
      </trkpt>
      <trkpt lat="42.93172" lon="0.045">
        <ele>2367.38</ele>
        <time>2013-01-06T11:41:51Z</time>
      </trkpt>
      <trkpt lat="42.93173" lon="0.04503">
        <ele>2367.38</ele>
        <time>2013-01-06T11:42:08Z</time>
      </trkpt>
      <trkpt lat="42.93174" lon="0.04505">
        <ele>2369.79</ele>
        <time>2013-01-06T11:42:23Z</time>
      </trkpt>
      <trkpt lat="42.93175" lon="0.04507">
        <ele>2369.79</ele>
        <time>2013-01-06T11:42:26Z</time>
      </trkpt>
      <trkpt lat="42.93176" lon="0.04508">
        <ele>2370.75</ele>
        <time>2013-01-06T11:42:37Z</time>
      </trkpt>
      <trkpt lat="42.93177" lon="0.04509">
        <ele>2371.71</ele>
        <time>2013-01-06T11:42:53Z</time>
      </trkpt>
      <trkpt lat="42.93178" lon="0.0451">
        <ele>2373.15</ele>
        <time>2013-01-06T11:43:06Z</time>
      </trkpt>
      <trkpt lat="42.93179" lon="0.04511">
        <ele>2374.59</ele>
        <time>2013-01-06T11:43:20Z</time>
      </trkpt>
      <trkpt lat="42.9318" lon="0.04513">
        <ele>2376.52</ele>
        <time>2013-01-06T11:43:33Z</time>
      </trkpt>
      <trkpt lat="42.93181" lon="0.04515">
        <ele>2377</ele>
        <time>2013-01-06T11:43:46Z</time>
      </trkpt>
      <trkpt lat="42.93181" lon="0.04516">
        <ele>2378.44</ele>
        <time>2013-01-06T11:44:00Z</time>
      </trkpt>
      <trkpt lat="42.93182" lon="0.04517">
        <ele>2379.88</ele>
        <time>2013-01-06T11:44:17Z</time>
      </trkpt>
      <trkpt lat="42.93183" lon="0.04521">
        <ele>2381.32</ele>
        <time>2013-01-06T11:44:33Z</time>
      </trkpt>
      <trkpt lat="42.93184" lon="0.04524">
        <ele>2382.28</ele>
        <time>2013-01-06T11:44:45Z</time>
      </trkpt>
      <trkpt lat="42.93185" lon="0.04527">
        <ele>2383.73</ele>
        <time>2013-01-06T11:44:56Z</time>
      </trkpt>
      <trkpt lat="42.93186" lon="0.0453">
        <ele>2385.65</ele>
        <time>2013-01-06T11:45:10Z</time>
      </trkpt>
      <trkpt lat="42.93187" lon="0.04531">
        <ele>2386.61</ele>
        <time>2013-01-06T11:45:25Z</time>
      </trkpt>
      <trkpt lat="42.93188" lon="0.04533">
        <ele>2388.53</ele>
        <time>2013-01-06T11:45:39Z</time>
      </trkpt>
      <trkpt lat="42.93188" lon="0.04536">
        <ele>2389.49</ele>
        <time>2013-01-06T11:45:55Z</time>
      </trkpt>
      <trkpt lat="42.93188" lon="0.04539">
        <ele>2391.42</ele>
        <time>2013-01-06T11:46:09Z</time>
      </trkpt>
      <trkpt lat="42.93189" lon="0.04543">
        <ele>2393.34</ele>
        <time>2013-01-06T11:46:23Z</time>
      </trkpt>
      <trkpt lat="42.9319" lon="0.04546">
        <ele>2394.3</ele>
        <time>2013-01-06T11:46:39Z</time>
      </trkpt>
      <trkpt lat="42.93191" lon="0.0455">
        <ele>2395.26</ele>
        <time>2013-01-06T11:46:51Z</time>
      </trkpt>
      <trkpt lat="42.93192" lon="0.04552">
        <ele>2397.67</ele>
        <time>2013-01-06T11:47:09Z</time>
      </trkpt>
      <trkpt lat="42.93193" lon="0.04553">
        <ele>2399.59</ele>
        <time>2013-01-06T11:47:22Z</time>
      </trkpt>
      <trkpt lat="42.93194" lon="0.04556">
        <ele>2400.07</ele>
        <time>2013-01-06T11:47:34Z</time>
      </trkpt>
      <trkpt lat="42.93194" lon="0.04558">
        <ele>2401.99</ele>
        <time>2013-01-06T11:47:47Z</time>
      </trkpt>
      <trkpt lat="42.93195" lon="0.04561">
        <ele>2402.95</ele>
        <time>2013-01-06T11:48:03Z</time>
      </trkpt>
      <trkpt lat="42.93197" lon="0.04567">
        <ele>2405.36</ele>
        <time>2013-01-06T11:48:18Z</time>
      </trkpt>
      <trkpt lat="42.93197" lon="0.0457">
        <ele>2406.32</ele>
        <time>2013-01-06T11:48:32Z</time>
      </trkpt>
      <trkpt lat="42.93199" lon="0.04573">
        <ele>2407.76</ele>
        <time>2013-01-06T11:48:45Z</time>
      </trkpt>
      <trkpt lat="42.93201" lon="0.04575">
        <ele>2408.24</ele>
        <time>2013-01-06T11:49:00Z</time>
      </trkpt>
      <trkpt lat="42.93204" lon="0.04578">
        <ele>2410.64</ele>
        <time>2013-01-06T11:49:15Z</time>
      </trkpt>
      <trkpt lat="42.93204" lon="0.04579">
        <ele>2411.6</ele>
        <time>2013-01-06T11:49:29Z</time>
      </trkpt>
      <trkpt lat="42.93204" lon="0.04582">
        <ele>2413.05</ele>
        <time>2013-01-06T11:49:40Z</time>
      </trkpt>
      <trkpt lat="42.93205" lon="0.04584">
        <ele>2415.45</ele>
        <time>2013-01-06T11:49:55Z</time>
      </trkpt>
      <trkpt lat="42.93206" lon="0.04588">
        <ele>2416.41</ele>
        <time>2013-01-06T11:50:07Z</time>
      </trkpt>
      <trkpt lat="42.93205" lon="0.04592">
        <ele>2418.33</ele>
        <time>2013-01-06T11:50:24Z</time>
      </trkpt>
      <trkpt lat="42.93204" lon="0.04594">
        <ele>2420.74</ele>
        <time>2013-01-06T11:50:38Z</time>
      </trkpt>
      <trkpt lat="42.93204" lon="0.04597">
        <ele>2421.7</ele>
        <time>2013-01-06T11:50:50Z</time>
      </trkpt>
      <trkpt lat="42.93204" lon="0.04601">
        <ele>2423.62</ele>
        <time>2013-01-06T11:51:06Z</time>
      </trkpt>
      <trkpt lat="42.93205" lon="0.04602">
        <ele>2424.1</ele>
        <time>2013-01-06T11:51:21Z</time>
      </trkpt>
      <trkpt lat="42.93205" lon="0.04603">
        <ele>2426.02</ele>
        <time>2013-01-06T11:51:32Z</time>
      </trkpt>
      <trkpt lat="42.93205" lon="0.04604">
        <ele>2426.5</ele>
        <time>2013-01-06T11:51:47Z</time>
      </trkpt>
      <trkpt lat="42.93206" lon="0.04607">
        <ele>2427.95</ele>
        <time>2013-01-06T11:52:00Z</time>
      </trkpt>
      <trkpt lat="42.93205" lon="0.0461">
        <ele>2428.91</ele>
        <time>2013-01-06T11:52:12Z</time>
      </trkpt>
      <trkpt lat="42.93205" lon="0.04614">
        <ele>2430.35</ele>
        <time>2013-01-06T11:52:23Z</time>
      </trkpt>
      <trkpt lat="42.93204" lon="0.04621">
        <ele>2432.27</ele>
        <time>2013-01-06T11:52:37Z</time>
      </trkpt>
      <trkpt lat="42.93203" lon="0.04624">
        <ele>2434.68</ele>
        <time>2013-01-06T11:52:48Z</time>
      </trkpt>
      <trkpt lat="42.93199" lon="0.04628">
        <ele>2436.6</ele>
        <time>2013-01-06T11:53:04Z</time>
      </trkpt>
      <trkpt lat="42.93199" lon="0.04628">
        <ele>2438.04</ele>
        <time>2013-01-06T11:53:07Z</time>
      </trkpt>
      <trkpt lat="42.93199" lon="0.04628">
        <ele>2437.08</ele>
        <time>2013-01-06T11:53:27Z</time>
      </trkpt>
      <trkpt lat="42.93198" lon="0.04628">
        <ele>2437.08</ele>
        <time>2013-01-06T11:53:52Z</time>
      </trkpt>
      <trkpt lat="42.93198" lon="0.04627">
        <ele>2437.08</ele>
        <time>2013-01-06T11:54:13Z</time>
      </trkpt>
      <trkpt lat="42.93198" lon="0.04628">
        <ele>2437.56</ele>
        <time>2013-01-06T11:54:27Z</time>
      </trkpt>
      <trkpt lat="42.93196" lon="0.04629">
        <ele>2438.52</ele>
        <time>2013-01-06T11:54:46Z</time>
      </trkpt>
      <trkpt lat="42.93197" lon="0.0463">
        <ele>2438.52</ele>
        <time>2013-01-06T11:55:11Z</time>
      </trkpt>
      <trkpt lat="42.93197" lon="0.0463">
        <ele>2438.04</ele>
        <time>2013-01-06T11:55:33Z</time>
      </trkpt>
      <trkpt lat="42.93197" lon="0.0463">
        <ele>2438.52</ele>
        <time>2013-01-06T11:56:00Z</time>
      </trkpt>
      <trkpt lat="42.93197" lon="0.0463">
        <ele>2438.52</ele>
        <time>2013-01-06T11:56:17Z</time>
      </trkpt>
      <trkpt lat="42.93197" lon="0.0463">
        <ele>2438.52</ele>
        <time>2013-01-06T11:56:47Z</time>
      </trkpt>
      <trkpt lat="42.93197" lon="0.0463">
        <ele>2438.52</ele>
        <time>2013-01-06T11:57:12Z</time>
      </trkpt>
      <trkpt lat="42.93198" lon="0.0463">
        <ele>2438.52</ele>
        <time>2013-01-06T11:57:36Z</time>
      </trkpt>
      <trkpt lat="42.93198" lon="0.04631">
        <ele>2438.52</ele>
        <time>2013-01-06T11:58:05Z</time>
      </trkpt>
      <trkpt lat="42.93197" lon="0.0463">
        <ele>2439.48</ele>
        <time>2013-01-06T11:58:34Z</time>
      </trkpt>
      <trkpt lat="42.93197" lon="0.0463">
        <ele>2439</ele>
        <time>2013-01-06T11:59:03Z</time>
      </trkpt>
      <trkpt lat="42.932" lon="0.04634">
        <ele>2441.89</ele>
        <time>2013-01-06T11:59:19Z</time>
      </trkpt>
      <trkpt lat="42.93205" lon="0.04639">
        <ele>2444.77</ele>
        <time>2013-01-06T11:59:33Z</time>
      </trkpt>
      <trkpt lat="42.93212" lon="0.04641">
        <ele>2446.69</ele>
        <time>2013-01-06T11:59:50Z</time>
      </trkpt>
      <trkpt lat="42.93216" lon="0.04642">
        <ele>2447.65</ele>
        <time>2013-01-06T12:00:05Z</time>
      </trkpt>
      <trkpt lat="42.93222" lon="0.04637">
        <ele>2449.1</ele>
        <time>2013-01-06T12:00:21Z</time>
      </trkpt>
      <trkpt lat="42.93229" lon="0.04632">
        <ele>2451.02</ele>
        <time>2013-01-06T12:00:38Z</time>
      </trkpt>
      <trkpt lat="42.93235" lon="0.04629">
        <ele>2453.42</ele>
        <time>2013-01-06T12:00:53Z</time>
      </trkpt>
      <trkpt lat="42.93237" lon="0.04632">
        <ele>2454.38</ele>
        <time>2013-01-06T12:01:10Z</time>
      </trkpt>
      <trkpt lat="42.9324" lon="0.04642">
        <ele>2456.79</ele>
        <time>2013-01-06T12:01:28Z</time>
      </trkpt>
      <trkpt lat="42.93244" lon="0.04651">
        <ele>2457.27</ele>
        <time>2013-01-06T12:01:44Z</time>
      </trkpt>
      <trkpt lat="42.93248" lon="0.04659">
        <ele>2458.71</ele>
        <time>2013-01-06T12:02:00Z</time>
      </trkpt>
      <trkpt lat="42.93252" lon="0.04665">
        <ele>2460.15</ele>
        <time>2013-01-06T12:02:14Z</time>
      </trkpt>
      <trkpt lat="42.93256" lon="0.04673">
        <ele>2460.63</ele>
        <time>2013-01-06T12:02:27Z</time>
      </trkpt>
      <trkpt lat="42.93261" lon="0.04683">
        <ele>2462.07</ele>
        <time>2013-01-06T12:02:42Z</time>
      </trkpt>
      <trkpt lat="42.93264" lon="0.04693">
        <ele>2463.04</ele>
        <time>2013-01-06T12:02:55Z</time>
      </trkpt>
      <trkpt lat="42.93268" lon="0.04701">
        <ele>2464.48</ele>
        <time>2013-01-06T12:03:08Z</time>
      </trkpt>
      <trkpt lat="42.93271" lon="0.04708">
        <ele>2464.96</ele>
        <time>2013-01-06T12:03:22Z</time>
      </trkpt>
      <trkpt lat="42.93272" lon="0.04715">
        <ele>2467.36</ele>
        <time>2013-01-06T12:03:35Z</time>
      </trkpt>
      <trkpt lat="42.93275" lon="0.04725">
        <ele>2468.32</ele>
        <time>2013-01-06T12:03:50Z</time>
      </trkpt>
      <trkpt lat="42.93277" lon="0.04733">
        <ele>2469.76</ele>
        <time>2013-01-06T12:04:06Z</time>
      </trkpt>
      <trkpt lat="42.93282" lon="0.0474">
        <ele>2471.69</ele>
        <time>2013-01-06T12:04:20Z</time>
      </trkpt>
      <trkpt lat="42.93284" lon="0.04741">
        <ele>2473.13</ele>
        <time>2013-01-06T12:04:34Z</time>
      </trkpt>
      <trkpt lat="42.93286" lon="0.04736">
        <ele>2474.09</ele>
        <time>2013-01-06T12:04:49Z</time>
      </trkpt>
      <trkpt lat="42.93286" lon="0.04736">
        <ele>2474.09</ele>
        <time>2013-01-06T12:05:11Z</time>
      </trkpt>
      <trkpt lat="42.93288" lon="0.04736">
        <ele>2474.09</ele>
        <time>2013-01-06T12:05:24Z</time>
      </trkpt>
      <trkpt lat="42.93287" lon="0.04736">
        <ele>2475.05</ele>
        <time>2013-01-06T12:05:41Z</time>
      </trkpt>
      <trkpt lat="42.93285" lon="0.04736">
        <ele>2474.57</ele>
        <time>2013-01-06T12:06:00Z</time>
      </trkpt>
      <trkpt lat="42.93283" lon="0.04736">
        <ele>2474.09</ele>
        <time>2013-01-06T12:06:16Z</time>
      </trkpt>
      <trkpt lat="42.93283" lon="0.04736">
        <ele>2475.05</ele>
        <time>2013-01-06T12:06:32Z</time>
      </trkpt>
      <trkpt lat="42.93284" lon="0.04735">
        <ele>2476.01</ele>
        <time>2013-01-06T12:06:56Z</time>
      </trkpt>
      <trkpt lat="42.93284" lon="0.04734">
        <ele>2475.05</ele>
        <time>2013-01-06T12:07:17Z</time>
      </trkpt>
      <trkpt lat="42.93284" lon="0.04734">
        <ele>2475.05</ele>
        <time>2013-01-06T12:07:37Z</time>
      </trkpt>
      <trkpt lat="42.93284" lon="0.04733">
        <ele>2474.57</ele>
        <time>2013-01-06T12:07:52Z</time>
      </trkpt>
      <trkpt lat="42.93286" lon="0.04734">
        <ele>2475.05</ele>
        <time>2013-01-06T12:08:04Z</time>
      </trkpt>
      <trkpt lat="42.93281" lon="0.04736">
        <ele>2475.05</ele>
        <time>2013-01-06T12:08:15Z</time>
      </trkpt>
      <trkpt lat="42.93282" lon="0.04735">
        <ele>2475.05</ele>
        <time>2013-01-06T12:08:30Z</time>
      </trkpt>
      <trkpt lat="42.93282" lon="0.04735">
        <ele>2476.01</ele>
        <time>2013-01-06T12:08:32Z</time>
      </trkpt>
      <trkpt lat="42.93282" lon="0.04736">
        <ele>2475.05</ele>
        <time>2013-01-06T12:08:52Z</time>
      </trkpt>
      <trkpt lat="42.93281" lon="0.04735">
        <ele>2474.57</ele>
        <time>2013-01-06T12:09:09Z</time>
      </trkpt>
      <trkpt lat="42.9328" lon="0.04735">
        <ele>2475.05</ele>
        <time>2013-01-06T12:09:24Z</time>
      </trkpt>
      <trkpt lat="42.93281" lon="0.04734">
        <ele>2473.61</ele>
        <time>2013-01-06T12:09:30Z</time>
      </trkpt>
      <trkpt lat="42.93281" lon="0.04734">
        <ele>2476.01</ele>
        <time>2013-01-06T12:09:33Z</time>
      </trkpt>
      <trkpt lat="42.9328" lon="0.04734">
        <ele>2475.53</ele>
        <time>2013-01-06T12:09:49Z</time>
      </trkpt>
      <trkpt lat="42.93281" lon="0.04734">
        <ele>2475.05</ele>
        <time>2013-01-06T12:10:10Z</time>
      </trkpt>
      <trkpt lat="42.93281" lon="0.04734">
        <ele>2476.49</ele>
        <time>2013-01-06T12:10:20Z</time>
      </trkpt>
      <trkpt lat="42.9328" lon="0.04733">
        <ele>2475.53</ele>
        <time>2013-01-06T12:10:34Z</time>
      </trkpt>
      <trkpt lat="42.93283" lon="0.04732">
        <ele>2475.05</ele>
        <time>2013-01-06T12:11:09Z</time>
      </trkpt>
      <trkpt lat="42.93284" lon="0.04731">
        <ele>2475.53</ele>
        <time>2013-01-06T12:11:46Z</time>
      </trkpt>
      <trkpt lat="42.93284" lon="0.04731">
        <ele>2475.05</ele>
        <time>2013-01-06T12:12:18Z</time>
      </trkpt>
      <trkpt lat="42.93282" lon="0.04731">
        <ele>2476.01</ele>
        <time>2013-01-06T12:12:49Z</time>
      </trkpt>
      <trkpt lat="42.93282" lon="0.04731">
        <ele>2476.49</ele>
        <time>2013-01-06T12:13:21Z</time>
      </trkpt>
      <trkpt lat="42.93281" lon="0.0473">
        <ele>2477.45</ele>
        <time>2013-01-06T12:14:00Z</time>
      </trkpt>
      <trkpt lat="42.93281" lon="0.04731">
        <ele>2476.01</ele>
        <time>2013-01-06T12:14:35Z</time>
      </trkpt>
      <trkpt lat="42.93281" lon="0.04731">
        <ele>2476.97</ele>
        <time>2013-01-06T12:15:11Z</time>
      </trkpt>
      <trkpt lat="42.9328" lon="0.0473">
        <ele>2476.97</ele>
        <time>2013-01-06T12:15:50Z</time>
      </trkpt>
      <trkpt lat="42.93281" lon="0.04731">
        <ele>2476.01</ele>
        <time>2013-01-06T12:16:28Z</time>
      </trkpt>
      <trkpt lat="42.93282" lon="0.04731">
        <ele>2476.97</ele>
        <time>2013-01-06T12:16:35Z</time>
      </trkpt>
      <trkpt lat="42.93282" lon="0.0473">
        <ele>2476.49</ele>
        <time>2013-01-06T12:17:21Z</time>
      </trkpt>
      <trkpt lat="42.93282" lon="0.0473">
        <ele>2476.97</ele>
        <time>2013-01-06T12:18:02Z</time>
      </trkpt>
      <trkpt lat="42.93282" lon="0.0473">
        <ele>2476.97</ele>
        <time>2013-01-06T12:18:41Z</time>
      </trkpt>
      <trkpt lat="42.93281" lon="0.0473">
        <ele>2476.97</ele>
        <time>2013-01-06T12:19:22Z</time>
      </trkpt>
      <trkpt lat="42.93281" lon="0.0473">
        <ele>2476.49</ele>
        <time>2013-01-06T12:19:58Z</time>
      </trkpt>
      <trkpt lat="42.93282" lon="0.0473">
        <ele>2476.97</ele>
        <time>2013-01-06T12:20:42Z</time>
      </trkpt>
      <trkpt lat="42.93281" lon="0.0473">
        <ele>2477.45</ele>
        <time>2013-01-06T12:21:22Z</time>
      </trkpt>
      <trkpt lat="42.93282" lon="0.0473">
        <ele>2477.45</ele>
        <time>2013-01-06T12:21:58Z</time>
      </trkpt>
      <trkpt lat="42.93282" lon="0.0473">
        <ele>2477.94</ele>
        <time>2013-01-06T12:22:08Z</time>
      </trkpt>
      <trkpt lat="42.93282" lon="0.0473">
        <ele>2477.94</ele>
        <time>2013-01-06T12:22:44Z</time>
      </trkpt>
      <trkpt lat="42.93281" lon="0.0473">
        <ele>2477.94</ele>
        <time>2013-01-06T12:23:18Z</time>
      </trkpt>
      <trkpt lat="42.93282" lon="0.0473">
        <ele>2478.9</ele>
        <time>2013-01-06T12:23:56Z</time>
      </trkpt>
      <trkpt lat="42.93282" lon="0.0473">
        <ele>2477.94</ele>
        <time>2013-01-06T12:24:30Z</time>
      </trkpt>
      <trkpt lat="42.93282" lon="0.0473">
        <ele>2477.94</ele>
        <time>2013-01-06T12:25:10Z</time>
      </trkpt>
      <trkpt lat="42.93282" lon="0.0473">
        <ele>2479.86</ele>
        <time>2013-01-06T12:25:45Z</time>
      </trkpt>
      <trkpt lat="42.93282" lon="0.0473">
        <ele>2478.42</ele>
        <time>2013-01-06T12:26:22Z</time>
      </trkpt>
      <trkpt lat="42.93281" lon="0.0473">
        <ele>2477.94</ele>
        <time>2013-01-06T12:26:55Z</time>
      </trkpt>
      <trkpt lat="42.93281" lon="0.04731">
        <ele>2478.42</ele>
        <time>2013-01-06T12:27:27Z</time>
      </trkpt>
      <trkpt lat="42.93281" lon="0.04731">
        <ele>2477.94</ele>
        <time>2013-01-06T12:27:59Z</time>
      </trkpt>
      <trkpt lat="42.93282" lon="0.04731">
        <ele>2478.42</ele>
        <time>2013-01-06T12:28:33Z</time>
      </trkpt>
      <trkpt lat="42.93281" lon="0.04731">
        <ele>2478.42</ele>
        <time>2013-01-06T12:29:10Z</time>
      </trkpt>
      <trkpt lat="42.93281" lon="0.04731">
        <ele>2478.42</ele>
        <time>2013-01-06T12:29:45Z</time>
      </trkpt>
      <trkpt lat="42.9328" lon="0.0473">
        <ele>2478.42</ele>
        <time>2013-01-06T12:30:18Z</time>
      </trkpt>
      <trkpt lat="42.9328" lon="0.04731">
        <ele>2479.38</ele>
        <time>2013-01-06T12:30:56Z</time>
      </trkpt>
      <trkpt lat="42.93279" lon="0.0473">
        <ele>2479.38</ele>
        <time>2013-01-06T12:31:30Z</time>
      </trkpt>
      <trkpt lat="42.93279" lon="0.0473">
        <ele>2479.38</ele>
        <time>2013-01-06T12:32:08Z</time>
      </trkpt>
      <trkpt lat="42.93279" lon="0.0473">
        <ele>2478.9</ele>
        <time>2013-01-06T12:32:41Z</time>
      </trkpt>
      <trkpt lat="42.93279" lon="0.0473">
        <ele>2478.9</ele>
        <time>2013-01-06T12:33:12Z</time>
      </trkpt>
      <trkpt lat="42.9328" lon="0.04729">
        <ele>2479.38</ele>
        <time>2013-01-06T12:33:46Z</time>
      </trkpt>
      <trkpt lat="42.9328" lon="0.0473">
        <ele>2478.9</ele>
        <time>2013-01-06T12:34:27Z</time>
      </trkpt>
      <trkpt lat="42.9328" lon="0.0473">
        <ele>2478.9</ele>
        <time>2013-01-06T12:35:02Z</time>
      </trkpt>
      <trkpt lat="42.93279" lon="0.04732">
        <ele>2478.9</ele>
        <time>2013-01-06T12:35:15Z</time>
      </trkpt>
      <trkpt lat="42.93279" lon="0.04732">
        <ele>2479.86</ele>
        <time>2013-01-06T12:35:32Z</time>
      </trkpt>
      <trkpt lat="42.93279" lon="0.04731">
        <ele>2479.38</ele>
        <time>2013-01-06T12:36:08Z</time>
      </trkpt>
      <trkpt lat="42.93278" lon="0.04731">
        <ele>2478.9</ele>
        <time>2013-01-06T12:36:21Z</time>
      </trkpt>
      <trkpt lat="42.93279" lon="0.04732">
        <ele>2479.38</ele>
        <time>2013-01-06T12:36:39Z</time>
      </trkpt>
      <trkpt lat="42.93279" lon="0.04733">
        <ele>2480.34</ele>
        <time>2013-01-06T12:37:11Z</time>
      </trkpt>
      <trkpt lat="42.93279" lon="0.04732">
        <ele>2480.82</ele>
        <time>2013-01-06T12:37:38Z</time>
      </trkpt>
      <trkpt lat="42.93279" lon="0.04731">
        <ele>2480.82</ele>
        <time>2013-01-06T12:37:55Z</time>
      </trkpt>
      <trkpt lat="42.9328" lon="0.04731">
        <ele>2479.86</ele>
        <time>2013-01-06T12:38:07Z</time>
      </trkpt>
      <trkpt lat="42.93282" lon="0.04731">
        <ele>2480.34</ele>
        <time>2013-01-06T12:38:21Z</time>
      </trkpt>
      <trkpt lat="42.93281" lon="0.04731">
        <ele>2480.34</ele>
        <time>2013-01-06T12:38:39Z</time>
      </trkpt>
      <trkpt lat="42.93282" lon="0.04731">
        <ele>2480.34</ele>
        <time>2013-01-06T12:39:01Z</time>
      </trkpt>
      <trkpt lat="42.93283" lon="0.04732">
        <ele>2481.3</ele>
        <time>2013-01-06T12:39:23Z</time>
      </trkpt>
      <trkpt lat="42.93282" lon="0.04732">
        <ele>2481.78</ele>
        <time>2013-01-06T12:39:43Z</time>
      </trkpt>
      <trkpt lat="42.93282" lon="0.04732">
        <ele>2481.3</ele>
        <time>2013-01-06T12:40:03Z</time>
      </trkpt>
      <trkpt lat="42.93281" lon="0.04731">
        <ele>2481.78</ele>
        <time>2013-01-06T12:40:31Z</time>
      </trkpt>
      <trkpt lat="42.93281" lon="0.04731">
        <ele>2481.78</ele>
        <time>2013-01-06T12:40:53Z</time>
      </trkpt>
      <trkpt lat="42.93281" lon="0.04731">
        <ele>2480.34</ele>
        <time>2013-01-06T12:40:57Z</time>
      </trkpt>
      <trkpt lat="42.9328" lon="0.04731">
        <ele>2480.34</ele>
        <time>2013-01-06T12:41:18Z</time>
      </trkpt>
      <trkpt lat="42.9328" lon="0.0473">
        <ele>2480.34</ele>
        <time>2013-01-06T12:41:32Z</time>
      </trkpt>
      <trkpt lat="42.93279" lon="0.04729">
        <ele>2479.86</ele>
        <time>2013-01-06T12:41:50Z</time>
      </trkpt>
      <trkpt lat="42.93279" lon="0.04728">
        <ele>2479.38</ele>
        <time>2013-01-06T12:42:01Z</time>
      </trkpt>
      <trkpt lat="42.93278" lon="0.04728">
        <ele>2480.34</ele>
        <time>2013-01-06T12:42:09Z</time>
      </trkpt>
      <trkpt lat="42.93278" lon="0.04721">
        <ele>2478.42</ele>
        <time>2013-01-06T12:42:24Z</time>
      </trkpt>
      <trkpt lat="42.93278" lon="0.04719">
        <ele>2479.38</ele>
        <time>2013-01-06T12:42:39Z</time>
      </trkpt>
      <trkpt lat="42.93275" lon="0.04712">
        <ele>2476.97</ele>
        <time>2013-01-06T12:42:55Z</time>
      </trkpt>
      <trkpt lat="42.93274" lon="0.04708">
        <ele>2476.49</ele>
        <time>2013-01-06T12:42:59Z</time>
      </trkpt>
      <trkpt lat="42.93269" lon="0.04693">
        <ele>2475.05</ele>
        <time>2013-01-06T12:43:13Z</time>
      </trkpt>
      <trkpt lat="42.93265" lon="0.04683">
        <ele>2472.65</ele>
        <time>2013-01-06T12:43:25Z</time>
      </trkpt>
      <trkpt lat="42.9326" lon="0.04673">
        <ele>2471.21</ele>
        <time>2013-01-06T12:43:37Z</time>
      </trkpt>
      <trkpt lat="42.93256" lon="0.04664">
        <ele>2469.76</ele>
        <time>2013-01-06T12:43:51Z</time>
      </trkpt>
      <trkpt lat="42.93249" lon="0.04654">
        <ele>2468.8</ele>
        <time>2013-01-06T12:44:03Z</time>
      </trkpt>
      <trkpt lat="42.93244" lon="0.04644">
        <ele>2467.84</ele>
        <time>2013-01-06T12:44:16Z</time>
      </trkpt>
      <trkpt lat="42.93243" lon="0.04641">
        <ele>2467.84</ele>
        <time>2013-01-06T12:44:33Z</time>
      </trkpt>
      <trkpt lat="42.93243" lon="0.04641">
        <ele>2468.32</ele>
        <time>2013-01-06T12:44:55Z</time>
      </trkpt>
      <trkpt lat="42.93243" lon="0.04641">
        <ele>2468.32</ele>
        <time>2013-01-06T12:45:18Z</time>
      </trkpt>
      <trkpt lat="42.93243" lon="0.04641">
        <ele>2468.32</ele>
        <time>2013-01-06T12:45:38Z</time>
      </trkpt>
      <trkpt lat="42.93244" lon="0.0464">
        <ele>2468.32</ele>
        <time>2013-01-06T12:45:57Z</time>
      </trkpt>
      <trkpt lat="42.93244" lon="0.0464">
        <ele>2467.84</ele>
        <time>2013-01-06T12:46:28Z</time>
      </trkpt>
      <trkpt lat="42.93241" lon="0.04634">
        <ele>2466.88</ele>
        <time>2013-01-06T12:46:47Z</time>
      </trkpt>
      <trkpt lat="42.93238" lon="0.04634">
        <ele>2465.44</ele>
        <time>2013-01-06T12:46:51Z</time>
      </trkpt>
      <trkpt lat="42.93236" lon="0.04637">
        <ele>2464</ele>
        <time>2013-01-06T12:46:54Z</time>
      </trkpt>
      <trkpt lat="42.93231" lon="0.04637">
        <ele>2462.07</ele>
        <time>2013-01-06T12:47:04Z</time>
      </trkpt>
      <trkpt lat="42.93226" lon="0.04639">
        <ele>2463.04</ele>
        <time>2013-01-06T12:47:10Z</time>
      </trkpt>
      <trkpt lat="42.93224" lon="0.04641">
        <ele>2461.59</ele>
        <time>2013-01-06T12:47:12Z</time>
      </trkpt>
      <trkpt lat="42.9322" lon="0.04643">
        <ele>2459.19</ele>
        <time>2013-01-06T12:47:26Z</time>
      </trkpt>
      <trkpt lat="42.93218" lon="0.04643">
        <ele>2459.19</ele>
        <time>2013-01-06T12:47:28Z</time>
      </trkpt>
      <trkpt lat="42.93215" lon="0.04643">
        <ele>2457.27</ele>
        <time>2013-01-06T12:47:31Z</time>
      </trkpt>
      <trkpt lat="42.93213" lon="0.04643">
        <ele>2455.82</ele>
        <time>2013-01-06T12:47:33Z</time>
      </trkpt>
      <trkpt lat="42.9321" lon="0.04642">
        <ele>2454.86</ele>
        <time>2013-01-06T12:47:37Z</time>
      </trkpt>
      <trkpt lat="42.93205" lon="0.04638">
        <ele>2454.38</ele>
        <time>2013-01-06T12:47:49Z</time>
      </trkpt>
      <trkpt lat="42.93203" lon="0.04637">
        <ele>2453.42</ele>
        <time>2013-01-06T12:47:52Z</time>
      </trkpt>
      <trkpt lat="42.93198" lon="0.04631">
        <ele>2451.02</ele>
        <time>2013-01-06T12:48:05Z</time>
      </trkpt>
      <trkpt lat="42.93196" lon="0.04625">
        <ele>2449.1</ele>
        <time>2013-01-06T12:48:11Z</time>
      </trkpt>
      <trkpt lat="42.93197" lon="0.04623">
        <ele>2449.1</ele>
        <time>2013-01-06T12:48:27Z</time>
      </trkpt>
      <trkpt lat="42.93197" lon="0.04621">
        <ele>2447.17</ele>
        <time>2013-01-06T12:48:43Z</time>
      </trkpt>
      <trkpt lat="42.93197" lon="0.0462">
        <ele>2447.17</ele>
        <time>2013-01-06T12:49:07Z</time>
      </trkpt>
      <trkpt lat="42.93199" lon="0.04617">
        <ele>2446.21</ele>
        <time>2013-01-06T12:49:11Z</time>
      </trkpt>
      <trkpt lat="42.93204" lon="0.04608">
        <ele>2443.33</ele>
        <time>2013-01-06T12:49:23Z</time>
      </trkpt>
      <trkpt lat="42.93209" lon="0.04601">
        <ele>2441.41</ele>
        <time>2013-01-06T12:49:35Z</time>
      </trkpt>
      <trkpt lat="42.93213" lon="0.04596">
        <ele>2439.48</ele>
        <time>2013-01-06T12:49:45Z</time>
      </trkpt>
      <trkpt lat="42.93216" lon="0.04587">
        <ele>2437.56</ele>
        <time>2013-01-06T12:49:58Z</time>
      </trkpt>
      <trkpt lat="42.93216" lon="0.0458">
        <ele>2434.68</ele>
        <time>2013-01-06T12:50:10Z</time>
      </trkpt>
      <trkpt lat="42.93217" lon="0.04579">
        <ele>2433.23</ele>
        <time>2013-01-06T12:50:17Z</time>
      </trkpt>
      <trkpt lat="42.93216" lon="0.04576">
        <ele>2431.79</ele>
        <time>2013-01-06T12:50:30Z</time>
      </trkpt>
      <trkpt lat="42.93216" lon="0.04575">
        <ele>2429.87</ele>
        <time>2013-01-06T12:50:42Z</time>
      </trkpt>
      <trkpt lat="42.93213" lon="0.04575">
        <ele>2426.5</ele>
        <time>2013-01-06T12:50:55Z</time>
      </trkpt>
      <trkpt lat="42.93209" lon="0.04575">
        <ele>2426.02</ele>
        <time>2013-01-06T12:51:12Z</time>
      </trkpt>
      <trkpt lat="42.93208" lon="0.04572">
        <ele>2424.1</ele>
        <time>2013-01-06T12:51:24Z</time>
      </trkpt>
      <trkpt lat="42.93207" lon="0.04568">
        <ele>2423.14</ele>
        <time>2013-01-06T12:51:35Z</time>
      </trkpt>
      <trkpt lat="42.93206" lon="0.04565">
        <ele>2421.22</ele>
        <time>2013-01-06T12:51:44Z</time>
      </trkpt>
      <trkpt lat="42.93206" lon="0.0456">
        <ele>2419.78</ele>
        <time>2013-01-06T12:51:54Z</time>
      </trkpt>
      <trkpt lat="42.93205" lon="0.04556">
        <ele>2417.85</ele>
        <time>2013-01-06T12:52:05Z</time>
      </trkpt>
      <trkpt lat="42.93206" lon="0.04556">
        <ele>2418.33</ele>
        <time>2013-01-06T12:52:19Z</time>
      </trkpt>
      <trkpt lat="42.93205" lon="0.04555">
        <ele>2416.41</ele>
        <time>2013-01-06T12:52:22Z</time>
      </trkpt>
      <trkpt lat="42.93204" lon="0.04554">
        <ele>2414.49</ele>
        <time>2013-01-06T12:52:35Z</time>
      </trkpt>
      <trkpt lat="42.93204" lon="0.04552">
        <ele>2412.09</ele>
        <time>2013-01-06T12:52:49Z</time>
      </trkpt>
      <trkpt lat="42.93198" lon="0.0455">
        <ele>2410.16</ele>
        <time>2013-01-06T12:53:02Z</time>
      </trkpt>
      <trkpt lat="42.93196" lon="0.04549">
        <ele>2408.72</ele>
        <time>2013-01-06T12:53:07Z</time>
      </trkpt>
      <trkpt lat="42.93194" lon="0.04545">
        <ele>2407.76</ele>
        <time>2013-01-06T12:53:22Z</time>
      </trkpt>
      <trkpt lat="42.93191" lon="0.04543">
        <ele>2407.76</ele>
        <time>2013-01-06T12:53:38Z</time>
      </trkpt>
      <trkpt lat="42.9319" lon="0.04542">
        <ele>2407.28</ele>
        <time>2013-01-06T12:53:39Z</time>
      </trkpt>
      <trkpt lat="42.93188" lon="0.04541">
        <ele>2405.36</ele>
        <time>2013-01-06T12:53:44Z</time>
      </trkpt>
      <trkpt lat="42.93186" lon="0.04535">
        <ele>2401.99</ele>
        <time>2013-01-06T12:53:56Z</time>
      </trkpt>
      <trkpt lat="42.93186" lon="0.04533">
        <ele>2401.03</ele>
        <time>2013-01-06T12:53:58Z</time>
      </trkpt>
      <trkpt lat="42.93186" lon="0.0453">
        <ele>2400.07</ele>
        <time>2013-01-06T12:54:01Z</time>
      </trkpt>
      <trkpt lat="42.93184" lon="0.04524">
        <ele>2397.67</ele>
        <time>2013-01-06T12:54:12Z</time>
      </trkpt>
      <trkpt lat="42.93182" lon="0.04517">
        <ele>2394.78</ele>
        <time>2013-01-06T12:54:21Z</time>
      </trkpt>
      <trkpt lat="42.93181" lon="0.04512">
        <ele>2391.42</ele>
        <time>2013-01-06T12:54:32Z</time>
      </trkpt>
      <trkpt lat="42.93179" lon="0.04507">
        <ele>2388.53</ele>
        <time>2013-01-06T12:54:43Z</time>
      </trkpt>
      <trkpt lat="42.93177" lon="0.04501">
        <ele>2384.21</ele>
        <time>2013-01-06T12:54:54Z</time>
      </trkpt>
      <trkpt lat="42.93177" lon="0.04501">
        <ele>2384.21</ele>
        <time>2013-01-06T12:55:09Z</time>
      </trkpt>
      <trkpt lat="42.93178" lon="0.04499">
        <ele>2384.21</ele>
        <time>2013-01-06T12:55:28Z</time>
      </trkpt>
      <trkpt lat="42.93178" lon="0.04495">
        <ele>2381.8</ele>
        <time>2013-01-06T12:55:44Z</time>
      </trkpt>
      <trkpt lat="42.9318" lon="0.04489">
        <ele>2379.88</ele>
        <time>2013-01-06T12:55:55Z</time>
      </trkpt>
      <trkpt lat="42.9318" lon="0.04484">
        <ele>2376.52</ele>
        <time>2013-01-06T12:56:05Z</time>
      </trkpt>
      <trkpt lat="42.93182" lon="0.04477">
        <ele>2374.59</ele>
        <time>2013-01-06T12:56:16Z</time>
      </trkpt>
      <trkpt lat="42.93181" lon="0.04473">
        <ele>2371.71</ele>
        <time>2013-01-06T12:56:24Z</time>
      </trkpt>
      <trkpt lat="42.93181" lon="0.04468">
        <ele>2368.83</ele>
        <time>2013-01-06T12:56:33Z</time>
      </trkpt>
      <trkpt lat="42.93179" lon="0.04466">
        <ele>2366.9</ele>
        <time>2013-01-06T12:56:39Z</time>
      </trkpt>
      <trkpt lat="42.93178" lon="0.04457">
        <ele>2363.06</ele>
        <time>2013-01-06T12:56:50Z</time>
      </trkpt>
      <trkpt lat="42.93181" lon="0.04445">
        <ele>2360.65</ele>
        <time>2013-01-06T12:57:00Z</time>
      </trkpt>
      <trkpt lat="42.93181" lon="0.04443">
        <ele>2360.17</ele>
        <time>2013-01-06T12:57:01Z</time>
      </trkpt>
      <trkpt lat="42.93181" lon="0.04438">
        <ele>2358.25</ele>
        <time>2013-01-06T12:57:07Z</time>
      </trkpt>
      <trkpt lat="42.93185" lon="0.04427">
        <ele>2354.89</ele>
        <time>2013-01-06T12:57:19Z</time>
      </trkpt>
      <trkpt lat="42.93192" lon="0.0442">
        <ele>2353.44</ele>
        <time>2013-01-06T12:57:33Z</time>
      </trkpt>
      <trkpt lat="42.93194" lon="0.04416">
        <ele>2353.93</ele>
        <time>2013-01-06T12:57:38Z</time>
      </trkpt>
      <trkpt lat="42.93196" lon="0.04411">
        <ele>2352</ele>
        <time>2013-01-06T12:57:44Z</time>
      </trkpt>
      <trkpt lat="42.932" lon="0.04407">
        <ele>2351.04</ele>
        <time>2013-01-06T12:57:50Z</time>
      </trkpt>
      <trkpt lat="42.93203" lon="0.04397">
        <ele>2348.16</ele>
        <time>2013-01-06T12:58:02Z</time>
      </trkpt>
      <trkpt lat="42.93204" lon="0.04394">
        <ele>2348.16</ele>
        <time>2013-01-06T12:58:05Z</time>
      </trkpt>
      <trkpt lat="42.93207" lon="0.04381">
        <ele>2345.75</ele>
        <time>2013-01-06T12:58:18Z</time>
      </trkpt>
      <trkpt lat="42.93207" lon="0.04377">
        <ele>2344.79</ele>
        <time>2013-01-06T12:58:22Z</time>
      </trkpt>
      <trkpt lat="42.93211" lon="0.04361">
        <ele>2341.43</ele>
        <time>2013-01-06T12:58:36Z</time>
      </trkpt>
      <trkpt lat="42.93214" lon="0.0435">
        <ele>2339.99</ele>
        <time>2013-01-06T12:58:48Z</time>
      </trkpt>
      <trkpt lat="42.9322" lon="0.0434">
        <ele>2338.54</ele>
        <time>2013-01-06T12:59:01Z</time>
      </trkpt>
      <trkpt lat="42.93222" lon="0.04336">
        <ele>2337.58</ele>
        <time>2013-01-06T12:59:17Z</time>
      </trkpt>
      <trkpt lat="42.93223" lon="0.04337">
        <ele>2336.62</ele>
        <time>2013-01-06T12:59:27Z</time>
      </trkpt>
      <trkpt lat="42.93223" lon="0.04328">
        <ele>2335.66</ele>
        <time>2013-01-06T12:59:45Z</time>
      </trkpt>
      <trkpt lat="42.93223" lon="0.04326">
        <ele>2335.18</ele>
        <time>2013-01-06T12:59:47Z</time>
      </trkpt>
      <trkpt lat="42.93223" lon="0.04324">
        <ele>2334.7</ele>
        <time>2013-01-06T12:59:49Z</time>
      </trkpt>
      <trkpt lat="42.93222" lon="0.0432">
        <ele>2332.78</ele>
        <time>2013-01-06T12:59:53Z</time>
      </trkpt>
      <trkpt lat="42.93222" lon="0.04321">
        <ele>2332.78</ele>
        <time>2013-01-06T12:59:54Z</time>
      </trkpt>
      <trkpt lat="42.93221" lon="0.04315">
        <ele>2331.81</ele>
        <time>2013-01-06T12:59:58Z</time>
      </trkpt>
      <trkpt lat="42.93223" lon="0.04308">
        <ele>2329.41</ele>
        <time>2013-01-06T13:00:12Z</time>
      </trkpt>
      <trkpt lat="42.93224" lon="0.04299">
        <ele>2326.53</ele>
        <time>2013-01-06T13:00:21Z</time>
      </trkpt>
      <trkpt lat="42.9322" lon="0.04285">
        <ele>2324.61</ele>
        <time>2013-01-06T13:00:34Z</time>
      </trkpt>
      <trkpt lat="42.93218" lon="0.04276">
        <ele>2320.76</ele>
        <time>2013-01-06T13:00:43Z</time>
      </trkpt>
      <trkpt lat="42.93217" lon="0.04263">
        <ele>2317.88</ele>
        <time>2013-01-06T13:00:54Z</time>
      </trkpt>
      <trkpt lat="42.93219" lon="0.04257">
        <ele>2316.91</ele>
        <time>2013-01-06T13:01:00Z</time>
      </trkpt>
      <trkpt lat="42.9322" lon="0.04253">
        <ele>2314.99</ele>
        <time>2013-01-06T13:01:04Z</time>
      </trkpt>
      <trkpt lat="42.93221" lon="0.04245">
        <ele>2313.07</ele>
        <time>2013-01-06T13:01:16Z</time>
      </trkpt>
      <trkpt lat="42.93224" lon="0.04241">
        <ele>2311.63</ele>
        <time>2013-01-06T13:01:23Z</time>
      </trkpt>
      <trkpt lat="42.93227" lon="0.04242">
        <ele>2310.67</ele>
        <time>2013-01-06T13:01:26Z</time>
      </trkpt>
      <trkpt lat="42.93232" lon="0.04242">
        <ele>2308.74</ele>
        <time>2013-01-06T13:01:32Z</time>
      </trkpt>
      <trkpt lat="42.93236" lon="0.04242">
        <ele>2307.78</ele>
        <time>2013-01-06T13:01:37Z</time>
      </trkpt>
      <trkpt lat="42.93239" lon="0.04243">
        <ele>2307.3</ele>
        <time>2013-01-06T13:01:41Z</time>
      </trkpt>
      <trkpt lat="42.93247" lon="0.0424">
        <ele>2304.42</ele>
        <time>2013-01-06T13:01:53Z</time>
      </trkpt>
      <trkpt lat="42.93251" lon="0.04232">
        <ele>2300.57</ele>
        <time>2013-01-06T13:02:07Z</time>
      </trkpt>
      <trkpt lat="42.93252" lon="0.04234">
        <ele>2299.61</ele>
        <time>2013-01-06T13:02:10Z</time>
      </trkpt>
      <trkpt lat="42.93258" lon="0.04235">
        <ele>2296.25</ele>
        <time>2013-01-06T13:02:22Z</time>
      </trkpt>
      <trkpt lat="42.93258" lon="0.04234">
        <ele>2296.25</ele>
        <time>2013-01-06T13:02:23Z</time>
      </trkpt>
      <trkpt lat="42.93259" lon="0.04224">
        <ele>2293.84</ele>
        <time>2013-01-06T13:02:34Z</time>
      </trkpt>
      <trkpt lat="42.93263" lon="0.04219">
        <ele>2290.96</ele>
        <time>2013-01-06T13:02:43Z</time>
      </trkpt>
      <trkpt lat="42.93266" lon="0.04216">
        <ele>2288.56</ele>
        <time>2013-01-06T13:02:49Z</time>
      </trkpt>
      <trkpt lat="42.93268" lon="0.04211">
        <ele>2286.63</ele>
        <time>2013-01-06T13:02:55Z</time>
      </trkpt>
      <trkpt lat="42.93271" lon="0.04208">
        <ele>2285.19</ele>
        <time>2013-01-06T13:02:59Z</time>
      </trkpt>
      <trkpt lat="42.93272" lon="0.04208">
        <ele>2285.19</ele>
        <time>2013-01-06T13:03:01Z</time>
      </trkpt>
      <trkpt lat="42.93274" lon="0.04207">
        <ele>2283.27</ele>
        <time>2013-01-06T13:03:05Z</time>
      </trkpt>
      <trkpt lat="42.93277" lon="0.04205">
        <ele>2281.35</ele>
        <time>2013-01-06T13:03:10Z</time>
      </trkpt>
      <trkpt lat="42.93283" lon="0.04201">
        <ele>2278.94</ele>
        <time>2013-01-06T13:03:19Z</time>
      </trkpt>
      <trkpt lat="42.93283" lon="0.04198">
        <ele>2277.98</ele>
        <time>2013-01-06T13:03:21Z</time>
      </trkpt>
      <trkpt lat="42.93281" lon="0.04188">
        <ele>2277.02</ele>
        <time>2013-01-06T13:03:31Z</time>
      </trkpt>
      <trkpt lat="42.93276" lon="0.04173">
        <ele>2274.14</ele>
        <time>2013-01-06T13:03:47Z</time>
      </trkpt>
      <trkpt lat="42.93276" lon="0.04172">
        <ele>2274.14</ele>
        <time>2013-01-06T13:03:48Z</time>
      </trkpt>
      <trkpt lat="42.93275" lon="0.04167">
        <ele>2273.17</ele>
        <time>2013-01-06T13:03:52Z</time>
      </trkpt>
      <trkpt lat="42.93276" lon="0.04155">
        <ele>2269.81</ele>
        <time>2013-01-06T13:04:03Z</time>
      </trkpt>
      <trkpt lat="42.93277" lon="0.04151">
        <ele>2268.37</ele>
        <time>2013-01-06T13:04:15Z</time>
      </trkpt>
      <trkpt lat="42.93279" lon="0.04143">
        <ele>2265.48</ele>
        <time>2013-01-06T13:04:26Z</time>
      </trkpt>
      <trkpt lat="42.93281" lon="0.04137">
        <ele>2264.04</ele>
        <time>2013-01-06T13:04:41Z</time>
      </trkpt>
      <trkpt lat="42.93286" lon="0.04126">
        <ele>2261.64</ele>
        <time>2013-01-06T13:04:52Z</time>
      </trkpt>
      <trkpt lat="42.93289" lon="0.04116">
        <ele>2260.2</ele>
        <time>2013-01-06T13:05:07Z</time>
      </trkpt>
      <trkpt lat="42.93289" lon="0.04108">
        <ele>2258.27</ele>
        <time>2013-01-06T13:05:25Z</time>
      </trkpt>
      <trkpt lat="42.93291" lon="0.041">
        <ele>2256.35</ele>
        <time>2013-01-06T13:05:33Z</time>
      </trkpt>
      <trkpt lat="42.93292" lon="0.04097">
        <ele>2255.39</ele>
        <time>2013-01-06T13:05:36Z</time>
      </trkpt>
      <trkpt lat="42.93293" lon="0.04096">
        <ele>2255.39</ele>
        <time>2013-01-06T13:05:37Z</time>
      </trkpt>
      <trkpt lat="42.93299" lon="0.04086">
        <ele>2252.51</ele>
        <time>2013-01-06T13:05:49Z</time>
      </trkpt>
      <trkpt lat="42.93302" lon="0.04085">
        <ele>2251.54</ele>
        <time>2013-01-06T13:05:54Z</time>
      </trkpt>
      <trkpt lat="42.93305" lon="0.04083">
        <ele>2251.06</ele>
        <time>2013-01-06T13:05:58Z</time>
      </trkpt>
      <trkpt lat="42.93308" lon="0.04079">
        <ele>2249.62</ele>
        <time>2013-01-06T13:06:03Z</time>
      </trkpt>
      <trkpt lat="42.93313" lon="0.04073">
        <ele>2247.7</ele>
        <time>2013-01-06T13:06:12Z</time>
      </trkpt>
      <trkpt lat="42.93317" lon="0.04067">
        <ele>2245.78</ele>
        <time>2013-01-06T13:06:17Z</time>
      </trkpt>
      <trkpt lat="42.9332" lon="0.04063">
        <ele>2243.85</ele>
        <time>2013-01-06T13:06:23Z</time>
      </trkpt>
      <trkpt lat="42.93321" lon="0.04061">
        <ele>2243.37</ele>
        <time>2013-01-06T13:06:25Z</time>
      </trkpt>
      <trkpt lat="42.93323" lon="0.04055">
        <ele>2242.41</ele>
        <time>2013-01-06T13:06:29Z</time>
      </trkpt>
      <trkpt lat="42.93325" lon="0.04054">
        <ele>2241.45</ele>
        <time>2013-01-06T13:06:31Z</time>
      </trkpt>
      <trkpt lat="42.93327" lon="0.04051">
        <ele>2240.97</ele>
        <time>2013-01-06T13:06:34Z</time>
      </trkpt>
      <trkpt lat="42.93329" lon="0.04039">
        <ele>2238.09</ele>
        <time>2013-01-06T13:06:46Z</time>
      </trkpt>
      <trkpt lat="42.93329" lon="0.04032">
        <ele>2236.16</ele>
        <time>2013-01-06T13:06:51Z</time>
      </trkpt>
      <trkpt lat="42.93333" lon="0.04022">
        <ele>2232.8</ele>
        <time>2013-01-06T13:07:02Z</time>
      </trkpt>
      <trkpt lat="42.93335" lon="0.04022">
        <ele>2232.8</ele>
        <time>2013-01-06T13:07:04Z</time>
      </trkpt>
      <trkpt lat="42.93345" lon="0.04024">
        <ele>2229.43</ele>
        <time>2013-01-06T13:07:16Z</time>
      </trkpt>
      <trkpt lat="42.93347" lon="0.04024">
        <ele>2228.47</ele>
        <time>2013-01-06T13:07:28Z</time>
      </trkpt>
      <trkpt lat="42.93351" lon="0.04025">
        <ele>2228.47</ele>
        <time>2013-01-06T13:07:42Z</time>
      </trkpt>
      <trkpt lat="42.93357" lon="0.04032">
        <ele>2225.59</ele>
        <time>2013-01-06T13:07:57Z</time>
      </trkpt>
      <trkpt lat="42.93362" lon="0.04037">
        <ele>2222.71</ele>
        <time>2013-01-06T13:08:09Z</time>
      </trkpt>
      <trkpt lat="42.93368" lon="0.04043">
        <ele>2220.78</ele>
        <time>2013-01-06T13:08:20Z</time>
      </trkpt>
      <trkpt lat="42.9337" lon="0.04043">
        <ele>2219.82</ele>
        <time>2013-01-06T13:08:23Z</time>
      </trkpt>
      <trkpt lat="42.93374" lon="0.04038">
        <ele>2216.46</ele>
        <time>2013-01-06T13:08:31Z</time>
      </trkpt>
      <trkpt lat="42.93379" lon="0.04036">
        <ele>2212.61</ele>
        <time>2013-01-06T13:08:40Z</time>
      </trkpt>
      <trkpt lat="42.93386" lon="0.04033">
        <ele>2209.25</ele>
        <time>2013-01-06T13:08:50Z</time>
      </trkpt>
      <trkpt lat="42.93387" lon="0.04033">
        <ele>2208.77</ele>
        <time>2013-01-06T13:08:51Z</time>
      </trkpt>
      <trkpt lat="42.9339" lon="0.0403">
        <ele>2205.88</ele>
        <time>2013-01-06T13:08:59Z</time>
      </trkpt>
      <trkpt lat="42.93396" lon="0.04024">
        <ele>2203</ele>
        <time>2013-01-06T13:09:09Z</time>
      </trkpt>
      <trkpt lat="42.93402" lon="0.04022">
        <ele>2200.59</ele>
        <time>2013-01-06T13:09:16Z</time>
      </trkpt>
      <trkpt lat="42.93408" lon="0.0402">
        <ele>2197.71</ele>
        <time>2013-01-06T13:09:26Z</time>
      </trkpt>
      <trkpt lat="42.93411" lon="0.04018">
        <ele>2198.19</ele>
        <time>2013-01-06T13:09:30Z</time>
      </trkpt>
      <trkpt lat="42.93413" lon="0.04015">
        <ele>2197.23</ele>
        <time>2013-01-06T13:09:32Z</time>
      </trkpt>
      <trkpt lat="42.93423" lon="0.04018">
        <ele>2195.31</ele>
        <time>2013-01-06T13:09:43Z</time>
      </trkpt>
      <trkpt lat="42.93432" lon="0.04019">
        <ele>2192.42</ele>
        <time>2013-01-06T13:09:56Z</time>
      </trkpt>
      <trkpt lat="42.93436" lon="0.04019">
        <ele>2190.98</ele>
        <time>2013-01-06T13:10:08Z</time>
      </trkpt>
      <trkpt lat="42.93444" lon="0.04021">
        <ele>2189.54</ele>
        <time>2013-01-06T13:10:23Z</time>
      </trkpt>
      <trkpt lat="42.93445" lon="0.04022">
        <ele>2189.06</ele>
        <time>2013-01-06T13:10:25Z</time>
      </trkpt>
      <trkpt lat="42.93453" lon="0.04027">
        <ele>2187.62</ele>
        <time>2013-01-06T13:10:38Z</time>
      </trkpt>
      <trkpt lat="42.93454" lon="0.0403">
        <ele>2186.66</ele>
        <time>2013-01-06T13:10:49Z</time>
      </trkpt>
      <trkpt lat="42.93459" lon="0.04033">
        <ele>2183.77</ele>
        <time>2013-01-06T13:11:00Z</time>
      </trkpt>
      <trkpt lat="42.93462" lon="0.04034">
        <ele>2180.89</ele>
        <time>2013-01-06T13:11:10Z</time>
      </trkpt>
      <trkpt lat="42.93462" lon="0.04034">
        <ele>2180.89</ele>
        <time>2013-01-06T13:11:11Z</time>
      </trkpt>
      <trkpt lat="42.93465" lon="0.04033">
        <ele>2178</ele>
        <time>2013-01-06T13:11:23Z</time>
      </trkpt>
      <trkpt lat="42.9347" lon="0.04033">
        <ele>2174.64</ele>
        <time>2013-01-06T13:11:34Z</time>
      </trkpt>
      <trkpt lat="42.93472" lon="0.04032">
        <ele>2173.68</ele>
        <time>2013-01-06T13:11:38Z</time>
      </trkpt>
      <trkpt lat="42.93477" lon="0.0403">
        <ele>2169.83</ele>
        <time>2013-01-06T13:11:49Z</time>
      </trkpt>
      <trkpt lat="42.93481" lon="0.04026">
        <ele>2167.43</ele>
        <time>2013-01-06T13:11:59Z</time>
      </trkpt>
      <trkpt lat="42.93484" lon="0.04024">
        <ele>2165.51</ele>
        <time>2013-01-06T13:12:05Z</time>
      </trkpt>
      <trkpt lat="42.93485" lon="0.04024">
        <ele>2164.06</ele>
        <time>2013-01-06T13:12:07Z</time>
      </trkpt>
      <trkpt lat="42.93488" lon="0.04021">
        <ele>2162.14</ele>
        <time>2013-01-06T13:12:14Z</time>
      </trkpt>
      <trkpt lat="42.93492" lon="0.04017">
        <ele>2159.74</ele>
        <time>2013-01-06T13:12:22Z</time>
      </trkpt>
      <trkpt lat="42.93495" lon="0.04013">
        <ele>2157.82</ele>
        <time>2013-01-06T13:12:29Z</time>
      </trkpt>
      <trkpt lat="42.93497" lon="0.04008">
        <ele>2154.45</ele>
        <time>2013-01-06T13:12:37Z</time>
      </trkpt>
      <trkpt lat="42.93499" lon="0.04006">
        <ele>2153.01</ele>
        <time>2013-01-06T13:12:46Z</time>
      </trkpt>
      <trkpt lat="42.93501" lon="0.04005">
        <ele>2151.57</ele>
        <time>2013-01-06T13:12:49Z</time>
      </trkpt>
      <trkpt lat="42.93505" lon="0.04002">
        <ele>2148.68</ele>
        <time>2013-01-06T13:12:58Z</time>
      </trkpt>
      <trkpt lat="42.93508" lon="0.04001">
        <ele>2148.2</ele>
        <time>2013-01-06T13:13:01Z</time>
      </trkpt>
      <trkpt lat="42.9351" lon="0.04">
        <ele>2146.76</ele>
        <time>2013-01-06T13:13:04Z</time>
      </trkpt>
      <trkpt lat="42.93516" lon="0.03996">
        <ele>2143.88</ele>
        <time>2013-01-06T13:13:15Z</time>
      </trkpt>
      <trkpt lat="42.93521" lon="0.03995">
        <ele>2141.47</ele>
        <time>2013-01-06T13:13:27Z</time>
      </trkpt>
      <trkpt lat="42.93521" lon="0.03995">
        <ele>2141.47</ele>
        <time>2013-01-06T13:13:46Z</time>
      </trkpt>
      <trkpt lat="42.93522" lon="0.03995">
        <ele>2141.47</ele>
        <time>2013-01-06T13:14:04Z</time>
      </trkpt>
      <trkpt lat="42.93523" lon="0.03995">
        <ele>2141.47</ele>
        <time>2013-01-06T13:14:17Z</time>
      </trkpt>
      <trkpt lat="42.93522" lon="0.03996">
        <ele>2141.95</ele>
        <time>2013-01-06T13:14:34Z</time>
      </trkpt>
      <trkpt lat="42.93521" lon="0.03994">
        <ele>2141.47</ele>
        <time>2013-01-06T13:14:55Z</time>
      </trkpt>
      <trkpt lat="42.93521" lon="0.03994">
        <ele>2141.47</ele>
        <time>2013-01-06T13:15:07Z</time>
      </trkpt>
      <trkpt lat="42.93522" lon="0.03994">
        <ele>2141.47</ele>
        <time>2013-01-06T13:15:26Z</time>
      </trkpt>
      <trkpt lat="42.93521" lon="0.03995">
        <ele>2141.47</ele>
        <time>2013-01-06T13:15:41Z</time>
      </trkpt>
      <trkpt lat="42.93522" lon="0.03995">
        <ele>2141.95</ele>
        <time>2013-01-06T13:15:56Z</time>
      </trkpt>
      <trkpt lat="42.93522" lon="0.03995">
        <ele>2141.47</ele>
        <time>2013-01-06T13:16:10Z</time>
      </trkpt>
      <trkpt lat="42.93522" lon="0.03995">
        <ele>2140.51</ele>
        <time>2013-01-06T13:16:28Z</time>
      </trkpt>
      <trkpt lat="42.93527" lon="0.0399">
        <ele>2137.63</ele>
        <time>2013-01-06T13:16:41Z</time>
      </trkpt>
      <trkpt lat="42.93531" lon="0.0399">
        <ele>2134.74</ele>
        <time>2013-01-06T13:16:51Z</time>
      </trkpt>
      <trkpt lat="42.93543" lon="0.03984">
        <ele>2131.86</ele>
        <time>2013-01-06T13:17:05Z</time>
      </trkpt>
      <trkpt lat="42.93551" lon="0.0398">
        <ele>2129.94</ele>
        <time>2013-01-06T13:17:18Z</time>
      </trkpt>
      <trkpt lat="42.93558" lon="0.03975">
        <ele>2126.57</ele>
        <time>2013-01-06T13:17:29Z</time>
      </trkpt>
      <trkpt lat="42.93565" lon="0.03971">
        <ele>2123.69</ele>
        <time>2013-01-06T13:17:39Z</time>
      </trkpt>
      <trkpt lat="42.93566" lon="0.0397">
        <ele>2122.73</ele>
        <time>2013-01-06T13:17:41Z</time>
      </trkpt>
      <trkpt lat="42.93575" lon="0.03965">
        <ele>2120.32</ele>
        <time>2013-01-06T13:17:55Z</time>
      </trkpt>
      <trkpt lat="42.93582" lon="0.03955">
        <ele>2117.92</ele>
        <time>2013-01-06T13:18:09Z</time>
      </trkpt>
      <trkpt lat="42.93589" lon="0.03953">
        <ele>2117.44</ele>
        <time>2013-01-06T13:18:20Z</time>
      </trkpt>
      <trkpt lat="42.93589" lon="0.03951">
        <ele>2117.44</ele>
        <time>2013-01-06T13:18:22Z</time>
      </trkpt>
      <trkpt lat="42.93596" lon="0.03942">
        <ele>2115.04</ele>
        <time>2013-01-06T13:18:31Z</time>
      </trkpt>
      <trkpt lat="42.93599" lon="0.03939">
        <ele>2114.56</ele>
        <time>2013-01-06T13:18:35Z</time>
      </trkpt>
      <trkpt lat="42.93605" lon="0.03928">
        <ele>2112.63</ele>
        <time>2013-01-06T13:18:47Z</time>
      </trkpt>
      <trkpt lat="42.93607" lon="0.03925">
        <ele>2112.63</ele>
        <time>2013-01-06T13:18:50Z</time>
      </trkpt>
      <trkpt lat="42.93613" lon="0.03915">
        <ele>2111.19</ele>
        <time>2013-01-06T13:18:59Z</time>
      </trkpt>
      <trkpt lat="42.9362" lon="0.03905">
        <ele>2109.27</ele>
        <time>2013-01-06T13:19:11Z</time>
      </trkpt>
      <trkpt lat="42.93624" lon="0.03887">
        <ele>2106.87</ele>
        <time>2013-01-06T13:19:25Z</time>
      </trkpt>
      <trkpt lat="42.93629" lon="0.03877">
        <ele>2104.94</ele>
        <time>2013-01-06T13:19:36Z</time>
      </trkpt>
      <trkpt lat="42.93636" lon="0.03871">
        <ele>2103.5</ele>
        <time>2013-01-06T13:19:49Z</time>
      </trkpt>
      <trkpt lat="42.9364" lon="0.03866">
        <ele>2100.62</ele>
        <time>2013-01-06T13:19:56Z</time>
      </trkpt>
      <trkpt lat="42.9364" lon="0.03864">
        <ele>2100.14</ele>
        <time>2013-01-06T13:19:59Z</time>
      </trkpt>
      <trkpt lat="42.93643" lon="0.03857">
        <ele>2098.7</ele>
        <time>2013-01-06T13:20:06Z</time>
      </trkpt>
      <trkpt lat="42.93649" lon="0.03848">
        <ele>2095.33</ele>
        <time>2013-01-06T13:20:17Z</time>
      </trkpt>
      <trkpt lat="42.93655" lon="0.03835">
        <ele>2092.45</ele>
        <time>2013-01-06T13:20:29Z</time>
      </trkpt>
      <trkpt lat="42.9366" lon="0.03827">
        <ele>2090.52</ele>
        <time>2013-01-06T13:20:40Z</time>
      </trkpt>
      <trkpt lat="42.93664" lon="0.03817">
        <ele>2088.12</ele>
        <time>2013-01-06T13:20:51Z</time>
      </trkpt>
      <trkpt lat="42.93669" lon="0.03805">
        <ele>2085.24</ele>
        <time>2013-01-06T13:21:02Z</time>
      </trkpt>
      <trkpt lat="42.93672" lon="0.03798">
        <ele>2082.83</ele>
        <time>2013-01-06T13:21:10Z</time>
      </trkpt>
      <trkpt lat="42.93676" lon="0.03787">
        <ele>2080.91</ele>
        <time>2013-01-06T13:21:20Z</time>
      </trkpt>
      <trkpt lat="42.93679" lon="0.03785">
        <ele>2079.47</ele>
        <time>2013-01-06T13:21:23Z</time>
      </trkpt>
      <trkpt lat="42.93681" lon="0.03779">
        <ele>2078.51</ele>
        <time>2013-01-06T13:21:28Z</time>
      </trkpt>
      <trkpt lat="42.93687" lon="0.03769">
        <ele>2075.14</ele>
        <time>2013-01-06T13:21:39Z</time>
      </trkpt>
      <trkpt lat="42.93689" lon="0.03767">
        <ele>2073.22</ele>
        <time>2013-01-06T13:21:43Z</time>
      </trkpt>
      <trkpt lat="42.9369" lon="0.03758">
        <ele>2070.34</ele>
        <time>2013-01-06T13:21:54Z</time>
      </trkpt>
      <trkpt lat="42.9369" lon="0.03754">
        <ele>2069.38</ele>
        <time>2013-01-06T13:21:57Z</time>
      </trkpt>
      <trkpt lat="42.9369" lon="0.03748">
        <ele>2067.93</ele>
        <time>2013-01-06T13:22:01Z</time>
      </trkpt>
      <trkpt lat="42.93691" lon="0.03742">
        <ele>2065.53</ele>
        <time>2013-01-06T13:22:07Z</time>
      </trkpt>
      <trkpt lat="42.93692" lon="0.03737">
        <ele>2064.57</ele>
        <time>2013-01-06T13:22:12Z</time>
      </trkpt>
      <trkpt lat="42.93693" lon="0.03733">
        <ele>2062.65</ele>
        <time>2013-01-06T13:22:16Z</time>
      </trkpt>
      <trkpt lat="42.93693" lon="0.03728">
        <ele>2061.68</ele>
        <time>2013-01-06T13:22:20Z</time>
      </trkpt>
      <trkpt lat="42.93693" lon="0.03725">
        <ele>2059.76</ele>
        <time>2013-01-06T13:22:25Z</time>
      </trkpt>
      <trkpt lat="42.93692" lon="0.0372">
        <ele>2058.8</ele>
        <time>2013-01-06T13:22:30Z</time>
      </trkpt>
      <trkpt lat="42.93692" lon="0.03711">
        <ele>2054.96</ele>
        <time>2013-01-06T13:22:40Z</time>
      </trkpt>
      <trkpt lat="42.93692" lon="0.03698">
        <ele>2052.07</ele>
        <time>2013-01-06T13:22:51Z</time>
      </trkpt>
      <trkpt lat="42.93692" lon="0.03695">
        <ele>2050.63</ele>
        <time>2013-01-06T13:22:54Z</time>
      </trkpt>
      <trkpt lat="42.93693" lon="0.03682">
        <ele>2047.75</ele>
        <time>2013-01-06T13:23:04Z</time>
      </trkpt>
      <trkpt lat="42.93692" lon="0.03673">
        <ele>2044.86</ele>
        <time>2013-01-06T13:23:14Z</time>
      </trkpt>
      <trkpt lat="42.93695" lon="0.03663">
        <ele>2041.5</ele>
        <time>2013-01-06T13:23:25Z</time>
      </trkpt>
      <trkpt lat="42.93696" lon="0.03657">
        <ele>2038.61</ele>
        <time>2013-01-06T13:23:33Z</time>
      </trkpt>
      <trkpt lat="42.93696" lon="0.03651">
        <ele>2035.73</ele>
        <time>2013-01-06T13:23:40Z</time>
      </trkpt>
      <trkpt lat="42.93695" lon="0.03646">
        <ele>2032.36</ele>
        <time>2013-01-06T13:23:47Z</time>
      </trkpt>
      <trkpt lat="42.93696" lon="0.03642">
        <ele>2030.92</ele>
        <time>2013-01-06T13:23:50Z</time>
      </trkpt>
      <trkpt lat="42.93698" lon="0.03634">
        <ele>2027.56</ele>
        <time>2013-01-06T13:23:59Z</time>
      </trkpt>
      <trkpt lat="42.93698" lon="0.03629">
        <ele>2024.19</ele>
        <time>2013-01-06T13:24:05Z</time>
      </trkpt>
      <trkpt lat="42.93698" lon="0.0363">
        <ele>2023.71</ele>
        <time>2013-01-06T13:24:23Z</time>
      </trkpt>
      <trkpt lat="42.93696" lon="0.0363">
        <ele>2023.23</ele>
        <time>2013-01-06T13:24:37Z</time>
      </trkpt>
      <trkpt lat="42.93695" lon="0.0363">
        <ele>2022.75</ele>
        <time>2013-01-06T13:24:58Z</time>
      </trkpt>
      <trkpt lat="42.93694" lon="0.03627">
        <ele>2022.75</ele>
        <time>2013-01-06T13:25:17Z</time>
      </trkpt>
      <trkpt lat="42.93694" lon="0.03626">
        <ele>2022.27</ele>
        <time>2013-01-06T13:25:18Z</time>
      </trkpt>
      <trkpt lat="42.93694" lon="0.03618">
        <ele>2018.91</ele>
        <time>2013-01-06T13:25:26Z</time>
      </trkpt>
      <trkpt lat="42.93694" lon="0.03612">
        <ele>2016.02</ele>
        <time>2013-01-06T13:25:35Z</time>
      </trkpt>
      <trkpt lat="42.93693" lon="0.03605">
        <ele>2012.18</ele>
        <time>2013-01-06T13:25:43Z</time>
      </trkpt>
      <trkpt lat="42.93694" lon="0.03598">
        <ele>2009.77</ele>
        <time>2013-01-06T13:25:50Z</time>
      </trkpt>
      <trkpt lat="42.93693" lon="0.0359">
        <ele>2006.41</ele>
        <time>2013-01-06T13:25:57Z</time>
      </trkpt>
      <trkpt lat="42.93694" lon="0.03585">
        <ele>2005.45</ele>
        <time>2013-01-06T13:26:01Z</time>
      </trkpt>
      <trkpt lat="42.93694" lon="0.03578">
        <ele>2002.56</ele>
        <time>2013-01-06T13:26:07Z</time>
      </trkpt>
      <trkpt lat="42.93692" lon="0.03568">
        <ele>1999.2</ele>
        <time>2013-01-06T13:26:16Z</time>
      </trkpt>
      <trkpt lat="42.93694" lon="0.0356">
        <ele>1995.83</ele>
        <time>2013-01-06T13:26:25Z</time>
      </trkpt>
      <trkpt lat="42.93694" lon="0.03558">
        <ele>1995.35</ele>
        <time>2013-01-06T13:26:27Z</time>
      </trkpt>
      <trkpt lat="42.93695" lon="0.03554">
        <ele>1992.95</ele>
        <time>2013-01-06T13:26:33Z</time>
      </trkpt>
      <trkpt lat="42.93693" lon="0.03549">
        <ele>1990.55</ele>
        <time>2013-01-06T13:26:37Z</time>
      </trkpt>
      <trkpt lat="42.93693" lon="0.03548">
        <ele>1990.07</ele>
        <time>2013-01-06T13:26:38Z</time>
      </trkpt>
      <trkpt lat="42.93694" lon="0.03539">
        <ele>1985.74</ele>
        <time>2013-01-06T13:26:45Z</time>
      </trkpt>
      <trkpt lat="42.93693" lon="0.03535">
        <ele>1985.26</ele>
        <time>2013-01-06T13:26:49Z</time>
      </trkpt>
      <trkpt lat="42.9369" lon="0.03523">
        <ele>1981.41</ele>
        <time>2013-01-06T13:26:58Z</time>
      </trkpt>
      <trkpt lat="42.9369" lon="0.0352">
        <ele>1980.45</ele>
        <time>2013-01-06T13:27:01Z</time>
      </trkpt>
      <trkpt lat="42.9369" lon="0.0351">
        <ele>1977.09</ele>
        <time>2013-01-06T13:27:09Z</time>
      </trkpt>
      <trkpt lat="42.93689" lon="0.03507">
        <ele>1975.65</ele>
        <time>2013-01-06T13:27:12Z</time>
      </trkpt>
      <trkpt lat="42.93687" lon="0.03503">
        <ele>1972.28</ele>
        <time>2013-01-06T13:27:16Z</time>
      </trkpt>
      <trkpt lat="42.93687" lon="0.03502">
        <ele>1975.17</ele>
        <time>2013-01-06T13:27:17Z</time>
      </trkpt>
      <trkpt lat="42.93687" lon="0.03493">
        <ele>1969.4</ele>
        <time>2013-01-06T13:27:27Z</time>
      </trkpt>
      <trkpt lat="42.93687" lon="0.03488">
        <ele>1968.92</ele>
        <time>2013-01-06T13:27:44Z</time>
      </trkpt>
      <trkpt lat="42.93686" lon="0.03483">
        <ele>1967.48</ele>
        <time>2013-01-06T13:28:00Z</time>
      </trkpt>
      <trkpt lat="42.93683" lon="0.03475">
        <ele>1963.15</ele>
        <time>2013-01-06T13:28:12Z</time>
      </trkpt>
      <trkpt lat="42.93681" lon="0.03472">
        <ele>1963.15</ele>
        <time>2013-01-06T13:28:15Z</time>
      </trkpt>
      <trkpt lat="42.93682" lon="0.0347">
        <ele>1962.67</ele>
        <time>2013-01-06T13:28:17Z</time>
      </trkpt>
      <trkpt lat="42.93682" lon="0.03463">
        <ele>1960.75</ele>
        <time>2013-01-06T13:28:23Z</time>
      </trkpt>
      <trkpt lat="42.93683" lon="0.03446">
        <ele>1957.86</ele>
        <time>2013-01-06T13:28:36Z</time>
      </trkpt>
      <trkpt lat="42.93684" lon="0.03442">
        <ele>1956.42</ele>
        <time>2013-01-06T13:28:44Z</time>
      </trkpt>
      <trkpt lat="42.93684" lon="0.03432">
        <ele>1955.46</ele>
        <time>2013-01-06T13:28:52Z</time>
      </trkpt>
      <trkpt lat="42.93686" lon="0.03421">
        <ele>1953.54</ele>
        <time>2013-01-06T13:29:05Z</time>
      </trkpt>
      <trkpt lat="42.93684" lon="0.03418">
        <ele>1952.57</ele>
        <time>2013-01-06T13:29:18Z</time>
      </trkpt>
      <trkpt lat="42.93689" lon="0.03412">
        <ele>1953.06</ele>
        <time>2013-01-06T13:29:30Z</time>
      </trkpt>
      <trkpt lat="42.93692" lon="0.03401">
        <ele>1951.61</ele>
        <time>2013-01-06T13:29:42Z</time>
      </trkpt>
      <trkpt lat="42.93694" lon="0.03392">
        <ele>1950.17</ele>
        <time>2013-01-06T13:29:53Z</time>
      </trkpt>
      <trkpt lat="42.93697" lon="0.03382">
        <ele>1949.21</ele>
        <time>2013-01-06T13:30:06Z</time>
      </trkpt>
      <trkpt lat="42.937" lon="0.03378">
        <ele>1948.73</ele>
        <time>2013-01-06T13:30:11Z</time>
      </trkpt>
      <trkpt lat="42.937" lon="0.03379">
        <ele>1947.29</ele>
        <time>2013-01-06T13:30:26Z</time>
      </trkpt>
      <trkpt lat="42.93702" lon="0.03369">
        <ele>1945.85</ele>
        <time>2013-01-06T13:30:41Z</time>
      </trkpt>
      <trkpt lat="42.93704" lon="0.03357">
        <ele>1944.4</ele>
        <time>2013-01-06T13:30:52Z</time>
      </trkpt>
      <trkpt lat="42.93706" lon="0.03348">
        <ele>1942.96</ele>
        <time>2013-01-06T13:31:03Z</time>
      </trkpt>
      <trkpt lat="42.93706" lon="0.03333">
        <ele>1941.04</ele>
        <time>2013-01-06T13:31:16Z</time>
      </trkpt>
      <trkpt lat="42.93705" lon="0.03324">
        <ele>1938.64</ele>
        <time>2013-01-06T13:31:27Z</time>
      </trkpt>
      <trkpt lat="42.93705" lon="0.03314">
        <ele>1935.75</ele>
        <time>2013-01-06T13:31:39Z</time>
      </trkpt>
      <trkpt lat="42.93707" lon="0.03301">
        <ele>1932.87</ele>
        <time>2013-01-06T13:31:50Z</time>
      </trkpt>
      <trkpt lat="42.93709" lon="0.03286">
        <ele>1930.95</ele>
        <time>2013-01-06T13:32:03Z</time>
      </trkpt>
      <trkpt lat="42.93708" lon="0.03276">
        <ele>1929.5</ele>
        <time>2013-01-06T13:32:13Z</time>
      </trkpt>
      <trkpt lat="42.93709" lon="0.03264">
        <ele>1929.02</ele>
        <time>2013-01-06T13:32:22Z</time>
      </trkpt>
      <trkpt lat="42.93712" lon="0.03252">
        <ele>1928.06</ele>
        <time>2013-01-06T13:32:36Z</time>
      </trkpt>
      <trkpt lat="42.93715" lon="0.03242">
        <ele>1927.58</ele>
        <time>2013-01-06T13:32:47Z</time>
      </trkpt>
      <trkpt lat="42.93722" lon="0.03235">
        <ele>1927.1</ele>
        <time>2013-01-06T13:32:59Z</time>
      </trkpt>
      <trkpt lat="42.93723" lon="0.03234">
        <ele>1926.62</ele>
        <time>2013-01-06T13:33:14Z</time>
      </trkpt>
      <trkpt lat="42.93729" lon="0.03228">
        <ele>1926.14</ele>
        <time>2013-01-06T13:33:24Z</time>
      </trkpt>
      <trkpt lat="42.93735" lon="0.0322">
        <ele>1926.14</ele>
        <time>2013-01-06T13:33:34Z</time>
      </trkpt>
      <trkpt lat="42.93739" lon="0.03211">
        <ele>1926.14</ele>
        <time>2013-01-06T13:33:46Z</time>
      </trkpt>
      <trkpt lat="42.93738" lon="0.03211">
        <ele>1925.18</ele>
        <time>2013-01-06T13:34:05Z</time>
      </trkpt>
      <trkpt lat="42.93741" lon="0.0321">
        <ele>1925.18</ele>
        <time>2013-01-06T13:34:30Z</time>
      </trkpt>
      <trkpt lat="42.93745" lon="0.03207">
        <ele>1924.7</ele>
        <time>2013-01-06T13:34:36Z</time>
      </trkpt>
      <trkpt lat="42.93746" lon="0.03204">
        <ele>1924.7</ele>
        <time>2013-01-06T13:34:39Z</time>
      </trkpt>
      <trkpt lat="42.93753" lon="0.03194">
        <ele>1924.7</ele>
        <time>2013-01-06T13:34:52Z</time>
      </trkpt>
      <trkpt lat="42.93758" lon="0.03187">
        <ele>1924.7</ele>
        <time>2013-01-06T13:35:00Z</time>
      </trkpt>
      <trkpt lat="42.93765" lon="0.03181">
        <ele>1924.22</ele>
        <time>2013-01-06T13:35:12Z</time>
      </trkpt>
      <trkpt lat="42.93771" lon="0.03175">
        <ele>1925.18</ele>
        <time>2013-01-06T13:35:24Z</time>
      </trkpt>
      <trkpt lat="42.93775" lon="0.0317">
        <ele>1924.7</ele>
        <time>2013-01-06T13:35:30Z</time>
      </trkpt>
      <trkpt lat="42.93781" lon="0.03161">
        <ele>1923.74</ele>
        <time>2013-01-06T13:35:39Z</time>
      </trkpt>
      <trkpt lat="42.93788" lon="0.03156">
        <ele>1923.25</ele>
        <time>2013-01-06T13:35:51Z</time>
      </trkpt>
      <trkpt lat="42.93794" lon="0.03151">
        <ele>1924.22</ele>
        <time>2013-01-06T13:36:02Z</time>
      </trkpt>
      <trkpt lat="42.93796" lon="0.03151">
        <ele>1924.7</ele>
        <time>2013-01-06T13:36:04Z</time>
      </trkpt>
      <trkpt lat="42.93801" lon="0.03144">
        <ele>1924.7</ele>
        <time>2013-01-06T13:36:18Z</time>
      </trkpt>
      <trkpt lat="42.93802" lon="0.03142">
        <ele>1924.7</ele>
        <time>2013-01-06T13:36:23Z</time>
      </trkpt>
      <trkpt lat="42.93802" lon="0.03138">
        <ele>1924.7</ele>
        <time>2013-01-06T13:36:37Z</time>
      </trkpt>
      <trkpt lat="42.93801" lon="0.0314">
        <ele>1924.7</ele>
        <time>2013-01-06T13:36:53Z</time>
      </trkpt>
      <trkpt lat="42.93802" lon="0.0314">
        <ele>1924.7</ele>
        <time>2013-01-06T13:37:08Z</time>
      </trkpt>
      <trkpt lat="42.93801" lon="0.03139">
        <ele>1922.77</ele>
        <time>2013-01-06T13:37:20Z</time>
      </trkpt>
      <trkpt lat="42.93802" lon="0.03139">
        <ele>1923.25</ele>
        <time>2013-01-06T13:37:36Z</time>
      </trkpt>
      <trkpt lat="42.93802" lon="0.03139">
        <ele>1923.25</ele>
        <time>2013-01-06T13:37:55Z</time>
      </trkpt>
      <trkpt lat="42.93802" lon="0.03139">
        <ele>1923.25</ele>
        <time>2013-01-06T13:38:18Z</time>
      </trkpt>
      <trkpt lat="42.93804" lon="0.03139">
        <ele>1923.25</ele>
        <time>2013-01-06T13:38:45Z</time>
      </trkpt>
      <trkpt lat="42.93804" lon="0.03139">
        <ele>1922.77</ele>
        <time>2013-01-06T13:39:07Z</time>
      </trkpt>
      <trkpt lat="42.93804" lon="0.03139">
        <ele>1922.77</ele>
        <time>2013-01-06T13:39:27Z</time>
      </trkpt>
      <trkpt lat="42.93804" lon="0.03139">
        <ele>1922.77</ele>
        <time>2013-01-06T13:39:49Z</time>
      </trkpt>
      <trkpt lat="42.93803" lon="0.03139">
        <ele>1922.29</ele>
        <time>2013-01-06T13:40:09Z</time>
      </trkpt>
      <trkpt lat="42.93803" lon="0.03139">
        <ele>1922.77</ele>
        <time>2013-01-06T13:40:22Z</time>
      </trkpt>
      <trkpt lat="42.93803" lon="0.03138">
        <ele>1922.77</ele>
        <time>2013-01-06T13:40:39Z</time>
      </trkpt>
      <trkpt lat="42.93803" lon="0.03138">
        <ele>1922.29</ele>
        <time>2013-01-06T13:40:56Z</time>
      </trkpt>
      <trkpt lat="42.93803" lon="0.03138">
        <ele>1922.29</ele>
        <time>2013-01-06T13:41:12Z</time>
      </trkpt>
      <trkpt lat="42.93803" lon="0.03139">
        <ele>1922.29</ele>
        <time>2013-01-06T13:41:28Z</time>
      </trkpt>
      <trkpt lat="42.93803" lon="0.03139">
        <ele>1921.81</ele>
        <time>2013-01-06T13:41:51Z</time>
      </trkpt>
      <trkpt lat="42.93802" lon="0.03139">
        <ele>1921.33</ele>
        <time>2013-01-06T13:42:07Z</time>
      </trkpt>
      <trkpt lat="42.93802" lon="0.03138">
        <ele>1921.81</ele>
        <time>2013-01-06T13:42:28Z</time>
      </trkpt>
      <trkpt lat="42.93802" lon="0.03139">
        <ele>1922.29</ele>
        <time>2013-01-06T13:42:46Z</time>
      </trkpt>
      <trkpt lat="42.938" lon="0.0314">
        <ele>1921.81</ele>
        <time>2013-01-06T13:43:01Z</time>
      </trkpt>
      <trkpt lat="42.938" lon="0.0314">
        <ele>1921.81</ele>
        <time>2013-01-06T13:43:16Z</time>
      </trkpt>
      <trkpt lat="42.93801" lon="0.0314">
        <ele>1921.81</ele>
        <time>2013-01-06T13:43:30Z</time>
      </trkpt>
      <trkpt lat="42.93802" lon="0.03141">
        <ele>1921.81</ele>
        <time>2013-01-06T13:43:42Z</time>
      </trkpt>
      <trkpt lat="42.93801" lon="0.03142">
        <ele>1921.81</ele>
        <time>2013-01-06T13:43:55Z</time>
      </trkpt>
      <trkpt lat="42.93802" lon="0.03141">
        <ele>1921.81</ele>
        <time>2013-01-06T13:44:08Z</time>
      </trkpt>
      <trkpt lat="42.93801" lon="0.03141">
        <ele>1922.29</ele>
        <time>2013-01-06T13:44:23Z</time>
      </trkpt>
      <trkpt lat="42.93801" lon="0.0314">
        <ele>1921.81</ele>
        <time>2013-01-06T13:44:38Z</time>
      </trkpt>
      <trkpt lat="42.93802" lon="0.0314">
        <ele>1922.29</ele>
        <time>2013-01-06T13:44:51Z</time>
      </trkpt>
      <trkpt lat="42.93802" lon="0.0314">
        <ele>1922.29</ele>
        <time>2013-01-06T13:45:07Z</time>
      </trkpt>
      <trkpt lat="42.93802" lon="0.0314">
        <ele>1921.81</ele>
        <time>2013-01-06T13:45:16Z</time>
      </trkpt>
      <trkpt lat="42.93802" lon="0.03141">
        <ele>1922.77</ele>
        <time>2013-01-06T13:45:24Z</time>
      </trkpt>
      <trkpt lat="42.93802" lon="0.03142">
        <ele>1922.29</ele>
        <time>2013-01-06T13:45:34Z</time>
      </trkpt>
      <trkpt lat="42.93802" lon="0.03141">
        <ele>1922.77</ele>
        <time>2013-01-06T13:45:46Z</time>
      </trkpt>
      <trkpt lat="42.93802" lon="0.0314">
        <ele>1922.29</ele>
        <time>2013-01-06T13:45:58Z</time>
      </trkpt>
      <trkpt lat="42.93803" lon="0.03142">
        <ele>1922.29</ele>
        <time>2013-01-06T13:46:05Z</time>
      </trkpt>
      <trkpt lat="42.93803" lon="0.03139">
        <ele>1922.77</ele>
        <time>2013-01-06T13:46:15Z</time>
      </trkpt>
      <trkpt lat="42.93802" lon="0.03138">
        <ele>1922.29</ele>
        <time>2013-01-06T13:46:30Z</time>
      </trkpt>
      <trkpt lat="42.93802" lon="0.03137">
        <ele>1921.81</ele>
        <time>2013-01-06T13:46:48Z</time>
      </trkpt>
      <trkpt lat="42.93802" lon="0.03138">
        <ele>1922.29</ele>
        <time>2013-01-06T13:47:08Z</time>
      </trkpt>
      <trkpt lat="42.93802" lon="0.03138">
        <ele>1922.29</ele>
        <time>2013-01-06T13:47:29Z</time>
      </trkpt>
      <trkpt lat="42.93802" lon="0.03138">
        <ele>1921.33</ele>
        <time>2013-01-06T13:47:51Z</time>
      </trkpt>
      <trkpt lat="42.93802" lon="0.03139">
        <ele>1921.81</ele>
        <time>2013-01-06T13:48:11Z</time>
      </trkpt>
      <trkpt lat="42.93803" lon="0.03138">
        <ele>1921.81</ele>
        <time>2013-01-06T13:48:25Z</time>
      </trkpt>
      <trkpt lat="42.93804" lon="0.03133">
        <ele>1919.89</ele>
        <time>2013-01-06T13:48:35Z</time>
      </trkpt>
      <trkpt lat="42.93804" lon="0.03133">
        <ele>1919.89</ele>
        <time>2013-01-06T13:48:56Z</time>
      </trkpt>
      <trkpt lat="42.93805" lon="0.03133">
        <ele>1919.41</ele>
        <time>2013-01-06T13:49:21Z</time>
      </trkpt>
      <trkpt lat="42.93808" lon="0.03124">
        <ele>1917.49</ele>
        <time>2013-01-06T13:49:35Z</time>
      </trkpt>
      <trkpt lat="42.93809" lon="0.03121">
        <ele>1916.53</ele>
        <time>2013-01-06T13:49:37Z</time>
      </trkpt>
      <trkpt lat="42.93816" lon="0.03106">
        <ele>1912.68</ele>
        <time>2013-01-06T13:49:49Z</time>
      </trkpt>
      <trkpt lat="42.93819" lon="0.03093">
        <ele>1910.76</ele>
        <time>2013-01-06T13:49:57Z</time>
      </trkpt>
      <trkpt lat="42.93825" lon="0.03087">
        <ele>1909.8</ele>
        <time>2013-01-06T13:50:08Z</time>
      </trkpt>
      <trkpt lat="42.93829" lon="0.03083">
        <ele>1909.8</ele>
        <time>2013-01-06T13:50:12Z</time>
      </trkpt>
      <trkpt lat="42.93838" lon="0.03074">
        <ele>1909.32</ele>
        <time>2013-01-06T13:50:23Z</time>
      </trkpt>
      <trkpt lat="42.93848" lon="0.03069">
        <ele>1907.87</ele>
        <time>2013-01-06T13:50:33Z</time>
      </trkpt>
      <trkpt lat="42.93854" lon="0.0307">
        <ele>1906.43</ele>
        <time>2013-01-06T13:50:39Z</time>
      </trkpt>
      <trkpt lat="42.93856" lon="0.03069">
        <ele>1905.95</ele>
        <time>2013-01-06T13:50:41Z</time>
      </trkpt>
      <trkpt lat="42.9386" lon="0.03069">
        <ele>1905.95</ele>
        <time>2013-01-06T13:50:45Z</time>
      </trkpt>
      <trkpt lat="42.93861" lon="0.03068">
        <ele>1905.47</ele>
        <time>2013-01-06T13:50:47Z</time>
      </trkpt>
      <trkpt lat="42.93862" lon="0.03068">
        <ele>1904.51</ele>
        <time>2013-01-06T13:50:49Z</time>
      </trkpt>
      <trkpt lat="42.93863" lon="0.03067">
        <ele>1903.07</ele>
        <time>2013-01-06T13:50:52Z</time>
      </trkpt>
      <trkpt lat="42.93865" lon="0.03067">
        <ele>1902.11</ele>
        <time>2013-01-06T13:50:54Z</time>
      </trkpt>
      <trkpt lat="42.93873" lon="0.03069">
        <ele>1899.22</ele>
        <time>2013-01-06T13:51:05Z</time>
      </trkpt>
      <trkpt lat="42.93878" lon="0.0307">
        <ele>1899.22</ele>
        <time>2013-01-06T13:51:10Z</time>
      </trkpt>
      <trkpt lat="42.93892" lon="0.03074">
        <ele>1895.86</ele>
        <time>2013-01-06T13:51:24Z</time>
      </trkpt>
      <trkpt lat="42.93905" lon="0.03074">
        <ele>1893.93</ele>
        <time>2013-01-06T13:51:38Z</time>
      </trkpt>
      <trkpt lat="42.93916" lon="0.03067">
        <ele>1892.97</ele>
        <time>2013-01-06T13:51:49Z</time>
      </trkpt>
      <trkpt lat="42.93923" lon="0.03064">
        <ele>1892.97</ele>
        <time>2013-01-06T13:51:56Z</time>
      </trkpt>
      <trkpt lat="42.93933" lon="0.03058">
        <ele>1892.01</ele>
        <time>2013-01-06T13:52:05Z</time>
      </trkpt>
      <trkpt lat="42.93947" lon="0.0305">
        <ele>1892.49</ele>
        <time>2013-01-06T13:52:19Z</time>
      </trkpt>
      <trkpt lat="42.93958" lon="0.03044">
        <ele>1894.42</ele>
        <time>2013-01-06T13:52:33Z</time>
      </trkpt>
      <trkpt lat="42.93969" lon="0.03038">
        <ele>1892.97</ele>
        <time>2013-01-06T13:52:46Z</time>
      </trkpt>
      <trkpt lat="42.93985" lon="0.03032">
        <ele>1890.09</ele>
        <time>2013-01-06T13:53:01Z</time>
      </trkpt>
      <trkpt lat="42.93997" lon="0.03033">
        <ele>1887.21</ele>
        <time>2013-01-06T13:53:13Z</time>
      </trkpt>
      <trkpt lat="42.94006" lon="0.03034">
        <ele>1885.28</ele>
        <time>2013-01-06T13:53:22Z</time>
      </trkpt>
      <trkpt lat="42.94015" lon="0.03035">
        <ele>1882.88</ele>
        <time>2013-01-06T13:53:30Z</time>
      </trkpt>
      <trkpt lat="42.94024" lon="0.03038">
        <ele>1879.51</ele>
        <time>2013-01-06T13:53:40Z</time>
      </trkpt>
      <trkpt lat="42.9403" lon="0.03042">
        <ele>1878.07</ele>
        <time>2013-01-06T13:53:47Z</time>
      </trkpt>
      <trkpt lat="42.94035" lon="0.03045">
        <ele>1876.63</ele>
        <time>2013-01-06T13:53:52Z</time>
      </trkpt>
      <trkpt lat="42.94043" lon="0.03047">
        <ele>1873.27</ele>
        <time>2013-01-06T13:54:00Z</time>
      </trkpt>
      <trkpt lat="42.94052" lon="0.03048">
        <ele>1870.38</ele>
        <time>2013-01-06T13:54:08Z</time>
      </trkpt>
      <trkpt lat="42.94055" lon="0.03049">
        <ele>1867.98</ele>
        <time>2013-01-06T13:54:12Z</time>
      </trkpt>
      <trkpt lat="42.94057" lon="0.03049">
        <ele>1867.5</ele>
        <time>2013-01-06T13:54:15Z</time>
      </trkpt>
      <trkpt lat="42.94064" lon="0.03049">
        <ele>1864.13</ele>
        <time>2013-01-06T13:54:22Z</time>
      </trkpt>
      <trkpt lat="42.94068" lon="0.0305">
        <ele>1862.69</ele>
        <time>2013-01-06T13:54:26Z</time>
      </trkpt>
      <trkpt lat="42.94072" lon="0.03049">
        <ele>1860.77</ele>
        <time>2013-01-06T13:54:31Z</time>
      </trkpt>
      <trkpt lat="42.94078" lon="0.0305">
        <ele>1856.92</ele>
        <time>2013-01-06T13:54:38Z</time>
      </trkpt>
      <trkpt lat="42.94083" lon="0.0305">
        <ele>1854.52</ele>
        <time>2013-01-06T13:54:43Z</time>
      </trkpt>
      <trkpt lat="42.94089" lon="0.03049">
        <ele>1852.6</ele>
        <time>2013-01-06T13:54:47Z</time>
      </trkpt>
      <trkpt lat="42.94098" lon="0.03049">
        <ele>1849.71</ele>
        <time>2013-01-06T13:54:56Z</time>
      </trkpt>
      <trkpt lat="42.94101" lon="0.03051">
        <ele>1848.27</ele>
        <time>2013-01-06T13:54:59Z</time>
      </trkpt>
      <trkpt lat="42.94105" lon="0.03052">
        <ele>1846.35</ele>
        <time>2013-01-06T13:55:05Z</time>
      </trkpt>
      <trkpt lat="42.94107" lon="0.03055">
        <ele>1844.91</ele>
        <time>2013-01-06T13:55:08Z</time>
      </trkpt>
      <trkpt lat="42.9411" lon="0.03055">
        <ele>1842.98</ele>
        <time>2013-01-06T13:55:11Z</time>
      </trkpt>
      <trkpt lat="42.94116" lon="0.03056">
        <ele>1840.1</ele>
        <time>2013-01-06T13:55:17Z</time>
      </trkpt>
      <trkpt lat="42.94118" lon="0.03057">
        <ele>1838.66</ele>
        <time>2013-01-06T13:55:20Z</time>
      </trkpt>
      <trkpt lat="42.94126" lon="0.03058">
        <ele>1835.29</ele>
        <time>2013-01-06T13:55:27Z</time>
      </trkpt>
      <trkpt lat="42.94128" lon="0.03059">
        <ele>1834.81</ele>
        <time>2013-01-06T13:55:29Z</time>
      </trkpt>
      <trkpt lat="42.94136" lon="0.0306">
        <ele>1830.97</ele>
        <time>2013-01-06T13:55:37Z</time>
      </trkpt>
      <trkpt lat="42.9414" lon="0.0306">
        <ele>1829.53</ele>
        <time>2013-01-06T13:55:41Z</time>
      </trkpt>
      <trkpt lat="42.94143" lon="0.03062">
        <ele>1828.08</ele>
        <time>2013-01-06T13:55:44Z</time>
      </trkpt>
      <trkpt lat="42.94147" lon="0.03061">
        <ele>1826.64</ele>
        <time>2013-01-06T13:55:47Z</time>
      </trkpt>
      <trkpt lat="42.94154" lon="0.03066">
        <ele>1822.32</ele>
        <time>2013-01-06T13:55:54Z</time>
      </trkpt>
      <trkpt lat="42.94158" lon="0.03069">
        <ele>1819.43</ele>
        <time>2013-01-06T13:55:59Z</time>
      </trkpt>
      <trkpt lat="42.94161" lon="0.03071">
        <ele>1817.99</ele>
        <time>2013-01-06T13:56:02Z</time>
      </trkpt>
      <trkpt lat="42.94165" lon="0.03073">
        <ele>1816.55</ele>
        <time>2013-01-06T13:56:07Z</time>
      </trkpt>
      <trkpt lat="42.94171" lon="0.03075">
        <ele>1812.7</ele>
        <time>2013-01-06T13:56:13Z</time>
      </trkpt>
      <trkpt lat="42.94173" lon="0.03076">
        <ele>1811.26</ele>
        <time>2013-01-06T13:56:15Z</time>
      </trkpt>
      <trkpt lat="42.94174" lon="0.03076">
        <ele>1810.78</ele>
        <time>2013-01-06T13:56:17Z</time>
      </trkpt>
      <trkpt lat="42.94178" lon="0.03077">
        <ele>1808.86</ele>
        <time>2013-01-06T13:56:21Z</time>
      </trkpt>
      <trkpt lat="42.94179" lon="0.03076">
        <ele>1807.9</ele>
        <time>2013-01-06T13:56:22Z</time>
      </trkpt>
      <trkpt lat="42.94184" lon="0.03074">
        <ele>1805.49</ele>
        <time>2013-01-06T13:56:32Z</time>
      </trkpt>
      <trkpt lat="42.94185" lon="0.03075">
        <ele>1805.49</ele>
        <time>2013-01-06T13:56:33Z</time>
      </trkpt>
      <trkpt lat="42.94188" lon="0.03075">
        <ele>1804.05</ele>
        <time>2013-01-06T13:56:37Z</time>
      </trkpt>
      <trkpt lat="42.94189" lon="0.03075">
        <ele>1803.57</ele>
        <time>2013-01-06T13:56:39Z</time>
      </trkpt>
      <trkpt lat="42.94196" lon="0.03076">
        <ele>1801.17</ele>
        <time>2013-01-06T13:56:47Z</time>
      </trkpt>
      <trkpt lat="42.94204" lon="0.03078">
        <ele>1797.32</ele>
        <time>2013-01-06T13:56:59Z</time>
      </trkpt>
      <trkpt lat="42.94207" lon="0.03077">
        <ele>1794.92</ele>
        <time>2013-01-06T13:57:14Z</time>
      </trkpt>
      <trkpt lat="42.94211" lon="0.0307">
        <ele>1791.55</ele>
        <time>2013-01-06T13:57:24Z</time>
      </trkpt>
      <trkpt lat="42.94214" lon="0.03069">
        <ele>1789.63</ele>
        <time>2013-01-06T13:57:39Z</time>
      </trkpt>
      <trkpt lat="42.94219" lon="0.03067">
        <ele>1786.27</ele>
        <time>2013-01-06T13:57:49Z</time>
      </trkpt>
      <trkpt lat="42.94219" lon="0.03069">
        <ele>1785.31</ele>
        <time>2013-01-06T13:57:54Z</time>
      </trkpt>
      <trkpt lat="42.94221" lon="0.03066">
        <ele>1783.38</ele>
        <time>2013-01-06T13:57:58Z</time>
      </trkpt>
      <trkpt lat="42.94223" lon="0.03063">
        <ele>1780.98</ele>
        <time>2013-01-06T13:58:04Z</time>
      </trkpt>
      <trkpt lat="42.94226" lon="0.03065">
        <ele>1780.02</ele>
        <time>2013-01-06T13:58:08Z</time>
      </trkpt>
      <trkpt lat="42.94228" lon="0.03065">
        <ele>1778.58</ele>
        <time>2013-01-06T13:58:11Z</time>
      </trkpt>
      <trkpt lat="42.94229" lon="0.03065">
        <ele>1778.1</ele>
        <time>2013-01-06T13:58:12Z</time>
      </trkpt>
      <trkpt lat="42.94233" lon="0.03064">
        <ele>1775.21</ele>
        <time>2013-01-06T13:58:17Z</time>
      </trkpt>
      <trkpt lat="42.94238" lon="0.03063">
        <ele>1772.33</ele>
        <time>2013-01-06T13:58:23Z</time>
      </trkpt>
      <trkpt lat="42.94246" lon="0.03066">
        <ele>1768.96</ele>
        <time>2013-01-06T13:58:33Z</time>
      </trkpt>
      <trkpt lat="42.94245" lon="0.03065">
        <ele>1768.96</ele>
        <time>2013-01-06T13:58:57Z</time>
      </trkpt>
      <trkpt lat="42.94247" lon="0.03062">
        <ele>1768.48</ele>
        <time>2013-01-06T13:59:27Z</time>
      </trkpt>
      <trkpt lat="42.94247" lon="0.03062">
        <ele>1767.52</ele>
        <time>2013-01-06T13:59:51Z</time>
      </trkpt>
      <trkpt lat="42.94247" lon="0.03062">
        <ele>1767.04</ele>
        <time>2013-01-06T14:00:23Z</time>
      </trkpt>
      <trkpt lat="42.94248" lon="0.03057">
        <ele>1767.04</ele>
        <time>2013-01-06T14:00:52Z</time>
      </trkpt>
      <trkpt lat="42.94253" lon="0.0306">
        <ele>1765.12</ele>
        <time>2013-01-06T14:01:06Z</time>
      </trkpt>
      <trkpt lat="42.94254" lon="0.03058">
        <ele>1764.64</ele>
        <time>2013-01-06T14:01:23Z</time>
      </trkpt>
      <trkpt lat="42.94254" lon="0.0306">
        <ele>1765.12</ele>
        <time>2013-01-06T14:01:43Z</time>
      </trkpt>
      <trkpt lat="42.94254" lon="0.03061">
        <ele>1764.64</ele>
        <time>2013-01-06T14:02:01Z</time>
      </trkpt>
      <trkpt lat="42.94256" lon="0.03066">
        <ele>1763.2</ele>
        <time>2013-01-06T14:02:04Z</time>
      </trkpt>
      <trkpt lat="42.94263" lon="0.03072">
        <ele>1760.79</ele>
        <time>2013-01-06T14:02:12Z</time>
      </trkpt>
      <trkpt lat="42.94265" lon="0.03073">
        <ele>1760.31</ele>
        <time>2013-01-06T14:02:14Z</time>
      </trkpt>
      <trkpt lat="42.94269" lon="0.03077">
        <ele>1758.39</ele>
        <time>2013-01-06T14:02:19Z</time>
      </trkpt>
      <trkpt lat="42.94275" lon="0.0308">
        <ele>1755.99</ele>
        <time>2013-01-06T14:02:26Z</time>
      </trkpt>
      <trkpt lat="42.94277" lon="0.03081">
        <ele>1755.02</ele>
        <time>2013-01-06T14:02:28Z</time>
      </trkpt>
      <trkpt lat="42.94282" lon="0.03086">
        <ele>1751.18</ele>
        <time>2013-01-06T14:02:37Z</time>
      </trkpt>
      <trkpt lat="42.94283" lon="0.03087">
        <ele>1751.18</ele>
        <time>2013-01-06T14:02:38Z</time>
      </trkpt>
      <trkpt lat="42.94293" lon="0.0309">
        <ele>1747.81</ele>
        <time>2013-01-06T14:02:48Z</time>
      </trkpt>
      <trkpt lat="42.94298" lon="0.03092">
        <ele>1745.89</ele>
        <time>2013-01-06T14:02:53Z</time>
      </trkpt>
      <trkpt lat="42.94306" lon="0.03099">
        <ele>1743.01</ele>
        <time>2013-01-06T14:03:00Z</time>
      </trkpt>
      <trkpt lat="42.94306" lon="0.03099">
        <ele>1742.53</ele>
        <time>2013-01-06T14:03:01Z</time>
      </trkpt>
      <trkpt lat="42.94314" lon="0.03095">
        <ele>1739.64</ele>
        <time>2013-01-06T14:03:09Z</time>
      </trkpt>
      <trkpt lat="42.94319" lon="0.031">
        <ele>1737.72</ele>
        <time>2013-01-06T14:03:13Z</time>
      </trkpt>
      <trkpt lat="42.94329" lon="0.03109">
        <ele>1733.88</ele>
        <time>2013-01-06T14:03:23Z</time>
      </trkpt>
      <trkpt lat="42.94336" lon="0.03112">
        <ele>1731.95</ele>
        <time>2013-01-06T14:03:34Z</time>
      </trkpt>
      <trkpt lat="42.94347" lon="0.03121">
        <ele>1729.07</ele>
        <time>2013-01-06T14:03:45Z</time>
      </trkpt>
      <trkpt lat="42.94349" lon="0.03124">
        <ele>1728.59</ele>
        <time>2013-01-06T14:03:47Z</time>
      </trkpt>
      <trkpt lat="42.94354" lon="0.0313">
        <ele>1728.11</ele>
        <time>2013-01-06T14:03:52Z</time>
      </trkpt>
      <trkpt lat="42.94362" lon="0.03144">
        <ele>1728.11</ele>
        <time>2013-01-06T14:04:06Z</time>
      </trkpt>
      <trkpt lat="42.94367" lon="0.03148">
        <ele>1728.11</ele>
        <time>2013-01-06T14:04:12Z</time>
      </trkpt>
      <trkpt lat="42.94374" lon="0.03151">
        <ele>1727.63</ele>
        <time>2013-01-06T14:04:18Z</time>
      </trkpt>
      <trkpt lat="42.9438" lon="0.03156">
        <ele>1727.63</ele>
        <time>2013-01-06T14:04:23Z</time>
      </trkpt>
      <trkpt lat="42.94382" lon="0.03158">
        <ele>1727.63</ele>
        <time>2013-01-06T14:04:25Z</time>
      </trkpt>
      <trkpt lat="42.94394" lon="0.03167">
        <ele>1728.11</ele>
        <time>2013-01-06T14:04:39Z</time>
      </trkpt>
      <trkpt lat="42.94403" lon="0.03166">
        <ele>1730.03</ele>
        <time>2013-01-06T14:04:49Z</time>
      </trkpt>
      <trkpt lat="42.94408" lon="0.03165">
        <ele>1730.51</ele>
        <time>2013-01-06T14:04:54Z</time>
      </trkpt>
      <trkpt lat="42.94412" lon="0.03166">
        <ele>1729.07</ele>
        <time>2013-01-06T14:04:59Z</time>
      </trkpt>
      <trkpt lat="42.94422" lon="0.03176">
        <ele>1726.67</ele>
        <time>2013-01-06T14:05:09Z</time>
      </trkpt>
      <trkpt lat="42.94423" lon="0.03177">
        <ele>1725.7</ele>
        <time>2013-01-06T14:05:11Z</time>
      </trkpt>
      <trkpt lat="42.94425" lon="0.03178">
        <ele>1725.7</ele>
        <time>2013-01-06T14:05:13Z</time>
      </trkpt>
      <trkpt lat="42.94428" lon="0.03181">
        <ele>1724.74</ele>
        <time>2013-01-06T14:05:16Z</time>
      </trkpt>
      <trkpt lat="42.94435" lon="0.03184">
        <ele>1722.82</ele>
        <time>2013-01-06T14:05:22Z</time>
      </trkpt>
      <trkpt lat="42.94438" lon="0.03186">
        <ele>1720.9</ele>
        <time>2013-01-06T14:05:26Z</time>
      </trkpt>
      <trkpt lat="42.94445" lon="0.03187">
        <ele>1721.38</ele>
        <time>2013-01-06T14:05:37Z</time>
      </trkpt>
      <trkpt lat="42.94452" lon="0.03181">
        <ele>1720.42</ele>
        <time>2013-01-06T14:05:48Z</time>
      </trkpt>
      <trkpt lat="42.94459" lon="0.03176">
        <ele>1719.94</ele>
        <time>2013-01-06T14:05:59Z</time>
      </trkpt>
      <trkpt lat="42.94468" lon="0.03172">
        <ele>1718.49</ele>
        <time>2013-01-06T14:06:11Z</time>
      </trkpt>
      <trkpt lat="42.9447" lon="0.03171">
        <ele>1718.49</ele>
        <time>2013-01-06T14:06:13Z</time>
      </trkpt>
      <trkpt lat="42.94481" lon="0.03169">
        <ele>1718.01</ele>
        <time>2013-01-06T14:06:24Z</time>
      </trkpt>
      <trkpt lat="42.94492" lon="0.03168">
        <ele>1716.57</ele>
        <time>2013-01-06T14:06:36Z</time>
      </trkpt>
      <trkpt lat="42.945" lon="0.03165">
        <ele>1715.61</ele>
        <time>2013-01-06T14:06:46Z</time>
      </trkpt>
      <trkpt lat="42.94508" lon="0.03167">
        <ele>1715.13</ele>
        <time>2013-01-06T14:06:56Z</time>
      </trkpt>
      <trkpt lat="42.94513" lon="0.03169">
        <ele>1715.61</ele>
        <time>2013-01-06T14:07:03Z</time>
      </trkpt>
      <trkpt lat="42.94519" lon="0.03174">
        <ele>1715.61</ele>
        <time>2013-01-06T14:07:11Z</time>
      </trkpt>
      <trkpt lat="42.94523" lon="0.03178">
        <ele>1715.61</ele>
        <time>2013-01-06T14:07:17Z</time>
      </trkpt>
      <trkpt lat="42.94531" lon="0.03183">
        <ele>1715.61</ele>
        <time>2013-01-06T14:07:29Z</time>
      </trkpt>
      <trkpt lat="42.94531" lon="0.03183">
        <ele>1716.09</ele>
        <time>2013-01-06T14:07:30Z</time>
      </trkpt>
      <trkpt lat="42.94539" lon="0.03184">
        <ele>1716.09</ele>
        <time>2013-01-06T14:07:44Z</time>
      </trkpt>
      <trkpt lat="42.94538" lon="0.03185">
        <ele>1715.61</ele>
        <time>2013-01-06T14:08:02Z</time>
      </trkpt>
      <trkpt lat="42.94536" lon="0.03184">
        <ele>1715.61</ele>
        <time>2013-01-06T14:08:22Z</time>
      </trkpt>
      <trkpt lat="42.94539" lon="0.03188">
        <ele>1714.65</ele>
        <time>2013-01-06T14:08:36Z</time>
      </trkpt>
      <trkpt lat="42.9454" lon="0.03194">
        <ele>1713.69</ele>
        <time>2013-01-06T14:08:44Z</time>
      </trkpt>
      <trkpt lat="42.94546" lon="0.032">
        <ele>1710.8</ele>
        <time>2013-01-06T14:08:58Z</time>
      </trkpt>
      <trkpt lat="42.94552" lon="0.03198">
        <ele>1708.88</ele>
        <time>2013-01-06T14:09:09Z</time>
      </trkpt>
      <trkpt lat="42.94558" lon="0.03196">
        <ele>1706</ele>
        <time>2013-01-06T14:09:18Z</time>
      </trkpt>
      <trkpt lat="42.94563" lon="0.03194">
        <ele>1702.63</ele>
        <time>2013-01-06T14:09:28Z</time>
      </trkpt>
      <trkpt lat="42.9457" lon="0.03191">
        <ele>1698.79</ele>
        <time>2013-01-06T14:09:37Z</time>
      </trkpt>
      <trkpt lat="42.94573" lon="0.0319">
        <ele>1697.34</ele>
        <time>2013-01-06T14:09:42Z</time>
      </trkpt>
      <trkpt lat="42.94574" lon="0.03188">
        <ele>1694.46</ele>
        <time>2013-01-06T14:09:50Z</time>
      </trkpt>
      <trkpt lat="42.9458" lon="0.03182">
        <ele>1691.1</ele>
        <time>2013-01-06T14:09:59Z</time>
      </trkpt>
      <trkpt lat="42.94583" lon="0.03182">
        <ele>1689.65</ele>
        <time>2013-01-06T14:10:03Z</time>
      </trkpt>
      <trkpt lat="42.94587" lon="0.03179">
        <ele>1686.29</ele>
        <time>2013-01-06T14:10:10Z</time>
      </trkpt>
      <trkpt lat="42.94587" lon="0.03178">
        <ele>1685.81</ele>
        <time>2013-01-06T14:10:11Z</time>
      </trkpt>
      <trkpt lat="42.94591" lon="0.03174">
        <ele>1683.41</ele>
        <time>2013-01-06T14:10:16Z</time>
      </trkpt>
      <trkpt lat="42.94595" lon="0.0317">
        <ele>1680.52</ele>
        <time>2013-01-06T14:10:25Z</time>
      </trkpt>
      <trkpt lat="42.94599" lon="0.03167">
        <ele>1679.56</ele>
        <time>2013-01-06T14:10:39Z</time>
      </trkpt>
      <trkpt lat="42.946" lon="0.03169">
        <ele>1678.6</ele>
        <time>2013-01-06T14:10:43Z</time>
      </trkpt>
      <trkpt lat="42.94601" lon="0.03168">
        <ele>1676.68</ele>
        <time>2013-01-06T14:10:47Z</time>
      </trkpt>
      <trkpt lat="42.94606" lon="0.03166">
        <ele>1674.27</ele>
        <time>2013-01-06T14:10:53Z</time>
      </trkpt>
      <trkpt lat="42.94612" lon="0.03162">
        <ele>1671.87</ele>
        <time>2013-01-06T14:10:59Z</time>
      </trkpt>
      <trkpt lat="42.94614" lon="0.0316">
        <ele>1669.95</ele>
        <time>2013-01-06T14:11:02Z</time>
      </trkpt>
      <trkpt lat="42.94619" lon="0.03162">
        <ele>1668.02</ele>
        <time>2013-01-06T14:11:13Z</time>
      </trkpt>
      <trkpt lat="42.94617" lon="0.03164">
        <ele>1668.02</ele>
        <time>2013-01-06T14:11:27Z</time>
      </trkpt>
      <trkpt lat="42.94616" lon="0.03164">
        <ele>1668.02</ele>
        <time>2013-01-06T14:11:56Z</time>
      </trkpt>
      <trkpt lat="42.94616" lon="0.03164">
        <ele>1668.51</ele>
        <time>2013-01-06T14:12:21Z</time>
      </trkpt>
      <trkpt lat="42.94616" lon="0.03163">
        <ele>1668.02</ele>
        <time>2013-01-06T14:12:48Z</time>
      </trkpt>
      <trkpt lat="42.94616" lon="0.03163">
        <ele>1667.54</ele>
        <time>2013-01-06T14:13:22Z</time>
      </trkpt>
      <trkpt lat="42.94617" lon="0.03162">
        <ele>1668.51</ele>
        <time>2013-01-06T14:13:57Z</time>
      </trkpt>
      <trkpt lat="42.94617" lon="0.03161">
        <ele>1668.02</ele>
        <time>2013-01-06T14:14:24Z</time>
      </trkpt>
      <trkpt lat="42.94616" lon="0.03162">
        <ele>1668.51</ele>
        <time>2013-01-06T14:14:53Z</time>
      </trkpt>
      <trkpt lat="42.94616" lon="0.03161">
        <ele>1667.54</ele>
        <time>2013-01-06T14:15:17Z</time>
      </trkpt>
      <trkpt lat="42.94616" lon="0.03162">
        <ele>1668.02</ele>
        <time>2013-01-06T14:15:40Z</time>
      </trkpt>
      <trkpt lat="42.94617" lon="0.03161">
        <ele>1668.02</ele>
        <time>2013-01-06T14:16:09Z</time>
      </trkpt>
      <trkpt lat="42.94617" lon="0.03162">
        <ele>1668.51</ele>
        <time>2013-01-06T14:16:34Z</time>
      </trkpt>
      <trkpt lat="42.94618" lon="0.03162">
        <ele>1668.02</ele>
        <time>2013-01-06T14:17:00Z</time>
      </trkpt>
      <trkpt lat="42.94618" lon="0.03162">
        <ele>1668.02</ele>
        <time>2013-01-06T14:17:27Z</time>
      </trkpt>
      <trkpt lat="42.94618" lon="0.03163">
        <ele>1668.02</ele>
        <time>2013-01-06T14:17:54Z</time>
      </trkpt>
      <trkpt lat="42.94627" lon="0.0316">
        <ele>1667.54</ele>
        <time>2013-01-06T14:18:13Z</time>
      </trkpt>
      <trkpt lat="42.94634" lon="0.03156">
        <ele>1667.06</ele>
        <time>2013-01-06T14:18:19Z</time>
      </trkpt>
      <trkpt lat="42.94646" lon="0.03149">
        <ele>1665.62</ele>
        <time>2013-01-06T14:18:31Z</time>
      </trkpt>
      <trkpt lat="42.94657" lon="0.03145">
        <ele>1663.22</ele>
        <time>2013-01-06T14:18:43Z</time>
      </trkpt>
      <trkpt lat="42.94658" lon="0.03145">
        <ele>1662.74</ele>
        <time>2013-01-06T14:18:44Z</time>
      </trkpt>
      <trkpt lat="42.94667" lon="0.03145">
        <ele>1660.81</ele>
        <time>2013-01-06T14:18:57Z</time>
      </trkpt>
      <trkpt lat="42.94676" lon="0.03146">
        <ele>1657.93</ele>
        <time>2013-01-06T14:19:09Z</time>
      </trkpt>
      <trkpt lat="42.94687" lon="0.03144">
        <ele>1657.45</ele>
        <time>2013-01-06T14:19:22Z</time>
      </trkpt>
      <trkpt lat="42.94694" lon="0.03141">
        <ele>1655.53</ele>
        <time>2013-01-06T14:19:31Z</time>
      </trkpt>
      <trkpt lat="42.94704" lon="0.03138">
        <ele>1653.12</ele>
        <time>2013-01-06T14:19:44Z</time>
      </trkpt>
      <trkpt lat="42.94715" lon="0.03135">
        <ele>1650.24</ele>
        <time>2013-01-06T14:19:56Z</time>
      </trkpt>
      <trkpt lat="42.94723" lon="0.03132">
        <ele>1648.8</ele>
        <time>2013-01-06T14:20:07Z</time>
      </trkpt>
      <trkpt lat="42.94732" lon="0.03129">
        <ele>1648.32</ele>
        <time>2013-01-06T14:20:17Z</time>
      </trkpt>
      <trkpt lat="42.9474" lon="0.03129">
        <ele>1646.88</ele>
        <time>2013-01-06T14:20:28Z</time>
      </trkpt>
      <trkpt lat="42.94749" lon="0.0313">
        <ele>1645.43</ele>
        <time>2013-01-06T14:20:39Z</time>
      </trkpt>
      <trkpt lat="42.9475" lon="0.0313">
        <ele>1644.47</ele>
        <time>2013-01-06T14:20:41Z</time>
      </trkpt>
      <trkpt lat="42.94753" lon="0.03131">
        <ele>1644.47</ele>
        <time>2013-01-06T14:20:45Z</time>
      </trkpt>
      <trkpt lat="42.94758" lon="0.0313">
        <ele>1643.03</ele>
        <time>2013-01-06T14:20:49Z</time>
      </trkpt>
      <trkpt lat="42.94767" lon="0.03135">
        <ele>1640.63</ele>
        <time>2013-01-06T14:21:00Z</time>
      </trkpt>
      <trkpt lat="42.94778" lon="0.03139">
        <ele>1637.74</ele>
        <time>2013-01-06T14:21:11Z</time>
      </trkpt>
      <trkpt lat="42.94779" lon="0.03139">
        <ele>1636.78</ele>
        <time>2013-01-06T14:21:12Z</time>
      </trkpt>
      <trkpt lat="42.94784" lon="0.03139">
        <ele>1635.82</ele>
        <time>2013-01-06T14:21:18Z</time>
      </trkpt>
      <trkpt lat="42.94789" lon="0.03141">
        <ele>1635.34</ele>
        <time>2013-01-06T14:21:23Z</time>
      </trkpt>
      <trkpt lat="42.94799" lon="0.03143">
        <ele>1635.82</ele>
        <time>2013-01-06T14:21:36Z</time>
      </trkpt>
      <trkpt lat="42.94801" lon="0.03144">
        <ele>1635.34</ele>
        <time>2013-01-06T14:21:39Z</time>
      </trkpt>
      <trkpt lat="42.94811" lon="0.03144">
        <ele>1635.82</ele>
        <time>2013-01-06T14:21:51Z</time>
      </trkpt>
      <trkpt lat="42.94817" lon="0.03148">
        <ele>1636.78</ele>
        <time>2013-01-06T14:22:02Z</time>
      </trkpt>
      <trkpt lat="42.94825" lon="0.03142">
        <ele>1637.74</ele>
        <time>2013-01-06T14:22:15Z</time>
      </trkpt>
      <trkpt lat="42.94833" lon="0.03139">
        <ele>1638.22</ele>
        <time>2013-01-06T14:22:26Z</time>
      </trkpt>
      <trkpt lat="42.94835" lon="0.03136">
        <ele>1638.22</ele>
        <time>2013-01-06T14:22:38Z</time>
      </trkpt>
      <trkpt lat="42.94835" lon="0.03135">
        <ele>1638.22</ele>
        <time>2013-01-06T14:22:39Z</time>
      </trkpt>
      <trkpt lat="42.94837" lon="0.03133">
        <ele>1639.19</ele>
        <time>2013-01-06T14:22:51Z</time>
      </trkpt>
      <trkpt lat="42.94842" lon="0.03127">
        <ele>1639.67</ele>
        <time>2013-01-06T14:23:04Z</time>
      </trkpt>
      <trkpt lat="42.94844" lon="0.03124">
        <ele>1639.19</ele>
        <time>2013-01-06T14:23:15Z</time>
      </trkpt>
      <trkpt lat="42.94848" lon="0.0312">
        <ele>1639.67</ele>
        <time>2013-01-06T14:23:25Z</time>
      </trkpt>
      <trkpt lat="42.94853" lon="0.0311">
        <ele>1639.19</ele>
        <time>2013-01-06T14:23:37Z</time>
      </trkpt>
      <trkpt lat="42.94853" lon="0.03109">
        <ele>1639.19</ele>
        <time>2013-01-06T14:23:38Z</time>
      </trkpt>
      <trkpt lat="42.94859" lon="0.03103">
        <ele>1639.19</ele>
        <time>2013-01-06T14:23:53Z</time>
      </trkpt>
      <trkpt lat="42.94859" lon="0.03104">
        <ele>1638.7</ele>
        <time>2013-01-06T14:24:16Z</time>
      </trkpt>
      <trkpt lat="42.9486" lon="0.03104">
        <ele>1638.22</ele>
        <time>2013-01-06T14:24:36Z</time>
      </trkpt>
      <trkpt lat="42.94859" lon="0.03103">
        <ele>1638.22</ele>
        <time>2013-01-06T14:24:52Z</time>
      </trkpt>
      <trkpt lat="42.9486" lon="0.03101">
        <ele>1637.74</ele>
        <time>2013-01-06T14:25:18Z</time>
      </trkpt>
      <trkpt lat="42.94866" lon="0.0309">
        <ele>1636.78</ele>
        <time>2013-01-06T14:25:31Z</time>
      </trkpt>
      <trkpt lat="42.94865" lon="0.0309">
        <ele>1636.78</ele>
        <time>2013-01-06T14:25:33Z</time>
      </trkpt>
      <trkpt lat="42.94876" lon="0.03081">
        <ele>1636.3</ele>
        <time>2013-01-06T14:25:46Z</time>
      </trkpt>
      <trkpt lat="42.94885" lon="0.03074">
        <ele>1636.3</ele>
        <time>2013-01-06T14:25:58Z</time>
      </trkpt>
      <trkpt lat="42.9489" lon="0.03066">
        <ele>1635.34</ele>
        <time>2013-01-06T14:26:10Z</time>
      </trkpt>
      <trkpt lat="42.94895" lon="0.03058">
        <ele>1635.34</ele>
        <time>2013-01-06T14:26:23Z</time>
      </trkpt>
      <trkpt lat="42.94901" lon="0.03048">
        <ele>1634.38</ele>
        <time>2013-01-06T14:26:35Z</time>
      </trkpt>
      <trkpt lat="42.94908" lon="0.03041">
        <ele>1633.9</ele>
        <time>2013-01-06T14:26:46Z</time>
      </trkpt>
      <trkpt lat="42.9491" lon="0.03039">
        <ele>1633.42</ele>
        <time>2013-01-06T14:26:48Z</time>
      </trkpt>
      <trkpt lat="42.94921" lon="0.03027">
        <ele>1633.42</ele>
        <time>2013-01-06T14:27:02Z</time>
      </trkpt>
      <trkpt lat="42.94922" lon="0.03026">
        <ele>1632.94</ele>
        <time>2013-01-06T14:27:03Z</time>
      </trkpt>
      <trkpt lat="42.94929" lon="0.03018">
        <ele>1632.94</ele>
        <time>2013-01-06T14:27:12Z</time>
      </trkpt>
      <trkpt lat="42.94936" lon="0.03011">
        <ele>1632.94</ele>
        <time>2013-01-06T14:27:21Z</time>
      </trkpt>
      <trkpt lat="42.94943" lon="0.02997">
        <ele>1631.49</ele>
        <time>2013-01-06T14:27:35Z</time>
      </trkpt>
      <trkpt lat="42.94944" lon="0.02996">
        <ele>1631.01</ele>
        <time>2013-01-06T14:27:37Z</time>
      </trkpt>
      <trkpt lat="42.94955" lon="0.02981">
        <ele>1629.57</ele>
        <time>2013-01-06T14:27:51Z</time>
      </trkpt>
      <trkpt lat="42.94962" lon="0.02973">
        <ele>1629.09</ele>
        <time>2013-01-06T14:28:02Z</time>
      </trkpt>
      <trkpt lat="42.94964" lon="0.02971">
        <ele>1629.09</ele>
        <time>2013-01-06T14:28:04Z</time>
      </trkpt>
      <trkpt lat="42.94977" lon="0.02957">
        <ele>1627.65</ele>
        <time>2013-01-06T14:28:17Z</time>
      </trkpt>
      <trkpt lat="42.94987" lon="0.02949">
        <ele>1626.69</ele>
        <time>2013-01-06T14:28:28Z</time>
      </trkpt>
      <trkpt lat="42.94996" lon="0.02938">
        <ele>1625.25</ele>
        <time>2013-01-06T14:28:40Z</time>
      </trkpt>
      <trkpt lat="42.95009" lon="0.02926">
        <ele>1624.77</ele>
        <time>2013-01-06T14:28:53Z</time>
      </trkpt>
      <trkpt lat="42.95009" lon="0.02925">
        <ele>1624.77</ele>
        <time>2013-01-06T14:28:54Z</time>
      </trkpt>
      <trkpt lat="42.9501" lon="0.02924">
        <ele>1624.28</ele>
        <time>2013-01-06T14:28:56Z</time>
      </trkpt>
      <trkpt lat="42.95021" lon="0.02914">
        <ele>1623.8</ele>
        <time>2013-01-06T14:29:08Z</time>
      </trkpt>
      <trkpt lat="42.9503" lon="0.02902">
        <ele>1622.36</ele>
        <time>2013-01-06T14:29:20Z</time>
      </trkpt>
      <trkpt lat="42.95036" lon="0.02899">
        <ele>1620.92</ele>
        <time>2013-01-06T14:29:27Z</time>
      </trkpt>
      <trkpt lat="42.9504" lon="0.02896">
        <ele>1619.96</ele>
        <time>2013-01-06T14:29:31Z</time>
      </trkpt>
      <trkpt lat="42.95043" lon="0.02894">
        <ele>1619</ele>
        <time>2013-01-06T14:29:33Z</time>
      </trkpt>
      <trkpt lat="42.9505" lon="0.02883">
        <ele>1619.48</ele>
        <time>2013-01-06T14:29:45Z</time>
      </trkpt>
      <trkpt lat="42.95054" lon="0.02878">
        <ele>1619</ele>
        <time>2013-01-06T14:29:57Z</time>
      </trkpt>
      <trkpt lat="42.95054" lon="0.02877">
        <ele>1619</ele>
        <time>2013-01-06T14:30:17Z</time>
      </trkpt>
      <trkpt lat="42.95054" lon="0.02877">
        <ele>1619</ele>
        <time>2013-01-06T14:30:47Z</time>
      </trkpt>
      <trkpt lat="42.95055" lon="0.02877">
        <ele>1618.52</ele>
        <time>2013-01-06T14:31:09Z</time>
      </trkpt>
      <trkpt lat="42.95055" lon="0.02877">
        <ele>1619</ele>
        <time>2013-01-06T14:31:30Z</time>
      </trkpt>
      <trkpt lat="42.95055" lon="0.02878">
        <ele>1619</ele>
        <time>2013-01-06T14:31:46Z</time>
      </trkpt>
      <trkpt lat="42.95055" lon="0.02878">
        <ele>1619.48</ele>
        <time>2013-01-06T14:32:15Z</time>
      </trkpt>
      <trkpt lat="42.95055" lon="0.02878">
        <ele>1618.52</ele>
        <time>2013-01-06T14:32:42Z</time>
      </trkpt>
      <trkpt lat="42.95055" lon="0.02878">
        <ele>1619</ele>
        <time>2013-01-06T14:33:13Z</time>
      </trkpt>
      <trkpt lat="42.95055" lon="0.02878">
        <ele>1619</ele>
        <time>2013-01-06T14:33:44Z</time>
      </trkpt>
      <trkpt lat="42.95055" lon="0.02877">
        <ele>1619</ele>
        <time>2013-01-06T14:34:15Z</time>
      </trkpt>
      <trkpt lat="42.95054" lon="0.02877">
        <ele>1619</ele>
        <time>2013-01-06T14:34:43Z</time>
      </trkpt>
      <trkpt lat="42.95055" lon="0.02878">
        <ele>1619</ele>
        <time>2013-01-06T14:35:10Z</time>
      </trkpt>
      <trkpt lat="42.95054" lon="0.02877">
        <ele>1618.52</ele>
        <time>2013-01-06T14:35:45Z</time>
      </trkpt>
      <trkpt lat="42.95054" lon="0.02877">
        <ele>1622.84</ele>
        <time>2013-01-06T14:35:49Z</time>
      </trkpt>
      <trkpt lat="42.95055" lon="0.02877">
        <ele>1618.52</ele>
        <time>2013-01-06T14:35:50Z</time>
      </trkpt>
      <trkpt lat="42.95062" lon="0.02867">
        <ele>1618.52</ele>
        <time>2013-01-06T14:36:00Z</time>
      </trkpt>
      <trkpt lat="42.95065" lon="0.02865">
        <ele>1618.04</ele>
        <time>2013-01-06T14:36:02Z</time>
      </trkpt>
      <trkpt lat="42.95068" lon="0.02862">
        <ele>1618.52</ele>
        <time>2013-01-06T14:36:06Z</time>
      </trkpt>
      <trkpt lat="42.95073" lon="0.02857">
        <ele>1618.52</ele>
        <time>2013-01-06T14:36:13Z</time>
      </trkpt>
      <trkpt lat="42.95082" lon="0.02845">
        <ele>1617.56</ele>
        <time>2013-01-06T14:36:25Z</time>
      </trkpt>
      <trkpt lat="42.95086" lon="0.0284">
        <ele>1618.04</ele>
        <time>2013-01-06T14:36:31Z</time>
      </trkpt>
      <trkpt lat="42.95092" lon="0.02832">
        <ele>1618.04</ele>
        <time>2013-01-06T14:36:40Z</time>
      </trkpt>
      <trkpt lat="42.95102" lon="0.02823">
        <ele>1618.52</ele>
        <time>2013-01-06T14:36:51Z</time>
      </trkpt>
      <trkpt lat="42.95107" lon="0.02818">
        <ele>1618.04</ele>
        <time>2013-01-06T14:36:58Z</time>
      </trkpt>
      <trkpt lat="42.95117" lon="0.0281">
        <ele>1616.59</ele>
        <time>2013-01-06T14:37:10Z</time>
      </trkpt>
      <trkpt lat="42.95118" lon="0.0281">
        <ele>1616.11</ele>
        <time>2013-01-06T14:37:11Z</time>
      </trkpt>
      <trkpt lat="42.9512" lon="0.02811">
        <ele>1616.59</ele>
        <time>2013-01-06T14:37:13Z</time>
      </trkpt>
      <trkpt lat="42.95127" lon="0.02808">
        <ele>1616.59</ele>
        <time>2013-01-06T14:37:21Z</time>
      </trkpt>
      <trkpt lat="42.95138" lon="0.02802">
        <ele>1616.11</ele>
        <time>2013-01-06T14:37:33Z</time>
      </trkpt>
      <trkpt lat="42.95143" lon="0.02799">
        <ele>1616.11</ele>
        <time>2013-01-06T14:37:38Z</time>
      </trkpt>
      <trkpt lat="42.95147" lon="0.02796">
        <ele>1615.63</ele>
        <time>2013-01-06T14:37:44Z</time>
      </trkpt>
      <trkpt lat="42.95156" lon="0.02795">
        <ele>1616.11</ele>
        <time>2013-01-06T14:37:54Z</time>
      </trkpt>
      <trkpt lat="42.95158" lon="0.02794">
        <ele>1616.11</ele>
        <time>2013-01-06T14:37:56Z</time>
      </trkpt>
      <trkpt lat="42.9516" lon="0.02793">
        <ele>1616.11</ele>
        <time>2013-01-06T14:37:58Z</time>
      </trkpt>
      <trkpt lat="42.95169" lon="0.02784">
        <ele>1616.11</ele>
        <time>2013-01-06T14:38:11Z</time>
      </trkpt>
      <trkpt lat="42.95172" lon="0.02774">
        <ele>1616.11</ele>
        <time>2013-01-06T14:38:22Z</time>
      </trkpt>
      <trkpt lat="42.95179" lon="0.02766">
        <ele>1616.11</ele>
        <time>2013-01-06T14:38:34Z</time>
      </trkpt>
      <trkpt lat="42.95187" lon="0.02763">
        <ele>1615.15</ele>
        <time>2013-01-06T14:38:46Z</time>
      </trkpt>
      <trkpt lat="42.95196" lon="0.02755">
        <ele>1615.15</ele>
        <time>2013-01-06T14:38:58Z</time>
      </trkpt>
      <trkpt lat="42.95203" lon="0.02749">
        <ele>1615.15</ele>
        <time>2013-01-06T14:39:10Z</time>
      </trkpt>
      <trkpt lat="42.95207" lon="0.0274">
        <ele>1615.15</ele>
        <time>2013-01-06T14:39:22Z</time>
      </trkpt>
      <trkpt lat="42.95209" lon="0.02735">
        <ele>1614.67</ele>
        <time>2013-01-06T14:39:27Z</time>
      </trkpt>
      <trkpt lat="42.95213" lon="0.02732">
        <ele>1615.15</ele>
        <time>2013-01-06T14:39:37Z</time>
      </trkpt>
      <trkpt lat="42.95215" lon="0.02725">
        <ele>1615.15</ele>
        <time>2013-01-06T14:39:45Z</time>
      </trkpt>
      <trkpt lat="42.95218" lon="0.02717">
        <ele>1614.67</ele>
        <time>2013-01-06T14:39:55Z</time>
      </trkpt>
      <trkpt lat="42.95218" lon="0.02716">
        <ele>1614.67</ele>
        <time>2013-01-06T14:39:56Z</time>
      </trkpt>
      <trkpt lat="42.95224" lon="0.02712">
        <ele>1615.15</ele>
        <time>2013-01-06T14:40:07Z</time>
      </trkpt>
      <trkpt lat="42.95226" lon="0.02703">
        <ele>1616.59</ele>
        <time>2013-01-06T14:40:22Z</time>
      </trkpt>
      <trkpt lat="42.95228" lon="0.02698">
        <ele>1617.56</ele>
        <time>2013-01-06T14:40:35Z</time>
      </trkpt>
      <trkpt lat="42.95231" lon="0.02692">
        <ele>1617.56</ele>
        <time>2013-01-06T14:40:46Z</time>
      </trkpt>
      <trkpt lat="42.95234" lon="0.0269">
        <ele>1619</ele>
        <time>2013-01-06T14:40:57Z</time>
      </trkpt>
      <trkpt lat="42.95236" lon="0.02686">
        <ele>1619.48</ele>
        <time>2013-01-06T14:41:09Z</time>
      </trkpt>
      <trkpt lat="42.9524" lon="0.02681">
        <ele>1620.92</ele>
        <time>2013-01-06T14:41:20Z</time>
      </trkpt>
      <trkpt lat="42.95243" lon="0.02676">
        <ele>1620.92</ele>
        <time>2013-01-06T14:41:30Z</time>
      </trkpt>
      <trkpt lat="42.95248" lon="0.0267">
        <ele>1621.88</ele>
        <time>2013-01-06T14:41:41Z</time>
      </trkpt>
      <trkpt lat="42.95254" lon="0.02663">
        <ele>1621.88</ele>
        <time>2013-01-06T14:41:50Z</time>
      </trkpt>
      <trkpt lat="42.95262" lon="0.02658">
        <ele>1622.36</ele>
        <time>2013-01-06T14:42:01Z</time>
      </trkpt>
      <trkpt lat="42.95267" lon="0.02655">
        <ele>1620.92</ele>
        <time>2013-01-06T14:42:07Z</time>
      </trkpt>
      <trkpt lat="42.95271" lon="0.02652">
        <ele>1620.44</ele>
        <time>2013-01-06T14:42:12Z</time>
      </trkpt>
      <trkpt lat="42.95274" lon="0.02649">
        <ele>1619.48</ele>
        <time>2013-01-06T14:42:15Z</time>
      </trkpt>
      <trkpt lat="42.95284" lon="0.02643">
        <ele>1620.44</ele>
        <time>2013-01-06T14:42:28Z</time>
      </trkpt>
      <trkpt lat="42.95284" lon="0.02643">
        <ele>1620.92</ele>
        <time>2013-01-06T14:42:29Z</time>
      </trkpt>
      <trkpt lat="42.95288" lon="0.02639">
        <ele>1620.92</ele>
        <time>2013-01-06T14:42:34Z</time>
      </trkpt>
      <trkpt lat="42.95297" lon="0.02633">
        <ele>1621.88</ele>
        <time>2013-01-06T14:42:45Z</time>
      </trkpt>
      <trkpt lat="42.95301" lon="0.02631">
        <ele>1621.4</ele>
        <time>2013-01-06T14:42:51Z</time>
      </trkpt>
      <trkpt lat="42.95306" lon="0.0263">
        <ele>1621.88</ele>
        <time>2013-01-06T14:42:56Z</time>
      </trkpt>
      <trkpt lat="42.95322" lon="0.02627">
        <ele>1621.4</ele>
        <time>2013-01-06T14:43:13Z</time>
      </trkpt>
      <trkpt lat="42.95326" lon="0.02626">
        <ele>1620.92</ele>
        <time>2013-01-06T14:43:17Z</time>
      </trkpt>
      <trkpt lat="42.95337" lon="0.02621">
        <ele>1621.4</ele>
        <time>2013-01-06T14:43:28Z</time>
      </trkpt>
      <trkpt lat="42.95349" lon="0.02618">
        <ele>1619.96</ele>
        <time>2013-01-06T14:43:42Z</time>
      </trkpt>
      <trkpt lat="42.95362" lon="0.02615">
        <ele>1619.48</ele>
        <time>2013-01-06T14:43:53Z</time>
      </trkpt>
      <trkpt lat="42.95373" lon="0.02613">
        <ele>1618.04</ele>
        <time>2013-01-06T14:44:03Z</time>
      </trkpt>
      <trkpt lat="42.95376" lon="0.02613">
        <ele>1617.07</ele>
        <time>2013-01-06T14:44:05Z</time>
      </trkpt>
      <trkpt lat="42.95381" lon="0.02615">
        <ele>1616.59</ele>
        <time>2013-01-06T14:44:09Z</time>
      </trkpt>
      <trkpt lat="42.95385" lon="0.02613">
        <ele>1615.63</ele>
        <time>2013-01-06T14:44:14Z</time>
      </trkpt>
      <trkpt lat="42.95388" lon="0.02608">
        <ele>1615.63</ele>
        <time>2013-01-06T14:44:27Z</time>
      </trkpt>
      <trkpt lat="42.95388" lon="0.02607">
        <ele>1615.15</ele>
        <time>2013-01-06T14:44:50Z</time>
      </trkpt>
      <trkpt lat="42.95388" lon="0.02607">
        <ele>1615.15</ele>
        <time>2013-01-06T14:45:16Z</time>
      </trkpt>
      <trkpt lat="42.95388" lon="0.02608">
        <ele>1615.63</ele>
        <time>2013-01-06T14:45:43Z</time>
      </trkpt>
      <trkpt lat="42.95388" lon="0.02608">
        <ele>1615.63</ele>
        <time>2013-01-06T14:46:09Z</time>
      </trkpt>
      <trkpt lat="42.95388" lon="0.02607">
        <ele>1615.15</ele>
        <time>2013-01-06T14:46:28Z</time>
      </trkpt>
      <trkpt lat="42.95388" lon="0.02607">
        <ele>1615.15</ele>
        <time>2013-01-06T14:46:58Z</time>
      </trkpt>
      <trkpt lat="42.95388" lon="0.02607">
        <ele>1615.15</ele>
        <time>2013-01-06T14:47:25Z</time>
      </trkpt>
      <trkpt lat="42.95388" lon="0.02607">
        <ele>1615.63</ele>
        <time>2013-01-06T14:47:57Z</time>
      </trkpt>
      <trkpt lat="42.95392" lon="0.02603">
        <ele>1615.15</ele>
        <time>2013-01-06T14:48:06Z</time>
      </trkpt>
      <trkpt lat="42.95393" lon="0.02599">
        <ele>1614.67</ele>
        <time>2013-01-06T14:48:09Z</time>
      </trkpt>
      <trkpt lat="42.95394" lon="0.02596">
        <ele>1615.15</ele>
        <time>2013-01-06T14:48:12Z</time>
      </trkpt>
      <trkpt lat="42.95401" lon="0.02594">
        <ele>1616.59</ele>
        <time>2013-01-06T14:48:21Z</time>
      </trkpt>
      <trkpt lat="42.95405" lon="0.0259">
        <ele>1616.59</ele>
        <time>2013-01-06T14:48:27Z</time>
      </trkpt>
      <trkpt lat="42.95409" lon="0.02591">
        <ele>1615.63</ele>
        <time>2013-01-06T14:48:31Z</time>
      </trkpt>
      <trkpt lat="42.95412" lon="0.0259">
        <ele>1616.11</ele>
        <time>2013-01-06T14:48:36Z</time>
      </trkpt>
      <trkpt lat="42.95414" lon="0.0259">
        <ele>1616.11</ele>
        <time>2013-01-06T14:48:39Z</time>
      </trkpt>
      <trkpt lat="42.95416" lon="0.02585">
        <ele>1616.11</ele>
        <time>2013-01-06T14:48:44Z</time>
      </trkpt>
      <trkpt lat="42.95423" lon="0.02578">
        <ele>1616.59</ele>
        <time>2013-01-06T14:48:54Z</time>
      </trkpt>
      <trkpt lat="42.95429" lon="0.02569">
        <ele>1617.07</ele>
        <time>2013-01-06T14:49:06Z</time>
      </trkpt>
      <trkpt lat="42.95434" lon="0.02562">
        <ele>1617.56</ele>
        <time>2013-01-06T14:49:16Z</time>
      </trkpt>
      <trkpt lat="42.95438" lon="0.0256">
        <ele>1618.52</ele>
        <time>2013-01-06T14:49:22Z</time>
      </trkpt>
      <trkpt lat="42.95438" lon="0.02556">
        <ele>1618.52</ele>
        <time>2013-01-06T14:49:28Z</time>
      </trkpt>
      <trkpt lat="42.95446" lon="0.02551">
        <ele>1618.04</ele>
        <time>2013-01-06T14:49:38Z</time>
      </trkpt>
      <trkpt lat="42.9545" lon="0.02549">
        <ele>1618.04</ele>
        <time>2013-01-06T14:49:43Z</time>
      </trkpt>
      <trkpt lat="42.95455" lon="0.0255">
        <ele>1617.07</ele>
        <time>2013-01-06T14:49:47Z</time>
      </trkpt>
      <trkpt lat="42.95463" lon="0.02548">
        <ele>1616.59</ele>
        <time>2013-01-06T14:49:57Z</time>
      </trkpt>
      <trkpt lat="42.95475" lon="0.02537">
        <ele>1617.56</ele>
        <time>2013-01-06T14:50:11Z</time>
      </trkpt>
      <trkpt lat="42.95484" lon="0.02526">
        <ele>1618.52</ele>
        <time>2013-01-06T14:50:24Z</time>
      </trkpt>
      <trkpt lat="42.95487" lon="0.02524">
        <ele>1618.52</ele>
        <time>2013-01-06T14:50:27Z</time>
      </trkpt>
      <trkpt lat="42.95491" lon="0.02521">
        <ele>1618.52</ele>
        <time>2013-01-06T14:50:32Z</time>
      </trkpt>
      <trkpt lat="42.95496" lon="0.02517">
        <ele>1618.52</ele>
        <time>2013-01-06T14:50:39Z</time>
      </trkpt>
      <trkpt lat="42.95504" lon="0.02507">
        <ele>1618.52</ele>
        <time>2013-01-06T14:50:51Z</time>
      </trkpt>
      <trkpt lat="42.95509" lon="0.02504">
        <ele>1619</ele>
        <time>2013-01-06T14:50:57Z</time>
      </trkpt>
      <trkpt lat="42.95511" lon="0.02503">
        <ele>1619.48</ele>
        <time>2013-01-06T14:50:59Z</time>
      </trkpt>
      <trkpt lat="42.95512" lon="0.02501">
        <ele>1619.48</ele>
        <time>2013-01-06T14:51:01Z</time>
      </trkpt>
      <trkpt lat="42.95512" lon="0.02498">
        <ele>1619.96</ele>
        <time>2013-01-06T14:51:04Z</time>
      </trkpt>
      <trkpt lat="42.95516" lon="0.02497">
        <ele>1619.96</ele>
        <time>2013-01-06T14:51:08Z</time>
      </trkpt>
      <trkpt lat="42.9552" lon="0.02492">
        <ele>1619.96</ele>
        <time>2013-01-06T14:51:15Z</time>
      </trkpt>
      <trkpt lat="42.95529" lon="0.02482">
        <ele>1620.44</ele>
        <time>2013-01-06T14:51:26Z</time>
      </trkpt>
      <trkpt lat="42.9553" lon="0.02482">
        <ele>1619.96</ele>
        <time>2013-01-06T14:51:27Z</time>
      </trkpt>
      <trkpt lat="42.95543" lon="0.02476">
        <ele>1619.48</ele>
        <time>2013-01-06T14:51:38Z</time>
      </trkpt>
      <trkpt lat="42.95556" lon="0.02474">
        <ele>1618.04</ele>
        <time>2013-01-06T14:51:50Z</time>
      </trkpt>
      <trkpt lat="42.95565" lon="0.02473">
        <ele>1617.07</ele>
        <time>2013-01-06T14:51:59Z</time>
      </trkpt>
      <trkpt lat="42.95572" lon="0.02474">
        <ele>1616.11</ele>
        <time>2013-01-06T14:52:08Z</time>
      </trkpt>
      <trkpt lat="42.95573" lon="0.02471">
        <ele>1616.11</ele>
        <time>2013-01-06T14:52:12Z</time>
      </trkpt>
      <trkpt lat="42.95578" lon="0.02459">
        <ele>1615.15</ele>
        <time>2013-01-06T14:52:21Z</time>
      </trkpt>
      <trkpt lat="42.95583" lon="0.02456">
        <ele>1614.19</ele>
        <time>2013-01-06T14:52:28Z</time>
      </trkpt>
      <trkpt lat="42.95586" lon="0.02453">
        <ele>1614.19</ele>
        <time>2013-01-06T14:52:32Z</time>
      </trkpt>
      <trkpt lat="42.95588" lon="0.02449">
        <ele>1614.19</ele>
        <time>2013-01-06T14:52:36Z</time>
      </trkpt>
      <trkpt lat="42.95597" lon="0.02445">
        <ele>1614.67</ele>
        <time>2013-01-06T14:52:47Z</time>
      </trkpt>
      <trkpt lat="42.95596" lon="0.02444">
        <ele>1614.67</ele>
        <time>2013-01-06T14:53:07Z</time>
      </trkpt>
      <trkpt lat="42.95601" lon="0.02443">
        <ele>1615.15</ele>
        <time>2013-01-06T14:53:14Z</time>
      </trkpt>
      <trkpt lat="42.95607" lon="0.0244">
        <ele>1615.15</ele>
        <time>2013-01-06T14:53:21Z</time>
      </trkpt>
      <trkpt lat="42.9561" lon="0.02439">
        <ele>1614.67</ele>
        <time>2013-01-06T14:53:24Z</time>
      </trkpt>
      <trkpt lat="42.95616" lon="0.02438">
        <ele>1613.71</ele>
        <time>2013-01-06T14:53:32Z</time>
      </trkpt>
      <trkpt lat="42.95622" lon="0.02432">
        <ele>1613.71</ele>
        <time>2013-01-06T14:53:38Z</time>
      </trkpt>
      <trkpt lat="42.95627" lon="0.02426">
        <ele>1612.75</ele>
        <time>2013-01-06T14:53:44Z</time>
      </trkpt>
      <trkpt lat="42.95633" lon="0.0242">
        <ele>1612.27</ele>
        <time>2013-01-06T14:53:51Z</time>
      </trkpt>
      <trkpt lat="42.95646" lon="0.02406">
        <ele>1610.35</ele>
        <time>2013-01-06T14:54:06Z</time>
      </trkpt>
      <trkpt lat="42.95658" lon="0.02397">
        <ele>1609.38</ele>
        <time>2013-01-06T14:54:18Z</time>
      </trkpt>
      <trkpt lat="42.95667" lon="0.02391">
        <ele>1608.9</ele>
        <time>2013-01-06T14:54:28Z</time>
      </trkpt>
      <trkpt lat="42.9567" lon="0.02391">
        <ele>1609.38</ele>
        <time>2013-01-06T14:54:31Z</time>
      </trkpt>
      <trkpt lat="42.95671" lon="0.02389">
        <ele>1608.9</ele>
        <time>2013-01-06T14:54:33Z</time>
      </trkpt>
      <trkpt lat="42.95682" lon="0.02383">
        <ele>1608.9</ele>
        <time>2013-01-06T14:54:46Z</time>
      </trkpt>
      <trkpt lat="42.95695" lon="0.0238">
        <ele>1609.38</ele>
        <time>2013-01-06T14:55:01Z</time>
      </trkpt>
      <trkpt lat="42.95705" lon="0.02374">
        <ele>1609.86</ele>
        <time>2013-01-06T14:55:14Z</time>
      </trkpt>
      <trkpt lat="42.95715" lon="0.0237">
        <ele>1609.86</ele>
        <time>2013-01-06T14:55:26Z</time>
      </trkpt>
      <trkpt lat="42.95717" lon="0.0237">
        <ele>1609.86</ele>
        <time>2013-01-06T14:55:27Z</time>
      </trkpt>
      <trkpt lat="42.95718" lon="0.02369">
        <ele>1609.38</ele>
        <time>2013-01-06T14:55:29Z</time>
      </trkpt>
      <trkpt lat="42.95731" lon="0.0237">
        <ele>1610.35</ele>
        <time>2013-01-06T14:55:43Z</time>
      </trkpt>
      <trkpt lat="42.95744" lon="0.02375">
        <ele>1609.38</ele>
        <time>2013-01-06T14:55:59Z</time>
      </trkpt>
      <trkpt lat="42.9575" lon="0.02375">
        <ele>1609.86</ele>
        <time>2013-01-06T14:56:05Z</time>
      </trkpt>
      <trkpt lat="42.95764" lon="0.0237">
        <ele>1609.38</ele>
        <time>2013-01-06T14:56:19Z</time>
      </trkpt>
      <trkpt lat="42.95772" lon="0.02366">
        <ele>1608.9</ele>
        <time>2013-01-06T14:56:30Z</time>
      </trkpt>
      <trkpt lat="42.95779" lon="0.02364">
        <ele>1609.38</ele>
        <time>2013-01-06T14:56:42Z</time>
      </trkpt>
      <trkpt lat="42.95785" lon="0.0236">
        <ele>1610.35</ele>
        <time>2013-01-06T14:56:51Z</time>
      </trkpt>
      <trkpt lat="42.95793" lon="0.02352">
        <ele>1611.31</ele>
        <time>2013-01-06T14:57:03Z</time>
      </trkpt>
      <trkpt lat="42.95795" lon="0.02348">
        <ele>1610.83</ele>
        <time>2013-01-06T14:57:07Z</time>
      </trkpt>
      <trkpt lat="42.95797" lon="0.02345">
        <ele>1611.31</ele>
        <time>2013-01-06T14:57:09Z</time>
      </trkpt>
      <trkpt lat="42.958" lon="0.02342">
        <ele>1610.83</ele>
        <time>2013-01-06T14:57:12Z</time>
      </trkpt>
      <trkpt lat="42.9581" lon="0.02332">
        <ele>1610.83</ele>
        <time>2013-01-06T14:57:26Z</time>
      </trkpt>
      <trkpt lat="42.95814" lon="0.02327">
        <ele>1610.83</ele>
        <time>2013-01-06T14:57:31Z</time>
      </trkpt>
      <trkpt lat="42.95815" lon="0.02327">
        <ele>1610.83</ele>
        <time>2013-01-06T14:57:33Z</time>
      </trkpt>
      <trkpt lat="42.95824" lon="0.02319">
        <ele>1610.83</ele>
        <time>2013-01-06T14:57:42Z</time>
      </trkpt>
      <trkpt lat="42.95826" lon="0.02316">
        <ele>1610.35</ele>
        <time>2013-01-06T14:57:45Z</time>
      </trkpt>
      <trkpt lat="42.95839" lon="0.02308">
        <ele>1610.83</ele>
        <time>2013-01-06T14:58:00Z</time>
      </trkpt>
      <trkpt lat="42.95842" lon="0.02306">
        <ele>1610.83</ele>
        <time>2013-01-06T14:58:07Z</time>
      </trkpt>
      <trkpt lat="42.95844" lon="0.02304">
        <ele>1611.31</ele>
        <time>2013-01-06T14:58:10Z</time>
      </trkpt>
      <trkpt lat="42.95853" lon="0.02297">
        <ele>1610.83</ele>
        <time>2013-01-06T14:58:23Z</time>
      </trkpt>
      <trkpt lat="42.9586" lon="0.02291">
        <ele>1612.27</ele>
        <time>2013-01-06T14:58:35Z</time>
      </trkpt>
      <trkpt lat="42.95867" lon="0.02287">
        <ele>1612.75</ele>
        <time>2013-01-06T14:58:45Z</time>
      </trkpt>
      <trkpt lat="42.95878" lon="0.0228">
        <ele>1613.23</ele>
        <time>2013-01-06T14:58:57Z</time>
      </trkpt>
      <trkpt lat="42.95887" lon="0.02277">
        <ele>1613.71</ele>
        <time>2013-01-06T14:59:06Z</time>
      </trkpt>
      <trkpt lat="42.95892" lon="0.02275">
        <ele>1614.19</ele>
        <time>2013-01-06T14:59:10Z</time>
      </trkpt>
      <trkpt lat="42.95898" lon="0.02273">
        <ele>1614.67</ele>
        <time>2013-01-06T14:59:17Z</time>
      </trkpt>
      <trkpt lat="42.95909" lon="0.0227">
        <ele>1614.67</ele>
        <time>2013-01-06T14:59:30Z</time>
      </trkpt>
      <trkpt lat="42.95914" lon="0.02266">
        <ele>1614.67</ele>
        <time>2013-01-06T14:59:39Z</time>
      </trkpt>
      <trkpt lat="42.95924" lon="0.0226">
        <ele>1614.67</ele>
        <time>2013-01-06T14:59:49Z</time>
      </trkpt>
      <trkpt lat="42.95936" lon="0.02254">
        <ele>1614.67</ele>
        <time>2013-01-06T15:00:02Z</time>
      </trkpt>
      <trkpt lat="42.95946" lon="0.02246">
        <ele>1615.15</ele>
        <time>2013-01-06T15:00:15Z</time>
      </trkpt>
      <trkpt lat="42.95955" lon="0.02244">
        <ele>1615.63</ele>
        <time>2013-01-06T15:00:27Z</time>
      </trkpt>
      <trkpt lat="42.95961" lon="0.0224">
        <ele>1616.11</ele>
        <time>2013-01-06T15:00:36Z</time>
      </trkpt>
      <trkpt lat="42.95963" lon="0.02237">
        <ele>1616.11</ele>
        <time>2013-01-06T15:00:40Z</time>
      </trkpt>
      <trkpt lat="42.95974" lon="0.02228">
        <ele>1616.59</ele>
        <time>2013-01-06T15:00:54Z</time>
      </trkpt>
      <trkpt lat="42.95983" lon="0.0222">
        <ele>1617.07</ele>
        <time>2013-01-06T15:01:05Z</time>
      </trkpt>
      <trkpt lat="42.95996" lon="0.0221">
        <ele>1617.56</ele>
        <time>2013-01-06T15:01:21Z</time>
      </trkpt>
      <trkpt lat="42.96004" lon="0.02203">
        <ele>1617.56</ele>
        <time>2013-01-06T15:01:32Z</time>
      </trkpt>
      <trkpt lat="42.96013" lon="0.02191">
        <ele>1618.52</ele>
        <time>2013-01-06T15:01:47Z</time>
      </trkpt>
      <trkpt lat="42.96018" lon="0.02185">
        <ele>1619.96</ele>
        <time>2013-01-06T15:01:55Z</time>
      </trkpt>
      <trkpt lat="42.96021" lon="0.02181">
        <ele>1619.96</ele>
        <time>2013-01-06T15:02:09Z</time>
      </trkpt>
      <trkpt lat="42.96021" lon="0.0218">
        <ele>1619.96</ele>
        <time>2013-01-06T15:02:31Z</time>
      </trkpt>
      <trkpt lat="42.96021" lon="0.0218">
        <ele>1619.96</ele>
        <time>2013-01-06T15:02:46Z</time>
      </trkpt>
      <trkpt lat="42.96022" lon="0.0218">
        <ele>1620.44</ele>
        <time>2013-01-06T15:03:10Z</time>
      </trkpt>
      <trkpt lat="42.96022" lon="0.02179">
        <ele>1619.96</ele>
        <time>2013-01-06T15:03:37Z</time>
      </trkpt>
      <trkpt lat="42.96022" lon="0.0218">
        <ele>1619.96</ele>
        <time>2013-01-06T15:04:06Z</time>
      </trkpt>
      <trkpt lat="42.96022" lon="0.0218">
        <ele>1620.44</ele>
        <time>2013-01-06T15:04:31Z</time>
      </trkpt>
      <trkpt lat="42.96022" lon="0.02181">
        <ele>1619.96</ele>
        <time>2013-01-06T15:04:58Z</time>
      </trkpt>
      <trkpt lat="42.96024" lon="0.02179">
        <ele>1620.44</ele>
        <time>2013-01-06T15:05:17Z</time>
      </trkpt>
      <trkpt lat="42.96029" lon="0.02173">
        <ele>1620.92</ele>
        <time>2013-01-06T15:05:26Z</time>
      </trkpt>
      <trkpt lat="42.96035" lon="0.02165">
        <ele>1621.88</ele>
        <time>2013-01-06T15:05:38Z</time>
      </trkpt>
      <trkpt lat="42.9604" lon="0.02158">
        <ele>1622.84</ele>
        <time>2013-01-06T15:05:50Z</time>
      </trkpt>
      <trkpt lat="42.96048" lon="0.02151">
        <ele>1622.84</ele>
        <time>2013-01-06T15:06:04Z</time>
      </trkpt>
      <trkpt lat="42.96056" lon="0.02146">
        <ele>1623.32</ele>
        <time>2013-01-06T15:06:15Z</time>
      </trkpt>
      <trkpt lat="42.96061" lon="0.0214">
        <ele>1623.8</ele>
        <time>2013-01-06T15:06:25Z</time>
      </trkpt>
      <trkpt lat="42.96069" lon="0.02133">
        <ele>1624.77</ele>
        <time>2013-01-06T15:06:39Z</time>
      </trkpt>
      <trkpt lat="42.96074" lon="0.02127">
        <ele>1625.73</ele>
        <time>2013-01-06T15:06:51Z</time>
      </trkpt>
      <trkpt lat="42.96077" lon="0.02125">
        <ele>1625.73</ele>
        <time>2013-01-06T15:06:56Z</time>
      </trkpt>
      <trkpt lat="42.96082" lon="0.02122">
        <ele>1626.21</ele>
        <time>2013-01-06T15:07:01Z</time>
      </trkpt>
      <trkpt lat="42.96084" lon="0.02122">
        <ele>1626.21</ele>
        <time>2013-01-06T15:07:05Z</time>
      </trkpt>
      <trkpt lat="42.95911" lon="0.02105">
        <ele>1627.17</ele>
        <time>2013-01-06T15:07:15Z</time>
      </trkpt>
      <trkpt lat="42.95915" lon="0.02121">
        <ele>1627.17</ele>
        <time>2013-01-06T15:07:21Z</time>
      </trkpt>
      <trkpt lat="42.95917" lon="0.02123">
        <ele>1498.35</ele>
        <time>2013-01-06T15:07:23Z</time>
      </trkpt>
      <trkpt lat="42.95919" lon="0.02123">
        <ele>1498.35</ele>
        <time>2013-01-06T15:07:25Z</time>
      </trkpt>
      <trkpt lat="42.95922" lon="0.02124">
        <ele>1498.35</ele>
        <time>2013-01-06T15:07:28Z</time>
      </trkpt>
      <trkpt lat="42.95927" lon="0.02125">
        <ele>1498.35</ele>
        <time>2013-01-06T15:07:33Z</time>
      </trkpt>
      <trkpt lat="42.95933" lon="0.02125">
        <ele>1498.35</ele>
        <time>2013-01-06T15:07:42Z</time>
      </trkpt>
      <trkpt lat="42.95937" lon="0.0212">
        <ele>1498.35</ele>
        <time>2013-01-06T15:07:52Z</time>
      </trkpt>
      <trkpt lat="42.9594" lon="0.02116">
        <ele>1497.87</ele>
        <time>2013-01-06T15:07:57Z</time>
      </trkpt>
      <trkpt lat="42.95941" lon="0.02115">
        <ele>1497.87</ele>
        <time>2013-01-06T15:07:58Z</time>
      </trkpt>
      <trkpt lat="42.95943" lon="0.02101">
        <ele>1497.39</ele>
        <time>2013-01-06T15:08:08Z</time>
      </trkpt>
      <trkpt lat="42.95946" lon="0.021">
        <ele>1497.39</ele>
        <time>2013-01-06T15:08:14Z</time>
      </trkpt>
      <trkpt lat="42.95945" lon="0.02101">
        <ele>1497.39</ele>
        <time>2013-01-06T15:08:16Z</time>
      </trkpt>
      <trkpt lat="42.95946" lon="0.02099">
        <ele>1497.87</ele>
        <time>2013-01-06T15:08:20Z</time>
      </trkpt>
      <trkpt lat="42.95946" lon="0.02092">
        <ele>1497.87</ele>
        <time>2013-01-06T15:08:29Z</time>
      </trkpt>
      <trkpt lat="42.95949" lon="0.0209">
        <ele>1496.91</ele>
        <time>2013-01-06T15:08:37Z</time>
      </trkpt>
      <trkpt lat="42.95953" lon="0.02082">
        <ele>1497.39</ele>
        <time>2013-01-06T15:08:43Z</time>
      </trkpt>
      <trkpt lat="42.95962" lon="0.0207">
        <ele>1496.91</ele>
        <time>2013-01-06T15:08:56Z</time>
      </trkpt>
      <trkpt lat="42.9597" lon="0.02063">
        <ele>1497.39</ele>
        <time>2013-01-06T15:09:09Z</time>
      </trkpt>
      <trkpt lat="42.95948" lon="0.01857">
        <ele>1497.39</ele>
        <time>2013-01-06T15:09:37Z</time>
      </trkpt>
      <trkpt lat="42.95951" lon="0.01854">
        <ele>1506.04</ele>
        <time>2013-01-06T15:09:43Z</time>
      </trkpt>
      <trkpt lat="42.95952" lon="0.01855">
        <ele>1506.04</ele>
        <time>2013-01-06T15:09:44Z</time>
      </trkpt>
      <trkpt lat="42.9594" lon="0.0187">
        <ele>1506.04</ele>
        <time>2013-01-06T15:10:05Z</time>
      </trkpt>
      <trkpt lat="42.95933" lon="0.01872">
        <ele>1506.04</ele>
        <time>2013-01-06T15:10:30Z</time>
      </trkpt>
      <trkpt lat="42.95934" lon="0.01872">
        <ele>1506.04</ele>
        <time>2013-01-06T15:10:51Z</time>
      </trkpt>
      <trkpt lat="42.95936" lon="0.01869">
        <ele>1506.52</ele>
        <time>2013-01-06T15:10:58Z</time>
      </trkpt>
      <trkpt lat="42.95937" lon="0.01866">
        <ele>1507</ele>
        <time>2013-01-06T15:11:01Z</time>
      </trkpt>
      <trkpt lat="42.95943" lon="0.01862">
        <ele>1507.97</ele>
        <time>2013-01-06T15:11:12Z</time>
      </trkpt>
      <trkpt lat="42.95943" lon="0.01862">
        <ele>1507.97</ele>
        <time>2013-01-06T15:11:13Z</time>
      </trkpt>
      <trkpt lat="42.95945" lon="0.0186">
        <ele>1508.45</ele>
        <time>2013-01-06T15:11:16Z</time>
      </trkpt>
      <trkpt lat="42.9595" lon="0.01855">
        <ele>1508.45</ele>
        <time>2013-01-06T15:11:24Z</time>
      </trkpt>
      <trkpt lat="42.95953" lon="0.01849">
        <ele>1508.93</ele>
        <time>2013-01-06T15:11:34Z</time>
      </trkpt>
      <trkpt lat="42.95954" lon="0.01844">
        <ele>1509.89</ele>
        <time>2013-01-06T15:11:47Z</time>
      </trkpt>
      <trkpt lat="42.95966" lon="0.01832">
        <ele>1510.37</ele>
        <time>2013-01-06T15:12:00Z</time>
      </trkpt>
      <trkpt lat="42.95971" lon="0.01826">
        <ele>1511.33</ele>
        <time>2013-01-06T15:12:12Z</time>
      </trkpt>
      <trkpt lat="42.95978" lon="0.01819">
        <ele>1511.81</ele>
        <time>2013-01-06T15:12:22Z</time>
      </trkpt>
      <trkpt lat="42.95983" lon="0.01811">
        <ele>1512.29</ele>
        <time>2013-01-06T15:12:31Z</time>
      </trkpt>
      <trkpt lat="42.95993" lon="0.01805">
        <ele>1512.77</ele>
        <time>2013-01-06T15:12:43Z</time>
      </trkpt>
      <trkpt lat="42.96004" lon="0.01801">
        <ele>1512.77</ele>
        <time>2013-01-06T15:12:54Z</time>
      </trkpt>
      <trkpt lat="42.96014" lon="0.01792">
        <ele>1512.77</ele>
        <time>2013-01-06T15:13:09Z</time>
      </trkpt>
      <trkpt lat="42.96023" lon="0.01787">
        <ele>1513.25</ele>
        <time>2013-01-06T15:13:20Z</time>
      </trkpt>
      <trkpt lat="42.96032" lon="0.01778">
        <ele>1512.29</ele>
        <time>2013-01-06T15:13:32Z</time>
      </trkpt>
      <trkpt lat="42.96039" lon="0.0177">
        <ele>1512.77</ele>
        <time>2013-01-06T15:13:44Z</time>
      </trkpt>
      <trkpt lat="42.96044" lon="0.01765">
        <ele>1513.25</ele>
        <time>2013-01-06T15:13:56Z</time>
      </trkpt>
      <trkpt lat="42.96045" lon="0.01764">
        <ele>1513.73</ele>
        <time>2013-01-06T15:13:57Z</time>
      </trkpt>
      <trkpt lat="42.96048" lon="0.01756">
        <ele>1514.21</ele>
        <time>2013-01-06T15:14:10Z</time>
      </trkpt>
      <trkpt lat="42.96052" lon="0.01747">
        <ele>1514.69</ele>
        <time>2013-01-06T15:14:21Z</time>
      </trkpt>
      <trkpt lat="42.96054" lon="0.0174">
        <ele>1515.66</ele>
        <time>2013-01-06T15:14:33Z</time>
      </trkpt>
      <trkpt lat="42.9606" lon="0.0173">
        <ele>1515.66</ele>
        <time>2013-01-06T15:14:45Z</time>
      </trkpt>
      <trkpt lat="42.96064" lon="0.01715">
        <ele>1516.14</ele>
        <time>2013-01-06T15:14:57Z</time>
      </trkpt>
      <trkpt lat="42.9607" lon="0.01705">
        <ele>1516.14</ele>
        <time>2013-01-06T15:15:10Z</time>
      </trkpt>
      <trkpt lat="42.96078" lon="0.01689">
        <ele>1516.62</ele>
        <time>2013-01-06T15:15:22Z</time>
      </trkpt>
      <trkpt lat="42.96083" lon="0.01678">
        <ele>1517.58</ele>
        <time>2013-01-06T15:15:34Z</time>
      </trkpt>
      <trkpt lat="42.96086" lon="0.01671">
        <ele>1517.58</ele>
        <time>2013-01-06T15:15:43Z</time>
      </trkpt>
      <trkpt lat="42.96089" lon="0.01668">
        <ele>1517.58</ele>
        <time>2013-01-06T15:15:52Z</time>
      </trkpt>
      <trkpt lat="42.96093" lon="0.01666">
        <ele>1518.06</ele>
        <time>2013-01-06T15:16:03Z</time>
      </trkpt>
      <trkpt lat="42.96097" lon="0.01662">
        <ele>1517.1</ele>
        <time>2013-01-06T15:16:13Z</time>
      </trkpt>
      <trkpt lat="42.96105" lon="0.01652">
        <ele>1516.62</ele>
        <time>2013-01-06T15:16:25Z</time>
      </trkpt>
      <trkpt lat="42.96116" lon="0.01641">
        <ele>1517.1</ele>
        <time>2013-01-06T15:16:40Z</time>
      </trkpt>
      <trkpt lat="42.96135" lon="0.01629">
        <ele>1516.62</ele>
        <time>2013-01-06T15:16:54Z</time>
      </trkpt>
      <trkpt lat="42.96146" lon="0.01621">
        <ele>1517.58</ele>
        <time>2013-01-06T15:17:08Z</time>
      </trkpt>
      <trkpt lat="42.96154" lon="0.01614">
        <ele>1517.58</ele>
        <time>2013-01-06T15:17:21Z</time>
      </trkpt>
      <trkpt lat="42.96157" lon="0.01611">
        <ele>1517.58</ele>
        <time>2013-01-06T15:17:24Z</time>
      </trkpt>
      <trkpt lat="42.96167" lon="0.01602">
        <ele>1518.54</ele>
        <time>2013-01-06T15:17:38Z</time>
      </trkpt>
      <trkpt lat="42.96171" lon="0.01594">
        <ele>1518.54</ele>
        <time>2013-01-06T15:17:50Z</time>
      </trkpt>
      <trkpt lat="42.96177" lon="0.01583">
        <ele>1519.02</ele>
        <time>2013-01-06T15:18:02Z</time>
      </trkpt>
      <trkpt lat="42.96178" lon="0.01575">
        <ele>1519.98</ele>
        <time>2013-01-06T15:18:13Z</time>
      </trkpt>
      <trkpt lat="42.96179" lon="0.01577">
        <ele>1521.42</ele>
        <time>2013-01-06T15:18:24Z</time>
      </trkpt>
      <trkpt lat="42.96181" lon="0.01574">
        <ele>1522.39</ele>
        <time>2013-01-06T15:18:37Z</time>
      </trkpt>
      <trkpt lat="42.9619" lon="0.01564">
        <ele>1522.87</ele>
        <time>2013-01-06T15:18:49Z</time>
      </trkpt>
      <trkpt lat="42.96196" lon="0.01558">
        <ele>1523.35</ele>
        <time>2013-01-06T15:18:56Z</time>
      </trkpt>
      <trkpt lat="42.96206" lon="0.01549">
        <ele>1524.31</ele>
        <time>2013-01-06T15:19:08Z</time>
      </trkpt>
      <trkpt lat="42.9621" lon="0.01541">
        <ele>1525.27</ele>
        <time>2013-01-06T15:19:21Z</time>
      </trkpt>
      <trkpt lat="42.96206" lon="0.01543">
        <ele>1525.27</ele>
        <time>2013-01-06T15:19:48Z</time>
      </trkpt>
      <trkpt lat="42.96208" lon="0.01543">
        <ele>1525.27</ele>
        <time>2013-01-06T15:20:08Z</time>
      </trkpt>
      <trkpt lat="42.96211" lon="0.0154">
        <ele>1525.27</ele>
        <time>2013-01-06T15:20:37Z</time>
      </trkpt>
      <trkpt lat="42.96211" lon="0.01542">
        <ele>1525.27</ele>
        <time>2013-01-06T15:20:56Z</time>
      </trkpt>
      <trkpt lat="42.96212" lon="0.01542">
        <ele>1525.27</ele>
        <time>2013-01-06T15:21:15Z</time>
      </trkpt>
      <trkpt lat="42.96211" lon="0.01543">
        <ele>1525.27</ele>
        <time>2013-01-06T15:21:36Z</time>
      </trkpt>
      <trkpt lat="42.96213" lon="0.01543">
        <ele>1525.27</ele>
        <time>2013-01-06T15:21:52Z</time>
      </trkpt>
      <trkpt lat="42.96213" lon="0.01545">
        <ele>1525.27</ele>
        <time>2013-01-06T15:22:08Z</time>
      </trkpt>
      <trkpt lat="42.96214" lon="0.01546">
        <ele>1525.27</ele>
        <time>2013-01-06T15:22:28Z</time>
      </trkpt>
      <trkpt lat="42.96215" lon="0.0155">
        <ele>1524.79</ele>
        <time>2013-01-06T15:22:51Z</time>
      </trkpt>
      <trkpt lat="42.96215" lon="0.01551">
        <ele>1525.75</ele>
        <time>2013-01-06T15:23:06Z</time>
      </trkpt>
      <trkpt lat="42.96215" lon="0.01552">
        <ele>1524.79</ele>
        <time>2013-01-06T15:23:24Z</time>
      </trkpt>
      <trkpt lat="42.96215" lon="0.01553">
        <ele>1525.27</ele>
        <time>2013-01-06T15:23:38Z</time>
      </trkpt>
      <trkpt lat="42.96215" lon="0.01555">
        <ele>1525.27</ele>
        <time>2013-01-06T15:23:58Z</time>
      </trkpt>
      <trkpt lat="42.96215" lon="0.01556">
        <ele>1525.27</ele>
        <time>2013-01-06T15:24:14Z</time>
      </trkpt>
      <trkpt lat="42.96216" lon="0.01557">
        <ele>1525.27</ele>
        <time>2013-01-06T15:24:31Z</time>
      </trkpt>
      <trkpt lat="42.96216" lon="0.01559">
        <ele>1524.79</ele>
        <time>2013-01-06T15:24:45Z</time>
      </trkpt>
      <trkpt lat="42.96216" lon="0.01561">
        <ele>1524.79</ele>
        <time>2013-01-06T15:24:57Z</time>
      </trkpt>
      <trkpt lat="42.96216" lon="0.01563">
        <ele>1525.27</ele>
        <time>2013-01-06T15:25:13Z</time>
      </trkpt>
      <trkpt lat="42.96216" lon="0.01563">
        <ele>1524.79</ele>
        <time>2013-01-06T15:25:19Z</time>
      </trkpt>
      <trkpt lat="42.96217" lon="0.01566">
        <ele>1525.75</ele>
        <time>2013-01-06T15:25:31Z</time>
      </trkpt>
      <trkpt lat="42.96216" lon="0.0157">
        <ele>1525.27</ele>
        <time>2013-01-06T15:25:53Z</time>
      </trkpt>
      <trkpt lat="42.96215" lon="0.01574">
        <ele>1524.79</ele>
        <time>2013-01-06T15:26:13Z</time>
      </trkpt>
      <trkpt lat="42.96216" lon="0.01576">
        <ele>1525.27</ele>
        <time>2013-01-06T15:26:39Z</time>
      </trkpt>
      <trkpt lat="42.96213" lon="0.01581">
        <ele>1523.83</ele>
        <time>2013-01-06T15:26:52Z</time>
      </trkpt>
      <trkpt lat="42.96209" lon="0.0159">
        <ele>1523.83</ele>
        <time>2013-01-06T15:27:03Z</time>
      </trkpt>
      <trkpt lat="42.96204" lon="0.01595">
        <ele>1523.35</ele>
        <time>2013-01-06T15:27:15Z</time>
      </trkpt>
      <trkpt lat="42.96202" lon="0.01601">
        <ele>1522.87</ele>
        <time>2013-01-06T15:27:30Z</time>
      </trkpt>
      <trkpt lat="42.96201" lon="0.01606">
        <ele>1522.87</ele>
        <time>2013-01-06T15:27:51Z</time>
      </trkpt>
      <trkpt lat="42.96205" lon="0.01601">
        <ele>1523.35</ele>
        <time>2013-01-06T15:28:01Z</time>
      </trkpt>
      <trkpt lat="42.96212" lon="0.01592">
        <ele>1523.83</ele>
        <time>2013-01-06T15:28:13Z</time>
      </trkpt>
      <trkpt lat="42.9622" lon="0.01583">
        <ele>1525.27</ele>
        <time>2013-01-06T15:28:27Z</time>
      </trkpt>
      <trkpt lat="42.96222" lon="0.01576">
        <ele>1525.27</ele>
        <time>2013-01-06T15:28:34Z</time>
      </trkpt>
      <trkpt lat="42.96225" lon="0.01576">
        <ele>1525.75</ele>
        <time>2013-01-06T15:28:38Z</time>
      </trkpt>
      <trkpt lat="42.96226" lon="0.01574">
        <ele>1525.27</ele>
        <time>2013-01-06T15:28:41Z</time>
      </trkpt>
      <trkpt lat="42.96228" lon="0.01571">
        <ele>1525.75</ele>
        <time>2013-01-06T15:28:46Z</time>
      </trkpt>
      <trkpt lat="42.96229" lon="0.01569">
        <ele>1525.27</ele>
        <time>2013-01-06T15:28:48Z</time>
      </trkpt>
      <trkpt lat="42.96231" lon="0.01562">
        <ele>1525.75</ele>
        <time>2013-01-06T15:28:54Z</time>
      </trkpt>
      <trkpt lat="42.96235" lon="0.01559">
        <ele>1525.75</ele>
        <time>2013-01-06T15:29:01Z</time>
      </trkpt>
      <trkpt lat="42.96238" lon="0.01556">
        <ele>1525.27</ele>
        <time>2013-01-06T15:29:05Z</time>
      </trkpt>
      <trkpt lat="42.9624" lon="0.01553">
        <ele>1524.79</ele>
        <time>2013-01-06T15:29:08Z</time>
      </trkpt>
      <trkpt lat="42.96248" lon="0.01548">
        <ele>1523.83</ele>
        <time>2013-01-06T15:29:18Z</time>
      </trkpt>
      <trkpt lat="42.96248" lon="0.01543">
        <ele>1523.35</ele>
        <time>2013-01-06T15:29:20Z</time>
      </trkpt>
      <trkpt lat="42.96254" lon="0.01536">
        <ele>1523.83</ele>
        <time>2013-01-06T15:29:29Z</time>
      </trkpt>
      <trkpt lat="42.96265" lon="0.01533">
        <ele>1524.31</ele>
        <time>2013-01-06T15:29:36Z</time>
      </trkpt>
      <trkpt lat="42.96278" lon="0.01531">
        <ele>1525.27</ele>
        <time>2013-01-06T15:29:48Z</time>
      </trkpt>
      <trkpt lat="42.96287" lon="0.01528">
        <ele>1525.27</ele>
        <time>2013-01-06T15:29:57Z</time>
      </trkpt>
      <trkpt lat="42.96299" lon="0.01525">
        <ele>1526.71</ele>
        <time>2013-01-06T15:30:10Z</time>
      </trkpt>
      <trkpt lat="42.96309" lon="0.0152">
        <ele>1528.15</ele>
        <time>2013-01-06T15:30:22Z</time>
      </trkpt>
      <trkpt lat="42.96315" lon="0.01519">
        <ele>1529.11</ele>
        <time>2013-01-06T15:30:30Z</time>
      </trkpt>
      <trkpt lat="42.96321" lon="0.01519">
        <ele>1530.08</ele>
        <time>2013-01-06T15:30:40Z</time>
      </trkpt>
      <trkpt lat="42.96329" lon="0.01518">
        <ele>1531.52</ele>
        <time>2013-01-06T15:30:53Z</time>
      </trkpt>
      <trkpt lat="42.96338" lon="0.01522">
        <ele>1532.96</ele>
        <time>2013-01-06T15:31:05Z</time>
      </trkpt>
      <trkpt lat="42.96345" lon="0.01522">
        <ele>1532.96</ele>
        <time>2013-01-06T15:31:20Z</time>
      </trkpt>
      <trkpt lat="42.96267" lon="0.01463">
        <ele>1533.44</ele>
        <time>2013-01-06T15:31:35Z</time>
      </trkpt>
      <trkpt lat="42.96263" lon="0.01472">
        <ele>1533.44</ele>
        <time>2013-01-06T15:31:44Z</time>
      </trkpt>
      <trkpt lat="42.96277" lon="0.01464">
        <ele>1534.4</ele>
        <time>2013-01-06T15:31:56Z</time>
      </trkpt>
      <trkpt lat="42.96287" lon="0.0146">
        <ele>1535.36</ele>
        <time>2013-01-06T15:32:08Z</time>
      </trkpt>
      <trkpt lat="42.96295" lon="0.01453">
        <ele>1536.32</ele>
        <time>2013-01-06T15:32:20Z</time>
      </trkpt>
      <trkpt lat="42.96307" lon="0.01455">
        <ele>1537.29</ele>
        <time>2013-01-06T15:32:33Z</time>
      </trkpt>
      <trkpt lat="42.9631" lon="0.0144">
        <ele>1538.73</ele>
        <time>2013-01-06T15:32:44Z</time>
      </trkpt>
      <trkpt lat="42.96314" lon="0.01428">
        <ele>1538.73</ele>
        <time>2013-01-06T15:32:57Z</time>
      </trkpt>
      <trkpt lat="42.96315" lon="0.01411">
        <ele>1539.69</ele>
        <time>2013-01-06T15:33:10Z</time>
      </trkpt>
      <trkpt lat="42.96315" lon="0.01397">
        <ele>1540.17</ele>
        <time>2013-01-06T15:33:20Z</time>
      </trkpt>
      <trkpt lat="42.96313" lon="0.01372">
        <ele>1540.17</ele>
        <time>2013-01-06T15:33:34Z</time>
      </trkpt>
      <trkpt lat="42.96312" lon="0.0136">
        <ele>1541.13</ele>
        <time>2013-01-06T15:33:45Z</time>
      </trkpt>
      <trkpt lat="42.96317" lon="0.01358">
        <ele>1541.61</ele>
        <time>2013-01-06T15:33:59Z</time>
      </trkpt>
      <trkpt lat="42.96319" lon="0.01344">
        <ele>1540.65</ele>
        <time>2013-01-06T15:34:12Z</time>
      </trkpt>
      <trkpt lat="42.9632" lon="0.01342">
        <ele>1541.13</ele>
        <time>2013-01-06T15:34:15Z</time>
      </trkpt>
      <trkpt lat="42.96322" lon="0.01332">
        <ele>1541.13</ele>
        <time>2013-01-06T15:34:21Z</time>
      </trkpt>
      <trkpt lat="42.96323" lon="0.01328">
        <ele>1540.65</ele>
        <time>2013-01-06T15:34:25Z</time>
      </trkpt>
      <trkpt lat="42.96325" lon="0.01311">
        <ele>1540.17</ele>
        <time>2013-01-06T15:34:37Z</time>
      </trkpt>
      <trkpt lat="42.96325" lon="0.01309">
        <ele>1540.17</ele>
        <time>2013-01-06T15:34:39Z</time>
      </trkpt>
      <trkpt lat="42.96326" lon="0.01306">
        <ele>1539.69</ele>
        <time>2013-01-06T15:34:41Z</time>
      </trkpt>
      <trkpt lat="42.96326" lon="0.01303">
        <ele>1539.69</ele>
        <time>2013-01-06T15:34:44Z</time>
      </trkpt>
      <trkpt lat="42.96329" lon="0.01297">
        <ele>1539.21</ele>
        <time>2013-01-06T15:34:52Z</time>
      </trkpt>
      <trkpt lat="42.9633" lon="0.01294">
        <ele>1539.21</ele>
        <time>2013-01-06T15:34:55Z</time>
      </trkpt>
      <trkpt lat="42.96334" lon="0.0128">
        <ele>1536.8</ele>
        <time>2013-01-06T15:35:07Z</time>
      </trkpt>
      <trkpt lat="42.96337" lon="0.01261">
        <ele>1536.8</ele>
        <time>2013-01-06T15:35:19Z</time>
      </trkpt>
      <trkpt lat="42.96348" lon="0.01248">
        <ele>1537.29</ele>
        <time>2013-01-06T15:35:31Z</time>
      </trkpt>
      <trkpt lat="42.96356" lon="0.01244">
        <ele>1537.29</ele>
        <time>2013-01-06T15:35:37Z</time>
      </trkpt>
      <trkpt lat="42.96368" lon="0.01235">
        <ele>1537.77</ele>
        <time>2013-01-06T15:35:45Z</time>
      </trkpt>
      <trkpt lat="42.9638" lon="0.01226">
        <ele>1537.77</ele>
        <time>2013-01-06T15:35:53Z</time>
      </trkpt>
      <trkpt lat="42.96379" lon="0.01216">
        <ele>1538.73</ele>
        <time>2013-01-06T15:35:59Z</time>
      </trkpt>
      <trkpt lat="42.96382" lon="0.01214">
        <ele>1538.73</ele>
        <time>2013-01-06T15:36:01Z</time>
      </trkpt>
      <trkpt lat="42.96384" lon="0.0121">
        <ele>1538.73</ele>
        <time>2013-01-06T15:36:04Z</time>
      </trkpt>
      <trkpt lat="42.96385" lon="0.01202">
        <ele>1538.73</ele>
        <time>2013-01-06T15:36:09Z</time>
      </trkpt>
      <trkpt lat="42.9639" lon="0.01188">
        <ele>1539.21</ele>
        <time>2013-01-06T15:36:20Z</time>
      </trkpt>
      <trkpt lat="42.96393" lon="0.01172">
        <ele>1540.17</ele>
        <time>2013-01-06T15:36:32Z</time>
      </trkpt>
      <trkpt lat="42.96393" lon="0.01157">
        <ele>1540.65</ele>
        <time>2013-01-06T15:36:43Z</time>
      </trkpt>
      <trkpt lat="42.96392" lon="0.01151">
        <ele>1541.61</ele>
        <time>2013-01-06T15:36:48Z</time>
      </trkpt>
      <trkpt lat="42.9639" lon="0.01134">
        <ele>1542.09</ele>
        <time>2013-01-06T15:37:01Z</time>
      </trkpt>
      <trkpt lat="42.9639" lon="0.01132">
        <ele>1542.57</ele>
        <time>2013-01-06T15:37:04Z</time>
      </trkpt>
      <trkpt lat="42.96388" lon="0.01114">
        <ele>1543.53</ele>
        <time>2013-01-06T15:37:19Z</time>
      </trkpt>
      <trkpt lat="42.96387" lon="0.01109">
        <ele>1544.01</ele>
        <time>2013-01-06T15:37:22Z</time>
      </trkpt>
      <trkpt lat="42.96386" lon="0.01096">
        <ele>1544.5</ele>
        <time>2013-01-06T15:37:30Z</time>
      </trkpt>
      <trkpt lat="42.96386" lon="0.01088">
        <ele>1544.98</ele>
        <time>2013-01-06T15:37:36Z</time>
      </trkpt>
      <trkpt lat="42.96387" lon="0.0108">
        <ele>1544.98</ele>
        <time>2013-01-06T15:37:42Z</time>
      </trkpt>
      <trkpt lat="42.96388" lon="0.01079">
        <ele>1545.46</ele>
        <time>2013-01-06T15:37:44Z</time>
      </trkpt>
      <trkpt lat="42.9639" lon="0.01067">
        <ele>1545.46</ele>
        <time>2013-01-06T15:37:51Z</time>
      </trkpt>
      <trkpt lat="42.96392" lon="0.01065">
        <ele>1544.98</ele>
        <time>2013-01-06T15:37:54Z</time>
      </trkpt>
      <trkpt lat="42.96398" lon="0.01057">
        <ele>1545.46</ele>
        <time>2013-01-06T15:38:03Z</time>
      </trkpt>
      <trkpt lat="42.96405" lon="0.01044">
        <ele>1547.38</ele>
        <time>2013-01-06T15:38:15Z</time>
      </trkpt>
      <trkpt lat="42.96408" lon="0.0104">
        <ele>1547.86</ele>
        <time>2013-01-06T15:38:20Z</time>
      </trkpt>
      <trkpt lat="42.96414" lon="0.01031">
        <ele>1551.22</ele>
        <time>2013-01-06T15:38:30Z</time>
      </trkpt>
      <trkpt lat="42.96414" lon="0.01029">
        <ele>1551.71</ele>
        <time>2013-01-06T15:38:32Z</time>
      </trkpt>
      <trkpt lat="42.9642" lon="0.01022">
        <ele>1553.15</ele>
        <time>2013-01-06T15:38:43Z</time>
      </trkpt>
      <trkpt lat="42.96421" lon="0.01021">
        <ele>1553.15</ele>
        <time>2013-01-06T15:38:44Z</time>
      </trkpt>
      <trkpt lat="42.96424" lon="0.01014">
        <ele>1553.63</ele>
        <time>2013-01-06T15:38:50Z</time>
      </trkpt>
      <trkpt lat="42.96424" lon="0.01007">
        <ele>1553.15</ele>
        <time>2013-01-06T15:38:54Z</time>
      </trkpt>
      <trkpt lat="42.96428" lon="0.00996">
        <ele>1553.15</ele>
        <time>2013-01-06T15:39:02Z</time>
      </trkpt>
      <trkpt lat="42.96429" lon="0.00994">
        <ele>1553.15</ele>
        <time>2013-01-06T15:39:04Z</time>
      </trkpt>
      <trkpt lat="42.96434" lon="0.00983">
        <ele>1553.15</ele>
        <time>2013-01-06T15:39:14Z</time>
      </trkpt>
      <trkpt lat="42.96436" lon="0.00975">
        <ele>1553.15</ele>
        <time>2013-01-06T15:39:20Z</time>
      </trkpt>
      <trkpt lat="42.96437" lon="0.0097">
        <ele>1553.15</ele>
        <time>2013-01-06T15:39:23Z</time>
      </trkpt>
      <trkpt lat="42.96439" lon="0.00967">
        <ele>1553.15</ele>
        <time>2013-01-06T15:39:26Z</time>
      </trkpt>
      <trkpt lat="42.96441" lon="0.00953">
        <ele>1553.15</ele>
        <time>2013-01-06T15:39:36Z</time>
      </trkpt>
      <trkpt lat="42.96444" lon="0.00945">
        <ele>1553.63</ele>
        <time>2013-01-06T15:39:42Z</time>
      </trkpt>
      <trkpt lat="42.96447" lon="0.00941">
        <ele>1553.63</ele>
        <time>2013-01-06T15:39:46Z</time>
      </trkpt>
      <trkpt lat="42.96452" lon="0.00935">
        <ele>1553.15</ele>
        <time>2013-01-06T15:39:53Z</time>
      </trkpt>
      <trkpt lat="42.96454" lon="0.00932">
        <ele>1552.67</ele>
        <time>2013-01-06T15:39:56Z</time>
      </trkpt>
      <trkpt lat="42.96458" lon="0.00925">
        <ele>1553.15</ele>
        <time>2013-01-06T15:40:02Z</time>
      </trkpt>
      <trkpt lat="42.96464" lon="0.00918">
        <ele>1553.15</ele>
        <time>2013-01-06T15:40:11Z</time>
      </trkpt>
      <trkpt lat="42.96467" lon="0.00914">
        <ele>1553.63</ele>
        <time>2013-01-06T15:40:15Z</time>
      </trkpt>
      <trkpt lat="42.96474" lon="0.00902">
        <ele>1554.11</ele>
        <time>2013-01-06T15:40:29Z</time>
      </trkpt>
      <trkpt lat="42.96478" lon="0.00894">
        <ele>1554.59</ele>
        <time>2013-01-06T15:40:35Z</time>
      </trkpt>
      <trkpt lat="42.96481" lon="0.00887">
        <ele>1555.07</ele>
        <time>2013-01-06T15:40:40Z</time>
      </trkpt>
      <trkpt lat="42.96483" lon="0.00883">
        <ele>1555.07</ele>
        <time>2013-01-06T15:40:43Z</time>
      </trkpt>
      <trkpt lat="42.96486" lon="0.00879">
        <ele>1555.07</ele>
        <time>2013-01-06T15:40:46Z</time>
      </trkpt>
      <trkpt lat="42.96494" lon="0.00868">
        <ele>1555.07</ele>
        <time>2013-01-06T15:40:55Z</time>
      </trkpt>
      <trkpt lat="42.96497" lon="0.0086">
        <ele>1555.55</ele>
        <time>2013-01-06T15:41:02Z</time>
      </trkpt>
      <trkpt lat="42.96499" lon="0.0086">
        <ele>1555.55</ele>
        <time>2013-01-06T15:41:05Z</time>
      </trkpt>
      <trkpt lat="42.96501" lon="0.00854">
        <ele>1555.55</ele>
        <time>2013-01-06T15:41:09Z</time>
      </trkpt>
      <trkpt lat="42.96505" lon="0.00847">
        <ele>1555.07</ele>
        <time>2013-01-06T15:41:14Z</time>
      </trkpt>
      <trkpt lat="42.96508" lon="0.00835">
        <ele>1554.11</ele>
        <time>2013-01-06T15:41:20Z</time>
      </trkpt>
      <trkpt lat="42.96512" lon="0.00823">
        <ele>1553.63</ele>
        <time>2013-01-06T15:41:29Z</time>
      </trkpt>
      <trkpt lat="42.96512" lon="0.00806">
        <ele>1553.63</ele>
        <time>2013-01-06T15:41:40Z</time>
      </trkpt>
      <trkpt lat="42.96512" lon="0.008">
        <ele>1553.15</ele>
        <time>2013-01-06T15:41:43Z</time>
      </trkpt>
      <trkpt lat="42.96511" lon="0.00786">
        <ele>1552.19</ele>
        <time>2013-01-06T15:41:51Z</time>
      </trkpt>
      <trkpt lat="42.96511" lon="0.00776">
        <ele>1551.22</ele>
        <time>2013-01-06T15:41:56Z</time>
      </trkpt>
      <trkpt lat="42.96518" lon="0.00762">
        <ele>1549.3</ele>
        <time>2013-01-06T15:42:07Z</time>
      </trkpt>
      <trkpt lat="42.9652" lon="0.00759">
        <ele>1549.78</ele>
        <time>2013-01-06T15:42:10Z</time>
      </trkpt>
      <trkpt lat="42.96522" lon="0.0074">
        <ele>1549.3</ele>
        <time>2013-01-06T15:42:21Z</time>
      </trkpt>
      <trkpt lat="42.96523" lon="0.00737">
        <ele>1548.82</ele>
        <time>2013-01-06T15:42:23Z</time>
      </trkpt>
      <trkpt lat="42.96527" lon="0.00734">
        <ele>1548.34</ele>
        <time>2013-01-06T15:42:29Z</time>
      </trkpt>
      <trkpt lat="42.9654" lon="0.00724">
        <ele>1548.34</ele>
        <time>2013-01-06T15:42:43Z</time>
      </trkpt>
      <trkpt lat="42.96554" lon="0.00719">
        <ele>1550.74</ele>
        <time>2013-01-06T15:42:54Z</time>
      </trkpt>
      <trkpt lat="42.96556" lon="0.0072">
        <ele>1551.22</ele>
        <time>2013-01-06T15:43:09Z</time>
      </trkpt>
      <trkpt lat="42.96558" lon="0.00722">
        <ele>1552.19</ele>
        <time>2013-01-06T15:43:25Z</time>
      </trkpt>
      <trkpt lat="42.96557" lon="0.00721">
        <ele>1553.15</ele>
        <time>2013-01-06T15:43:54Z</time>
      </trkpt>
      <trkpt lat="42.96558" lon="0.00721">
        <ele>1554.11</ele>
        <time>2013-01-06T15:44:25Z</time>
      </trkpt>
      <trkpt lat="42.96556" lon="0.00721">
        <ele>1555.55</ele>
        <time>2013-01-06T15:44:54Z</time>
      </trkpt>
      <trkpt lat="42.96555" lon="0.00721">
        <ele>1556.03</ele>
        <time>2013-01-06T15:45:14Z</time>
      </trkpt>
      <trkpt lat="42.96552" lon="0.00706">
        <ele>1557.47</ele>
        <time>2013-01-06T15:45:25Z</time>
      </trkpt>
      <trkpt lat="42.96551" lon="0.00702">
        <ele>1557.47</ele>
        <time>2013-01-06T15:45:28Z</time>
      </trkpt>
      <trkpt lat="42.9655" lon="0.00688">
        <ele>1558.92</ele>
        <time>2013-01-06T15:45:38Z</time>
      </trkpt>
      <trkpt lat="42.96549" lon="0.00676">
        <ele>1559.88</ele>
        <time>2013-01-06T15:45:44Z</time>
      </trkpt>
      <trkpt lat="42.96549" lon="0.00672">
        <ele>1560.36</ele>
        <time>2013-01-06T15:45:47Z</time>
      </trkpt>
      <trkpt lat="42.96551" lon="0.00656">
        <ele>1561.8</ele>
        <time>2013-01-06T15:45:59Z</time>
      </trkpt>
      <trkpt lat="42.9655" lon="0.00644">
        <ele>1563.24</ele>
        <time>2013-01-06T15:46:09Z</time>
      </trkpt>
      <trkpt lat="42.96551" lon="0.00643">
        <ele>1563.24</ele>
        <time>2013-01-06T15:46:10Z</time>
      </trkpt>
      <trkpt lat="42.96551" lon="0.0064">
        <ele>1563.72</ele>
        <time>2013-01-06T15:46:12Z</time>
      </trkpt>
      <trkpt lat="42.96551" lon="0.00635">
        <ele>1563.72</ele>
        <time>2013-01-06T15:46:15Z</time>
      </trkpt>
      <trkpt lat="42.96553" lon="0.00621">
        <ele>1564.68</ele>
        <time>2013-01-06T15:46:26Z</time>
      </trkpt>
      <trkpt lat="42.96553" lon="0.00613">
        <ele>1564.68</ele>
        <time>2013-01-06T15:46:32Z</time>
      </trkpt>
      <trkpt lat="42.96553" lon="0.00596">
        <ele>1565.16</ele>
        <time>2013-01-06T15:46:43Z</time>
      </trkpt>
      <trkpt lat="42.96554" lon="0.0059">
        <ele>1565.64</ele>
        <time>2013-01-06T15:46:48Z</time>
      </trkpt>
      <trkpt lat="42.96554" lon="0.00586">
        <ele>1566.12</ele>
        <time>2013-01-06T15:46:51Z</time>
      </trkpt>
      <trkpt lat="42.96555" lon="0.00583">
        <ele>1566.12</ele>
        <time>2013-01-06T15:46:53Z</time>
      </trkpt>
      <trkpt lat="42.96555" lon="0.00576">
        <ele>1565.64</ele>
        <time>2013-01-06T15:46:57Z</time>
      </trkpt>
      <trkpt lat="42.96554" lon="0.00564">
        <ele>1566.12</ele>
        <time>2013-01-06T15:47:03Z</time>
      </trkpt>
      <trkpt lat="42.96555" lon="0.00555">
        <ele>1566.61</ele>
        <time>2013-01-06T15:47:10Z</time>
      </trkpt>
      <trkpt lat="42.96557" lon="0.00546">
        <ele>1567.09</ele>
        <time>2013-01-06T15:47:17Z</time>
      </trkpt>
      <trkpt lat="42.96559" lon="0.00537">
        <ele>1567.09</ele>
        <time>2013-01-06T15:47:23Z</time>
      </trkpt>
      <trkpt lat="42.96559" lon="0.00532">
        <ele>1567.09</ele>
        <time>2013-01-06T15:47:26Z</time>
      </trkpt>
      <trkpt lat="42.96561" lon="0.00529">
        <ele>1567.57</ele>
        <time>2013-01-06T15:47:29Z</time>
      </trkpt>
      <trkpt lat="42.96565" lon="0.00522">
        <ele>1567.57</ele>
        <time>2013-01-06T15:47:35Z</time>
      </trkpt>
      <trkpt lat="42.96567" lon="0.00519">
        <ele>1568.05</ele>
        <time>2013-01-06T15:47:37Z</time>
      </trkpt>
      <trkpt lat="42.96573" lon="0.0051">
        <ele>1568.53</ele>
        <time>2013-01-06T15:47:45Z</time>
      </trkpt>
      <trkpt lat="42.96573" lon="0.005">
        <ele>1568.05</ele>
        <time>2013-01-06T15:47:50Z</time>
      </trkpt>
      <trkpt lat="42.96573" lon="0.00497">
        <ele>1568.53</ele>
        <time>2013-01-06T15:47:52Z</time>
      </trkpt>
      <trkpt lat="42.96574" lon="0.00495">
        <ele>1568.05</ele>
        <time>2013-01-06T15:47:54Z</time>
      </trkpt>
      <trkpt lat="42.96574" lon="0.0049">
        <ele>1568.53</ele>
        <time>2013-01-06T15:47:57Z</time>
      </trkpt>
      <trkpt lat="42.96576" lon="0.00489">
        <ele>1568.53</ele>
        <time>2013-01-06T15:47:58Z</time>
      </trkpt>
      <trkpt lat="42.96581" lon="0.00476">
        <ele>1568.05</ele>
        <time>2013-01-06T15:48:08Z</time>
      </trkpt>
      <trkpt lat="42.96583" lon="0.0046">
        <ele>1568.53</ele>
        <time>2013-01-06T15:48:19Z</time>
      </trkpt>
      <trkpt lat="42.96582" lon="0.00445">
        <ele>1569.01</ele>
        <time>2013-01-06T15:48:28Z</time>
      </trkpt>
      <trkpt lat="42.96582" lon="0.00439">
        <ele>1569.01</ele>
        <time>2013-01-06T15:48:32Z</time>
      </trkpt>
      <trkpt lat="42.96583" lon="0.00416">
        <ele>1568.53</ele>
        <time>2013-01-06T15:48:46Z</time>
      </trkpt>
      <trkpt lat="42.96582" lon="0.0041">
        <ele>1569.01</ele>
        <time>2013-01-06T15:48:50Z</time>
      </trkpt>
      <trkpt lat="42.96584" lon="0.00389">
        <ele>1568.05</ele>
        <time>2013-01-06T15:49:02Z</time>
      </trkpt>
      <trkpt lat="42.96584" lon="0.00382">
        <ele>1568.05</ele>
        <time>2013-01-06T15:49:06Z</time>
      </trkpt>
      <trkpt lat="42.96585" lon="0.00376">
        <ele>1567.57</ele>
        <time>2013-01-06T15:49:09Z</time>
      </trkpt>
      <trkpt lat="42.9659" lon="0.00356">
        <ele>1567.09</ele>
        <time>2013-01-06T15:49:22Z</time>
      </trkpt>
      <trkpt lat="42.96591" lon="0.00342">
        <ele>1567.09</ele>
        <time>2013-01-06T15:49:30Z</time>
      </trkpt>
      <trkpt lat="42.96591" lon="0.00333">
        <ele>1567.09</ele>
        <time>2013-01-06T15:49:35Z</time>
      </trkpt>
      <trkpt lat="42.9659" lon="0.00326">
        <ele>1566.61</ele>
        <time>2013-01-06T15:49:39Z</time>
      </trkpt>
      <trkpt lat="42.96588" lon="0.00321">
        <ele>1567.09</ele>
        <time>2013-01-06T15:49:44Z</time>
      </trkpt>
      <trkpt lat="42.96581" lon="0.00313">
        <ele>1567.09</ele>
        <time>2013-01-06T15:49:53Z</time>
      </trkpt>
      <trkpt lat="42.96572" lon="0.00308">
        <ele>1567.57</ele>
        <time>2013-01-06T15:50:01Z</time>
      </trkpt>
      <trkpt lat="42.96566" lon="0.00301">
        <ele>1568.05</ele>
        <time>2013-01-06T15:50:07Z</time>
      </trkpt>
      <trkpt lat="42.96559" lon="0.00292">
        <ele>1568.05</ele>
        <time>2013-01-06T15:50:14Z</time>
      </trkpt>
      <trkpt lat="42.96556" lon="0.00287">
        <ele>1568.05</ele>
        <time>2013-01-06T15:50:17Z</time>
      </trkpt>
      <trkpt lat="42.96552" lon="0.00275">
        <ele>1568.05</ele>
        <time>2013-01-06T15:50:24Z</time>
      </trkpt>
      <trkpt lat="42.96549" lon="0.00264">
        <ele>1567.57</ele>
        <time>2013-01-06T15:50:31Z</time>
      </trkpt>
      <trkpt lat="42.96545" lon="0.00257">
        <ele>1567.57</ele>
        <time>2013-01-06T15:50:35Z</time>
      </trkpt>
      <trkpt lat="42.96539" lon="0.00237">
        <ele>1567.57</ele>
        <time>2013-01-06T15:50:46Z</time>
      </trkpt>
      <trkpt lat="42.96536" lon="0.00227">
        <ele>1567.57</ele>
        <time>2013-01-06T15:50:51Z</time>
      </trkpt>
      <trkpt lat="42.96536" lon="0.00224">
        <ele>1567.09</ele>
        <time>2013-01-06T15:50:53Z</time>
      </trkpt>
      <trkpt lat="42.96523" lon="0.00202">
        <ele>1567.09</ele>
        <time>2013-01-06T15:51:04Z</time>
      </trkpt>
      <trkpt lat="42.9651" lon="0.00181">
        <ele>1567.57</ele>
        <time>2013-01-06T15:51:14Z</time>
      </trkpt>
      <trkpt lat="42.96502" lon="0.00166">
        <ele>1567.57</ele>
        <time>2013-01-06T15:51:25Z</time>
      </trkpt>
      <trkpt lat="42.96503" lon="0.00155">
        <ele>1567.57</ele>
        <time>2013-01-06T15:51:30Z</time>
      </trkpt>
      <trkpt lat="42.96508" lon="0.00146">
        <ele>1566.61</ele>
        <time>2013-01-06T15:51:36Z</time>
      </trkpt>
      <trkpt lat="42.96513" lon="0.00136">
        <ele>1566.61</ele>
        <time>2013-01-06T15:51:44Z</time>
      </trkpt>
      <trkpt lat="42.96515" lon="0.00133">
        <ele>1566.61</ele>
        <time>2013-01-06T15:51:47Z</time>
      </trkpt>
      <trkpt lat="42.96519" lon="0.00123">
        <ele>1566.61</ele>
        <time>2013-01-06T15:51:54Z</time>
      </trkpt>
      <trkpt lat="42.96524" lon="0.00117">
        <ele>1566.61</ele>
        <time>2013-01-06T15:52:00Z</time>
      </trkpt>
      <trkpt lat="42.96525" lon="0.0011">
        <ele>1566.12</ele>
        <time>2013-01-06T15:52:04Z</time>
      </trkpt>
      <trkpt lat="42.96528" lon="0.00103">
        <ele>1565.64</ele>
        <time>2013-01-06T15:52:09Z</time>
      </trkpt>
      <trkpt lat="42.96528" lon="0.00072">
        <ele>1566.12</ele>
        <time>2013-01-06T15:52:24Z</time>
      </trkpt>
      <trkpt lat="42.96523" lon="0.00057">
        <ele>1565.64</ele>
        <time>2013-01-06T15:52:32Z</time>
      </trkpt>
      <trkpt lat="42.9652" lon="0.0004">
        <ele>1566.61</ele>
        <time>2013-01-06T15:52:41Z</time>
      </trkpt>
      <trkpt lat="42.96519" lon="0.00021">
        <ele>1566.12</ele>
        <time>2013-01-06T15:52:51Z</time>
      </trkpt>
      <trkpt lat="42.9652" lon="0.0001">
        <ele>1566.61</ele>
        <time>2013-01-06T15:52:58Z</time>
      </trkpt>
      <trkpt lat="42.96523" lon="1.0E-5">
        <ele>1566.61</ele>
        <time>2013-01-06T15:53:07Z</time>
      </trkpt>
      <trkpt lat="42.96525" lon="-2.0E-5">
        <ele>1566.61</ele>
        <time>2013-01-06T15:53:09Z</time>
      </trkpt>
      <trkpt lat="42.96526" lon="-4.0E-5">
        <ele>1566.12</ele>
        <time>2013-01-06T15:53:11Z</time>
      </trkpt>
      <trkpt lat="42.96526" lon="-0.00014">
        <ele>1566.61</ele>
        <time>2013-01-06T15:53:17Z</time>
      </trkpt>
      <trkpt lat="42.96526" lon="-0.0002">
        <ele>1567.09</ele>
        <time>2013-01-06T15:53:21Z</time>
      </trkpt>
      <trkpt lat="42.96527" lon="-0.00022">
        <ele>1567.09</ele>
        <time>2013-01-06T15:53:23Z</time>
      </trkpt>
      <trkpt lat="42.96529" lon="-0.00039">
        <ele>1567.57</ele>
        <time>2013-01-06T15:53:35Z</time>
      </trkpt>
      <trkpt lat="42.96529" lon="-0.00045">
        <ele>1568.05</ele>
        <time>2013-01-06T15:53:39Z</time>
      </trkpt>
      <trkpt lat="42.96529" lon="-0.0005">
        <ele>1568.53</ele>
        <time>2013-01-06T15:53:43Z</time>
      </trkpt>
      <trkpt lat="42.9653" lon="-0.00052">
        <ele>1568.05</ele>
        <time>2013-01-06T15:53:45Z</time>
      </trkpt>
      <trkpt lat="42.9653" lon="-0.00059">
        <ele>1568.05</ele>
        <time>2013-01-06T15:53:49Z</time>
      </trkpt>
      <trkpt lat="42.96533" lon="-0.00071">
        <ele>1567.09</ele>
        <time>2013-01-06T15:53:59Z</time>
      </trkpt>
      <trkpt lat="42.96535" lon="-0.00076">
        <ele>1567.57</ele>
        <time>2013-01-06T15:54:06Z</time>
      </trkpt>
      <trkpt lat="42.96534" lon="-0.0008">
        <ele>1567.57</ele>
        <time>2013-01-06T15:54:08Z</time>
      </trkpt>
      <trkpt lat="42.96534" lon="-0.00089">
        <ele>1566.61</ele>
        <time>2013-01-06T15:54:15Z</time>
      </trkpt>
      <trkpt lat="42.96531" lon="-0.00098">
        <ele>1567.09</ele>
        <time>2013-01-06T15:54:21Z</time>
      </trkpt>
      <trkpt lat="42.96531" lon="-0.00109">
        <ele>1567.09</ele>
        <time>2013-01-06T15:54:29Z</time>
      </trkpt>
      <trkpt lat="42.96538" lon="-0.00121">
        <ele>1566.12</ele>
        <time>2013-01-06T15:54:42Z</time>
      </trkpt>
      <trkpt lat="42.96539" lon="-0.00122">
        <ele>1566.61</ele>
        <time>2013-01-06T15:54:44Z</time>
      </trkpt>
      <trkpt lat="42.9655" lon="-0.00133">
        <ele>1565.16</ele>
        <time>2013-01-06T15:55:00Z</time>
      </trkpt>
      <trkpt lat="42.96554" lon="-0.00139">
        <ele>1561.8</ele>
        <time>2013-01-06T15:55:09Z</time>
      </trkpt>
      <trkpt lat="42.96555" lon="-0.00139">
        <ele>1565.64</ele>
        <time>2013-01-06T15:55:10Z</time>
      </trkpt>
      <trkpt lat="42.96556" lon="-0.00138">
        <ele>1563.72</ele>
        <time>2013-01-06T15:55:25Z</time>
      </trkpt>
      <trkpt lat="42.9656" lon="-0.00139">
        <ele>1563.72</ele>
        <time>2013-01-06T15:55:40Z</time>
      </trkpt>
      <trkpt lat="42.96566" lon="-0.00143">
        <ele>1560.84</ele>
        <time>2013-01-06T15:55:53Z</time>
      </trkpt>
      <trkpt lat="42.96572" lon="-0.00147">
        <ele>1557.95</ele>
        <time>2013-01-06T15:56:05Z</time>
      </trkpt>
      <trkpt lat="42.96574" lon="-0.00149">
        <ele>1556.51</ele>
        <time>2013-01-06T15:56:07Z</time>
      </trkpt>
      <trkpt lat="42.96575" lon="-0.00151">
        <ele>1556.51</ele>
        <time>2013-01-06T15:56:09Z</time>
      </trkpt>
      <trkpt lat="42.96583" lon="-0.00156">
        <ele>1553.15</ele>
        <time>2013-01-06T15:56:19Z</time>
      </trkpt>
      <trkpt lat="42.96587" lon="-0.00156">
        <ele>1551.71</ele>
        <time>2013-01-06T15:56:23Z</time>
      </trkpt>
      <trkpt lat="42.96593" lon="-0.00152">
        <ele>1548.34</ele>
        <time>2013-01-06T15:56:31Z</time>
      </trkpt>
      <trkpt lat="42.96594" lon="-0.00154">
        <ele>1547.86</ele>
        <time>2013-01-06T15:56:36Z</time>
      </trkpt>
      <trkpt lat="42.96603" lon="-0.00158">
        <ele>1544.5</ele>
        <time>2013-01-06T15:56:46Z</time>
      </trkpt>
      <trkpt lat="42.96608" lon="-0.00163">
        <ele>1542.09</ele>
        <time>2013-01-06T15:57:00Z</time>
      </trkpt>
      <trkpt lat="42.96614" lon="-0.00167">
        <ele>1540.17</ele>
        <time>2013-01-06T15:57:06Z</time>
      </trkpt>
      <trkpt lat="42.96623" lon="-0.00176">
        <ele>1537.29</ele>
        <time>2013-01-06T15:57:17Z</time>
      </trkpt>
      <trkpt lat="42.96624" lon="-0.00177">
        <ele>1537.29</ele>
        <time>2013-01-06T15:57:18Z</time>
      </trkpt>
      <trkpt lat="42.96633" lon="-0.00185">
        <ele>1533.92</ele>
        <time>2013-01-06T15:57:29Z</time>
      </trkpt>
      <trkpt lat="42.96639" lon="-0.00193">
        <ele>1530.56</ele>
        <time>2013-01-06T15:57:37Z</time>
      </trkpt>
      <trkpt lat="42.9664" lon="-0.00194">
        <ele>1530.08</ele>
        <time>2013-01-06T15:57:38Z</time>
      </trkpt>
      <trkpt lat="42.96643" lon="-0.00197">
        <ele>1528.63</ele>
        <time>2013-01-06T15:57:42Z</time>
      </trkpt>
      <trkpt lat="42.96643" lon="-0.00197">
        <ele>1527.19</ele>
        <time>2013-01-06T15:57:45Z</time>
      </trkpt>
      <trkpt lat="42.96652" lon="-0.00204">
        <ele>1524.79</ele>
        <time>2013-01-06T15:58:02Z</time>
      </trkpt>
      <trkpt lat="42.96658" lon="-0.0021">
        <ele>1521.9</ele>
        <time>2013-01-06T15:58:10Z</time>
      </trkpt>
      <trkpt lat="42.9666" lon="-0.00211">
        <ele>1520.94</ele>
        <time>2013-01-06T15:58:12Z</time>
      </trkpt>
      <trkpt lat="42.96671" lon="-0.00219">
        <ele>1517.58</ele>
        <time>2013-01-06T15:58:23Z</time>
      </trkpt>
      <trkpt lat="42.96683" lon="-0.00227">
        <ele>1514.69</ele>
        <time>2013-01-06T15:58:35Z</time>
      </trkpt>
      <trkpt lat="42.96688" lon="-0.0023">
        <ele>1513.25</ele>
        <time>2013-01-06T15:58:39Z</time>
      </trkpt>
      <trkpt lat="42.9669" lon="-0.0023">
        <ele>1513.25</ele>
        <time>2013-01-06T15:58:40Z</time>
      </trkpt>
      <trkpt lat="42.96706" lon="-0.00234">
        <ele>1509.41</ele>
        <time>2013-01-06T15:58:51Z</time>
      </trkpt>
      <trkpt lat="42.96715" lon="-0.00235">
        <ele>1507</ele>
        <time>2013-01-06T15:58:57Z</time>
      </trkpt>
      <trkpt lat="42.96732" lon="-0.00241">
        <ele>1503.64</ele>
        <time>2013-01-06T15:59:10Z</time>
      </trkpt>
      <trkpt lat="42.96746" lon="-0.00245">
        <ele>1500.76</ele>
        <time>2013-01-06T15:59:23Z</time>
      </trkpt>
      <trkpt lat="42.96754" lon="-0.0025">
        <ele>1500.76</ele>
        <time>2013-01-06T15:59:38Z</time>
      </trkpt>
      <trkpt lat="42.9677" lon="-0.00257">
        <ele>1498.83</ele>
        <time>2013-01-06T15:59:51Z</time>
      </trkpt>
      <trkpt lat="42.96781" lon="-0.00261">
        <ele>1497.87</ele>
        <time>2013-01-06T16:00:01Z</time>
      </trkpt>
      <trkpt lat="42.96794" lon="-0.00261">
        <ele>1499.79</ele>
        <time>2013-01-06T16:00:13Z</time>
      </trkpt>
      <trkpt lat="42.96801" lon="-0.00275">
        <ele>1502.2</ele>
        <time>2013-01-06T16:00:26Z</time>
      </trkpt>
      <trkpt lat="42.96804" lon="-0.00276">
        <ele>1501.72</ele>
        <time>2013-01-06T16:00:41Z</time>
      </trkpt>
      <trkpt lat="42.96804" lon="-0.00277">
        <ele>1502.2</ele>
        <time>2013-01-06T16:01:00Z</time>
      </trkpt>
      <trkpt lat="42.96803" lon="-0.00277">
        <ele>1502.2</ele>
        <time>2013-01-06T16:01:14Z</time>
      </trkpt>
      <trkpt lat="42.96815" lon="-0.00276">
        <ele>1501.24</ele>
        <time>2013-01-06T16:01:26Z</time>
      </trkpt>
      <trkpt lat="42.96827" lon="-0.00272">
        <ele>1500.76</ele>
        <time>2013-01-06T16:01:43Z</time>
      </trkpt>
      <trkpt lat="42.96839" lon="-0.0027">
        <ele>1501.24</ele>
        <time>2013-01-06T16:02:04Z</time>
      </trkpt>
      <trkpt lat="42.96844" lon="-0.00269">
        <ele>1501.24</ele>
        <time>2013-01-06T16:02:16Z</time>
      </trkpt>
      <trkpt lat="42.96849" lon="-0.00263">
        <ele>1500.76</ele>
        <time>2013-01-06T16:02:37Z</time>
      </trkpt>
      <trkpt lat="42.96846" lon="-0.00265">
        <ele>1500.27</ele>
        <time>2013-01-06T16:02:55Z</time>
      </trkpt>
      <trkpt lat="42.96843" lon="-0.00263">
        <ele>1500.27</ele>
        <time>2013-01-06T16:03:12Z</time>
      </trkpt>
      <trkpt lat="42.9685" lon="-0.00255">
        <ele>1500.27</ele>
        <time>2013-01-06T16:03:33Z</time>
      </trkpt>
    </trkseg>
  </trk>
</gpx>